<?xml version="1.0" encoding="UTF-8" standalone="no" ?>
<gpx xmlns="http://www.topografix.com/GPX/1/1" xmlns:xsi="http://www.w3.org/2001/XMLSchema-instance" xsi:schemaLocation="http://www.topografix.com/GPX/1/1 http://www.topografix.com/GPX/1/1/gpx.xsd" version="1.1" creator="VisuGPX - https://www.visugpx.com">
  <metadata>
    <name>Ultra Trail du Minervois 2021 - 82 km sur TraceDeTrail.fr</name>
  </metadata>
  <trk>
    <name><![CDATA[Ultra Trail du Minervois 2021 - 82 km sur TraceDeTrail.fr]]></name>
    <trkseg>
      <trkpt lat="43.28031" lon="2.66082">
        <ele>88</ele>
        <time>2020-10-11T11:14:58.000Z</time>
      </trkpt>
      <trkpt lat="43.2801" lon="2.66088">
        <ele>86</ele>
        <time>2020-10-11T11:15:09.000Z</time>
      </trkpt>
      <trkpt lat="43.27952" lon="2.66092">
        <ele>87</ele>
        <time>2020-10-11T11:15:22.000Z</time>
      </trkpt>
      <trkpt lat="43.27938" lon="2.6609">
        <ele>87</ele>
        <time>2020-10-11T11:15:25.000Z</time>
      </trkpt>
      <trkpt lat="43.27929" lon="2.66089">
        <ele>87</ele>
        <time>2020-10-11T11:15:27.000Z</time>
      </trkpt>
      <trkpt lat="43.27911" lon="2.66079">
        <ele>88</ele>
        <time>2020-10-11T11:15:31.000Z</time>
      </trkpt>
      <trkpt lat="43.27907" lon="2.66078">
        <ele>88</ele>
        <time>2020-10-11T11:15:32.000Z</time>
      </trkpt>
      <trkpt lat="43.27898" lon="2.66076">
        <ele>88</ele>
        <time>2020-10-11T11:15:34.000Z</time>
      </trkpt>
      <trkpt lat="43.27879" lon="2.66074">
        <ele>88</ele>
        <time>2020-10-11T11:15:38.000Z</time>
      </trkpt>
      <trkpt lat="43.27869" lon="2.66075">
        <ele>88</ele>
        <time>2020-10-11T11:15:40.000Z</time>
      </trkpt>
      <trkpt lat="43.27851" lon="2.6608">
        <ele>88</ele>
        <time>2020-10-11T11:15:44.000Z</time>
      </trkpt>
      <trkpt lat="43.27831" lon="2.66083">
        <ele>89</ele>
        <time>2020-10-11T11:15:48.000Z</time>
      </trkpt>
      <trkpt lat="43.27821" lon="2.66084">
        <ele>89</ele>
        <time>2020-10-11T11:15:50.000Z</time>
      </trkpt>
      <trkpt lat="43.27803" lon="2.66084">
        <ele>89</ele>
        <time>2020-10-11T11:15:54.000Z</time>
      </trkpt>
      <trkpt lat="43.27793" lon="2.66078">
        <ele>90</ele>
        <time>2020-10-11T11:15:56.000Z</time>
      </trkpt>
      <trkpt lat="43.27789" lon="2.6606">
        <ele>90</ele>
        <time>2020-10-11T11:15:59.000Z</time>
      </trkpt>
      <trkpt lat="43.27792" lon="2.65997">
        <ele>90</ele>
        <time>2020-10-11T11:16:08.000Z</time>
      </trkpt>
      <trkpt lat="43.2779" lon="2.65949">
        <ele>90</ele>
        <time>2020-10-11T11:16:15.000Z</time>
      </trkpt>
      <trkpt lat="43.2779" lon="2.65891">
        <ele>89</ele>
        <time>2020-10-11T11:16:23.000Z</time>
      </trkpt>
      <trkpt lat="43.27785" lon="2.65864">
        <ele>89</ele>
        <time>2020-10-11T11:16:27.000Z</time>
      </trkpt>
      <trkpt lat="43.27779" lon="2.65851">
        <ele>89</ele>
        <time>2020-10-11T11:16:29.000Z</time>
      </trkpt>
      <trkpt lat="43.27764" lon="2.65827">
        <ele>89</ele>
        <time>2020-10-11T11:16:33.000Z</time>
      </trkpt>
      <trkpt lat="43.2776" lon="2.65823">
        <ele>89</ele>
        <time>2020-10-11T11:16:34.000Z</time>
      </trkpt>
      <trkpt lat="43.27742" lon="2.65807">
        <ele>89</ele>
        <time>2020-10-11T11:16:38.000Z</time>
      </trkpt>
      <trkpt lat="43.27722" lon="2.6579">
        <ele>89</ele>
        <time>2020-10-11T11:16:42.000Z</time>
      </trkpt>
      <trkpt lat="43.27717" lon="2.65788">
        <ele>89</ele>
        <time>2020-10-11T11:16:44.000Z</time>
      </trkpt>
      <trkpt lat="43.27704" lon="2.65782">
        <ele>89</ele>
        <time>2020-10-11T11:16:47.000Z</time>
      </trkpt>
      <trkpt lat="43.27692" lon="2.65772">
        <ele>88</ele>
        <time>2020-10-11T11:16:50.000Z</time>
      </trkpt>
      <trkpt lat="43.2769" lon="2.65767">
        <ele>88</ele>
        <time>2020-10-11T11:16:51.000Z</time>
      </trkpt>
      <trkpt lat="43.2769" lon="2.65762">
        <ele>87</ele>
        <time>2020-10-11T11:16:52.000Z</time>
      </trkpt>
      <trkpt lat="43.27692" lon="2.6575">
        <ele>86</ele>
        <time>2020-10-11T11:16:54.000Z</time>
      </trkpt>
      <trkpt lat="43.27695" lon="2.65736">
        <ele>86</ele>
        <time>2020-10-11T11:16:56.000Z</time>
      </trkpt>
      <trkpt lat="43.27697" lon="2.65725">
        <ele>86</ele>
        <time>2020-10-11T11:16:58.000Z</time>
      </trkpt>
      <trkpt lat="43.27701" lon="2.65714">
        <ele>86</ele>
        <time>2020-10-11T11:17:00.000Z</time>
      </trkpt>
      <trkpt lat="43.27707" lon="2.65704">
        <ele>86</ele>
        <time>2020-10-11T11:17:04.000Z</time>
      </trkpt>
      <trkpt lat="43.27711" lon="2.65693">
        <ele>87</ele>
        <time>2020-10-11T11:17:07.000Z</time>
      </trkpt>
      <trkpt lat="43.27722" lon="2.65669">
        <ele>84</ele>
        <time>2020-10-11T11:17:11.000Z</time>
      </trkpt>
      <trkpt lat="43.2773" lon="2.65646">
        <ele>81</ele>
        <time>2020-10-11T11:17:16.000Z</time>
      </trkpt>
      <trkpt lat="43.27731" lon="2.6564">
        <ele>81</ele>
        <time>2020-10-11T11:17:17.000Z</time>
      </trkpt>
      <trkpt lat="43.27735" lon="2.65608">
        <ele>78</ele>
        <time>2020-10-11T11:17:22.000Z</time>
      </trkpt>
      <trkpt lat="43.27736" lon="2.65595">
        <ele>77</ele>
        <time>2020-10-11T11:17:24.000Z</time>
      </trkpt>
      <trkpt lat="43.27736" lon="2.65569">
        <ele>75</ele>
        <time>2020-10-11T11:17:28.000Z</time>
      </trkpt>
      <trkpt lat="43.27736" lon="2.65548">
        <ele>73</ele>
        <time>2020-10-11T11:17:31.000Z</time>
      </trkpt>
      <trkpt lat="43.27736" lon="2.65534">
        <ele>72</ele>
        <time>2020-10-11T11:17:33.000Z</time>
      </trkpt>
      <trkpt lat="43.27732" lon="2.65504">
        <ele>69</ele>
        <time>2020-10-11T11:17:38.000Z</time>
      </trkpt>
      <trkpt lat="43.27732" lon="2.65498">
        <ele>68</ele>
        <time>2020-10-11T11:17:39.000Z</time>
      </trkpt>
      <trkpt lat="43.27736" lon="2.65484">
        <ele>65</ele>
        <time>2020-10-11T11:17:42.000Z</time>
      </trkpt>
      <trkpt lat="43.27734" lon="2.65473">
        <ele>64</ele>
        <time>2020-10-11T11:17:45.000Z</time>
      </trkpt>
      <trkpt lat="43.27732" lon="2.65467">
        <ele>63</ele>
        <time>2020-10-11T11:17:47.000Z</time>
      </trkpt>
      <trkpt lat="43.27732" lon="2.65464">
        <ele>63</ele>
        <time>2020-10-11T11:17:50.000Z</time>
      </trkpt>
      <trkpt lat="43.27735" lon="2.65461">
        <ele>64</ele>
        <time>2020-10-11T11:17:56.000Z</time>
      </trkpt>
      <trkpt lat="43.2774" lon="2.6546">
        <ele>66</ele>
        <time>2020-10-11T11:18:02.000Z</time>
      </trkpt>
      <trkpt lat="43.27741" lon="2.65459">
        <ele>66</ele>
        <time>2020-10-11T11:18:05.000Z</time>
      </trkpt>
      <trkpt lat="43.27755" lon="2.65432">
        <ele>65</ele>
        <time>2020-10-11T11:18:15.000Z</time>
      </trkpt>
      <trkpt lat="43.27764" lon="2.65418">
        <ele>64</ele>
        <time>2020-10-11T11:18:19.000Z</time>
      </trkpt>
      <trkpt lat="43.27772" lon="2.65401">
        <ele>65</ele>
        <time>2020-10-11T11:18:23.000Z</time>
      </trkpt>
      <trkpt lat="43.27794" lon="2.65356">
        <ele>66</ele>
        <time>2020-10-11T11:18:34.000Z</time>
      </trkpt>
      <trkpt lat="43.27812" lon="2.65316">
        <ele>66</ele>
        <time>2020-10-11T11:18:43.000Z</time>
      </trkpt>
      <trkpt lat="43.2783" lon="2.65276">
        <ele>66</ele>
        <time>2020-10-11T11:18:52.000Z</time>
      </trkpt>
      <trkpt lat="43.27853" lon="2.65207">
        <ele>67</ele>
        <time>2020-10-11T11:19:07.000Z</time>
      </trkpt>
      <trkpt lat="43.27858" lon="2.65191">
        <ele>67</ele>
        <time>2020-10-11T11:19:10.000Z</time>
      </trkpt>
      <trkpt lat="43.27873" lon="2.65147">
        <ele>67</ele>
        <time>2020-10-11T11:19:20.000Z</time>
      </trkpt>
      <trkpt lat="43.27882" lon="2.65118">
        <ele>67</ele>
        <time>2020-10-11T11:19:26.000Z</time>
      </trkpt>
      <trkpt lat="43.27885" lon="2.6511">
        <ele>67</ele>
        <time>2020-10-11T11:19:28.000Z</time>
      </trkpt>
      <trkpt lat="43.27893" lon="2.65087">
        <ele>68</ele>
        <time>2020-10-11T11:19:33.000Z</time>
      </trkpt>
      <trkpt lat="43.27912" lon="2.6504">
        <ele>66</ele>
        <time>2020-10-11T11:19:44.000Z</time>
      </trkpt>
      <trkpt lat="43.27924" lon="2.65015">
        <ele>67</ele>
        <time>2020-10-11T11:19:50.000Z</time>
      </trkpt>
      <trkpt lat="43.27948" lon="2.6497">
        <ele>66</ele>
        <time>2020-10-11T11:20:01.000Z</time>
      </trkpt>
      <trkpt lat="43.27961" lon="2.64948">
        <ele>67</ele>
        <time>2020-10-11T11:20:07.000Z</time>
      </trkpt>
      <trkpt lat="43.27976" lon="2.64929">
        <ele>68</ele>
        <time>2020-10-11T11:20:13.000Z</time>
      </trkpt>
      <trkpt lat="43.27998" lon="2.64897">
        <ele>70</ele>
        <time>2020-10-11T11:20:22.000Z</time>
      </trkpt>
      <trkpt lat="43.28109" lon="2.64734">
        <ele>71</ele>
        <time>2020-10-11T11:21:07.000Z</time>
      </trkpt>
      <trkpt lat="43.28158" lon="2.64663">
        <ele>72</ele>
        <time>2020-10-11T11:21:27.000Z</time>
      </trkpt>
      <trkpt lat="43.2823" lon="2.64556">
        <ele>74</ele>
        <time>2020-10-11T11:21:57.000Z</time>
      </trkpt>
      <trkpt lat="43.28276" lon="2.64493">
        <ele>75</ele>
        <time>2020-10-11T11:22:15.000Z</time>
      </trkpt>
      <trkpt lat="43.28296" lon="2.64469">
        <ele>75</ele>
        <time>2020-10-11T11:22:22.000Z</time>
      </trkpt>
      <trkpt lat="43.28313" lon="2.6445">
        <ele>76</ele>
        <time>2020-10-11T11:22:28.000Z</time>
      </trkpt>
      <trkpt lat="43.28327" lon="2.64436">
        <ele>76</ele>
        <time>2020-10-11T11:22:33.000Z</time>
      </trkpt>
      <trkpt lat="43.28359" lon="2.64408">
        <ele>77</ele>
        <time>2020-10-11T11:22:43.000Z</time>
      </trkpt>
      <trkpt lat="43.28382" lon="2.6439">
        <ele>75</ele>
        <time>2020-10-11T11:22:51.000Z</time>
      </trkpt>
      <trkpt lat="43.28403" lon="2.64376">
        <ele>77</ele>
        <time>2020-10-11T11:22:58.000Z</time>
      </trkpt>
      <trkpt lat="43.28416" lon="2.64366">
        <ele>77</ele>
        <time>2020-10-11T11:23:03.000Z</time>
      </trkpt>
      <trkpt lat="43.28421" lon="2.64364">
        <ele>76</ele>
        <time>2020-10-11T11:23:05.000Z</time>
      </trkpt>
      <trkpt lat="43.28426" lon="2.64363">
        <ele>77</ele>
        <time>2020-10-11T11:23:07.000Z</time>
      </trkpt>
      <trkpt lat="43.28443" lon="2.64358">
        <ele>77</ele>
        <time>2020-10-11T11:23:13.000Z</time>
      </trkpt>
      <trkpt lat="43.28469" lon="2.64344">
        <ele>79</ele>
        <time>2020-10-11T11:23:22.000Z</time>
      </trkpt>
      <trkpt lat="43.28486" lon="2.64332">
        <ele>79</ele>
        <time>2020-10-11T11:23:29.000Z</time>
      </trkpt>
      <trkpt lat="43.28567" lon="2.64268">
        <ele>78</ele>
        <time>2020-10-11T11:23:53.000Z</time>
      </trkpt>
      <trkpt lat="43.28577" lon="2.64258">
        <ele>77</ele>
        <time>2020-10-11T11:23:56.000Z</time>
      </trkpt>
      <trkpt lat="43.28582" lon="2.64251">
        <ele>77</ele>
        <time>2020-10-11T11:23:58.000Z</time>
      </trkpt>
      <trkpt lat="43.28589" lon="2.64245">
        <ele>78</ele>
        <time>2020-10-11T11:24:00.000Z</time>
      </trkpt>
      <trkpt lat="43.28592" lon="2.64244">
        <ele>78</ele>
        <time>2020-10-11T11:24:01.000Z</time>
      </trkpt>
      <trkpt lat="43.28599" lon="2.64245">
        <ele>78</ele>
        <time>2020-10-11T11:24:03.000Z</time>
      </trkpt>
      <trkpt lat="43.28635" lon="2.64257">
        <ele>82</ele>
        <time>2020-10-11T11:24:16.000Z</time>
      </trkpt>
      <trkpt lat="43.28645" lon="2.64259">
        <ele>83</ele>
        <time>2020-10-11T11:24:20.000Z</time>
      </trkpt>
      <trkpt lat="43.28656" lon="2.6426">
        <ele>84</ele>
        <time>2020-10-11T11:24:25.000Z</time>
      </trkpt>
      <trkpt lat="43.28668" lon="2.64264">
        <ele>86</ele>
        <time>2020-10-11T11:24:31.000Z</time>
      </trkpt>
      <trkpt lat="43.28694" lon="2.64269">
        <ele>89</ele>
        <time>2020-10-11T11:24:43.000Z</time>
      </trkpt>
      <trkpt lat="43.28714" lon="2.64272">
        <ele>90</ele>
        <time>2020-10-11T11:24:52.000Z</time>
      </trkpt>
      <trkpt lat="43.28731" lon="2.64275">
        <ele>91</ele>
        <time>2020-10-11T11:24:59.000Z</time>
      </trkpt>
      <trkpt lat="43.28744" lon="2.64274">
        <ele>90</ele>
        <time>2020-10-11T11:25:04.000Z</time>
      </trkpt>
      <trkpt lat="43.28749" lon="2.64271">
        <ele>90</ele>
        <time>2020-10-11T11:25:06.000Z</time>
      </trkpt>
      <trkpt lat="43.28756" lon="2.64265">
        <ele>90</ele>
        <time>2020-10-11T11:25:09.000Z</time>
      </trkpt>
      <trkpt lat="43.28789" lon="2.6423">
        <ele>90</ele>
        <time>2020-10-11T11:25:24.000Z</time>
      </trkpt>
      <trkpt lat="43.288" lon="2.64217">
        <ele>90</ele>
        <time>2020-10-11T11:25:30.000Z</time>
      </trkpt>
      <trkpt lat="43.2881" lon="2.64207">
        <ele>92</ele>
        <time>2020-10-11T11:25:35.000Z</time>
      </trkpt>
      <trkpt lat="43.28827" lon="2.64187">
        <ele>94</ele>
        <time>2020-10-11T11:25:44.000Z</time>
      </trkpt>
      <trkpt lat="43.28832" lon="2.64183">
        <ele>95</ele>
        <time>2020-10-11T11:25:46.000Z</time>
      </trkpt>
      <trkpt lat="43.28858" lon="2.6417">
        <ele>95</ele>
        <time>2020-10-11T11:25:56.000Z</time>
      </trkpt>
      <trkpt lat="43.28878" lon="2.64153">
        <ele>95</ele>
        <time>2020-10-11T11:26:05.000Z</time>
      </trkpt>
      <trkpt lat="43.28885" lon="2.64151">
        <ele>96</ele>
        <time>2020-10-11T11:26:08.000Z</time>
      </trkpt>
      <trkpt lat="43.28889" lon="2.64144">
        <ele>96</ele>
        <time>2020-10-11T11:26:11.000Z</time>
      </trkpt>
      <trkpt lat="43.28893" lon="2.64094">
        <ele>98</ele>
        <time>2020-10-11T11:26:25.000Z</time>
      </trkpt>
      <trkpt lat="43.28893" lon="2.64068">
        <ele>100</ele>
        <time>2020-10-11T11:26:33.000Z</time>
      </trkpt>
      <trkpt lat="43.28892" lon="2.6405">
        <ele>100</ele>
        <time>2020-10-11T11:26:38.000Z</time>
      </trkpt>
      <trkpt lat="43.28891" lon="2.64042">
        <ele>100</ele>
        <time>2020-10-11T11:26:40.000Z</time>
      </trkpt>
      <trkpt lat="43.2889" lon="2.64027">
        <ele>100</ele>
        <time>2020-10-11T11:26:44.000Z</time>
      </trkpt>
      <trkpt lat="43.2889" lon="2.64009">
        <ele>100</ele>
        <time>2020-10-11T11:26:49.000Z</time>
      </trkpt>
      <trkpt lat="43.28892" lon="2.63988">
        <ele>102</ele>
        <time>2020-10-11T11:26:55.000Z</time>
      </trkpt>
      <trkpt lat="43.28892" lon="2.63963">
        <ele>101</ele>
        <time>2020-10-11T11:27:02.000Z</time>
      </trkpt>
      <trkpt lat="43.28894" lon="2.63949">
        <ele>100</ele>
        <time>2020-10-11T11:27:06.000Z</time>
      </trkpt>
      <trkpt lat="43.289" lon="2.63921">
        <ele>101</ele>
        <time>2020-10-11T11:27:15.000Z</time>
      </trkpt>
      <trkpt lat="43.28905" lon="2.63904">
        <ele>101</ele>
        <time>2020-10-11T11:27:20.000Z</time>
      </trkpt>
      <trkpt lat="43.28911" lon="2.63884">
        <ele>100</ele>
        <time>2020-10-11T11:27:26.000Z</time>
      </trkpt>
      <trkpt lat="43.28915" lon="2.63872">
        <ele>102</ele>
        <time>2020-10-11T11:27:30.000Z</time>
      </trkpt>
      <trkpt lat="43.28922" lon="2.63847">
        <ele>102</ele>
        <time>2020-10-11T11:27:38.000Z</time>
      </trkpt>
      <trkpt lat="43.28926" lon="2.63834">
        <ele>102</ele>
        <time>2020-10-11T11:27:42.000Z</time>
      </trkpt>
      <trkpt lat="43.28933" lon="2.63816">
        <ele>104</ele>
        <time>2020-10-11T11:27:48.000Z</time>
      </trkpt>
      <trkpt lat="43.2895" lon="2.63778">
        <ele>106</ele>
        <time>2020-10-11T11:28:00.000Z</time>
      </trkpt>
      <trkpt lat="43.28958" lon="2.63757">
        <ele>106</ele>
        <time>2020-10-11T11:28:06.000Z</time>
      </trkpt>
      <trkpt lat="43.28964" lon="2.63737">
        <ele>107</ele>
        <time>2020-10-11T11:28:12.000Z</time>
      </trkpt>
      <trkpt lat="43.28974" lon="2.6372">
        <ele>106</ele>
        <time>2020-10-11T11:28:18.000Z</time>
      </trkpt>
      <trkpt lat="43.29006" lon="2.6368">
        <ele>107</ele>
        <time>2020-10-11T11:28:33.000Z</time>
      </trkpt>
      <trkpt lat="43.29008" lon="2.63677">
        <ele>107</ele>
        <time>2020-10-11T11:28:34.000Z</time>
      </trkpt>
      <trkpt lat="43.29012" lon="2.63666">
        <ele>107</ele>
        <time>2020-10-11T11:28:37.000Z</time>
      </trkpt>
      <trkpt lat="43.29015" lon="2.63635">
        <ele>107</ele>
        <time>2020-10-11T11:28:43.000Z</time>
      </trkpt>
      <trkpt lat="43.29016" lon="2.63626">
        <ele>108</ele>
        <time>2020-10-11T11:28:45.000Z</time>
      </trkpt>
      <trkpt lat="43.29024" lon="2.6361">
        <ele>108</ele>
        <time>2020-10-11T11:28:49.000Z</time>
      </trkpt>
      <trkpt lat="43.29028" lon="2.63603">
        <ele>108</ele>
        <time>2020-10-11T11:28:51.000Z</time>
      </trkpt>
      <trkpt lat="43.29044" lon="2.63584">
        <ele>107</ele>
        <time>2020-10-11T11:28:57.000Z</time>
      </trkpt>
      <trkpt lat="43.29056" lon="2.63573">
        <ele>107</ele>
        <time>2020-10-11T11:29:01.000Z</time>
      </trkpt>
      <trkpt lat="43.29145" lon="2.63495">
        <ele>109</ele>
        <time>2020-10-11T11:29:34.000Z</time>
      </trkpt>
      <trkpt lat="43.29181" lon="2.63469">
        <ele>112</ele>
        <time>2020-10-11T11:29:48.000Z</time>
      </trkpt>
      <trkpt lat="43.2919" lon="2.63459">
        <ele>112</ele>
        <time>2020-10-11T11:29:54.000Z</time>
      </trkpt>
      <trkpt lat="43.29207" lon="2.63441">
        <ele>112</ele>
        <time>2020-10-11T11:30:03.000Z</time>
      </trkpt>
      <trkpt lat="43.29218" lon="2.63432">
        <ele>112</ele>
        <time>2020-10-11T11:30:08.000Z</time>
      </trkpt>
      <trkpt lat="43.29227" lon="2.63424">
        <ele>113</ele>
        <time>2020-10-11T11:30:12.000Z</time>
      </trkpt>
      <trkpt lat="43.2924" lon="2.63418">
        <ele>113</ele>
        <time>2020-10-11T11:30:17.000Z</time>
      </trkpt>
      <trkpt lat="43.29245" lon="2.63416">
        <ele>113</ele>
        <time>2020-10-11T11:30:19.000Z</time>
      </trkpt>
      <trkpt lat="43.29253" lon="2.63412">
        <ele>113</ele>
        <time>2020-10-11T11:30:22.000Z</time>
      </trkpt>
      <trkpt lat="43.29278" lon="2.63401">
        <ele>115</ele>
        <time>2020-10-11T11:30:32.000Z</time>
      </trkpt>
      <trkpt lat="43.29284" lon="2.634">
        <ele>115</ele>
        <time>2020-10-11T11:30:34.000Z</time>
      </trkpt>
      <trkpt lat="43.29292" lon="2.63401">
        <ele>115</ele>
        <time>2020-10-11T11:30:37.000Z</time>
      </trkpt>
      <trkpt lat="43.2931" lon="2.63412">
        <ele>116</ele>
        <time>2020-10-11T11:30:44.000Z</time>
      </trkpt>
      <trkpt lat="43.29322" lon="2.63421">
        <ele>116</ele>
        <time>2020-10-11T11:30:49.000Z</time>
      </trkpt>
      <trkpt lat="43.2933" lon="2.63426">
        <ele>116</ele>
        <time>2020-10-11T11:30:52.000Z</time>
      </trkpt>
      <trkpt lat="43.29338" lon="2.63435">
        <ele>116</ele>
        <time>2020-10-11T11:30:57.000Z</time>
      </trkpt>
      <trkpt lat="43.29339" lon="2.63434">
        <ele>116</ele>
        <time>2020-10-11T11:30:58.000Z</time>
      </trkpt>
      <trkpt lat="43.29339" lon="2.63433">
        <ele>116</ele>
        <time>2020-10-11T11:30:59.000Z</time>
      </trkpt>
      <trkpt lat="43.29335" lon="2.63424">
        <ele>114</ele>
        <time>2020-10-11T11:31:02.000Z</time>
      </trkpt>
      <trkpt lat="43.29322" lon="2.63401">
        <ele>108</ele>
        <time>2020-10-11T11:31:07.000Z</time>
      </trkpt>
      <trkpt lat="43.29316" lon="2.63389">
        <ele>105</ele>
        <time>2020-10-11T11:31:09.000Z</time>
      </trkpt>
      <trkpt lat="43.29309" lon="2.63376">
        <ele>103</ele>
        <time>2020-10-11T11:31:11.000Z</time>
      </trkpt>
      <trkpt lat="43.29304" lon="2.6337">
        <ele>103</ele>
        <time>2020-10-11T11:31:12.000Z</time>
      </trkpt>
      <trkpt lat="43.293" lon="2.63364">
        <ele>103</ele>
        <time>2020-10-11T11:31:13.000Z</time>
      </trkpt>
      <trkpt lat="43.29283" lon="2.63348">
        <ele>103</ele>
        <time>2020-10-11T11:31:16.000Z</time>
      </trkpt>
      <trkpt lat="43.29277" lon="2.63344">
        <ele>103</ele>
        <time>2020-10-11T11:31:17.000Z</time>
      </trkpt>
      <trkpt lat="43.29271" lon="2.63341">
        <ele>104</ele>
        <time>2020-10-11T11:31:18.000Z</time>
      </trkpt>
      <trkpt lat="43.29253" lon="2.63334">
        <ele>102</ele>
        <time>2020-10-11T11:31:21.000Z</time>
      </trkpt>
      <trkpt lat="43.29247" lon="2.63331">
        <ele>101</ele>
        <time>2020-10-11T11:31:22.000Z</time>
      </trkpt>
      <trkpt lat="43.29233" lon="2.63321">
        <ele>99</ele>
        <time>2020-10-11T11:31:25.000Z</time>
      </trkpt>
      <trkpt lat="43.29224" lon="2.63312">
        <ele>99</ele>
        <time>2020-10-11T11:31:27.000Z</time>
      </trkpt>
      <trkpt lat="43.29216" lon="2.63302">
        <ele>98</ele>
        <time>2020-10-11T11:31:29.000Z</time>
      </trkpt>
      <trkpt lat="43.29209" lon="2.63295">
        <ele>97</ele>
        <time>2020-10-11T11:31:32.000Z</time>
      </trkpt>
      <trkpt lat="43.29207" lon="2.63297">
        <ele>97</ele>
        <time>2020-10-11T11:31:34.000Z</time>
      </trkpt>
      <trkpt lat="43.29206" lon="2.63299">
        <ele>97</ele>
        <time>2020-10-11T11:31:36.000Z</time>
      </trkpt>
      <trkpt lat="43.29192" lon="2.63283">
        <ele>96</ele>
        <time>2020-10-11T11:31:45.000Z</time>
      </trkpt>
      <trkpt lat="43.29182" lon="2.63277">
        <ele>96</ele>
        <time>2020-10-11T11:31:48.000Z</time>
      </trkpt>
      <trkpt lat="43.2917" lon="2.63276">
        <ele>96</ele>
        <time>2020-10-11T11:31:51.000Z</time>
      </trkpt>
      <trkpt lat="43.29159" lon="2.63279">
        <ele>95</ele>
        <time>2020-10-11T11:31:53.000Z</time>
      </trkpt>
      <trkpt lat="43.29154" lon="2.63279">
        <ele>95</ele>
        <time>2020-10-11T11:31:54.000Z</time>
      </trkpt>
      <trkpt lat="43.29137" lon="2.63278">
        <ele>94</ele>
        <time>2020-10-11T11:31:57.000Z</time>
      </trkpt>
      <trkpt lat="43.29121" lon="2.63276">
        <ele>94</ele>
        <time>2020-10-11T11:32:00.000Z</time>
      </trkpt>
      <trkpt lat="43.29112" lon="2.63272">
        <ele>93</ele>
        <time>2020-10-11T11:32:02.000Z</time>
      </trkpt>
      <trkpt lat="43.29095" lon="2.63263">
        <ele>92</ele>
        <time>2020-10-11T11:32:06.000Z</time>
      </trkpt>
      <trkpt lat="43.29074" lon="2.63249">
        <ele>92</ele>
        <time>2020-10-11T11:32:11.000Z</time>
      </trkpt>
      <trkpt lat="43.29066" lon="2.63245">
        <ele>92</ele>
        <time>2020-10-11T11:32:13.000Z</time>
      </trkpt>
      <trkpt lat="43.29057" lon="2.63242">
        <ele>92</ele>
        <time>2020-10-11T11:32:15.000Z</time>
      </trkpt>
      <trkpt lat="43.2904" lon="2.63232">
        <ele>92</ele>
        <time>2020-10-11T11:32:20.000Z</time>
      </trkpt>
      <trkpt lat="43.29029" lon="2.63227">
        <ele>92</ele>
        <time>2020-10-11T11:32:23.000Z</time>
      </trkpt>
      <trkpt lat="43.29011" lon="2.63223">
        <ele>91</ele>
        <time>2020-10-11T11:32:27.000Z</time>
      </trkpt>
      <trkpt lat="43.29001" lon="2.63219">
        <ele>91</ele>
        <time>2020-10-11T11:32:29.000Z</time>
      </trkpt>
      <trkpt lat="43.28949" lon="2.63185">
        <ele>87</ele>
        <time>2020-10-11T11:32:42.000Z</time>
      </trkpt>
      <trkpt lat="43.28922" lon="2.63165">
        <ele>87</ele>
        <time>2020-10-11T11:32:49.000Z</time>
      </trkpt>
      <trkpt lat="43.28886" lon="2.63142">
        <ele>86</ele>
        <time>2020-10-11T11:32:58.000Z</time>
      </trkpt>
      <trkpt lat="43.28843" lon="2.63112">
        <ele>86</ele>
        <time>2020-10-11T11:33:08.000Z</time>
      </trkpt>
      <trkpt lat="43.28828" lon="2.63098">
        <ele>86</ele>
        <time>2020-10-11T11:33:12.000Z</time>
      </trkpt>
      <trkpt lat="43.28818" lon="2.63087">
        <ele>86</ele>
        <time>2020-10-11T11:33:15.000Z</time>
      </trkpt>
      <trkpt lat="43.2881" lon="2.6308">
        <ele>86</ele>
        <time>2020-10-11T11:33:17.000Z</time>
      </trkpt>
      <trkpt lat="43.28786" lon="2.63061">
        <ele>85</ele>
        <time>2020-10-11T11:33:23.000Z</time>
      </trkpt>
      <trkpt lat="43.28765" lon="2.63028">
        <ele>84</ele>
        <time>2020-10-11T11:33:32.000Z</time>
      </trkpt>
      <trkpt lat="43.28761" lon="2.63021">
        <ele>84</ele>
        <time>2020-10-11T11:33:34.000Z</time>
      </trkpt>
      <trkpt lat="43.28753" lon="2.63018">
        <ele>85</ele>
        <time>2020-10-11T11:33:37.000Z</time>
      </trkpt>
      <trkpt lat="43.28745" lon="2.63017">
        <ele>86</ele>
        <time>2020-10-11T11:33:39.000Z</time>
      </trkpt>
      <trkpt lat="43.28742" lon="2.63014">
        <ele>86</ele>
        <time>2020-10-11T11:33:40.000Z</time>
      </trkpt>
      <trkpt lat="43.28737" lon="2.63006">
        <ele>86</ele>
        <time>2020-10-11T11:33:42.000Z</time>
      </trkpt>
      <trkpt lat="43.28707" lon="2.62927">
        <ele>84</ele>
        <time>2020-10-11T11:33:59.000Z</time>
      </trkpt>
      <trkpt lat="43.28677" lon="2.62853">
        <ele>84</ele>
        <time>2020-10-11T11:34:15.000Z</time>
      </trkpt>
      <trkpt lat="43.28654" lon="2.6279">
        <ele>85</ele>
        <time>2020-10-11T11:34:29.000Z</time>
      </trkpt>
      <trkpt lat="43.28626" lon="2.62718">
        <ele>85</ele>
        <time>2020-10-11T11:34:45.000Z</time>
      </trkpt>
      <trkpt lat="43.28603" lon="2.62658">
        <ele>87</ele>
        <time>2020-10-11T11:34:58.000Z</time>
      </trkpt>
      <trkpt lat="43.28555" lon="2.62536">
        <ele>90</ele>
        <time>2020-10-11T11:35:25.000Z</time>
      </trkpt>
      <trkpt lat="43.28523" lon="2.62452">
        <ele>92</ele>
        <time>2020-10-11T11:35:44.000Z</time>
      </trkpt>
      <trkpt lat="43.28503" lon="2.62405">
        <ele>95</ele>
        <time>2020-10-11T11:35:54.000Z</time>
      </trkpt>
      <trkpt lat="43.28479" lon="2.62339">
        <ele>95</ele>
        <time>2020-10-11T11:36:08.000Z</time>
      </trkpt>
      <trkpt lat="43.28459" lon="2.62289">
        <ele>94</ele>
        <time>2020-10-11T11:36:19.000Z</time>
      </trkpt>
      <trkpt lat="43.28434" lon="2.62221">
        <ele>92</ele>
        <time>2020-10-11T11:36:34.000Z</time>
      </trkpt>
      <trkpt lat="43.28419" lon="2.62186">
        <ele>91</ele>
        <time>2020-10-11T11:36:41.000Z</time>
      </trkpt>
      <trkpt lat="43.28411" lon="2.62161">
        <ele>91</ele>
        <time>2020-10-11T11:36:46.000Z</time>
      </trkpt>
      <trkpt lat="43.28403" lon="2.62141">
        <ele>90</ele>
        <time>2020-10-11T11:36:50.000Z</time>
      </trkpt>
      <trkpt lat="43.28388" lon="2.62106">
        <ele>90</ele>
        <time>2020-10-11T11:36:57.000Z</time>
      </trkpt>
      <trkpt lat="43.28378" lon="2.62094">
        <ele>91</ele>
        <time>2020-10-11T11:37:01.000Z</time>
      </trkpt>
      <trkpt lat="43.2837" lon="2.62091">
        <ele>92</ele>
        <time>2020-10-11T11:37:04.000Z</time>
      </trkpt>
      <trkpt lat="43.28359" lon="2.6209">
        <ele>91</ele>
        <time>2020-10-11T11:37:07.000Z</time>
      </trkpt>
      <trkpt lat="43.28325" lon="2.62096">
        <ele>88</ele>
        <time>2020-10-11T11:37:15.000Z</time>
      </trkpt>
      <trkpt lat="43.28309" lon="2.62095">
        <ele>88</ele>
        <time>2020-10-11T11:37:19.000Z</time>
      </trkpt>
      <trkpt lat="43.28293" lon="2.62091">
        <ele>89</ele>
        <time>2020-10-11T11:37:24.000Z</time>
      </trkpt>
      <trkpt lat="43.28269" lon="2.62089">
        <ele>86</ele>
        <time>2020-10-11T11:37:29.000Z</time>
      </trkpt>
      <trkpt lat="43.28239" lon="2.62084">
        <ele>87</ele>
        <time>2020-10-11T11:37:36.000Z</time>
      </trkpt>
      <trkpt lat="43.28226" lon="2.62083">
        <ele>86</ele>
        <time>2020-10-11T11:37:39.000Z</time>
      </trkpt>
      <trkpt lat="43.28201" lon="2.62081">
        <ele>86</ele>
        <time>2020-10-11T11:37:45.000Z</time>
      </trkpt>
      <trkpt lat="43.28174" lon="2.62075">
        <ele>87</ele>
        <time>2020-10-11T11:37:51.000Z</time>
      </trkpt>
      <trkpt lat="43.28166" lon="2.62077">
        <ele>87</ele>
        <time>2020-10-11T11:37:53.000Z</time>
      </trkpt>
      <trkpt lat="43.28159" lon="2.62082">
        <ele>88</ele>
        <time>2020-10-11T11:37:55.000Z</time>
      </trkpt>
      <trkpt lat="43.28156" lon="2.62087">
        <ele>88</ele>
        <time>2020-10-11T11:37:56.000Z</time>
      </trkpt>
      <trkpt lat="43.28152" lon="2.62099">
        <ele>88</ele>
        <time>2020-10-11T11:37:58.000Z</time>
      </trkpt>
      <trkpt lat="43.2815" lon="2.6211">
        <ele>88</ele>
        <time>2020-10-11T11:38:00.000Z</time>
      </trkpt>
      <trkpt lat="43.28147" lon="2.62136">
        <ele>88</ele>
        <time>2020-10-11T11:38:04.000Z</time>
      </trkpt>
      <trkpt lat="43.28136" lon="2.62192">
        <ele>90</ele>
        <time>2020-10-11T11:38:13.000Z</time>
      </trkpt>
      <trkpt lat="43.28122" lon="2.6227">
        <ele>91</ele>
        <time>2020-10-11T11:38:26.000Z</time>
      </trkpt>
      <trkpt lat="43.28114" lon="2.62306">
        <ele>92</ele>
        <time>2020-10-11T11:38:32.000Z</time>
      </trkpt>
      <trkpt lat="43.2809" lon="2.62367">
        <ele>92</ele>
        <time>2020-10-11T11:38:43.000Z</time>
      </trkpt>
      <trkpt lat="43.28086" lon="2.62379">
        <ele>92</ele>
        <time>2020-10-11T11:38:45.000Z</time>
      </trkpt>
      <trkpt lat="43.28075" lon="2.62412">
        <ele>93</ele>
        <time>2020-10-11T11:38:50.000Z</time>
      </trkpt>
      <trkpt lat="43.28071" lon="2.62422">
        <ele>93</ele>
        <time>2020-10-11T11:38:52.000Z</time>
      </trkpt>
      <trkpt lat="43.28065" lon="2.62431">
        <ele>93</ele>
        <time>2020-10-11T11:38:54.000Z</time>
      </trkpt>
      <trkpt lat="43.28061" lon="2.62436">
        <ele>93</ele>
        <time>2020-10-11T11:38:55.000Z</time>
      </trkpt>
      <trkpt lat="43.28046" lon="2.62449">
        <ele>93</ele>
        <time>2020-10-11T11:38:59.000Z</time>
      </trkpt>
      <trkpt lat="43.28024" lon="2.62466">
        <ele>94</ele>
        <time>2020-10-11T11:39:05.000Z</time>
      </trkpt>
      <trkpt lat="43.28004" lon="2.62487">
        <ele>96</ele>
        <time>2020-10-11T11:39:13.000Z</time>
      </trkpt>
      <trkpt lat="43.27996" lon="2.62492">
        <ele>96</ele>
        <time>2020-10-11T11:39:16.000Z</time>
      </trkpt>
      <trkpt lat="43.27992" lon="2.62493">
        <ele>97</ele>
        <time>2020-10-11T11:39:17.000Z</time>
      </trkpt>
      <trkpt lat="43.27987" lon="2.62493">
        <ele>97</ele>
        <time>2020-10-11T11:39:19.000Z</time>
      </trkpt>
      <trkpt lat="43.2797" lon="2.6249">
        <ele>98</ele>
        <time>2020-10-11T11:39:25.000Z</time>
      </trkpt>
      <trkpt lat="43.27956" lon="2.62493">
        <ele>98</ele>
        <time>2020-10-11T11:39:30.000Z</time>
      </trkpt>
      <trkpt lat="43.27948" lon="2.62496">
        <ele>98</ele>
        <time>2020-10-11T11:39:33.000Z</time>
      </trkpt>
      <trkpt lat="43.27937" lon="2.62502">
        <ele>101</ele>
        <time>2020-10-11T11:39:38.000Z</time>
      </trkpt>
      <trkpt lat="43.27934" lon="2.62505">
        <ele>101</ele>
        <time>2020-10-11T11:39:40.000Z</time>
      </trkpt>
      <trkpt lat="43.27928" lon="2.62513">
        <ele>101</ele>
        <time>2020-10-11T11:39:43.000Z</time>
      </trkpt>
      <trkpt lat="43.27922" lon="2.62528">
        <ele>103</ele>
        <time>2020-10-11T11:39:50.000Z</time>
      </trkpt>
      <trkpt lat="43.27921" lon="2.62547">
        <ele>104</ele>
        <time>2020-10-11T11:39:57.000Z</time>
      </trkpt>
      <trkpt lat="43.27919" lon="2.62561">
        <ele>106</ele>
        <time>2020-10-11T11:40:02.000Z</time>
      </trkpt>
      <trkpt lat="43.27918" lon="2.62566">
        <ele>107</ele>
        <time>2020-10-11T11:40:04.000Z</time>
      </trkpt>
      <trkpt lat="43.27915" lon="2.6257">
        <ele>107</ele>
        <time>2020-10-11T11:40:06.000Z</time>
      </trkpt>
      <trkpt lat="43.2791" lon="2.62575">
        <ele>107</ele>
        <time>2020-10-11T11:40:09.000Z</time>
      </trkpt>
      <trkpt lat="43.27903" lon="2.62579">
        <ele>107</ele>
        <time>2020-10-11T11:40:12.000Z</time>
      </trkpt>
      <trkpt lat="43.27896" lon="2.6258">
        <ele>107</ele>
        <time>2020-10-11T11:40:15.000Z</time>
      </trkpt>
      <trkpt lat="43.27889" lon="2.62582">
        <ele>108</ele>
        <time>2020-10-11T11:40:19.000Z</time>
      </trkpt>
      <trkpt lat="43.27881" lon="2.62586">
        <ele>109</ele>
        <time>2020-10-11T11:40:24.000Z</time>
      </trkpt>
      <trkpt lat="43.27872" lon="2.62591">
        <ele>110</ele>
        <time>2020-10-11T11:40:28.000Z</time>
      </trkpt>
      <trkpt lat="43.27865" lon="2.62594">
        <ele>110</ele>
        <time>2020-10-11T11:40:31.000Z</time>
      </trkpt>
      <trkpt lat="43.27854" lon="2.62607">
        <ele>110</ele>
        <time>2020-10-11T11:40:36.000Z</time>
      </trkpt>
      <trkpt lat="43.27841" lon="2.62614">
        <ele>108</ele>
        <time>2020-10-11T11:40:40.000Z</time>
      </trkpt>
      <trkpt lat="43.27829" lon="2.62632">
        <ele>108</ele>
        <time>2020-10-11T11:40:45.000Z</time>
      </trkpt>
      <trkpt lat="43.27823" lon="2.62649">
        <ele>109</ele>
        <time>2020-10-11T11:40:52.000Z</time>
      </trkpt>
      <trkpt lat="43.27813" lon="2.62659">
        <ele>109</ele>
        <time>2020-10-11T11:40:57.000Z</time>
      </trkpt>
      <trkpt lat="43.27809" lon="2.6266">
        <ele>109</ele>
        <time>2020-10-11T11:40:59.000Z</time>
      </trkpt>
      <trkpt lat="43.27806" lon="2.62659">
        <ele>110</ele>
        <time>2020-10-11T11:41:01.000Z</time>
      </trkpt>
      <trkpt lat="43.27799" lon="2.62655">
        <ele>111</ele>
        <time>2020-10-11T11:41:05.000Z</time>
      </trkpt>
      <trkpt lat="43.27787" lon="2.62646">
        <ele>113</ele>
        <time>2020-10-11T11:41:12.000Z</time>
      </trkpt>
      <trkpt lat="43.2778" lon="2.62635">
        <ele>114</ele>
        <time>2020-10-11T11:41:18.000Z</time>
      </trkpt>
      <trkpt lat="43.27777" lon="2.62632">
        <ele>115</ele>
        <time>2020-10-11T11:41:20.000Z</time>
      </trkpt>
      <trkpt lat="43.27766" lon="2.62626">
        <ele>115</ele>
        <time>2020-10-11T11:41:25.000Z</time>
      </trkpt>
      <trkpt lat="43.27758" lon="2.62619">
        <ele>115</ele>
        <time>2020-10-11T11:41:30.000Z</time>
      </trkpt>
      <trkpt lat="43.2775" lon="2.62617">
        <ele>116</ele>
        <time>2020-10-11T11:41:34.000Z</time>
      </trkpt>
      <trkpt lat="43.27738" lon="2.62618">
        <ele>118</ele>
        <time>2020-10-11T11:41:40.000Z</time>
      </trkpt>
      <trkpt lat="43.27729" lon="2.62618">
        <ele>120</ele>
        <time>2020-10-11T11:41:45.000Z</time>
      </trkpt>
      <trkpt lat="43.27723" lon="2.62616">
        <ele>120</ele>
        <time>2020-10-11T11:41:49.000Z</time>
      </trkpt>
      <trkpt lat="43.27719" lon="2.62618">
        <ele>120</ele>
        <time>2020-10-11T11:41:51.000Z</time>
      </trkpt>
      <trkpt lat="43.27718" lon="2.6262">
        <ele>120</ele>
        <time>2020-10-11T11:41:52.000Z</time>
      </trkpt>
      <trkpt lat="43.27718" lon="2.6263">
        <ele>120</ele>
        <time>2020-10-11T11:41:57.000Z</time>
      </trkpt>
      <trkpt lat="43.2772" lon="2.62642">
        <ele>120</ele>
        <time>2020-10-11T11:42:02.000Z</time>
      </trkpt>
      <trkpt lat="43.2772" lon="2.62646">
        <ele>121</ele>
        <time>2020-10-11T11:42:04.000Z</time>
      </trkpt>
      <trkpt lat="43.2772" lon="2.62649">
        <ele>121</ele>
        <time>2020-10-11T11:42:05.000Z</time>
      </trkpt>
      <trkpt lat="43.27715" lon="2.62651">
        <ele>121</ele>
        <time>2020-10-11T11:42:09.000Z</time>
      </trkpt>
      <trkpt lat="43.27714" lon="2.62652">
        <ele>121</ele>
        <time>2020-10-11T11:42:10.000Z</time>
      </trkpt>
      <trkpt lat="43.27713" lon="2.62656">
        <ele>121</ele>
        <time>2020-10-11T11:42:12.000Z</time>
      </trkpt>
      <trkpt lat="43.27712" lon="2.62661">
        <ele>121</ele>
        <time>2020-10-11T11:42:14.000Z</time>
      </trkpt>
      <trkpt lat="43.2771" lon="2.62665">
        <ele>121</ele>
        <time>2020-10-11T11:42:16.000Z</time>
      </trkpt>
      <trkpt lat="43.27704" lon="2.62669">
        <ele>121</ele>
        <time>2020-10-11T11:42:19.000Z</time>
      </trkpt>
      <trkpt lat="43.27701" lon="2.62668">
        <ele>121</ele>
        <time>2020-10-11T11:42:20.000Z</time>
      </trkpt>
      <trkpt lat="43.27687" lon="2.62661">
        <ele>120</ele>
        <time>2020-10-11T11:42:25.000Z</time>
      </trkpt>
      <trkpt lat="43.27672" lon="2.62652">
        <ele>120</ele>
        <time>2020-10-11T11:42:30.000Z</time>
      </trkpt>
      <trkpt lat="43.27633" lon="2.62636">
        <ele>118</ele>
        <time>2020-10-11T11:42:40.000Z</time>
      </trkpt>
      <trkpt lat="43.27629" lon="2.62633">
        <ele>118</ele>
        <time>2020-10-11T11:42:41.000Z</time>
      </trkpt>
      <trkpt lat="43.27616" lon="2.62623">
        <ele>117</ele>
        <time>2020-10-11T11:42:44.000Z</time>
      </trkpt>
      <trkpt lat="43.27601" lon="2.62615">
        <ele>117</ele>
        <time>2020-10-11T11:42:48.000Z</time>
      </trkpt>
      <trkpt lat="43.27594" lon="2.62612">
        <ele>117</ele>
        <time>2020-10-11T11:42:50.000Z</time>
      </trkpt>
      <trkpt lat="43.27587" lon="2.6261">
        <ele>117</ele>
        <time>2020-10-11T11:42:52.000Z</time>
      </trkpt>
      <trkpt lat="43.27578" lon="2.62614">
        <ele>117</ele>
        <time>2020-10-11T11:42:55.000Z</time>
      </trkpt>
      <trkpt lat="43.27576" lon="2.62617">
        <ele>117</ele>
        <time>2020-10-11T11:42:56.000Z</time>
      </trkpt>
      <trkpt lat="43.27572" lon="2.62626">
        <ele>117</ele>
        <time>2020-10-11T11:42:58.000Z</time>
      </trkpt>
      <trkpt lat="43.27565" lon="2.62648">
        <ele>117</ele>
        <time>2020-10-11T11:43:02.000Z</time>
      </trkpt>
      <trkpt lat="43.27546" lon="2.6272">
        <ele>118</ele>
        <time>2020-10-11T11:43:14.000Z</time>
      </trkpt>
      <trkpt lat="43.27494" lon="2.62894">
        <ele>117</ele>
        <time>2020-10-11T11:43:44.000Z</time>
      </trkpt>
      <trkpt lat="43.27489" lon="2.62904">
        <ele>117</ele>
        <time>2020-10-11T11:43:46.000Z</time>
      </trkpt>
      <trkpt lat="43.27482" lon="2.6291">
        <ele>117</ele>
        <time>2020-10-11T11:43:48.000Z</time>
      </trkpt>
      <trkpt lat="43.27467" lon="2.62913">
        <ele>117</ele>
        <time>2020-10-11T11:43:51.000Z</time>
      </trkpt>
      <trkpt lat="43.27463" lon="2.62912">
        <ele>117</ele>
        <time>2020-10-11T11:43:52.000Z</time>
      </trkpt>
      <trkpt lat="43.27453" lon="2.62907">
        <ele>116</ele>
        <time>2020-10-11T11:43:54.000Z</time>
      </trkpt>
      <trkpt lat="43.27446" lon="2.62901">
        <ele>115</ele>
        <time>2020-10-11T11:43:56.000Z</time>
      </trkpt>
      <trkpt lat="43.27442" lon="2.629">
        <ele>115</ele>
        <time>2020-10-11T11:43:57.000Z</time>
      </trkpt>
      <trkpt lat="43.27439" lon="2.62901">
        <ele>114</ele>
        <time>2020-10-11T11:43:58.000Z</time>
      </trkpt>
      <trkpt lat="43.27436" lon="2.6291">
        <ele>114</ele>
        <time>2020-10-11T11:44:00.000Z</time>
      </trkpt>
      <trkpt lat="43.27435" lon="2.62924">
        <ele>113</ele>
        <time>2020-10-11T11:44:02.000Z</time>
      </trkpt>
      <trkpt lat="43.27437" lon="2.62938">
        <ele>112</ele>
        <time>2020-10-11T11:44:04.000Z</time>
      </trkpt>
      <trkpt lat="43.27442" lon="2.62965">
        <ele>112</ele>
        <time>2020-10-11T11:44:08.000Z</time>
      </trkpt>
      <trkpt lat="43.27445" lon="2.62987">
        <ele>111</ele>
        <time>2020-10-11T11:44:11.000Z</time>
      </trkpt>
      <trkpt lat="43.27446" lon="2.63018">
        <ele>110</ele>
        <time>2020-10-11T11:44:15.000Z</time>
      </trkpt>
      <trkpt lat="43.27444" lon="2.63026">
        <ele>109</ele>
        <time>2020-10-11T11:44:16.000Z</time>
      </trkpt>
      <trkpt lat="43.27442" lon="2.63034">
        <ele>109</ele>
        <time>2020-10-11T11:44:17.000Z</time>
      </trkpt>
      <trkpt lat="43.2743" lon="2.6306">
        <ele>106</ele>
        <time>2020-10-11T11:44:21.000Z</time>
      </trkpt>
      <trkpt lat="43.27418" lon="2.63073">
        <ele>105</ele>
        <time>2020-10-11T11:44:25.000Z</time>
      </trkpt>
      <trkpt lat="43.27415" lon="2.63071">
        <ele>105</ele>
        <time>2020-10-11T11:44:26.000Z</time>
      </trkpt>
      <trkpt lat="43.2741" lon="2.63067">
        <ele>105</ele>
        <time>2020-10-11T11:44:28.000Z</time>
      </trkpt>
      <trkpt lat="43.27402" lon="2.6307">
        <ele>104</ele>
        <time>2020-10-11T11:44:31.000Z</time>
      </trkpt>
      <trkpt lat="43.27399" lon="2.63074">
        <ele>103</ele>
        <time>2020-10-11T11:44:32.000Z</time>
      </trkpt>
      <trkpt lat="43.27397" lon="2.63083">
        <ele>102</ele>
        <time>2020-10-11T11:44:34.000Z</time>
      </trkpt>
      <trkpt lat="43.27397" lon="2.6309">
        <ele>102</ele>
        <time>2020-10-11T11:44:35.000Z</time>
      </trkpt>
      <trkpt lat="43.27399" lon="2.63096">
        <ele>101</ele>
        <time>2020-10-11T11:44:36.000Z</time>
      </trkpt>
      <trkpt lat="43.27402" lon="2.63109">
        <ele>101</ele>
        <time>2020-10-11T11:44:38.000Z</time>
      </trkpt>
      <trkpt lat="43.27404" lon="2.63121">
        <ele>102</ele>
        <time>2020-10-11T11:44:41.000Z</time>
      </trkpt>
      <trkpt lat="43.27406" lon="2.63126">
        <ele>103</ele>
        <time>2020-10-11T11:44:43.000Z</time>
      </trkpt>
      <trkpt lat="43.27418" lon="2.63138">
        <ele>103</ele>
        <time>2020-10-11T11:44:48.000Z</time>
      </trkpt>
      <trkpt lat="43.27474" lon="2.63214">
        <ele>107</ele>
        <time>2020-10-11T11:45:12.000Z</time>
      </trkpt>
      <trkpt lat="43.2748" lon="2.63224">
        <ele>107</ele>
        <time>2020-10-11T11:45:15.000Z</time>
      </trkpt>
      <trkpt lat="43.27486" lon="2.6324">
        <ele>107</ele>
        <time>2020-10-11T11:45:19.000Z</time>
      </trkpt>
      <trkpt lat="43.27486" lon="2.63248">
        <ele>107</ele>
        <time>2020-10-11T11:45:21.000Z</time>
      </trkpt>
      <trkpt lat="43.27482" lon="2.63269">
        <ele>108</ele>
        <time>2020-10-11T11:45:26.000Z</time>
      </trkpt>
      <trkpt lat="43.27483" lon="2.63281">
        <ele>108</ele>
        <time>2020-10-11T11:45:29.000Z</time>
      </trkpt>
      <trkpt lat="43.27483" lon="2.63288">
        <ele>108</ele>
        <time>2020-10-11T11:45:31.000Z</time>
      </trkpt>
      <trkpt lat="43.27482" lon="2.6329">
        <ele>109</ele>
        <time>2020-10-11T11:45:32.000Z</time>
      </trkpt>
      <trkpt lat="43.27465" lon="2.63303">
        <ele>111</ele>
        <time>2020-10-11T11:45:42.000Z</time>
      </trkpt>
      <trkpt lat="43.27452" lon="2.63311">
        <ele>112</ele>
        <time>2020-10-11T11:45:48.000Z</time>
      </trkpt>
      <trkpt lat="43.27439" lon="2.63321">
        <ele>113</ele>
        <time>2020-10-11T11:45:54.000Z</time>
      </trkpt>
      <trkpt lat="43.27428" lon="2.63328">
        <ele>114</ele>
        <time>2020-10-11T11:45:58.000Z</time>
      </trkpt>
      <trkpt lat="43.27415" lon="2.63337">
        <ele>114</ele>
        <time>2020-10-11T11:46:03.000Z</time>
      </trkpt>
      <trkpt lat="43.27403" lon="2.63342">
        <ele>116</ele>
        <time>2020-10-11T11:46:07.000Z</time>
      </trkpt>
      <trkpt lat="43.27393" lon="2.63346">
        <ele>116</ele>
        <time>2020-10-11T11:46:11.000Z</time>
      </trkpt>
      <trkpt lat="43.27381" lon="2.63348">
        <ele>117</ele>
        <time>2020-10-11T11:46:15.000Z</time>
      </trkpt>
      <trkpt lat="43.27346" lon="2.63351">
        <ele>113</ele>
        <time>2020-10-11T11:46:23.000Z</time>
      </trkpt>
      <trkpt lat="43.27336" lon="2.63357">
        <ele>112</ele>
        <time>2020-10-11T11:46:25.000Z</time>
      </trkpt>
      <trkpt lat="43.27332" lon="2.63362">
        <ele>112</ele>
        <time>2020-10-11T11:46:26.000Z</time>
      </trkpt>
      <trkpt lat="43.27325" lon="2.63373">
        <ele>113</ele>
        <time>2020-10-11T11:46:27.000Z</time>
      </trkpt>
      <trkpt lat="43.27316" lon="2.63391">
        <ele>114</ele>
        <time>2020-10-11T11:46:32.000Z</time>
      </trkpt>
      <trkpt lat="43.27308" lon="2.63411">
        <ele>115</ele>
        <time>2020-10-11T11:46:36.000Z</time>
      </trkpt>
      <trkpt lat="43.27303" lon="2.63433">
        <ele>116</ele>
        <time>2020-10-11T11:46:40.000Z</time>
      </trkpt>
      <trkpt lat="43.27293" lon="2.63451">
        <ele>116</ele>
        <time>2020-10-11T11:46:44.000Z</time>
      </trkpt>
      <trkpt lat="43.27273" lon="2.63472">
        <ele>114</ele>
        <time>2020-10-11T11:46:49.000Z</time>
      </trkpt>
      <trkpt lat="43.27252" lon="2.63496">
        <ele>114</ele>
        <time>2020-10-11T11:46:55.000Z</time>
      </trkpt>
      <trkpt lat="43.2722" lon="2.63529">
        <ele>114</ele>
        <time>2020-10-11T11:47:03.000Z</time>
      </trkpt>
      <trkpt lat="43.27201" lon="2.63548">
        <ele>114</ele>
        <time>2020-10-11T11:47:08.000Z</time>
      </trkpt>
      <trkpt lat="43.27184" lon="2.63562">
        <ele>115</ele>
        <time>2020-10-11T11:47:13.000Z</time>
      </trkpt>
      <trkpt lat="43.2718" lon="2.63562">
        <ele>115</ele>
        <time>2020-10-11T11:47:14.000Z</time>
      </trkpt>
      <trkpt lat="43.27178" lon="2.63561">
        <ele>115</ele>
        <time>2020-10-11T11:47:15.000Z</time>
      </trkpt>
      <trkpt lat="43.27171" lon="2.6355">
        <ele>114</ele>
        <time>2020-10-11T11:47:18.000Z</time>
      </trkpt>
      <trkpt lat="43.27163" lon="2.6354">
        <ele>112</ele>
        <time>2020-10-11T11:47:20.000Z</time>
      </trkpt>
      <trkpt lat="43.27153" lon="2.63529">
        <ele>109</ele>
        <time>2020-10-11T11:47:23.000Z</time>
      </trkpt>
      <trkpt lat="43.27144" lon="2.63523">
        <ele>108</ele>
        <time>2020-10-11T11:47:25.000Z</time>
      </trkpt>
      <trkpt lat="43.27129" lon="2.63504">
        <ele>107</ele>
        <time>2020-10-11T11:47:29.000Z</time>
      </trkpt>
      <trkpt lat="43.27124" lon="2.63495">
        <ele>106</ele>
        <time>2020-10-11T11:47:31.000Z</time>
      </trkpt>
      <trkpt lat="43.27116" lon="2.63485">
        <ele>105</ele>
        <time>2020-10-11T11:47:33.000Z</time>
      </trkpt>
      <trkpt lat="43.27112" lon="2.63481">
        <ele>104</ele>
        <time>2020-10-11T11:47:34.000Z</time>
      </trkpt>
      <trkpt lat="43.27098" lon="2.63481">
        <ele>104</ele>
        <time>2020-10-11T11:47:37.000Z</time>
      </trkpt>
      <trkpt lat="43.27093" lon="2.63482">
        <ele>104</ele>
        <time>2020-10-11T11:47:38.000Z</time>
      </trkpt>
      <trkpt lat="43.27086" lon="2.63481">
        <ele>104</ele>
        <time>2020-10-11T11:47:40.000Z</time>
      </trkpt>
      <trkpt lat="43.27079" lon="2.63478">
        <ele>103</ele>
        <time>2020-10-11T11:47:42.000Z</time>
      </trkpt>
      <trkpt lat="43.27068" lon="2.63475">
        <ele>102</ele>
        <time>2020-10-11T11:47:45.000Z</time>
      </trkpt>
      <trkpt lat="43.27064" lon="2.63476">
        <ele>101</ele>
        <time>2020-10-11T11:47:46.000Z</time>
      </trkpt>
      <trkpt lat="43.27059" lon="2.63478">
        <ele>101</ele>
        <time>2020-10-11T11:47:47.000Z</time>
      </trkpt>
      <trkpt lat="43.27055" lon="2.63482">
        <ele>101</ele>
        <time>2020-10-11T11:47:48.000Z</time>
      </trkpt>
      <trkpt lat="43.27051" lon="2.63487">
        <ele>100</ele>
        <time>2020-10-11T11:47:49.000Z</time>
      </trkpt>
      <trkpt lat="43.27045" lon="2.63499">
        <ele>99</ele>
        <time>2020-10-11T11:47:51.000Z</time>
      </trkpt>
      <trkpt lat="43.27042" lon="2.63506">
        <ele>99</ele>
        <time>2020-10-11T11:47:52.000Z</time>
      </trkpt>
      <trkpt lat="43.27038" lon="2.63518">
        <ele>100</ele>
        <time>2020-10-11T11:47:54.000Z</time>
      </trkpt>
      <trkpt lat="43.2703" lon="2.63534">
        <ele>100</ele>
        <time>2020-10-11T11:47:57.000Z</time>
      </trkpt>
      <trkpt lat="43.27021" lon="2.63547">
        <ele>100</ele>
        <time>2020-10-11T11:48:00.000Z</time>
      </trkpt>
      <trkpt lat="43.27015" lon="2.63562">
        <ele>99</ele>
        <time>2020-10-11T11:48:03.000Z</time>
      </trkpt>
      <trkpt lat="43.27015" lon="2.63566">
        <ele>99</ele>
        <time>2020-10-11T11:48:04.000Z</time>
      </trkpt>
      <trkpt lat="43.27019" lon="2.63582">
        <ele>99</ele>
        <time>2020-10-11T11:48:08.000Z</time>
      </trkpt>
      <trkpt lat="43.2702" lon="2.63589">
        <ele>100</ele>
        <time>2020-10-11T11:48:12.000Z</time>
      </trkpt>
      <trkpt lat="43.27021" lon="2.63592">
        <ele>101</ele>
        <time>2020-10-11T11:48:18.000Z</time>
      </trkpt>
      <trkpt lat="43.27021" lon="2.63595">
        <ele>102</ele>
        <time>2020-10-11T11:48:22.000Z</time>
      </trkpt>
      <trkpt lat="43.27023" lon="2.63598">
        <ele>103</ele>
        <time>2020-10-11T11:48:26.000Z</time>
      </trkpt>
      <trkpt lat="43.27028" lon="2.63598">
        <ele>104</ele>
        <time>2020-10-11T11:48:31.000Z</time>
      </trkpt>
      <trkpt lat="43.2703" lon="2.63598">
        <ele>105</ele>
        <time>2020-10-11T11:48:34.000Z</time>
      </trkpt>
      <trkpt lat="43.27036" lon="2.63599">
        <ele>105</ele>
        <time>2020-10-11T11:48:37.000Z</time>
      </trkpt>
      <trkpt lat="43.27045" lon="2.63611">
        <ele>108</ele>
        <time>2020-10-11T11:48:44.000Z</time>
      </trkpt>
      <trkpt lat="43.2705" lon="2.63619">
        <ele>109</ele>
        <time>2020-10-11T11:48:48.000Z</time>
      </trkpt>
      <trkpt lat="43.27052" lon="2.63624">
        <ele>109</ele>
        <time>2020-10-11T11:48:50.000Z</time>
      </trkpt>
      <trkpt lat="43.27053" lon="2.63629">
        <ele>110</ele>
        <time>2020-10-11T11:48:52.000Z</time>
      </trkpt>
      <trkpt lat="43.27054" lon="2.63639">
        <ele>111</ele>
        <time>2020-10-11T11:48:56.000Z</time>
      </trkpt>
      <trkpt lat="43.27047" lon="2.63652">
        <ele>111</ele>
        <time>2020-10-11T11:49:01.000Z</time>
      </trkpt>
      <trkpt lat="43.27036" lon="2.63663">
        <ele>110</ele>
        <time>2020-10-11T11:49:06.000Z</time>
      </trkpt>
      <trkpt lat="43.27033" lon="2.63664">
        <ele>110</ele>
        <time>2020-10-11T11:49:07.000Z</time>
      </trkpt>
      <trkpt lat="43.2703" lon="2.63664">
        <ele>109</ele>
        <time>2020-10-11T11:49:08.000Z</time>
      </trkpt>
      <trkpt lat="43.27024" lon="2.6366">
        <ele>108</ele>
        <time>2020-10-11T11:49:10.000Z</time>
      </trkpt>
      <trkpt lat="43.2701" lon="2.63652">
        <ele>106</ele>
        <time>2020-10-11T11:49:15.000Z</time>
      </trkpt>
      <trkpt lat="43.27005" lon="2.63653">
        <ele>105</ele>
        <time>2020-10-11T11:49:17.000Z</time>
      </trkpt>
      <trkpt lat="43.27002" lon="2.63657">
        <ele>105</ele>
        <time>2020-10-11T11:49:18.000Z</time>
      </trkpt>
      <trkpt lat="43.26997" lon="2.6367">
        <ele>106</ele>
        <time>2020-10-11T11:49:21.000Z</time>
      </trkpt>
      <trkpt lat="43.26991" lon="2.63681">
        <ele>107</ele>
        <time>2020-10-11T11:49:24.000Z</time>
      </trkpt>
      <trkpt lat="43.26978" lon="2.63688">
        <ele>110</ele>
        <time>2020-10-11T11:49:31.000Z</time>
      </trkpt>
      <trkpt lat="43.26972" lon="2.63693">
        <ele>111</ele>
        <time>2020-10-11T11:49:34.000Z</time>
      </trkpt>
      <trkpt lat="43.26961" lon="2.637">
        <ele>113</ele>
        <time>2020-10-11T11:49:38.000Z</time>
      </trkpt>
      <trkpt lat="43.26956" lon="2.63702">
        <ele>113</ele>
        <time>2020-10-11T11:49:40.000Z</time>
      </trkpt>
      <trkpt lat="43.26942" lon="2.63704">
        <ele>114</ele>
        <time>2020-10-11T11:49:46.000Z</time>
      </trkpt>
      <trkpt lat="43.26938" lon="2.63705">
        <ele>114</ele>
        <time>2020-10-11T11:49:47.000Z</time>
      </trkpt>
      <trkpt lat="43.26919" lon="2.63716">
        <ele>113</ele>
        <time>2020-10-11T11:49:53.000Z</time>
      </trkpt>
      <trkpt lat="43.26914" lon="2.6372">
        <ele>113</ele>
        <time>2020-10-11T11:49:55.000Z</time>
      </trkpt>
      <trkpt lat="43.26901" lon="2.6373">
        <ele>113</ele>
        <time>2020-10-11T11:49:59.000Z</time>
      </trkpt>
      <trkpt lat="43.26891" lon="2.63735">
        <ele>112</ele>
        <time>2020-10-11T11:50:02.000Z</time>
      </trkpt>
      <trkpt lat="43.26879" lon="2.63739">
        <ele>111</ele>
        <time>2020-10-11T11:50:06.000Z</time>
      </trkpt>
      <trkpt lat="43.26862" lon="2.63743">
        <ele>107</ele>
        <time>2020-10-11T11:50:11.000Z</time>
      </trkpt>
      <trkpt lat="43.26844" lon="2.63749">
        <ele>103</ele>
        <time>2020-10-11T11:50:14.000Z</time>
      </trkpt>
      <trkpt lat="43.2683" lon="2.63756">
        <ele>101</ele>
        <time>2020-10-11T11:50:16.000Z</time>
      </trkpt>
      <trkpt lat="43.26825" lon="2.6376">
        <ele>101</ele>
        <time>2020-10-11T11:50:17.000Z</time>
      </trkpt>
      <trkpt lat="43.26812" lon="2.63779">
        <ele>100</ele>
        <time>2020-10-11T11:50:20.000Z</time>
      </trkpt>
      <trkpt lat="43.26809" lon="2.63786">
        <ele>100</ele>
        <time>2020-10-11T11:50:21.000Z</time>
      </trkpt>
      <trkpt lat="43.26802" lon="2.63793">
        <ele>100</ele>
        <time>2020-10-11T11:50:23.000Z</time>
      </trkpt>
      <trkpt lat="43.26798" lon="2.63791">
        <ele>100</ele>
        <time>2020-10-11T11:50:25.000Z</time>
      </trkpt>
      <trkpt lat="43.26795" lon="2.63784">
        <ele>101</ele>
        <time>2020-10-11T11:50:28.000Z</time>
      </trkpt>
      <trkpt lat="43.26791" lon="2.63783">
        <ele>102</ele>
        <time>2020-10-11T11:50:30.000Z</time>
      </trkpt>
      <trkpt lat="43.26785" lon="2.63786">
        <ele>103</ele>
        <time>2020-10-11T11:50:33.000Z</time>
      </trkpt>
      <trkpt lat="43.26782" lon="2.63791">
        <ele>104</ele>
        <time>2020-10-11T11:50:35.000Z</time>
      </trkpt>
      <trkpt lat="43.26776" lon="2.63796">
        <ele>105</ele>
        <time>2020-10-11T11:50:38.000Z</time>
      </trkpt>
      <trkpt lat="43.26773" lon="2.63802">
        <ele>105</ele>
        <time>2020-10-11T11:50:41.000Z</time>
      </trkpt>
      <trkpt lat="43.26767" lon="2.63825">
        <ele>108</ele>
        <time>2020-10-11T11:50:48.000Z</time>
      </trkpt>
      <trkpt lat="43.26762" lon="2.63836">
        <ele>107</ele>
        <time>2020-10-11T11:50:51.000Z</time>
      </trkpt>
      <trkpt lat="43.26756" lon="2.63842">
        <ele>107</ele>
        <time>2020-10-11T11:50:53.000Z</time>
      </trkpt>
      <trkpt lat="43.2674" lon="2.63863">
        <ele>108</ele>
        <time>2020-10-11T11:51:00.000Z</time>
      </trkpt>
      <trkpt lat="43.26731" lon="2.63878">
        <ele>109</ele>
        <time>2020-10-11T11:51:04.000Z</time>
      </trkpt>
      <trkpt lat="43.26725" lon="2.63894">
        <ele>109</ele>
        <time>2020-10-11T11:51:08.000Z</time>
      </trkpt>
      <trkpt lat="43.2672" lon="2.639">
        <ele>109</ele>
        <time>2020-10-11T11:51:10.000Z</time>
      </trkpt>
      <trkpt lat="43.26718" lon="2.63901">
        <ele>109</ele>
        <time>2020-10-11T11:51:11.000Z</time>
      </trkpt>
      <trkpt lat="43.26714" lon="2.63899">
        <ele>109</ele>
        <time>2020-10-11T11:51:12.000Z</time>
      </trkpt>
      <trkpt lat="43.2671" lon="2.63893">
        <ele>109</ele>
        <time>2020-10-11T11:51:14.000Z</time>
      </trkpt>
      <trkpt lat="43.26708" lon="2.63885">
        <ele>110</ele>
        <time>2020-10-11T11:51:16.000Z</time>
      </trkpt>
      <trkpt lat="43.26705" lon="2.63879">
        <ele>110</ele>
        <time>2020-10-11T11:51:18.000Z</time>
      </trkpt>
      <trkpt lat="43.26697" lon="2.63865">
        <ele>109</ele>
        <time>2020-10-11T11:51:22.000Z</time>
      </trkpt>
      <trkpt lat="43.26682" lon="2.63832">
        <ele>103</ele>
        <time>2020-10-11T11:51:29.000Z</time>
      </trkpt>
      <trkpt lat="43.26678" lon="2.63821">
        <ele>102</ele>
        <time>2020-10-11T11:51:31.000Z</time>
      </trkpt>
      <trkpt lat="43.26673" lon="2.63813">
        <ele>101</ele>
        <time>2020-10-11T11:51:33.000Z</time>
      </trkpt>
      <trkpt lat="43.26669" lon="2.63812">
        <ele>101</ele>
        <time>2020-10-11T11:51:34.000Z</time>
      </trkpt>
      <trkpt lat="43.26665" lon="2.63811">
        <ele>101</ele>
        <time>2020-10-11T11:51:35.000Z</time>
      </trkpt>
      <trkpt lat="43.26638" lon="2.63821">
        <ele>100</ele>
        <time>2020-10-11T11:51:41.000Z</time>
      </trkpt>
      <trkpt lat="43.26629" lon="2.63826">
        <ele>100</ele>
        <time>2020-10-11T11:51:43.000Z</time>
      </trkpt>
      <trkpt lat="43.26608" lon="2.63839">
        <ele>99</ele>
        <time>2020-10-11T11:51:47.000Z</time>
      </trkpt>
      <trkpt lat="43.26573" lon="2.63855">
        <ele>97</ele>
        <time>2020-10-11T11:51:54.000Z</time>
      </trkpt>
      <trkpt lat="43.26564" lon="2.63858">
        <ele>97</ele>
        <time>2020-10-11T11:51:56.000Z</time>
      </trkpt>
      <trkpt lat="43.26546" lon="2.63868">
        <ele>96</ele>
        <time>2020-10-11T11:52:00.000Z</time>
      </trkpt>
      <trkpt lat="43.26542" lon="2.63884">
        <ele>96</ele>
        <time>2020-10-11T11:52:03.000Z</time>
      </trkpt>
      <trkpt lat="43.26545" lon="2.63892">
        <ele>97</ele>
        <time>2020-10-11T11:52:05.000Z</time>
      </trkpt>
      <trkpt lat="43.26549" lon="2.63902">
        <ele>97</ele>
        <time>2020-10-11T11:52:08.000Z</time>
      </trkpt>
      <trkpt lat="43.26569" lon="2.63938">
        <ele>102</ele>
        <time>2020-10-11T11:52:21.000Z</time>
      </trkpt>
      <trkpt lat="43.2657" lon="2.6394">
        <ele>103</ele>
        <time>2020-10-11T11:52:22.000Z</time>
      </trkpt>
      <trkpt lat="43.2657" lon="2.63947">
        <ele>103</ele>
        <time>2020-10-11T11:52:24.000Z</time>
      </trkpt>
      <trkpt lat="43.26568" lon="2.63954">
        <ele>104</ele>
        <time>2020-10-11T11:52:26.000Z</time>
      </trkpt>
      <trkpt lat="43.26565" lon="2.6396">
        <ele>104</ele>
        <time>2020-10-11T11:52:28.000Z</time>
      </trkpt>
      <trkpt lat="43.26555" lon="2.63973">
        <ele>104</ele>
        <time>2020-10-11T11:52:32.000Z</time>
      </trkpt>
      <trkpt lat="43.26548" lon="2.63983">
        <ele>103</ele>
        <time>2020-10-11T11:52:35.000Z</time>
      </trkpt>
      <trkpt lat="43.26531" lon="2.64016">
        <ele>104</ele>
        <time>2020-10-11T11:52:43.000Z</time>
      </trkpt>
      <trkpt lat="43.26521" lon="2.64033">
        <ele>104</ele>
        <time>2020-10-11T11:52:47.000Z</time>
      </trkpt>
      <trkpt lat="43.26515" lon="2.6405">
        <ele>104</ele>
        <time>2020-10-11T11:52:50.000Z</time>
      </trkpt>
      <trkpt lat="43.26512" lon="2.64067">
        <ele>106</ele>
        <time>2020-10-11T11:52:54.000Z</time>
      </trkpt>
      <trkpt lat="43.26508" lon="2.64078">
        <ele>107</ele>
        <time>2020-10-11T11:52:57.000Z</time>
      </trkpt>
      <trkpt lat="43.26498" lon="2.64094">
        <ele>107</ele>
        <time>2020-10-11T11:53:01.000Z</time>
      </trkpt>
      <trkpt lat="43.26473" lon="2.64127">
        <ele>106</ele>
        <time>2020-10-11T11:53:09.000Z</time>
      </trkpt>
      <trkpt lat="43.26467" lon="2.64134">
        <ele>106</ele>
        <time>2020-10-11T11:53:11.000Z</time>
      </trkpt>
      <trkpt lat="43.26457" lon="2.64142">
        <ele>105</ele>
        <time>2020-10-11T11:53:14.000Z</time>
      </trkpt>
      <trkpt lat="43.26453" lon="2.64147">
        <ele>105</ele>
        <time>2020-10-11T11:53:15.000Z</time>
      </trkpt>
      <trkpt lat="43.26446" lon="2.64166">
        <ele>103</ele>
        <time>2020-10-11T11:53:18.000Z</time>
      </trkpt>
      <trkpt lat="43.26435" lon="2.6419">
        <ele>100</ele>
        <time>2020-10-11T11:53:22.000Z</time>
      </trkpt>
      <trkpt lat="43.26434" lon="2.64203">
        <ele>100</ele>
        <time>2020-10-11T11:53:24.000Z</time>
      </trkpt>
      <trkpt lat="43.26435" lon="2.6421">
        <ele>99</ele>
        <time>2020-10-11T11:53:25.000Z</time>
      </trkpt>
      <trkpt lat="43.26437" lon="2.64216">
        <ele>99</ele>
        <time>2020-10-11T11:53:26.000Z</time>
      </trkpt>
      <trkpt lat="43.2644" lon="2.6423">
        <ele>99</ele>
        <time>2020-10-11T11:53:28.000Z</time>
      </trkpt>
      <trkpt lat="43.26439" lon="2.64235">
        <ele>99</ele>
        <time>2020-10-11T11:53:29.000Z</time>
      </trkpt>
      <trkpt lat="43.26434" lon="2.6424">
        <ele>99</ele>
        <time>2020-10-11T11:53:31.000Z</time>
      </trkpt>
      <trkpt lat="43.26426" lon="2.64244">
        <ele>98</ele>
        <time>2020-10-11T11:53:33.000Z</time>
      </trkpt>
      <trkpt lat="43.26422" lon="2.64245">
        <ele>97</ele>
        <time>2020-10-11T11:53:34.000Z</time>
      </trkpt>
      <trkpt lat="43.26418" lon="2.64245">
        <ele>96</ele>
        <time>2020-10-11T11:53:35.000Z</time>
      </trkpt>
      <trkpt lat="43.2641" lon="2.64243">
        <ele>94</ele>
        <time>2020-10-11T11:53:37.000Z</time>
      </trkpt>
      <trkpt lat="43.26403" lon="2.6424">
        <ele>93</ele>
        <time>2020-10-11T11:53:39.000Z</time>
      </trkpt>
      <trkpt lat="43.26396" lon="2.6424">
        <ele>92</ele>
        <time>2020-10-11T11:53:41.000Z</time>
      </trkpt>
      <trkpt lat="43.2639" lon="2.64244">
        <ele>91</ele>
        <time>2020-10-11T11:53:43.000Z</time>
      </trkpt>
      <trkpt lat="43.26387" lon="2.64248">
        <ele>91</ele>
        <time>2020-10-11T11:53:44.000Z</time>
      </trkpt>
      <trkpt lat="43.26381" lon="2.64257">
        <ele>90</ele>
        <time>2020-10-11T11:53:46.000Z</time>
      </trkpt>
      <trkpt lat="43.26378" lon="2.64267">
        <ele>88</ele>
        <time>2020-10-11T11:53:48.000Z</time>
      </trkpt>
      <trkpt lat="43.26375" lon="2.64276">
        <ele>87</ele>
        <time>2020-10-11T11:53:50.000Z</time>
      </trkpt>
      <trkpt lat="43.26374" lon="2.64282">
        <ele>86</ele>
        <time>2020-10-11T11:53:51.000Z</time>
      </trkpt>
      <trkpt lat="43.26371" lon="2.64286">
        <ele>86</ele>
        <time>2020-10-11T11:53:52.000Z</time>
      </trkpt>
      <trkpt lat="43.26363" lon="2.64295">
        <ele>84</ele>
        <time>2020-10-11T11:53:54.000Z</time>
      </trkpt>
      <trkpt lat="43.26352" lon="2.64303">
        <ele>82</ele>
        <time>2020-10-11T11:53:58.000Z</time>
      </trkpt>
      <trkpt lat="43.26348" lon="2.64304">
        <ele>81</ele>
        <time>2020-10-11T11:53:59.000Z</time>
      </trkpt>
      <trkpt lat="43.26345" lon="2.64304">
        <ele>80</ele>
        <time>2020-10-11T11:54:00.000Z</time>
      </trkpt>
      <trkpt lat="43.26316" lon="2.64298">
        <ele>77</ele>
        <time>2020-10-11T11:54:08.000Z</time>
      </trkpt>
      <trkpt lat="43.26311" lon="2.64289">
        <ele>76</ele>
        <time>2020-10-11T11:54:11.000Z</time>
      </trkpt>
      <trkpt lat="43.26312" lon="2.64274">
        <ele>76</ele>
        <time>2020-10-11T11:54:16.000Z</time>
      </trkpt>
      <trkpt lat="43.26313" lon="2.64272">
        <ele>76</ele>
        <time>2020-10-11T11:54:23.000Z</time>
      </trkpt>
      <trkpt lat="43.26312" lon="2.64242">
        <ele>75</ele>
        <time>2020-10-11T11:54:31.000Z</time>
      </trkpt>
      <trkpt lat="43.26313" lon="2.64222">
        <ele>75</ele>
        <time>2020-10-11T11:54:35.000Z</time>
      </trkpt>
      <trkpt lat="43.26312" lon="2.64199">
        <ele>75</ele>
        <time>2020-10-11T11:54:40.000Z</time>
      </trkpt>
      <trkpt lat="43.2631" lon="2.64184">
        <ele>75</ele>
        <time>2020-10-11T11:54:43.000Z</time>
      </trkpt>
      <trkpt lat="43.26303" lon="2.64154">
        <ele>76</ele>
        <time>2020-10-11T11:54:49.000Z</time>
      </trkpt>
      <trkpt lat="43.26301" lon="2.64128">
        <ele>77</ele>
        <time>2020-10-11T11:54:53.000Z</time>
      </trkpt>
      <trkpt lat="43.26301" lon="2.64115">
        <ele>77</ele>
        <time>2020-10-11T11:54:55.000Z</time>
      </trkpt>
      <trkpt lat="43.26303" lon="2.64104">
        <ele>76</ele>
        <time>2020-10-11T11:54:57.000Z</time>
      </trkpt>
      <trkpt lat="43.26306" lon="2.6409">
        <ele>76</ele>
        <time>2020-10-11T11:54:59.000Z</time>
      </trkpt>
      <trkpt lat="43.26309" lon="2.6407">
        <ele>75</ele>
        <time>2020-10-11T11:55:02.000Z</time>
      </trkpt>
      <trkpt lat="43.26312" lon="2.64053">
        <ele>75</ele>
        <time>2020-10-11T11:55:05.000Z</time>
      </trkpt>
      <trkpt lat="43.26315" lon="2.64042">
        <ele>75</ele>
        <time>2020-10-11T11:55:07.000Z</time>
      </trkpt>
      <trkpt lat="43.26318" lon="2.64038">
        <ele>75</ele>
        <time>2020-10-11T11:55:08.000Z</time>
      </trkpt>
      <trkpt lat="43.26334" lon="2.6402">
        <ele>76</ele>
        <time>2020-10-11T11:55:13.000Z</time>
      </trkpt>
      <trkpt lat="43.26363" lon="2.63983">
        <ele>76</ele>
        <time>2020-10-11T11:55:22.000Z</time>
      </trkpt>
      <trkpt lat="43.26386" lon="2.63949">
        <ele>77</ele>
        <time>2020-10-11T11:55:31.000Z</time>
      </trkpt>
      <trkpt lat="43.26396" lon="2.63933">
        <ele>78</ele>
        <time>2020-10-11T11:55:35.000Z</time>
      </trkpt>
      <trkpt lat="43.26404" lon="2.63926">
        <ele>78</ele>
        <time>2020-10-11T11:55:37.000Z</time>
      </trkpt>
      <trkpt lat="43.26425" lon="2.63911">
        <ele>77</ele>
        <time>2020-10-11T11:55:43.000Z</time>
      </trkpt>
      <trkpt lat="43.26432" lon="2.63905">
        <ele>77</ele>
        <time>2020-10-11T11:55:45.000Z</time>
      </trkpt>
      <trkpt lat="43.26445" lon="2.63889">
        <ele>76</ele>
        <time>2020-10-11T11:55:49.000Z</time>
      </trkpt>
      <trkpt lat="43.2647" lon="2.63856">
        <ele>75</ele>
        <time>2020-10-11T11:55:58.000Z</time>
      </trkpt>
      <trkpt lat="43.26479" lon="2.63847">
        <ele>74</ele>
        <time>2020-10-11T11:56:01.000Z</time>
      </trkpt>
      <trkpt lat="43.2651" lon="2.63821">
        <ele>74</ele>
        <time>2020-10-11T11:56:11.000Z</time>
      </trkpt>
      <trkpt lat="43.26526" lon="2.63807">
        <ele>74</ele>
        <time>2020-10-11T11:56:16.000Z</time>
      </trkpt>
      <trkpt lat="43.26537" lon="2.63797">
        <ele>75</ele>
        <time>2020-10-11T11:56:20.000Z</time>
      </trkpt>
      <trkpt lat="43.26538" lon="2.63794">
        <ele>75</ele>
        <time>2020-10-11T11:56:21.000Z</time>
      </trkpt>
      <trkpt lat="43.26539" lon="2.63792">
        <ele>76</ele>
        <time>2020-10-11T11:56:24.000Z</time>
      </trkpt>
      <trkpt lat="43.26542" lon="2.63791">
        <ele>78</ele>
        <time>2020-10-11T11:56:33.000Z</time>
      </trkpt>
      <trkpt lat="43.26553" lon="2.63785">
        <ele>77</ele>
        <time>2020-10-11T11:56:38.000Z</time>
      </trkpt>
      <trkpt lat="43.26567" lon="2.6377">
        <ele>77</ele>
        <time>2020-10-11T11:56:44.000Z</time>
      </trkpt>
      <trkpt lat="43.26583" lon="2.63743">
        <ele>78</ele>
        <time>2020-10-11T11:56:51.000Z</time>
      </trkpt>
      <trkpt lat="43.26591" lon="2.63733">
        <ele>78</ele>
        <time>2020-10-11T11:56:54.000Z</time>
      </trkpt>
      <trkpt lat="43.26598" lon="2.63728">
        <ele>78</ele>
        <time>2020-10-11T11:56:56.000Z</time>
      </trkpt>
      <trkpt lat="43.26604" lon="2.63725">
        <ele>78</ele>
        <time>2020-10-11T11:56:58.000Z</time>
      </trkpt>
      <trkpt lat="43.26613" lon="2.63723">
        <ele>79</ele>
        <time>2020-10-11T11:57:01.000Z</time>
      </trkpt>
      <trkpt lat="43.26623" lon="2.63717">
        <ele>80</ele>
        <time>2020-10-11T11:57:04.000Z</time>
      </trkpt>
      <trkpt lat="43.26637" lon="2.63698">
        <ele>81</ele>
        <time>2020-10-11T11:57:10.000Z</time>
      </trkpt>
      <trkpt lat="43.26639" lon="2.63696">
        <ele>81</ele>
        <time>2020-10-11T11:57:11.000Z</time>
      </trkpt>
      <trkpt lat="43.26646" lon="2.63691">
        <ele>82</ele>
        <time>2020-10-11T11:57:13.000Z</time>
      </trkpt>
      <trkpt lat="43.26663" lon="2.63684">
        <ele>81</ele>
        <time>2020-10-11T11:57:19.000Z</time>
      </trkpt>
      <trkpt lat="43.26666" lon="2.63681">
        <ele>81</ele>
        <time>2020-10-11T11:57:20.000Z</time>
      </trkpt>
      <trkpt lat="43.26673" lon="2.63673">
        <ele>81</ele>
        <time>2020-10-11T11:57:23.000Z</time>
      </trkpt>
      <trkpt lat="43.26696" lon="2.63642">
        <ele>83</ele>
        <time>2020-10-11T11:57:34.000Z</time>
      </trkpt>
      <trkpt lat="43.2672" lon="2.63612">
        <ele>84</ele>
        <time>2020-10-11T11:57:44.000Z</time>
      </trkpt>
      <trkpt lat="43.2673" lon="2.636">
        <ele>84</ele>
        <time>2020-10-11T11:57:48.000Z</time>
      </trkpt>
      <trkpt lat="43.26734" lon="2.63593">
        <ele>84</ele>
        <time>2020-10-11T11:57:50.000Z</time>
      </trkpt>
      <trkpt lat="43.26735" lon="2.63589">
        <ele>84</ele>
        <time>2020-10-11T11:57:51.000Z</time>
      </trkpt>
      <trkpt lat="43.26743" lon="2.63556">
        <ele>82</ele>
        <time>2020-10-11T11:57:58.000Z</time>
      </trkpt>
      <trkpt lat="43.26747" lon="2.63542">
        <ele>82</ele>
        <time>2020-10-11T11:58:01.000Z</time>
      </trkpt>
      <trkpt lat="43.2675" lon="2.63523">
        <ele>83</ele>
        <time>2020-10-11T11:58:05.000Z</time>
      </trkpt>
      <trkpt lat="43.26752" lon="2.63496">
        <ele>83</ele>
        <time>2020-10-11T11:58:10.000Z</time>
      </trkpt>
      <trkpt lat="43.26753" lon="2.63474">
        <ele>81</ele>
        <time>2020-10-11T11:58:14.000Z</time>
      </trkpt>
      <trkpt lat="43.26752" lon="2.63464">
        <ele>80</ele>
        <time>2020-10-11T11:58:16.000Z</time>
      </trkpt>
      <trkpt lat="43.26746" lon="2.6344">
        <ele>80</ele>
        <time>2020-10-11T11:58:21.000Z</time>
      </trkpt>
      <trkpt lat="43.26735" lon="2.63401">
        <ele>80</ele>
        <time>2020-10-11T11:58:29.000Z</time>
      </trkpt>
      <trkpt lat="43.26731" lon="2.63386">
        <ele>79</ele>
        <time>2020-10-11T11:58:32.000Z</time>
      </trkpt>
      <trkpt lat="43.26726" lon="2.63366">
        <ele>79</ele>
        <time>2020-10-11T11:58:36.000Z</time>
      </trkpt>
      <trkpt lat="43.26717" lon="2.63325">
        <ele>80</ele>
        <time>2020-10-11T11:58:44.000Z</time>
      </trkpt>
      <trkpt lat="43.26715" lon="2.6331">
        <ele>81</ele>
        <time>2020-10-11T11:58:47.000Z</time>
      </trkpt>
      <trkpt lat="43.26716" lon="2.63298">
        <ele>82</ele>
        <time>2020-10-11T11:58:49.000Z</time>
      </trkpt>
      <trkpt lat="43.2672" lon="2.63265">
        <ele>80</ele>
        <time>2020-10-11T11:58:55.000Z</time>
      </trkpt>
      <trkpt lat="43.26721" lon="2.6325">
        <ele>80</ele>
        <time>2020-10-11T11:58:58.000Z</time>
      </trkpt>
      <trkpt lat="43.26723" lon="2.63235">
        <ele>80</ele>
        <time>2020-10-11T11:59:01.000Z</time>
      </trkpt>
      <trkpt lat="43.26724" lon="2.63225">
        <ele>80</ele>
        <time>2020-10-11T11:59:03.000Z</time>
      </trkpt>
      <trkpt lat="43.26726" lon="2.63206">
        <ele>80</ele>
        <time>2020-10-11T11:59:07.000Z</time>
      </trkpt>
      <trkpt lat="43.26728" lon="2.63197">
        <ele>80</ele>
        <time>2020-10-11T11:59:08.000Z</time>
      </trkpt>
      <trkpt lat="43.26745" lon="2.63127">
        <ele>79</ele>
        <time>2020-10-11T11:59:23.000Z</time>
      </trkpt>
      <trkpt lat="43.26756" lon="2.63098">
        <ele>79</ele>
        <time>2020-10-11T11:59:29.000Z</time>
      </trkpt>
      <trkpt lat="43.26768" lon="2.6306">
        <ele>78</ele>
        <time>2020-10-11T11:59:37.000Z</time>
      </trkpt>
      <trkpt lat="43.26776" lon="2.63036">
        <ele>80</ele>
        <time>2020-10-11T11:59:42.000Z</time>
      </trkpt>
      <trkpt lat="43.26781" lon="2.63013">
        <ele>78</ele>
        <time>2020-10-11T11:59:47.000Z</time>
      </trkpt>
      <trkpt lat="43.26782" lon="2.62999">
        <ele>78</ele>
        <time>2020-10-11T11:59:50.000Z</time>
      </trkpt>
      <trkpt lat="43.26781" lon="2.62989">
        <ele>78</ele>
        <time>2020-10-11T11:59:52.000Z</time>
      </trkpt>
      <trkpt lat="43.26777" lon="2.6298">
        <ele>78</ele>
        <time>2020-10-11T11:59:54.000Z</time>
      </trkpt>
      <trkpt lat="43.26768" lon="2.62964">
        <ele>78</ele>
        <time>2020-10-11T11:59:58.000Z</time>
      </trkpt>
      <trkpt lat="43.26766" lon="2.6296">
        <ele>78</ele>
        <time>2020-10-11T11:59:59.000Z</time>
      </trkpt>
      <trkpt lat="43.26766" lon="2.6295">
        <ele>77</ele>
        <time>2020-10-11T12:00:01.000Z</time>
      </trkpt>
      <trkpt lat="43.26771" lon="2.6293">
        <ele>76</ele>
        <time>2020-10-11T12:00:05.000Z</time>
      </trkpt>
      <trkpt lat="43.26772" lon="2.62925">
        <ele>76</ele>
        <time>2020-10-11T12:00:06.000Z</time>
      </trkpt>
      <trkpt lat="43.26765" lon="2.62914">
        <ele>76</ele>
        <time>2020-10-11T12:00:09.000Z</time>
      </trkpt>
      <trkpt lat="43.2674" lon="2.62901">
        <ele>77</ele>
        <time>2020-10-11T12:00:16.000Z</time>
      </trkpt>
      <trkpt lat="43.26728" lon="2.62893">
        <ele>78</ele>
        <time>2020-10-11T12:00:20.000Z</time>
      </trkpt>
      <trkpt lat="43.26705" lon="2.62875">
        <ele>77</ele>
        <time>2020-10-11T12:00:27.000Z</time>
      </trkpt>
      <trkpt lat="43.26681" lon="2.62864">
        <ele>77</ele>
        <time>2020-10-11T12:00:34.000Z</time>
      </trkpt>
      <trkpt lat="43.26668" lon="2.62855">
        <ele>77</ele>
        <time>2020-10-11T12:00:38.000Z</time>
      </trkpt>
      <trkpt lat="43.26638" lon="2.6284">
        <ele>77</ele>
        <time>2020-10-11T12:00:47.000Z</time>
      </trkpt>
      <trkpt lat="43.26613" lon="2.62831">
        <ele>78</ele>
        <time>2020-10-11T12:00:54.000Z</time>
      </trkpt>
      <trkpt lat="43.26582" lon="2.62811">
        <ele>77</ele>
        <time>2020-10-11T12:01:03.000Z</time>
      </trkpt>
      <trkpt lat="43.26557" lon="2.62797">
        <ele>76</ele>
        <time>2020-10-11T12:01:10.000Z</time>
      </trkpt>
      <trkpt lat="43.26544" lon="2.62792">
        <ele>77</ele>
        <time>2020-10-11T12:01:14.000Z</time>
      </trkpt>
      <trkpt lat="43.26541" lon="2.62793">
        <ele>77</ele>
        <time>2020-10-11T12:01:15.000Z</time>
      </trkpt>
      <trkpt lat="43.26535" lon="2.62796">
        <ele>77</ele>
        <time>2020-10-11T12:01:17.000Z</time>
      </trkpt>
      <trkpt lat="43.26532" lon="2.62798">
        <ele>77</ele>
        <time>2020-10-11T12:01:18.000Z</time>
      </trkpt>
      <trkpt lat="43.2653" lon="2.62801">
        <ele>77</ele>
        <time>2020-10-11T12:01:19.000Z</time>
      </trkpt>
      <trkpt lat="43.26493" lon="2.62887">
        <ele>76</ele>
        <time>2020-10-11T12:01:39.000Z</time>
      </trkpt>
      <trkpt lat="43.26481" lon="2.62917">
        <ele>76</ele>
        <time>2020-10-11T12:01:46.000Z</time>
      </trkpt>
      <trkpt lat="43.2646" lon="2.62963">
        <ele>76</ele>
        <time>2020-10-11T12:01:59.000Z</time>
      </trkpt>
      <trkpt lat="43.26455" lon="2.62972">
        <ele>76</ele>
        <time>2020-10-11T12:02:02.000Z</time>
      </trkpt>
      <trkpt lat="43.26447" lon="2.62993">
        <ele>75</ele>
        <time>2020-10-11T12:02:07.000Z</time>
      </trkpt>
      <trkpt lat="43.26438" lon="2.62999">
        <ele>75</ele>
        <time>2020-10-11T12:02:11.000Z</time>
      </trkpt>
      <trkpt lat="43.26431" lon="2.62992">
        <ele>74</ele>
        <time>2020-10-11T12:02:14.000Z</time>
      </trkpt>
      <trkpt lat="43.26412" lon="2.62971">
        <ele>77</ele>
        <time>2020-10-11T12:02:22.000Z</time>
      </trkpt>
      <trkpt lat="43.2641" lon="2.6297">
        <ele>77</ele>
        <time>2020-10-11T12:02:23.000Z</time>
      </trkpt>
      <trkpt lat="43.26405" lon="2.62971">
        <ele>77</ele>
        <time>2020-10-11T12:02:25.000Z</time>
      </trkpt>
      <trkpt lat="43.26403" lon="2.62974">
        <ele>77</ele>
        <time>2020-10-11T12:02:26.000Z</time>
      </trkpt>
      <trkpt lat="43.264" lon="2.62979">
        <ele>77</ele>
        <time>2020-10-11T12:02:27.000Z</time>
      </trkpt>
      <trkpt lat="43.26391" lon="2.63011">
        <ele>76</ele>
        <time>2020-10-11T12:02:32.000Z</time>
      </trkpt>
      <trkpt lat="43.26381" lon="2.63039">
        <ele>76</ele>
        <time>2020-10-11T12:02:36.000Z</time>
      </trkpt>
      <trkpt lat="43.2637" lon="2.63067">
        <ele>75</ele>
        <time>2020-10-11T12:02:40.000Z</time>
      </trkpt>
      <trkpt lat="43.2636" lon="2.63087">
        <ele>75</ele>
        <time>2020-10-11T12:02:43.000Z</time>
      </trkpt>
      <trkpt lat="43.26342" lon="2.63128">
        <ele>74</ele>
        <time>2020-10-11T12:02:49.000Z</time>
      </trkpt>
      <trkpt lat="43.26329" lon="2.6316">
        <ele>74</ele>
        <time>2020-10-11T12:02:54.000Z</time>
      </trkpt>
      <trkpt lat="43.26326" lon="2.63165">
        <ele>74</ele>
        <time>2020-10-11T12:02:55.000Z</time>
      </trkpt>
      <trkpt lat="43.26298" lon="2.63204">
        <ele>75</ele>
        <time>2020-10-11T12:03:03.000Z</time>
      </trkpt>
      <trkpt lat="43.26276" lon="2.63227">
        <ele>74</ele>
        <time>2020-10-11T12:03:09.000Z</time>
      </trkpt>
      <trkpt lat="43.26266" lon="2.63243">
        <ele>74</ele>
        <time>2020-10-11T12:03:12.000Z</time>
      </trkpt>
      <trkpt lat="43.26252" lon="2.63261">
        <ele>74</ele>
        <time>2020-10-11T12:03:16.000Z</time>
      </trkpt>
      <trkpt lat="43.26225" lon="2.63291">
        <ele>73</ele>
        <time>2020-10-11T12:03:23.000Z</time>
      </trkpt>
      <trkpt lat="43.26214" lon="2.63302">
        <ele>73</ele>
        <time>2020-10-11T12:03:26.000Z</time>
      </trkpt>
      <trkpt lat="43.26202" lon="2.63312">
        <ele>73</ele>
        <time>2020-10-11T12:03:29.000Z</time>
      </trkpt>
      <trkpt lat="43.2618" lon="2.63328">
        <ele>73</ele>
        <time>2020-10-11T12:03:35.000Z</time>
      </trkpt>
      <trkpt lat="43.26173" lon="2.63336">
        <ele>73</ele>
        <time>2020-10-11T12:03:37.000Z</time>
      </trkpt>
      <trkpt lat="43.26169" lon="2.63346">
        <ele>73</ele>
        <time>2020-10-11T12:03:39.000Z</time>
      </trkpt>
      <trkpt lat="43.26162" lon="2.63371">
        <ele>73</ele>
        <time>2020-10-11T12:03:43.000Z</time>
      </trkpt>
      <trkpt lat="43.26149" lon="2.6341">
        <ele>73</ele>
        <time>2020-10-11T12:03:49.000Z</time>
      </trkpt>
      <trkpt lat="43.26141" lon="2.6343">
        <ele>73</ele>
        <time>2020-10-11T12:03:52.000Z</time>
      </trkpt>
      <trkpt lat="43.26133" lon="2.63456">
        <ele>73</ele>
        <time>2020-10-11T12:03:56.000Z</time>
      </trkpt>
      <trkpt lat="43.26121" lon="2.63472">
        <ele>73</ele>
        <time>2020-10-11T12:04:00.000Z</time>
      </trkpt>
      <trkpt lat="43.26107" lon="2.63471">
        <ele>73</ele>
        <time>2020-10-11T12:04:04.000Z</time>
      </trkpt>
      <trkpt lat="43.26097" lon="2.63473">
        <ele>72</ele>
        <time>2020-10-11T12:04:07.000Z</time>
      </trkpt>
      <trkpt lat="43.26094" lon="2.63477">
        <ele>72</ele>
        <time>2020-10-11T12:04:08.000Z</time>
      </trkpt>
      <trkpt lat="43.26088" lon="2.63496">
        <ele>72</ele>
        <time>2020-10-11T12:04:12.000Z</time>
      </trkpt>
      <trkpt lat="43.26081" lon="2.63522">
        <ele>71</ele>
        <time>2020-10-11T12:04:18.000Z</time>
      </trkpt>
      <trkpt lat="43.26071" lon="2.63567">
        <ele>70</ele>
        <time>2020-10-11T12:04:28.000Z</time>
      </trkpt>
      <trkpt lat="43.26066" lon="2.63586">
        <ele>71</ele>
        <time>2020-10-11T12:04:32.000Z</time>
      </trkpt>
      <trkpt lat="43.26062" lon="2.636">
        <ele>71</ele>
        <time>2020-10-11T12:04:35.000Z</time>
      </trkpt>
      <trkpt lat="43.26061" lon="2.63605">
        <ele>71</ele>
        <time>2020-10-11T12:04:36.000Z</time>
      </trkpt>
      <trkpt lat="43.26058" lon="2.6363">
        <ele>71</ele>
        <time>2020-10-11T12:04:42.000Z</time>
      </trkpt>
      <trkpt lat="43.26062" lon="2.63652">
        <ele>72</ele>
        <time>2020-10-11T12:04:47.000Z</time>
      </trkpt>
      <trkpt lat="43.26062" lon="2.6366">
        <ele>73</ele>
        <time>2020-10-11T12:04:49.000Z</time>
      </trkpt>
      <trkpt lat="43.2606" lon="2.63669">
        <ele>73</ele>
        <time>2020-10-11T12:04:51.000Z</time>
      </trkpt>
      <trkpt lat="43.26056" lon="2.63694">
        <ele>72</ele>
        <time>2020-10-11T12:04:56.000Z</time>
      </trkpt>
      <trkpt lat="43.26054" lon="2.6371">
        <ele>72</ele>
        <time>2020-10-11T12:04:59.000Z</time>
      </trkpt>
      <trkpt lat="43.26053" lon="2.63728">
        <ele>72</ele>
        <time>2020-10-11T12:05:02.000Z</time>
      </trkpt>
      <trkpt lat="43.26051" lon="2.63751">
        <ele>72</ele>
        <time>2020-10-11T12:05:06.000Z</time>
      </trkpt>
      <trkpt lat="43.26049" lon="2.63779">
        <ele>72</ele>
        <time>2020-10-11T12:05:11.000Z</time>
      </trkpt>
      <trkpt lat="43.26044" lon="2.6381">
        <ele>72</ele>
        <time>2020-10-11T12:05:17.000Z</time>
      </trkpt>
      <trkpt lat="43.26042" lon="2.6385">
        <ele>72</ele>
        <time>2020-10-11T12:05:24.000Z</time>
      </trkpt>
      <trkpt lat="43.26038" lon="2.63884">
        <ele>72</ele>
        <time>2020-10-11T12:05:30.000Z</time>
      </trkpt>
      <trkpt lat="43.26037" lon="2.63896">
        <ele>72</ele>
        <time>2020-10-11T12:05:32.000Z</time>
      </trkpt>
      <trkpt lat="43.26036" lon="2.63909">
        <ele>72</ele>
        <time>2020-10-11T12:05:34.000Z</time>
      </trkpt>
      <trkpt lat="43.26032" lon="2.63932">
        <ele>72</ele>
        <time>2020-10-11T12:05:38.000Z</time>
      </trkpt>
      <trkpt lat="43.2603" lon="2.63949">
        <ele>72</ele>
        <time>2020-10-11T12:05:41.000Z</time>
      </trkpt>
      <trkpt lat="43.26029" lon="2.63961">
        <ele>72</ele>
        <time>2020-10-11T12:05:43.000Z</time>
      </trkpt>
      <trkpt lat="43.26033" lon="2.63978">
        <ele>72</ele>
        <time>2020-10-11T12:05:46.000Z</time>
      </trkpt>
      <trkpt lat="43.26039" lon="2.63984">
        <ele>72</ele>
        <time>2020-10-11T12:05:48.000Z</time>
      </trkpt>
      <trkpt lat="43.26046" lon="2.6399">
        <ele>72</ele>
        <time>2020-10-11T12:05:50.000Z</time>
      </trkpt>
      <trkpt lat="43.26057" lon="2.64001">
        <ele>71</ele>
        <time>2020-10-11T12:05:53.000Z</time>
      </trkpt>
      <trkpt lat="43.26063" lon="2.6401">
        <ele>71</ele>
        <time>2020-10-11T12:05:55.000Z</time>
      </trkpt>
      <trkpt lat="43.26078" lon="2.64034">
        <ele>69</ele>
        <time>2020-10-11T12:06:00.000Z</time>
      </trkpt>
      <trkpt lat="43.26091" lon="2.64052">
        <ele>70</ele>
        <time>2020-10-11T12:06:04.000Z</time>
      </trkpt>
      <trkpt lat="43.261" lon="2.64059">
        <ele>70</ele>
        <time>2020-10-11T12:06:06.000Z</time>
      </trkpt>
      <trkpt lat="43.2611" lon="2.64064">
        <ele>71</ele>
        <time>2020-10-11T12:06:08.000Z</time>
      </trkpt>
      <trkpt lat="43.26115" lon="2.64065">
        <ele>71</ele>
        <time>2020-10-11T12:06:09.000Z</time>
      </trkpt>
      <trkpt lat="43.26122" lon="2.64075">
        <ele>71</ele>
        <time>2020-10-11T12:06:12.000Z</time>
      </trkpt>
      <trkpt lat="43.26122" lon="2.6408">
        <ele>71</ele>
        <time>2020-10-11T12:06:13.000Z</time>
      </trkpt>
      <trkpt lat="43.26111" lon="2.64149">
        <ele>70</ele>
        <time>2020-10-11T12:06:25.000Z</time>
      </trkpt>
      <trkpt lat="43.2611" lon="2.64156">
        <ele>70</ele>
        <time>2020-10-11T12:06:26.000Z</time>
      </trkpt>
      <trkpt lat="43.26112" lon="2.64174">
        <ele>70</ele>
        <time>2020-10-11T12:06:29.000Z</time>
      </trkpt>
      <trkpt lat="43.26114" lon="2.64179">
        <ele>70</ele>
        <time>2020-10-11T12:06:30.000Z</time>
      </trkpt>
      <trkpt lat="43.26125" lon="2.64196">
        <ele>70</ele>
        <time>2020-10-11T12:06:34.000Z</time>
      </trkpt>
      <trkpt lat="43.26152" lon="2.64239">
        <ele>70</ele>
        <time>2020-10-11T12:06:44.000Z</time>
      </trkpt>
      <trkpt lat="43.26157" lon="2.64249">
        <ele>70</ele>
        <time>2020-10-11T12:06:46.000Z</time>
      </trkpt>
      <trkpt lat="43.26169" lon="2.64279">
        <ele>71</ele>
        <time>2020-10-11T12:06:52.000Z</time>
      </trkpt>
      <trkpt lat="43.26174" lon="2.64286">
        <ele>71</ele>
        <time>2020-10-11T12:06:54.000Z</time>
      </trkpt>
      <trkpt lat="43.2618" lon="2.64292">
        <ele>71</ele>
        <time>2020-10-11T12:06:56.000Z</time>
      </trkpt>
      <trkpt lat="43.26186" lon="2.64299">
        <ele>71</ele>
        <time>2020-10-11T12:06:58.000Z</time>
      </trkpt>
      <trkpt lat="43.26202" lon="2.64328">
        <ele>72</ele>
        <time>2020-10-11T12:07:05.000Z</time>
      </trkpt>
      <trkpt lat="43.26229" lon="2.64369">
        <ele>72</ele>
        <time>2020-10-11T12:07:14.000Z</time>
      </trkpt>
      <trkpt lat="43.26234" lon="2.64379">
        <ele>72</ele>
        <time>2020-10-11T12:07:16.000Z</time>
      </trkpt>
      <trkpt lat="43.26238" lon="2.64391">
        <ele>72</ele>
        <time>2020-10-11T12:07:18.000Z</time>
      </trkpt>
      <trkpt lat="43.2624" lon="2.64405">
        <ele>72</ele>
        <time>2020-10-11T12:07:20.000Z</time>
      </trkpt>
      <trkpt lat="43.2624" lon="2.64418">
        <ele>72</ele>
        <time>2020-10-11T12:07:22.000Z</time>
      </trkpt>
      <trkpt lat="43.26238" lon="2.64456">
        <ele>71</ele>
        <time>2020-10-11T12:07:28.000Z</time>
      </trkpt>
      <trkpt lat="43.26238" lon="2.64478">
        <ele>71</ele>
        <time>2020-10-11T12:07:32.000Z</time>
      </trkpt>
      <trkpt lat="43.26238" lon="2.64484">
        <ele>71</ele>
        <time>2020-10-11T12:07:33.000Z</time>
      </trkpt>
      <trkpt lat="43.2625" lon="2.64544">
        <ele>70</ele>
        <time>2020-10-11T12:07:43.000Z</time>
      </trkpt>
      <trkpt lat="43.26261" lon="2.64579">
        <ele>69</ele>
        <time>2020-10-11T12:07:49.000Z</time>
      </trkpt>
      <trkpt lat="43.26268" lon="2.64604">
        <ele>70</ele>
        <time>2020-10-11T12:07:53.000Z</time>
      </trkpt>
      <trkpt lat="43.2627" lon="2.64618">
        <ele>69</ele>
        <time>2020-10-11T12:07:55.000Z</time>
      </trkpt>
      <trkpt lat="43.26272" lon="2.64715">
        <ele>68</ele>
        <time>2020-10-11T12:08:08.000Z</time>
      </trkpt>
      <trkpt lat="43.26274" lon="2.64745">
        <ele>68</ele>
        <time>2020-10-11T12:08:13.000Z</time>
      </trkpt>
      <trkpt lat="43.26272" lon="2.64749">
        <ele>68</ele>
        <time>2020-10-11T12:08:14.000Z</time>
      </trkpt>
      <trkpt lat="43.2627" lon="2.64752">
        <ele>68</ele>
        <time>2020-10-11T12:08:15.000Z</time>
      </trkpt>
      <trkpt lat="43.26267" lon="2.64754">
        <ele>68</ele>
        <time>2020-10-11T12:08:16.000Z</time>
      </trkpt>
      <trkpt lat="43.26256" lon="2.64755">
        <ele>68</ele>
        <time>2020-10-11T12:08:19.000Z</time>
      </trkpt>
      <trkpt lat="43.26225" lon="2.64758">
        <ele>68</ele>
        <time>2020-10-11T12:08:26.000Z</time>
      </trkpt>
      <trkpt lat="43.26206" lon="2.64761">
        <ele>68</ele>
        <time>2020-10-11T12:08:30.000Z</time>
      </trkpt>
      <trkpt lat="43.2618" lon="2.64765">
        <ele>67</ele>
        <time>2020-10-11T12:08:36.000Z</time>
      </trkpt>
      <trkpt lat="43.26167" lon="2.64767">
        <ele>67</ele>
        <time>2020-10-11T12:08:39.000Z</time>
      </trkpt>
      <trkpt lat="43.26164" lon="2.6477">
        <ele>67</ele>
        <time>2020-10-11T12:08:40.000Z</time>
      </trkpt>
      <trkpt lat="43.26162" lon="2.64779">
        <ele>68</ele>
        <time>2020-10-11T12:08:42.000Z</time>
      </trkpt>
      <trkpt lat="43.26162" lon="2.64784">
        <ele>68</ele>
        <time>2020-10-11T12:08:43.000Z</time>
      </trkpt>
      <trkpt lat="43.26167" lon="2.64807">
        <ele>68</ele>
        <time>2020-10-11T12:08:47.000Z</time>
      </trkpt>
      <trkpt lat="43.26171" lon="2.64828">
        <ele>68</ele>
        <time>2020-10-11T12:08:50.000Z</time>
      </trkpt>
      <trkpt lat="43.26181" lon="2.6491">
        <ele>67</ele>
        <time>2020-10-11T12:09:01.000Z</time>
      </trkpt>
      <trkpt lat="43.26184" lon="2.64937">
        <ele>67</ele>
        <time>2020-10-11T12:09:05.000Z</time>
      </trkpt>
      <trkpt lat="43.26198" lon="2.65027">
        <ele>68</ele>
        <time>2020-10-11T12:09:18.000Z</time>
      </trkpt>
      <trkpt lat="43.26218" lon="2.6518">
        <ele>66</ele>
        <time>2020-10-11T12:09:36.000Z</time>
      </trkpt>
      <trkpt lat="43.26226" lon="2.6524">
        <ele>66</ele>
        <time>2020-10-11T12:09:43.000Z</time>
      </trkpt>
      <trkpt lat="43.26234" lon="2.65289">
        <ele>66</ele>
        <time>2020-10-11T12:09:49.000Z</time>
      </trkpt>
      <trkpt lat="43.26241" lon="2.65341">
        <ele>66</ele>
        <time>2020-10-11T12:09:56.000Z</time>
      </trkpt>
      <trkpt lat="43.26244" lon="2.65355">
        <ele>66</ele>
        <time>2020-10-11T12:09:58.000Z</time>
      </trkpt>
      <trkpt lat="43.26244" lon="2.65371">
        <ele>66</ele>
        <time>2020-10-11T12:10:00.000Z</time>
      </trkpt>
      <trkpt lat="43.26248" lon="2.65404">
        <ele>66</ele>
        <time>2020-10-11T12:10:04.000Z</time>
      </trkpt>
      <trkpt lat="43.26256" lon="2.65452">
        <ele>66</ele>
        <time>2020-10-11T12:10:10.000Z</time>
      </trkpt>
      <trkpt lat="43.2626" lon="2.65475">
        <ele>65</ele>
        <time>2020-10-11T12:10:13.000Z</time>
      </trkpt>
      <trkpt lat="43.26262" lon="2.65506">
        <ele>65</ele>
        <time>2020-10-11T12:10:17.000Z</time>
      </trkpt>
      <trkpt lat="43.26265" lon="2.65532">
        <ele>65</ele>
        <time>2020-10-11T12:10:20.000Z</time>
      </trkpt>
      <trkpt lat="43.26272" lon="2.65566">
        <ele>65</ele>
        <time>2020-10-11T12:10:24.000Z</time>
      </trkpt>
      <trkpt lat="43.26276" lon="2.6559">
        <ele>65</ele>
        <time>2020-10-11T12:10:27.000Z</time>
      </trkpt>
      <trkpt lat="43.26278" lon="2.65618">
        <ele>66</ele>
        <time>2020-10-11T12:10:30.000Z</time>
      </trkpt>
      <trkpt lat="43.26282" lon="2.65647">
        <ele>65</ele>
        <time>2020-10-11T12:10:33.000Z</time>
      </trkpt>
      <trkpt lat="43.26288" lon="2.65691">
        <ele>65</ele>
        <time>2020-10-11T12:10:38.000Z</time>
      </trkpt>
      <trkpt lat="43.26291" lon="2.65717">
        <ele>66</ele>
        <time>2020-10-11T12:10:41.000Z</time>
      </trkpt>
      <trkpt lat="43.26293" lon="2.65735">
        <ele>65</ele>
        <time>2020-10-11T12:10:43.000Z</time>
      </trkpt>
      <trkpt lat="43.26302" lon="2.65791">
        <ele>65</ele>
        <time>2020-10-11T12:10:49.000Z</time>
      </trkpt>
      <trkpt lat="43.26308" lon="2.65824">
        <ele>64</ele>
        <time>2020-10-11T12:10:53.000Z</time>
      </trkpt>
      <trkpt lat="43.26312" lon="2.65846">
        <ele>64</ele>
        <time>2020-10-11T12:10:56.000Z</time>
      </trkpt>
      <trkpt lat="43.26318" lon="2.65894">
        <ele>65</ele>
        <time>2020-10-11T12:11:02.000Z</time>
      </trkpt>
      <trkpt lat="43.26323" lon="2.65938">
        <ele>64</ele>
        <time>2020-10-11T12:11:07.000Z</time>
      </trkpt>
      <trkpt lat="43.26335" lon="2.66106">
        <ele>63</ele>
        <time>2020-10-11T12:11:26.000Z</time>
      </trkpt>
      <trkpt lat="43.26335" lon="2.66113">
        <ele>63</ele>
        <time>2020-10-11T12:11:27.000Z</time>
      </trkpt>
      <trkpt lat="43.26333" lon="2.6614">
        <ele>63</ele>
        <time>2020-10-11T12:11:31.000Z</time>
      </trkpt>
      <trkpt lat="43.26332" lon="2.66154">
        <ele>64</ele>
        <time>2020-10-11T12:11:33.000Z</time>
      </trkpt>
      <trkpt lat="43.26331" lon="2.6616">
        <ele>64</ele>
        <time>2020-10-11T12:11:34.000Z</time>
      </trkpt>
      <trkpt lat="43.26331" lon="2.66171">
        <ele>64</ele>
        <time>2020-10-11T12:11:36.000Z</time>
      </trkpt>
      <trkpt lat="43.26332" lon="2.66194">
        <ele>63</ele>
        <time>2020-10-11T12:11:40.000Z</time>
      </trkpt>
      <trkpt lat="43.26334" lon="2.66213">
        <ele>63</ele>
        <time>2020-10-11T12:11:43.000Z</time>
      </trkpt>
      <trkpt lat="43.26335" lon="2.66241">
        <ele>63</ele>
        <time>2020-10-11T12:11:47.000Z</time>
      </trkpt>
      <trkpt lat="43.26339" lon="2.66284">
        <ele>64</ele>
        <time>2020-10-11T12:11:53.000Z</time>
      </trkpt>
      <trkpt lat="43.26357" lon="2.66435">
        <ele>62</ele>
        <time>2020-10-11T12:12:12.000Z</time>
      </trkpt>
      <trkpt lat="43.26364" lon="2.66477">
        <ele>62</ele>
        <time>2020-10-11T12:12:17.000Z</time>
      </trkpt>
      <trkpt lat="43.26372" lon="2.66534">
        <ele>63</ele>
        <time>2020-10-11T12:12:24.000Z</time>
      </trkpt>
      <trkpt lat="43.26375" lon="2.66566">
        <ele>63</ele>
        <time>2020-10-11T12:12:28.000Z</time>
      </trkpt>
      <trkpt lat="43.26379" lon="2.66622">
        <ele>63</ele>
        <time>2020-10-11T12:12:36.000Z</time>
      </trkpt>
      <trkpt lat="43.2638" lon="2.66629">
        <ele>63</ele>
        <time>2020-10-11T12:12:37.000Z</time>
      </trkpt>
      <trkpt lat="43.26383" lon="2.66648">
        <ele>63</ele>
        <time>2020-10-11T12:12:40.000Z</time>
      </trkpt>
      <trkpt lat="43.26387" lon="2.66665">
        <ele>63</ele>
        <time>2020-10-11T12:12:43.000Z</time>
      </trkpt>
      <trkpt lat="43.26391" lon="2.66687">
        <ele>63</ele>
        <time>2020-10-11T12:12:46.000Z</time>
      </trkpt>
      <trkpt lat="43.26405" lon="2.66752">
        <ele>62</ele>
        <time>2020-10-11T12:12:53.000Z</time>
      </trkpt>
      <trkpt lat="43.26434" lon="2.66896">
        <ele>62</ele>
        <time>2020-10-11T12:13:10.000Z</time>
      </trkpt>
      <trkpt lat="43.26438" lon="2.66918">
        <ele>61</ele>
        <time>2020-10-11T12:13:13.000Z</time>
      </trkpt>
      <trkpt lat="43.26458" lon="2.67006">
        <ele>61</ele>
        <time>2020-10-11T12:13:25.000Z</time>
      </trkpt>
      <trkpt lat="43.2647" lon="2.6709">
        <ele>61</ele>
        <time>2020-10-11T12:13:37.000Z</time>
      </trkpt>
      <trkpt lat="43.26473" lon="2.67135">
        <ele>61</ele>
        <time>2020-10-11T12:13:43.000Z</time>
      </trkpt>
      <trkpt lat="43.26474" lon="2.67157">
        <ele>61</ele>
        <time>2020-10-11T12:13:46.000Z</time>
      </trkpt>
      <trkpt lat="43.26476" lon="2.67182">
        <ele>61</ele>
        <time>2020-10-11T12:13:50.000Z</time>
      </trkpt>
      <trkpt lat="43.26477" lon="2.67187">
        <ele>61</ele>
        <time>2020-10-11T12:13:51.000Z</time>
      </trkpt>
      <trkpt lat="43.26481" lon="2.67211">
        <ele>61</ele>
        <time>2020-10-11T12:13:56.000Z</time>
      </trkpt>
      <trkpt lat="43.26482" lon="2.67256">
        <ele>61</ele>
        <time>2020-10-11T12:14:03.000Z</time>
      </trkpt>
      <trkpt lat="43.26483" lon="2.67284">
        <ele>61</ele>
        <time>2020-10-11T12:14:07.000Z</time>
      </trkpt>
      <trkpt lat="43.26483" lon="2.67323">
        <ele>61</ele>
        <time>2020-10-11T12:14:13.000Z</time>
      </trkpt>
      <trkpt lat="43.26486" lon="2.6735">
        <ele>61</ele>
        <time>2020-10-11T12:14:17.000Z</time>
      </trkpt>
      <trkpt lat="43.2649" lon="2.67379">
        <ele>62</ele>
        <time>2020-10-11T12:14:21.000Z</time>
      </trkpt>
      <trkpt lat="43.26494" lon="2.67415">
        <ele>61</ele>
        <time>2020-10-11T12:14:26.000Z</time>
      </trkpt>
      <trkpt lat="43.26501" lon="2.67454">
        <ele>60</ele>
        <time>2020-10-11T12:14:32.000Z</time>
      </trkpt>
      <trkpt lat="43.26502" lon="2.67471">
        <ele>61</ele>
        <time>2020-10-11T12:14:36.000Z</time>
      </trkpt>
      <trkpt lat="43.26498" lon="2.67472">
        <ele>61</ele>
        <time>2020-10-11T12:14:38.000Z</time>
      </trkpt>
      <trkpt lat="43.26488" lon="2.67471">
        <ele>61</ele>
        <time>2020-10-11T12:14:41.000Z</time>
      </trkpt>
      <trkpt lat="43.26478" lon="2.67472">
        <ele>61</ele>
        <time>2020-10-11T12:14:43.000Z</time>
      </trkpt>
      <trkpt lat="43.26399" lon="2.67487">
        <ele>62</ele>
        <time>2020-10-11T12:14:56.000Z</time>
      </trkpt>
      <trkpt lat="43.26393" lon="2.6749">
        <ele>62</ele>
        <time>2020-10-11T12:14:57.000Z</time>
      </trkpt>
      <trkpt lat="43.26385" lon="2.67501">
        <ele>62</ele>
        <time>2020-10-11T12:14:59.000Z</time>
      </trkpt>
      <trkpt lat="43.26369" lon="2.67562">
        <ele>61</ele>
        <time>2020-10-11T12:15:06.000Z</time>
      </trkpt>
      <trkpt lat="43.26364" lon="2.67583">
        <ele>59</ele>
        <time>2020-10-11T12:15:08.000Z</time>
      </trkpt>
      <trkpt lat="43.2634" lon="2.67672">
        <ele>58</ele>
        <time>2020-10-11T12:15:17.000Z</time>
      </trkpt>
      <trkpt lat="43.26332" lon="2.67712">
        <ele>58</ele>
        <time>2020-10-11T12:15:21.000Z</time>
      </trkpt>
      <trkpt lat="43.26319" lon="2.6778">
        <ele>59</ele>
        <time>2020-10-11T12:15:28.000Z</time>
      </trkpt>
      <trkpt lat="43.26313" lon="2.67811">
        <ele>59</ele>
        <time>2020-10-11T12:15:31.000Z</time>
      </trkpt>
      <trkpt lat="43.26311" lon="2.6782">
        <ele>59</ele>
        <time>2020-10-11T12:15:32.000Z</time>
      </trkpt>
      <trkpt lat="43.26308" lon="2.67829">
        <ele>59</ele>
        <time>2020-10-11T12:15:33.000Z</time>
      </trkpt>
      <trkpt lat="43.26304" lon="2.67838">
        <ele>59</ele>
        <time>2020-10-11T12:15:34.000Z</time>
      </trkpt>
      <trkpt lat="43.2628" lon="2.67882">
        <ele>58</ele>
        <time>2020-10-11T12:15:40.000Z</time>
      </trkpt>
      <trkpt lat="43.26274" lon="2.67895">
        <ele>58</ele>
        <time>2020-10-11T12:15:42.000Z</time>
      </trkpt>
      <trkpt lat="43.26261" lon="2.67927">
        <ele>59</ele>
        <time>2020-10-11T12:15:47.000Z</time>
      </trkpt>
      <trkpt lat="43.26232" lon="2.67994">
        <ele>59</ele>
        <time>2020-10-11T12:15:57.000Z</time>
      </trkpt>
      <trkpt lat="43.26212" lon="2.68043">
        <ele>59</ele>
        <time>2020-10-11T12:16:04.000Z</time>
      </trkpt>
      <trkpt lat="43.26201" lon="2.68076">
        <ele>59</ele>
        <time>2020-10-11T12:16:09.000Z</time>
      </trkpt>
      <trkpt lat="43.26193" lon="2.68118">
        <ele>58</ele>
        <time>2020-10-11T12:16:15.000Z</time>
      </trkpt>
      <trkpt lat="43.26188" lon="2.68136">
        <ele>59</ele>
        <time>2020-10-11T12:16:18.000Z</time>
      </trkpt>
      <trkpt lat="43.26186" lon="2.6814">
        <ele>59</ele>
        <time>2020-10-11T12:16:19.000Z</time>
      </trkpt>
      <trkpt lat="43.26177" lon="2.6815">
        <ele>59</ele>
        <time>2020-10-11T12:16:22.000Z</time>
      </trkpt>
      <trkpt lat="43.26134" lon="2.68183">
        <ele>58</ele>
        <time>2020-10-11T12:16:34.000Z</time>
      </trkpt>
      <trkpt lat="43.2613" lon="2.68186">
        <ele>58</ele>
        <time>2020-10-11T12:16:35.000Z</time>
      </trkpt>
      <trkpt lat="43.26128" lon="2.6819">
        <ele>58</ele>
        <time>2020-10-11T12:16:36.000Z</time>
      </trkpt>
      <trkpt lat="43.2612" lon="2.68212">
        <ele>59</ele>
        <time>2020-10-11T12:16:41.000Z</time>
      </trkpt>
      <trkpt lat="43.26121" lon="2.68216">
        <ele>59</ele>
        <time>2020-10-11T12:16:42.000Z</time>
      </trkpt>
      <trkpt lat="43.26127" lon="2.68231">
        <ele>59</ele>
        <time>2020-10-11T12:16:45.000Z</time>
      </trkpt>
      <trkpt lat="43.26134" lon="2.68252">
        <ele>60</ele>
        <time>2020-10-11T12:16:49.000Z</time>
      </trkpt>
      <trkpt lat="43.26135" lon="2.68258">
        <ele>60</ele>
        <time>2020-10-11T12:16:50.000Z</time>
      </trkpt>
      <trkpt lat="43.26141" lon="2.68281">
        <ele>59</ele>
        <time>2020-10-11T12:16:54.000Z</time>
      </trkpt>
      <trkpt lat="43.26146" lon="2.68308">
        <ele>60</ele>
        <time>2020-10-11T12:16:59.000Z</time>
      </trkpt>
      <trkpt lat="43.26149" lon="2.68331">
        <ele>60</ele>
        <time>2020-10-11T12:17:03.000Z</time>
      </trkpt>
      <trkpt lat="43.26152" lon="2.68342">
        <ele>59</ele>
        <time>2020-10-11T12:17:05.000Z</time>
      </trkpt>
      <trkpt lat="43.26157" lon="2.68369">
        <ele>60</ele>
        <time>2020-10-11T12:17:10.000Z</time>
      </trkpt>
      <trkpt lat="43.26163" lon="2.68387">
        <ele>60</ele>
        <time>2020-10-11T12:17:14.000Z</time>
      </trkpt>
      <trkpt lat="43.26167" lon="2.68407">
        <ele>60</ele>
        <time>2020-10-11T12:17:18.000Z</time>
      </trkpt>
      <trkpt lat="43.26174" lon="2.68454">
        <ele>59</ele>
        <time>2020-10-11T12:17:27.000Z</time>
      </trkpt>
      <trkpt lat="43.26186" lon="2.68512">
        <ele>59</ele>
        <time>2020-10-11T12:17:38.000Z</time>
      </trkpt>
      <trkpt lat="43.26187" lon="2.68523">
        <ele>59</ele>
        <time>2020-10-11T12:17:40.000Z</time>
      </trkpt>
      <trkpt lat="43.26194" lon="2.68553">
        <ele>59</ele>
        <time>2020-10-11T12:17:45.000Z</time>
      </trkpt>
      <trkpt lat="43.26198" lon="2.68572">
        <ele>59</ele>
        <time>2020-10-11T12:17:48.000Z</time>
      </trkpt>
      <trkpt lat="43.26199" lon="2.68591">
        <ele>59</ele>
        <time>2020-10-11T12:17:51.000Z</time>
      </trkpt>
      <trkpt lat="43.26199" lon="2.68602">
        <ele>60</ele>
        <time>2020-10-11T12:17:53.000Z</time>
      </trkpt>
      <trkpt lat="43.26204" lon="2.68631">
        <ele>61</ele>
        <time>2020-10-11T12:17:59.000Z</time>
      </trkpt>
      <trkpt lat="43.26208" lon="2.68644">
        <ele>60</ele>
        <time>2020-10-11T12:18:02.000Z</time>
      </trkpt>
      <trkpt lat="43.26219" lon="2.68663">
        <ele>59</ele>
        <time>2020-10-11T12:18:06.000Z</time>
      </trkpt>
      <trkpt lat="43.26221" lon="2.68671">
        <ele>58</ele>
        <time>2020-10-11T12:18:08.000Z</time>
      </trkpt>
      <trkpt lat="43.26223" lon="2.6868">
        <ele>58</ele>
        <time>2020-10-11T12:18:10.000Z</time>
      </trkpt>
      <trkpt lat="43.26221" lon="2.68698">
        <ele>59</ele>
        <time>2020-10-11T12:18:14.000Z</time>
      </trkpt>
      <trkpt lat="43.26223" lon="2.68717">
        <ele>59</ele>
        <time>2020-10-11T12:18:18.000Z</time>
      </trkpt>
      <trkpt lat="43.26225" lon="2.68726">
        <ele>59</ele>
        <time>2020-10-11T12:18:20.000Z</time>
      </trkpt>
      <trkpt lat="43.26232" lon="2.68753">
        <ele>60</ele>
        <time>2020-10-11T12:18:26.000Z</time>
      </trkpt>
      <trkpt lat="43.26234" lon="2.68772">
        <ele>60</ele>
        <time>2020-10-11T12:18:30.000Z</time>
      </trkpt>
      <trkpt lat="43.26237" lon="2.68786">
        <ele>61</ele>
        <time>2020-10-11T12:18:33.000Z</time>
      </trkpt>
      <trkpt lat="43.26256" lon="2.68911">
        <ele>59</ele>
        <time>2020-10-11T12:18:53.000Z</time>
      </trkpt>
      <trkpt lat="43.26265" lon="2.68963">
        <ele>59</ele>
        <time>2020-10-11T12:19:02.000Z</time>
      </trkpt>
      <trkpt lat="43.26267" lon="2.6898">
        <ele>59</ele>
        <time>2020-10-11T12:19:05.000Z</time>
      </trkpt>
      <trkpt lat="43.26286" lon="2.69085">
        <ele>59</ele>
        <time>2020-10-11T12:19:24.000Z</time>
      </trkpt>
      <trkpt lat="43.26297" lon="2.69139">
        <ele>59</ele>
        <time>2020-10-11T12:19:34.000Z</time>
      </trkpt>
      <trkpt lat="43.26307" lon="2.69197">
        <ele>59</ele>
        <time>2020-10-11T12:19:44.000Z</time>
      </trkpt>
      <trkpt lat="43.26317" lon="2.69242">
        <ele>60</ele>
        <time>2020-10-11T12:19:52.000Z</time>
      </trkpt>
      <trkpt lat="43.26325" lon="2.69288">
        <ele>60</ele>
        <time>2020-10-11T12:20:00.000Z</time>
      </trkpt>
      <trkpt lat="43.26337" lon="2.69338">
        <ele>61</ele>
        <time>2020-10-11T12:20:09.000Z</time>
      </trkpt>
      <trkpt lat="43.26356" lon="2.69406">
        <ele>60</ele>
        <time>2020-10-11T12:20:21.000Z</time>
      </trkpt>
      <trkpt lat="43.2638" lon="2.69473">
        <ele>59</ele>
        <time>2020-10-11T12:20:33.000Z</time>
      </trkpt>
      <trkpt lat="43.26383" lon="2.69483">
        <ele>59</ele>
        <time>2020-10-11T12:20:35.000Z</time>
      </trkpt>
      <trkpt lat="43.26386" lon="2.69494">
        <ele>59</ele>
        <time>2020-10-11T12:20:37.000Z</time>
      </trkpt>
      <trkpt lat="43.26396" lon="2.69522">
        <ele>58</ele>
        <time>2020-10-11T12:20:43.000Z</time>
      </trkpt>
      <trkpt lat="43.26411" lon="2.69563">
        <ele>58</ele>
        <time>2020-10-11T12:20:51.000Z</time>
      </trkpt>
      <trkpt lat="43.26419" lon="2.69587">
        <ele>57</ele>
        <time>2020-10-11T12:20:56.000Z</time>
      </trkpt>
      <trkpt lat="43.26428" lon="2.69607">
        <ele>56</ele>
        <time>2020-10-11T12:21:02.000Z</time>
      </trkpt>
      <trkpt lat="43.26428" lon="2.69611">
        <ele>58</ele>
        <time>2020-10-11T12:21:06.000Z</time>
      </trkpt>
      <trkpt lat="43.26423" lon="2.69615">
        <ele>57</ele>
        <time>2020-10-11T12:21:14.000Z</time>
      </trkpt>
      <trkpt lat="43.26427" lon="2.69624">
        <ele>57</ele>
        <time>2020-10-11T12:21:21.000Z</time>
      </trkpt>
      <trkpt lat="43.26433" lon="2.69634">
        <ele>57</ele>
        <time>2020-10-11T12:21:29.000Z</time>
      </trkpt>
      <trkpt lat="43.26434" lon="2.69635">
        <ele>57</ele>
        <time>2020-10-11T12:21:30.000Z</time>
      </trkpt>
      <trkpt lat="43.2644" lon="2.6964">
        <ele>58</ele>
        <time>2020-10-11T12:21:37.000Z</time>
      </trkpt>
      <trkpt lat="43.26449" lon="2.69651">
        <ele>57</ele>
        <time>2020-10-11T12:21:41.000Z</time>
      </trkpt>
      <trkpt lat="43.2647" lon="2.69712">
        <ele>57</ele>
        <time>2020-10-11T12:21:55.000Z</time>
      </trkpt>
      <trkpt lat="43.26477" lon="2.6973">
        <ele>58</ele>
        <time>2020-10-11T12:21:59.000Z</time>
      </trkpt>
      <trkpt lat="43.26486" lon="2.69745">
        <ele>58</ele>
        <time>2020-10-11T12:22:03.000Z</time>
      </trkpt>
      <trkpt lat="43.26495" lon="2.6975">
        <ele>58</ele>
        <time>2020-10-11T12:22:06.000Z</time>
      </trkpt>
      <trkpt lat="43.26502" lon="2.69751">
        <ele>57</ele>
        <time>2020-10-11T12:22:08.000Z</time>
      </trkpt>
      <trkpt lat="43.26506" lon="2.69753">
        <ele>57</ele>
        <time>2020-10-11T12:22:10.000Z</time>
      </trkpt>
      <trkpt lat="43.2651" lon="2.69767">
        <ele>58</ele>
        <time>2020-10-11T12:22:14.000Z</time>
      </trkpt>
      <trkpt lat="43.26509" lon="2.69796">
        <ele>57</ele>
        <time>2020-10-11T12:22:19.000Z</time>
      </trkpt>
      <trkpt lat="43.26514" lon="2.6982">
        <ele>57</ele>
        <time>2020-10-11T12:22:23.000Z</time>
      </trkpt>
      <trkpt lat="43.26526" lon="2.69856">
        <ele>57</ele>
        <time>2020-10-11T12:22:29.000Z</time>
      </trkpt>
      <trkpt lat="43.26528" lon="2.69867">
        <ele>58</ele>
        <time>2020-10-11T12:22:31.000Z</time>
      </trkpt>
      <trkpt lat="43.26527" lon="2.69887">
        <ele>58</ele>
        <time>2020-10-11T12:22:35.000Z</time>
      </trkpt>
      <trkpt lat="43.26533" lon="2.69908">
        <ele>58</ele>
        <time>2020-10-11T12:22:39.000Z</time>
      </trkpt>
      <trkpt lat="43.26539" lon="2.69928">
        <ele>58</ele>
        <time>2020-10-11T12:22:43.000Z</time>
      </trkpt>
      <trkpt lat="43.26548" lon="2.69953">
        <ele>58</ele>
        <time>2020-10-11T12:22:48.000Z</time>
      </trkpt>
      <trkpt lat="43.2656" lon="2.69989">
        <ele>58</ele>
        <time>2020-10-11T12:22:55.000Z</time>
      </trkpt>
      <trkpt lat="43.26572" lon="2.70024">
        <ele>59</ele>
        <time>2020-10-11T12:23:02.000Z</time>
      </trkpt>
      <trkpt lat="43.26579" lon="2.70045">
        <ele>59</ele>
        <time>2020-10-11T12:23:06.000Z</time>
      </trkpt>
      <trkpt lat="43.26585" lon="2.7006">
        <ele>59</ele>
        <time>2020-10-11T12:23:09.000Z</time>
      </trkpt>
      <trkpt lat="43.26606" lon="2.70124">
        <ele>59</ele>
        <time>2020-10-11T12:23:20.000Z</time>
      </trkpt>
      <trkpt lat="43.26617" lon="2.70163">
        <ele>58</ele>
        <time>2020-10-11T12:23:27.000Z</time>
      </trkpt>
      <trkpt lat="43.26626" lon="2.70201">
        <ele>57</ele>
        <time>2020-10-11T12:23:34.000Z</time>
      </trkpt>
      <trkpt lat="43.2664" lon="2.70248">
        <ele>58</ele>
        <time>2020-10-11T12:23:43.000Z</time>
      </trkpt>
      <trkpt lat="43.26669" lon="2.70355">
        <ele>58</ele>
        <time>2020-10-11T12:24:02.000Z</time>
      </trkpt>
      <trkpt lat="43.2668" lon="2.70393">
        <ele>58</ele>
        <time>2020-10-11T12:24:09.000Z</time>
      </trkpt>
      <trkpt lat="43.26687" lon="2.70426">
        <ele>59</ele>
        <time>2020-10-11T12:24:15.000Z</time>
      </trkpt>
      <trkpt lat="43.26693" lon="2.70462">
        <ele>59</ele>
        <time>2020-10-11T12:24:21.000Z</time>
      </trkpt>
      <trkpt lat="43.26697" lon="2.70488">
        <ele>59</ele>
        <time>2020-10-11T12:24:25.000Z</time>
      </trkpt>
      <trkpt lat="43.26698" lon="2.70507">
        <ele>59</ele>
        <time>2020-10-11T12:24:28.000Z</time>
      </trkpt>
      <trkpt lat="43.26699" lon="2.70525">
        <ele>59</ele>
        <time>2020-10-11T12:24:31.000Z</time>
      </trkpt>
      <trkpt lat="43.26701" lon="2.70552">
        <ele>58</ele>
        <time>2020-10-11T12:24:36.000Z</time>
      </trkpt>
      <trkpt lat="43.26702" lon="2.70556">
        <ele>59</ele>
        <time>2020-10-11T12:24:37.000Z</time>
      </trkpt>
      <trkpt lat="43.26705" lon="2.70558">
        <ele>58</ele>
        <time>2020-10-11T12:24:39.000Z</time>
      </trkpt>
      <trkpt lat="43.26706" lon="2.70556">
        <ele>58</ele>
        <time>2020-10-11T12:24:40.000Z</time>
      </trkpt>
      <trkpt lat="43.26715" lon="2.70535">
        <ele>59</ele>
        <time>2020-10-11T12:24:45.000Z</time>
      </trkpt>
      <trkpt lat="43.26721" lon="2.70526">
        <ele>59</ele>
        <time>2020-10-11T12:24:47.000Z</time>
      </trkpt>
      <trkpt lat="43.26725" lon="2.70523">
        <ele>59</ele>
        <time>2020-10-11T12:24:48.000Z</time>
      </trkpt>
      <trkpt lat="43.26729" lon="2.7052">
        <ele>59</ele>
        <time>2020-10-11T12:24:49.000Z</time>
      </trkpt>
      <trkpt lat="43.26738" lon="2.70522">
        <ele>59</ele>
        <time>2020-10-11T12:24:51.000Z</time>
      </trkpt>
      <trkpt lat="43.26741" lon="2.70525">
        <ele>59</ele>
        <time>2020-10-11T12:24:52.000Z</time>
      </trkpt>
      <trkpt lat="43.26747" lon="2.70535">
        <ele>59</ele>
        <time>2020-10-11T12:24:54.000Z</time>
      </trkpt>
      <trkpt lat="43.26764" lon="2.70596">
        <ele>61</ele>
        <time>2020-10-11T12:25:03.000Z</time>
      </trkpt>
      <trkpt lat="43.26778" lon="2.70639">
        <ele>61</ele>
        <time>2020-10-11T12:25:10.000Z</time>
      </trkpt>
      <trkpt lat="43.26785" lon="2.70654">
        <ele>61</ele>
        <time>2020-10-11T12:25:13.000Z</time>
      </trkpt>
      <trkpt lat="43.26794" lon="2.70667">
        <ele>62</ele>
        <time>2020-10-11T12:25:16.000Z</time>
      </trkpt>
      <trkpt lat="43.26797" lon="2.7067">
        <ele>62</ele>
        <time>2020-10-11T12:25:17.000Z</time>
      </trkpt>
      <trkpt lat="43.26804" lon="2.70677">
        <ele>62</ele>
        <time>2020-10-11T12:25:19.000Z</time>
      </trkpt>
      <trkpt lat="43.2682" lon="2.70688">
        <ele>61</ele>
        <time>2020-10-11T12:25:23.000Z</time>
      </trkpt>
      <trkpt lat="43.26827" lon="2.70695">
        <ele>61</ele>
        <time>2020-10-11T12:25:25.000Z</time>
      </trkpt>
      <trkpt lat="43.26843" lon="2.70708">
        <ele>62</ele>
        <time>2020-10-11T12:25:29.000Z</time>
      </trkpt>
      <trkpt lat="43.2685" lon="2.70715">
        <ele>62</ele>
        <time>2020-10-11T12:25:31.000Z</time>
      </trkpt>
      <trkpt lat="43.26863" lon="2.70731">
        <ele>61</ele>
        <time>2020-10-11T12:25:35.000Z</time>
      </trkpt>
      <trkpt lat="43.26879" lon="2.70758">
        <ele>61</ele>
        <time>2020-10-11T12:25:41.000Z</time>
      </trkpt>
      <trkpt lat="43.26894" lon="2.70771">
        <ele>61</ele>
        <time>2020-10-11T12:25:45.000Z</time>
      </trkpt>
      <trkpt lat="43.26901" lon="2.70777">
        <ele>61</ele>
        <time>2020-10-11T12:25:47.000Z</time>
      </trkpt>
      <trkpt lat="43.26906" lon="2.70783">
        <ele>61</ele>
        <time>2020-10-11T12:25:49.000Z</time>
      </trkpt>
      <trkpt lat="43.2694" lon="2.70812">
        <ele>61</ele>
        <time>2020-10-11T12:25:59.000Z</time>
      </trkpt>
      <trkpt lat="43.26947" lon="2.70815">
        <ele>61</ele>
        <time>2020-10-11T12:26:01.000Z</time>
      </trkpt>
      <trkpt lat="43.26955" lon="2.7082">
        <ele>61</ele>
        <time>2020-10-11T12:26:03.000Z</time>
      </trkpt>
      <trkpt lat="43.26973" lon="2.70838">
        <ele>61</ele>
        <time>2020-10-11T12:26:08.000Z</time>
      </trkpt>
      <trkpt lat="43.26981" lon="2.70843">
        <ele>61</ele>
        <time>2020-10-11T12:26:10.000Z</time>
      </trkpt>
      <trkpt lat="43.26989" lon="2.70848">
        <ele>61</ele>
        <time>2020-10-11T12:26:12.000Z</time>
      </trkpt>
      <trkpt lat="43.26998" lon="2.70851">
        <ele>61</ele>
        <time>2020-10-11T12:26:14.000Z</time>
      </trkpt>
      <trkpt lat="43.2704" lon="2.70868">
        <ele>61</ele>
        <time>2020-10-11T12:26:24.000Z</time>
      </trkpt>
      <trkpt lat="43.27053" lon="2.70876">
        <ele>61</ele>
        <time>2020-10-11T12:26:27.000Z</time>
      </trkpt>
      <trkpt lat="43.27062" lon="2.70881">
        <ele>60</ele>
        <time>2020-10-11T12:26:29.000Z</time>
      </trkpt>
      <trkpt lat="43.27067" lon="2.70882">
        <ele>60</ele>
        <time>2020-10-11T12:26:30.000Z</time>
      </trkpt>
      <trkpt lat="43.27076" lon="2.70884">
        <ele>60</ele>
        <time>2020-10-11T12:26:32.000Z</time>
      </trkpt>
      <trkpt lat="43.27151" lon="2.7089">
        <ele>58</ele>
        <time>2020-10-11T12:26:49.000Z</time>
      </trkpt>
      <trkpt lat="43.27157" lon="2.70886">
        <ele>58</ele>
        <time>2020-10-11T12:26:51.000Z</time>
      </trkpt>
      <trkpt lat="43.27159" lon="2.70873">
        <ele>59</ele>
        <time>2020-10-11T12:26:54.000Z</time>
      </trkpt>
      <trkpt lat="43.2716" lon="2.70854">
        <ele>61</ele>
        <time>2020-10-11T12:26:59.000Z</time>
      </trkpt>
      <trkpt lat="43.27158" lon="2.70849">
        <ele>62</ele>
        <time>2020-10-11T12:27:01.000Z</time>
      </trkpt>
      <trkpt lat="43.27155" lon="2.70845">
        <ele>66</ele>
        <time>2020-10-11T12:27:03.000Z</time>
      </trkpt>
      <trkpt lat="43.27148" lon="2.70839">
        <ele>71</ele>
        <time>2020-10-11T12:27:06.000Z</time>
      </trkpt>
      <trkpt lat="43.27137" lon="2.70833">
        <ele>72</ele>
        <time>2020-10-11T12:27:11.000Z</time>
      </trkpt>
      <trkpt lat="43.27136" lon="2.70832">
        <ele>72</ele>
        <time>2020-10-11T12:27:12.000Z</time>
      </trkpt>
      <trkpt lat="43.27127" lon="2.70831">
        <ele>71</ele>
        <time>2020-10-11T12:27:16.000Z</time>
      </trkpt>
      <trkpt lat="43.27085" lon="2.70814">
        <ele>72</ele>
        <time>2020-10-11T12:27:28.000Z</time>
      </trkpt>
      <trkpt lat="43.27061" lon="2.70807">
        <ele>71</ele>
        <time>2020-10-11T12:27:34.000Z</time>
      </trkpt>
      <trkpt lat="43.27032" lon="2.70795">
        <ele>74</ele>
        <time>2020-10-11T12:27:41.000Z</time>
      </trkpt>
      <trkpt lat="43.27019" lon="2.70791">
        <ele>75</ele>
        <time>2020-10-11T12:27:44.000Z</time>
      </trkpt>
      <trkpt lat="43.26998" lon="2.70781">
        <ele>73</ele>
        <time>2020-10-11T12:27:49.000Z</time>
      </trkpt>
      <trkpt lat="43.26975" lon="2.70774">
        <ele>71</ele>
        <time>2020-10-11T12:27:54.000Z</time>
      </trkpt>
      <trkpt lat="43.26961" lon="2.70768">
        <ele>71</ele>
        <time>2020-10-11T12:27:57.000Z</time>
      </trkpt>
      <trkpt lat="43.26938" lon="2.7076">
        <ele>71</ele>
        <time>2020-10-11T12:28:02.000Z</time>
      </trkpt>
      <trkpt lat="43.26919" lon="2.70752">
        <ele>67</ele>
        <time>2020-10-11T12:28:06.000Z</time>
      </trkpt>
      <trkpt lat="43.26906" lon="2.70741">
        <ele>70</ele>
        <time>2020-10-11T12:28:09.000Z</time>
      </trkpt>
      <trkpt lat="43.26898" lon="2.70732">
        <ele>75</ele>
        <time>2020-10-11T12:28:11.000Z</time>
      </trkpt>
      <trkpt lat="43.2688" lon="2.70718">
        <ele>75</ele>
        <time>2020-10-11T12:28:15.000Z</time>
      </trkpt>
      <trkpt lat="43.26868" lon="2.70706">
        <ele>74</ele>
        <time>2020-10-11T12:28:18.000Z</time>
      </trkpt>
      <trkpt lat="43.2685" lon="2.70692">
        <ele>77</ele>
        <time>2020-10-11T12:28:22.000Z</time>
      </trkpt>
      <trkpt lat="43.26831" lon="2.70673">
        <ele>73</ele>
        <time>2020-10-11T12:28:27.000Z</time>
      </trkpt>
      <trkpt lat="43.26818" lon="2.70662">
        <ele>73</ele>
        <time>2020-10-11T12:28:30.000Z</time>
      </trkpt>
      <trkpt lat="43.26804" lon="2.70647">
        <ele>70</ele>
        <time>2020-10-11T12:28:34.000Z</time>
      </trkpt>
      <trkpt lat="43.26796" lon="2.70638">
        <ele>72</ele>
        <time>2020-10-11T12:28:36.000Z</time>
      </trkpt>
      <trkpt lat="43.2679" lon="2.70628">
        <ele>69</ele>
        <time>2020-10-11T12:28:38.000Z</time>
      </trkpt>
      <trkpt lat="43.26787" lon="2.70623">
        <ele>67</ele>
        <time>2020-10-11T12:28:39.000Z</time>
      </trkpt>
      <trkpt lat="43.26783" lon="2.70612">
        <ele>65</ele>
        <time>2020-10-11T12:28:41.000Z</time>
      </trkpt>
      <trkpt lat="43.26778" lon="2.70596">
        <ele>64</ele>
        <time>2020-10-11T12:28:44.000Z</time>
      </trkpt>
      <trkpt lat="43.26776" lon="2.70584">
        <ele>64</ele>
        <time>2020-10-11T12:28:46.000Z</time>
      </trkpt>
      <trkpt lat="43.26767" lon="2.7056">
        <ele>64</ele>
        <time>2020-10-11T12:28:50.000Z</time>
      </trkpt>
      <trkpt lat="43.26761" lon="2.70536">
        <ele>64</ele>
        <time>2020-10-11T12:28:54.000Z</time>
      </trkpt>
      <trkpt lat="43.26755" lon="2.70493">
        <ele>64</ele>
        <time>2020-10-11T12:29:02.000Z</time>
      </trkpt>
      <trkpt lat="43.26748" lon="2.7047">
        <ele>63</ele>
        <time>2020-10-11T12:29:06.000Z</time>
      </trkpt>
      <trkpt lat="43.26743" lon="2.70447">
        <ele>63</ele>
        <time>2020-10-11T12:29:10.000Z</time>
      </trkpt>
      <trkpt lat="43.26738" lon="2.7043">
        <ele>62</ele>
        <time>2020-10-11T12:29:13.000Z</time>
      </trkpt>
      <trkpt lat="43.26734" lon="2.70408">
        <ele>62</ele>
        <time>2020-10-11T12:29:17.000Z</time>
      </trkpt>
      <trkpt lat="43.26727" lon="2.7038">
        <ele>62</ele>
        <time>2020-10-11T12:29:22.000Z</time>
      </trkpt>
      <trkpt lat="43.26716" lon="2.70337">
        <ele>61</ele>
        <time>2020-10-11T12:29:30.000Z</time>
      </trkpt>
      <trkpt lat="43.26712" lon="2.70315">
        <ele>62</ele>
        <time>2020-10-11T12:29:34.000Z</time>
      </trkpt>
      <trkpt lat="43.26705" lon="2.70287">
        <ele>62</ele>
        <time>2020-10-11T12:29:39.000Z</time>
      </trkpt>
      <trkpt lat="43.26699" lon="2.70258">
        <ele>63</ele>
        <time>2020-10-11T12:29:44.000Z</time>
      </trkpt>
      <trkpt lat="43.26691" lon="2.70229">
        <ele>63</ele>
        <time>2020-10-11T12:29:49.000Z</time>
      </trkpt>
      <trkpt lat="43.26689" lon="2.70218">
        <ele>62</ele>
        <time>2020-10-11T12:29:51.000Z</time>
      </trkpt>
      <trkpt lat="43.2669" lon="2.70206">
        <ele>61</ele>
        <time>2020-10-11T12:29:53.000Z</time>
      </trkpt>
      <trkpt lat="43.26693" lon="2.7019">
        <ele>61</ele>
        <time>2020-10-11T12:29:56.000Z</time>
      </trkpt>
      <trkpt lat="43.26696" lon="2.70178">
        <ele>61</ele>
        <time>2020-10-11T12:29:58.000Z</time>
      </trkpt>
      <trkpt lat="43.26703" lon="2.70164">
        <ele>62</ele>
        <time>2020-10-11T12:30:01.000Z</time>
      </trkpt>
      <trkpt lat="43.26716" lon="2.70154">
        <ele>63</ele>
        <time>2020-10-11T12:30:04.000Z</time>
      </trkpt>
      <trkpt lat="43.26723" lon="2.70149">
        <ele>63</ele>
        <time>2020-10-11T12:30:06.000Z</time>
      </trkpt>
      <trkpt lat="43.2674" lon="2.70141">
        <ele>63</ele>
        <time>2020-10-11T12:30:10.000Z</time>
      </trkpt>
      <trkpt lat="43.26748" lon="2.70136">
        <ele>63</ele>
        <time>2020-10-11T12:30:12.000Z</time>
      </trkpt>
      <trkpt lat="43.26755" lon="2.70129">
        <ele>63</ele>
        <time>2020-10-11T12:30:14.000Z</time>
      </trkpt>
      <trkpt lat="43.26763" lon="2.70123">
        <ele>63</ele>
        <time>2020-10-11T12:30:16.000Z</time>
      </trkpt>
      <trkpt lat="43.26774" lon="2.70105">
        <ele>62</ele>
        <time>2020-10-11T12:30:20.000Z</time>
      </trkpt>
      <trkpt lat="43.26781" lon="2.70083">
        <ele>63</ele>
        <time>2020-10-11T12:30:24.000Z</time>
      </trkpt>
      <trkpt lat="43.26781" lon="2.70066">
        <ele>63</ele>
        <time>2020-10-11T12:30:27.000Z</time>
      </trkpt>
      <trkpt lat="43.26775" lon="2.70038">
        <ele>63</ele>
        <time>2020-10-11T12:30:32.000Z</time>
      </trkpt>
      <trkpt lat="43.2677" lon="2.70017">
        <ele>65</ele>
        <time>2020-10-11T12:30:36.000Z</time>
      </trkpt>
      <trkpt lat="43.26765" lon="2.69996">
        <ele>63</ele>
        <time>2020-10-11T12:30:40.000Z</time>
      </trkpt>
      <trkpt lat="43.26761" lon="2.69981">
        <ele>63</ele>
        <time>2020-10-11T12:30:43.000Z</time>
      </trkpt>
      <trkpt lat="43.26758" lon="2.69959">
        <ele>63</ele>
        <time>2020-10-11T12:30:47.000Z</time>
      </trkpt>
      <trkpt lat="43.26756" lon="2.69926">
        <ele>62</ele>
        <time>2020-10-11T12:30:53.000Z</time>
      </trkpt>
      <trkpt lat="43.26757" lon="2.69897">
        <ele>62</ele>
        <time>2020-10-11T12:30:58.000Z</time>
      </trkpt>
      <trkpt lat="43.2676" lon="2.69871">
        <ele>60</ele>
        <time>2020-10-11T12:31:03.000Z</time>
      </trkpt>
      <trkpt lat="43.26766" lon="2.69845">
        <ele>60</ele>
        <time>2020-10-11T12:31:08.000Z</time>
      </trkpt>
      <trkpt lat="43.2677" lon="2.6983">
        <ele>59</ele>
        <time>2020-10-11T12:31:11.000Z</time>
      </trkpt>
      <trkpt lat="43.26774" lon="2.69821">
        <ele>58</ele>
        <time>2020-10-11T12:31:13.000Z</time>
      </trkpt>
      <trkpt lat="43.26786" lon="2.69795">
        <ele>58</ele>
        <time>2020-10-11T12:31:19.000Z</time>
      </trkpt>
      <trkpt lat="43.26793" lon="2.69778">
        <ele>59</ele>
        <time>2020-10-11T12:31:23.000Z</time>
      </trkpt>
      <trkpt lat="43.26801" lon="2.69761">
        <ele>61</ele>
        <time>2020-10-11T12:31:27.000Z</time>
      </trkpt>
      <trkpt lat="43.26812" lon="2.69732">
        <ele>59</ele>
        <time>2020-10-11T12:31:34.000Z</time>
      </trkpt>
      <trkpt lat="43.26821" lon="2.6972">
        <ele>61</ele>
        <time>2020-10-11T12:31:39.000Z</time>
      </trkpt>
      <trkpt lat="43.26822" lon="2.69718">
        <ele>62</ele>
        <time>2020-10-11T12:31:42.000Z</time>
      </trkpt>
      <trkpt lat="43.26823" lon="2.69714">
        <ele>62</ele>
        <time>2020-10-11T12:31:48.000Z</time>
      </trkpt>
      <trkpt lat="43.26827" lon="2.69706">
        <ele>62</ele>
        <time>2020-10-11T12:31:52.000Z</time>
      </trkpt>
      <trkpt lat="43.2684" lon="2.69685">
        <ele>62</ele>
        <time>2020-10-11T12:31:59.000Z</time>
      </trkpt>
      <trkpt lat="43.26856" lon="2.69672">
        <ele>62</ele>
        <time>2020-10-11T12:32:04.000Z</time>
      </trkpt>
      <trkpt lat="43.26859" lon="2.6967">
        <ele>62</ele>
        <time>2020-10-11T12:32:05.000Z</time>
      </trkpt>
      <trkpt lat="43.26881" lon="2.69661">
        <ele>62</ele>
        <time>2020-10-11T12:32:11.000Z</time>
      </trkpt>
      <trkpt lat="43.26921" lon="2.69649">
        <ele>63</ele>
        <time>2020-10-11T12:32:21.000Z</time>
      </trkpt>
      <trkpt lat="43.26979" lon="2.69635">
        <ele>64</ele>
        <time>2020-10-11T12:32:38.000Z</time>
      </trkpt>
      <trkpt lat="43.27" lon="2.69628">
        <ele>63</ele>
        <time>2020-10-11T12:32:43.000Z</time>
      </trkpt>
      <trkpt lat="43.27027" lon="2.69622">
        <ele>63</ele>
        <time>2020-10-11T12:32:49.000Z</time>
      </trkpt>
      <trkpt lat="43.27051" lon="2.69616">
        <ele>64</ele>
        <time>2020-10-11T12:32:54.000Z</time>
      </trkpt>
      <trkpt lat="43.27069" lon="2.69613">
        <ele>64</ele>
        <time>2020-10-11T12:32:58.000Z</time>
      </trkpt>
      <trkpt lat="43.27079" lon="2.69608">
        <ele>64</ele>
        <time>2020-10-11T12:33:01.000Z</time>
      </trkpt>
      <trkpt lat="43.27121" lon="2.69596">
        <ele>63</ele>
        <time>2020-10-11T12:33:11.000Z</time>
      </trkpt>
      <trkpt lat="43.2713" lon="2.69593">
        <ele>63</ele>
        <time>2020-10-11T12:33:13.000Z</time>
      </trkpt>
      <trkpt lat="43.27143" lon="2.69585">
        <ele>63</ele>
        <time>2020-10-11T12:33:16.000Z</time>
      </trkpt>
      <trkpt lat="43.27153" lon="2.69569">
        <ele>63</ele>
        <time>2020-10-11T12:33:20.000Z</time>
      </trkpt>
      <trkpt lat="43.27155" lon="2.69549">
        <ele>63</ele>
        <time>2020-10-11T12:33:24.000Z</time>
      </trkpt>
      <trkpt lat="43.27156" lon="2.69545">
        <ele>63</ele>
        <time>2020-10-11T12:33:25.000Z</time>
      </trkpt>
      <trkpt lat="43.27158" lon="2.69535">
        <ele>63</ele>
        <time>2020-10-11T12:33:29.000Z</time>
      </trkpt>
      <trkpt lat="43.27163" lon="2.69532">
        <ele>62</ele>
        <time>2020-10-11T12:33:36.000Z</time>
      </trkpt>
      <trkpt lat="43.27166" lon="2.69529">
        <ele>61</ele>
        <time>2020-10-11T12:33:41.000Z</time>
      </trkpt>
      <trkpt lat="43.27169" lon="2.69527">
        <ele>61</ele>
        <time>2020-10-11T12:33:43.000Z</time>
      </trkpt>
      <trkpt lat="43.27173" lon="2.69523">
        <ele>60</ele>
        <time>2020-10-11T12:33:45.000Z</time>
      </trkpt>
      <trkpt lat="43.27181" lon="2.69515">
        <ele>60</ele>
        <time>2020-10-11T12:33:48.000Z</time>
      </trkpt>
      <trkpt lat="43.27194" lon="2.69505">
        <ele>60</ele>
        <time>2020-10-11T12:33:52.000Z</time>
      </trkpt>
      <trkpt lat="43.27218" lon="2.69494">
        <ele>60</ele>
        <time>2020-10-11T12:33:59.000Z</time>
      </trkpt>
      <trkpt lat="43.27228" lon="2.69488">
        <ele>59</ele>
        <time>2020-10-11T12:34:02.000Z</time>
      </trkpt>
      <trkpt lat="43.27238" lon="2.69479">
        <ele>58</ele>
        <time>2020-10-11T12:34:07.000Z</time>
      </trkpt>
      <trkpt lat="43.27245" lon="2.69475">
        <ele>59</ele>
        <time>2020-10-11T12:34:10.000Z</time>
      </trkpt>
      <trkpt lat="43.27247" lon="2.69475">
        <ele>60</ele>
        <time>2020-10-11T12:34:11.000Z</time>
      </trkpt>
      <trkpt lat="43.27248" lon="2.69476">
        <ele>60</ele>
        <time>2020-10-11T12:34:12.000Z</time>
      </trkpt>
      <trkpt lat="43.27252" lon="2.69482">
        <ele>61</ele>
        <time>2020-10-11T12:34:15.000Z</time>
      </trkpt>
      <trkpt lat="43.27261" lon="2.69485">
        <ele>61</ele>
        <time>2020-10-11T12:34:19.000Z</time>
      </trkpt>
      <trkpt lat="43.27264" lon="2.69485">
        <ele>61</ele>
        <time>2020-10-11T12:34:20.000Z</time>
      </trkpt>
      <trkpt lat="43.27292" lon="2.69475">
        <ele>59</ele>
        <time>2020-10-11T12:34:28.000Z</time>
      </trkpt>
      <trkpt lat="43.27306" lon="2.69471">
        <ele>60</ele>
        <time>2020-10-11T12:34:32.000Z</time>
      </trkpt>
      <trkpt lat="43.27331" lon="2.69457">
        <ele>58</ele>
        <time>2020-10-11T12:34:40.000Z</time>
      </trkpt>
      <trkpt lat="43.27341" lon="2.69454">
        <ele>58</ele>
        <time>2020-10-11T12:34:43.000Z</time>
      </trkpt>
      <trkpt lat="43.27346" lon="2.69449">
        <ele>59</ele>
        <time>2020-10-11T12:34:46.000Z</time>
      </trkpt>
      <trkpt lat="43.27348" lon="2.69445">
        <ele>60</ele>
        <time>2020-10-11T12:34:48.000Z</time>
      </trkpt>
      <trkpt lat="43.2735" lon="2.69442">
        <ele>61</ele>
        <time>2020-10-11T12:34:50.000Z</time>
      </trkpt>
      <trkpt lat="43.27353" lon="2.69442">
        <ele>61</ele>
        <time>2020-10-11T12:34:51.000Z</time>
      </trkpt>
      <trkpt lat="43.27356" lon="2.69443">
        <ele>61</ele>
        <time>2020-10-11T12:34:52.000Z</time>
      </trkpt>
      <trkpt lat="43.27371" lon="2.6945">
        <ele>59</ele>
        <time>2020-10-11T12:34:57.000Z</time>
      </trkpt>
      <trkpt lat="43.27377" lon="2.69454">
        <ele>59</ele>
        <time>2020-10-11T12:34:59.000Z</time>
      </trkpt>
      <trkpt lat="43.27382" lon="2.6946">
        <ele>59</ele>
        <time>2020-10-11T12:35:01.000Z</time>
      </trkpt>
      <trkpt lat="43.27387" lon="2.69464">
        <ele>59</ele>
        <time>2020-10-11T12:35:03.000Z</time>
      </trkpt>
      <trkpt lat="43.27396" lon="2.69462">
        <ele>58</ele>
        <time>2020-10-11T12:35:06.000Z</time>
      </trkpt>
      <trkpt lat="43.27402" lon="2.69459">
        <ele>58</ele>
        <time>2020-10-11T12:35:08.000Z</time>
      </trkpt>
      <trkpt lat="43.27409" lon="2.69452">
        <ele>57</ele>
        <time>2020-10-11T12:35:11.000Z</time>
      </trkpt>
      <trkpt lat="43.27414" lon="2.69444">
        <ele>58</ele>
        <time>2020-10-11T12:35:14.000Z</time>
      </trkpt>
      <trkpt lat="43.27418" lon="2.69443">
        <ele>59</ele>
        <time>2020-10-11T12:35:16.000Z</time>
      </trkpt>
      <trkpt lat="43.2742" lon="2.69443">
        <ele>59</ele>
        <time>2020-10-11T12:35:17.000Z</time>
      </trkpt>
      <trkpt lat="43.27425" lon="2.6945">
        <ele>60</ele>
        <time>2020-10-11T12:35:21.000Z</time>
      </trkpt>
      <trkpt lat="43.27428" lon="2.69472">
        <ele>60</ele>
        <time>2020-10-11T12:35:26.000Z</time>
      </trkpt>
      <trkpt lat="43.27437" lon="2.69492">
        <ele>60</ele>
        <time>2020-10-11T12:35:31.000Z</time>
      </trkpt>
      <trkpt lat="43.27455" lon="2.69509">
        <ele>60</ele>
        <time>2020-10-11T12:35:37.000Z</time>
      </trkpt>
      <trkpt lat="43.27466" lon="2.69516">
        <ele>60</ele>
        <time>2020-10-11T12:35:41.000Z</time>
      </trkpt>
      <trkpt lat="43.27476" lon="2.69525">
        <ele>60</ele>
        <time>2020-10-11T12:35:45.000Z</time>
      </trkpt>
      <trkpt lat="43.27483" lon="2.69529">
        <ele>61</ele>
        <time>2020-10-11T12:35:47.000Z</time>
      </trkpt>
      <trkpt lat="43.27495" lon="2.6954">
        <ele>61</ele>
        <time>2020-10-11T12:35:51.000Z</time>
      </trkpt>
      <trkpt lat="43.275" lon="2.69549">
        <ele>61</ele>
        <time>2020-10-11T12:35:54.000Z</time>
      </trkpt>
      <trkpt lat="43.27509" lon="2.6957">
        <ele>61</ele>
        <time>2020-10-11T12:35:59.000Z</time>
      </trkpt>
      <trkpt lat="43.27515" lon="2.69581">
        <ele>61</ele>
        <time>2020-10-11T12:36:02.000Z</time>
      </trkpt>
      <trkpt lat="43.27519" lon="2.69581">
        <ele>60</ele>
        <time>2020-10-11T12:36:04.000Z</time>
      </trkpt>
      <trkpt lat="43.27528" lon="2.69568">
        <ele>58</ele>
        <time>2020-10-11T12:36:09.000Z</time>
      </trkpt>
      <trkpt lat="43.27536" lon="2.69548">
        <ele>59</ele>
        <time>2020-10-11T12:36:15.000Z</time>
      </trkpt>
      <trkpt lat="43.27538" lon="2.69536">
        <ele>60</ele>
        <time>2020-10-11T12:36:19.000Z</time>
      </trkpt>
      <trkpt lat="43.2754" lon="2.69529">
        <ele>61</ele>
        <time>2020-10-11T12:36:21.000Z</time>
      </trkpt>
      <trkpt lat="43.27548" lon="2.69505">
        <ele>62</ele>
        <time>2020-10-11T12:36:27.000Z</time>
      </trkpt>
      <trkpt lat="43.27563" lon="2.69466">
        <ele>64</ele>
        <time>2020-10-11T12:36:36.000Z</time>
      </trkpt>
      <trkpt lat="43.27568" lon="2.6945">
        <ele>65</ele>
        <time>2020-10-11T12:36:40.000Z</time>
      </trkpt>
      <trkpt lat="43.27572" lon="2.69408">
        <ele>66</ele>
        <time>2020-10-11T12:36:49.000Z</time>
      </trkpt>
      <trkpt lat="43.27573" lon="2.69386">
        <ele>66</ele>
        <time>2020-10-11T12:36:54.000Z</time>
      </trkpt>
      <trkpt lat="43.27575" lon="2.69365">
        <ele>66</ele>
        <time>2020-10-11T12:36:59.000Z</time>
      </trkpt>
      <trkpt lat="43.27579" lon="2.69341">
        <ele>67</ele>
        <time>2020-10-11T12:37:05.000Z</time>
      </trkpt>
      <trkpt lat="43.27578" lon="2.6933">
        <ele>67</ele>
        <time>2020-10-11T12:37:08.000Z</time>
      </trkpt>
      <trkpt lat="43.27578" lon="2.69311">
        <ele>67</ele>
        <time>2020-10-11T12:37:13.000Z</time>
      </trkpt>
      <trkpt lat="43.27587" lon="2.69268">
        <ele>69</ele>
        <time>2020-10-11T12:37:25.000Z</time>
      </trkpt>
      <trkpt lat="43.27592" lon="2.69253">
        <ele>70</ele>
        <time>2020-10-11T12:37:30.000Z</time>
      </trkpt>
      <trkpt lat="43.27596" lon="2.69241">
        <ele>71</ele>
        <time>2020-10-11T12:37:34.000Z</time>
      </trkpt>
      <trkpt lat="43.27599" lon="2.69236">
        <ele>71</ele>
        <time>2020-10-11T12:37:36.000Z</time>
      </trkpt>
      <trkpt lat="43.27602" lon="2.69226">
        <ele>72</ele>
        <time>2020-10-11T12:37:39.000Z</time>
      </trkpt>
      <trkpt lat="43.27604" lon="2.69221">
        <ele>72</ele>
        <time>2020-10-11T12:37:41.000Z</time>
      </trkpt>
      <trkpt lat="43.27608" lon="2.69211">
        <ele>73</ele>
        <time>2020-10-11T12:37:44.000Z</time>
      </trkpt>
      <trkpt lat="43.27612" lon="2.69199">
        <ele>74</ele>
        <time>2020-10-11T12:37:48.000Z</time>
      </trkpt>
      <trkpt lat="43.27614" lon="2.69184">
        <ele>73</ele>
        <time>2020-10-11T12:37:53.000Z</time>
      </trkpt>
      <trkpt lat="43.27617" lon="2.69168">
        <ele>75</ele>
        <time>2020-10-11T12:37:58.000Z</time>
      </trkpt>
      <trkpt lat="43.27624" lon="2.69141">
        <ele>76</ele>
        <time>2020-10-11T12:38:07.000Z</time>
      </trkpt>
      <trkpt lat="43.27626" lon="2.69131">
        <ele>76</ele>
        <time>2020-10-11T12:38:10.000Z</time>
      </trkpt>
      <trkpt lat="43.27625" lon="2.69119">
        <ele>76</ele>
        <time>2020-10-11T12:38:14.000Z</time>
      </trkpt>
      <trkpt lat="43.27624" lon="2.69116">
        <ele>76</ele>
        <time>2020-10-11T12:38:17.000Z</time>
      </trkpt>
      <trkpt lat="43.27624" lon="2.69112">
        <ele>76</ele>
        <time>2020-10-11T12:38:24.000Z</time>
      </trkpt>
      <trkpt lat="43.27625" lon="2.6911">
        <ele>76</ele>
        <time>2020-10-11T12:38:29.000Z</time>
      </trkpt>
      <trkpt lat="43.27631" lon="2.69108">
        <ele>75</ele>
        <time>2020-10-11T12:38:41.000Z</time>
      </trkpt>
      <trkpt lat="43.27634" lon="2.69106">
        <ele>75</ele>
        <time>2020-10-11T12:38:42.000Z</time>
      </trkpt>
      <trkpt lat="43.27644" lon="2.69095">
        <ele>74</ele>
        <time>2020-10-11T12:38:47.000Z</time>
      </trkpt>
      <trkpt lat="43.27655" lon="2.69072">
        <ele>75</ele>
        <time>2020-10-11T12:38:55.000Z</time>
      </trkpt>
      <trkpt lat="43.27666" lon="2.69037">
        <ele>75</ele>
        <time>2020-10-11T12:39:07.000Z</time>
      </trkpt>
      <trkpt lat="43.27672" lon="2.69018">
        <ele>75</ele>
        <time>2020-10-11T12:39:14.000Z</time>
      </trkpt>
      <trkpt lat="43.27678" lon="2.68995">
        <ele>77</ele>
        <time>2020-10-11T12:39:22.000Z</time>
      </trkpt>
      <trkpt lat="43.27684" lon="2.68977">
        <ele>77</ele>
        <time>2020-10-11T12:39:29.000Z</time>
      </trkpt>
      <trkpt lat="43.27687" lon="2.68966">
        <ele>77</ele>
        <time>2020-10-11T12:39:33.000Z</time>
      </trkpt>
      <trkpt lat="43.27697" lon="2.68943">
        <ele>80</ele>
        <time>2020-10-11T12:39:42.000Z</time>
      </trkpt>
      <trkpt lat="43.27705" lon="2.68929">
        <ele>80</ele>
        <time>2020-10-11T12:39:49.000Z</time>
      </trkpt>
      <trkpt lat="43.27709" lon="2.68924">
        <ele>80</ele>
        <time>2020-10-11T12:39:53.000Z</time>
      </trkpt>
      <trkpt lat="43.27714" lon="2.68925">
        <ele>80</ele>
        <time>2020-10-11T12:39:57.000Z</time>
      </trkpt>
      <trkpt lat="43.27728" lon="2.68939">
        <ele>82</ele>
        <time>2020-10-11T12:40:04.000Z</time>
      </trkpt>
      <trkpt lat="43.27733" lon="2.68944">
        <ele>82</ele>
        <time>2020-10-11T12:40:06.000Z</time>
      </trkpt>
      <trkpt lat="43.27747" lon="2.68957">
        <ele>81</ele>
        <time>2020-10-11T12:40:11.000Z</time>
      </trkpt>
      <trkpt lat="43.2776" lon="2.68972">
        <ele>82</ele>
        <time>2020-10-11T12:40:16.000Z</time>
      </trkpt>
      <trkpt lat="43.27769" lon="2.68983">
        <ele>82</ele>
        <time>2020-10-11T12:40:20.000Z</time>
      </trkpt>
      <trkpt lat="43.27774" lon="2.68988">
        <ele>82</ele>
        <time>2020-10-11T12:40:22.000Z</time>
      </trkpt>
      <trkpt lat="43.27799" lon="2.69018">
        <ele>84</ele>
        <time>2020-10-11T12:40:33.000Z</time>
      </trkpt>
      <trkpt lat="43.27808" lon="2.6903">
        <ele>84</ele>
        <time>2020-10-11T12:40:37.000Z</time>
      </trkpt>
      <trkpt lat="43.27818" lon="2.69045">
        <ele>85</ele>
        <time>2020-10-11T12:40:42.000Z</time>
      </trkpt>
      <trkpt lat="43.27824" lon="2.69049">
        <ele>86</ele>
        <time>2020-10-11T12:40:44.000Z</time>
      </trkpt>
      <trkpt lat="43.27835" lon="2.69053">
        <ele>86</ele>
        <time>2020-10-11T12:40:48.000Z</time>
      </trkpt>
      <trkpt lat="43.27841" lon="2.69052">
        <ele>86</ele>
        <time>2020-10-11T12:40:50.000Z</time>
      </trkpt>
      <trkpt lat="43.27853" lon="2.69047">
        <ele>85</ele>
        <time>2020-10-11T12:40:54.000Z</time>
      </trkpt>
      <trkpt lat="43.27892" lon="2.69031">
        <ele>85</ele>
        <time>2020-10-11T12:41:08.000Z</time>
      </trkpt>
      <trkpt lat="43.27908" lon="2.69022">
        <ele>85</ele>
        <time>2020-10-11T12:41:14.000Z</time>
      </trkpt>
      <trkpt lat="43.27912" lon="2.69019">
        <ele>85</ele>
        <time>2020-10-11T12:41:16.000Z</time>
      </trkpt>
      <trkpt lat="43.27914" lon="2.69011">
        <ele>84</ele>
        <time>2020-10-11T12:41:18.000Z</time>
      </trkpt>
      <trkpt lat="43.27919" lon="2.68987">
        <ele>85</ele>
        <time>2020-10-11T12:41:24.000Z</time>
      </trkpt>
      <trkpt lat="43.27935" lon="2.68928">
        <ele>86</ele>
        <time>2020-10-11T12:41:39.000Z</time>
      </trkpt>
      <trkpt lat="43.27937" lon="2.68905">
        <ele>87</ele>
        <time>2020-10-11T12:41:44.000Z</time>
      </trkpt>
      <trkpt lat="43.2794" lon="2.68892">
        <ele>86</ele>
        <time>2020-10-11T12:41:47.000Z</time>
      </trkpt>
      <trkpt lat="43.27942" lon="2.68887">
        <ele>85</ele>
        <time>2020-10-11T12:41:48.000Z</time>
      </trkpt>
      <trkpt lat="43.27976" lon="2.68808">
        <ele>86</ele>
        <time>2020-10-11T12:42:07.000Z</time>
      </trkpt>
      <trkpt lat="43.27979" lon="2.688">
        <ele>86</ele>
        <time>2020-10-11T12:42:09.000Z</time>
      </trkpt>
      <trkpt lat="43.27993" lon="2.68772">
        <ele>85</ele>
        <time>2020-10-11T12:42:16.000Z</time>
      </trkpt>
      <trkpt lat="43.28013" lon="2.6873">
        <ele>86</ele>
        <time>2020-10-11T12:42:26.000Z</time>
      </trkpt>
      <trkpt lat="43.28016" lon="2.68718">
        <ele>86</ele>
        <time>2020-10-11T12:42:29.000Z</time>
      </trkpt>
      <trkpt lat="43.28015" lon="2.68714">
        <ele>87</ele>
        <time>2020-10-11T12:42:30.000Z</time>
      </trkpt>
      <trkpt lat="43.2801" lon="2.68711">
        <ele>88</ele>
        <time>2020-10-11T12:42:32.000Z</time>
      </trkpt>
      <trkpt lat="43.27998" lon="2.68707">
        <ele>89</ele>
        <time>2020-10-11T12:42:35.000Z</time>
      </trkpt>
      <trkpt lat="43.27979" lon="2.68703">
        <ele>88</ele>
        <time>2020-10-11T12:42:39.000Z</time>
      </trkpt>
      <trkpt lat="43.27955" lon="2.68695">
        <ele>87</ele>
        <time>2020-10-11T12:42:44.000Z</time>
      </trkpt>
      <trkpt lat="43.27941" lon="2.68689">
        <ele>87</ele>
        <time>2020-10-11T12:42:47.000Z</time>
      </trkpt>
      <trkpt lat="43.27918" lon="2.68685">
        <ele>88</ele>
        <time>2020-10-11T12:42:52.000Z</time>
      </trkpt>
      <trkpt lat="43.27904" lon="2.68678">
        <ele>88</ele>
        <time>2020-10-11T12:42:55.000Z</time>
      </trkpt>
      <trkpt lat="43.27869" lon="2.68658">
        <ele>89</ele>
        <time>2020-10-11T12:43:03.000Z</time>
      </trkpt>
      <trkpt lat="43.27836" lon="2.68638">
        <ele>89</ele>
        <time>2020-10-11T12:43:11.000Z</time>
      </trkpt>
      <trkpt lat="43.27815" lon="2.68624">
        <ele>89</ele>
        <time>2020-10-11T12:43:17.000Z</time>
      </trkpt>
      <trkpt lat="43.27812" lon="2.68621">
        <ele>89</ele>
        <time>2020-10-11T12:43:18.000Z</time>
      </trkpt>
      <trkpt lat="43.2781" lon="2.68613">
        <ele>88</ele>
        <time>2020-10-11T12:43:20.000Z</time>
      </trkpt>
      <trkpt lat="43.2781" lon="2.6861">
        <ele>87</ele>
        <time>2020-10-11T12:43:21.000Z</time>
      </trkpt>
      <trkpt lat="43.2781" lon="2.68602">
        <ele>86</ele>
        <time>2020-10-11T12:43:23.000Z</time>
      </trkpt>
      <trkpt lat="43.2781" lon="2.686">
        <ele>86</ele>
        <time>2020-10-11T12:43:24.000Z</time>
      </trkpt>
      <trkpt lat="43.27806" lon="2.68595">
        <ele>86</ele>
        <time>2020-10-11T12:43:26.000Z</time>
      </trkpt>
      <trkpt lat="43.27803" lon="2.68594">
        <ele>86</ele>
        <time>2020-10-11T12:43:27.000Z</time>
      </trkpt>
      <trkpt lat="43.2779" lon="2.68591">
        <ele>87</ele>
        <time>2020-10-11T12:43:32.000Z</time>
      </trkpt>
      <trkpt lat="43.27788" lon="2.6859">
        <ele>87</ele>
        <time>2020-10-11T12:43:33.000Z</time>
      </trkpt>
      <trkpt lat="43.2778" lon="2.6858">
        <ele>87</ele>
        <time>2020-10-11T12:43:38.000Z</time>
      </trkpt>
      <trkpt lat="43.27775" lon="2.68573">
        <ele>85</ele>
        <time>2020-10-11T12:43:42.000Z</time>
      </trkpt>
      <trkpt lat="43.27769" lon="2.68568">
        <ele>81</ele>
        <time>2020-10-11T12:43:45.000Z</time>
      </trkpt>
      <trkpt lat="43.27763" lon="2.68556">
        <ele>80</ele>
        <time>2020-10-11T12:43:48.000Z</time>
      </trkpt>
      <trkpt lat="43.27755" lon="2.68544">
        <ele>82</ele>
        <time>2020-10-11T12:43:54.000Z</time>
      </trkpt>
      <trkpt lat="43.27754" lon="2.68543">
        <ele>83</ele>
        <time>2020-10-11T12:43:56.000Z</time>
      </trkpt>
      <trkpt lat="43.27749" lon="2.68543">
        <ele>75</ele>
        <time>2020-10-11T12:44:00.000Z</time>
      </trkpt>
      <trkpt lat="43.27742" lon="2.6855">
        <ele>75</ele>
        <time>2020-10-11T12:44:04.000Z</time>
      </trkpt>
      <trkpt lat="43.27733" lon="2.68551">
        <ele>75</ele>
        <time>2020-10-11T12:44:08.000Z</time>
      </trkpt>
      <trkpt lat="43.27703" lon="2.68522">
        <ele>75</ele>
        <time>2020-10-11T12:44:18.000Z</time>
      </trkpt>
      <trkpt lat="43.27695" lon="2.68524">
        <ele>75</ele>
        <time>2020-10-11T12:44:21.000Z</time>
      </trkpt>
      <trkpt lat="43.27687" lon="2.68528">
        <ele>75</ele>
        <time>2020-10-11T12:44:25.000Z</time>
      </trkpt>
      <trkpt lat="43.27686" lon="2.68518">
        <ele>75</ele>
        <time>2020-10-11T12:44:28.000Z</time>
      </trkpt>
      <trkpt lat="43.27701" lon="2.68497">
        <ele>75</ele>
        <time>2020-10-11T12:44:35.000Z</time>
      </trkpt>
      <trkpt lat="43.27712" lon="2.68481">
        <ele>75</ele>
        <time>2020-10-11T12:44:40.000Z</time>
      </trkpt>
      <trkpt lat="43.27715" lon="2.68474">
        <ele>75</ele>
        <time>2020-10-11T12:44:42.000Z</time>
      </trkpt>
      <trkpt lat="43.27726" lon="2.68459">
        <ele>75</ele>
        <time>2020-10-11T12:44:47.000Z</time>
      </trkpt>
      <trkpt lat="43.27727" lon="2.68455">
        <ele>75</ele>
        <time>2020-10-11T12:44:52.000Z</time>
      </trkpt>
      <trkpt lat="43.27728" lon="2.68456">
        <ele>75</ele>
        <time>2020-10-11T12:45:00.000Z</time>
      </trkpt>
      <trkpt lat="43.27728" lon="2.68455">
        <ele>75</ele>
        <time>2020-10-11T12:45:03.000Z</time>
      </trkpt>
      <trkpt lat="43.27727" lon="2.68457">
        <ele>75</ele>
        <time>2020-10-11T12:45:37.000Z</time>
      </trkpt>
      <trkpt lat="43.27729" lon="2.68456">
        <ele>75</ele>
        <time>2020-10-11T12:46:23.000Z</time>
      </trkpt>
      <trkpt lat="43.27738" lon="2.68443">
        <ele>75</ele>
        <time>2020-10-11T12:46:40.000Z</time>
      </trkpt>
      <trkpt lat="43.27751" lon="2.6842">
        <ele>75</ele>
        <time>2020-10-11T12:46:50.000Z</time>
      </trkpt>
      <trkpt lat="43.2776" lon="2.68407">
        <ele>70</ele>
        <time>2020-10-11T12:46:55.000Z</time>
      </trkpt>
      <trkpt lat="43.27767" lon="2.68392">
        <ele>71</ele>
        <time>2020-10-11T12:47:00.000Z</time>
      </trkpt>
      <trkpt lat="43.27775" lon="2.68377">
        <ele>72</ele>
        <time>2020-10-11T12:47:05.000Z</time>
      </trkpt>
      <trkpt lat="43.27784" lon="2.68362">
        <ele>72</ele>
        <time>2020-10-11T12:47:11.000Z</time>
      </trkpt>
      <trkpt lat="43.27789" lon="2.68354">
        <ele>73</ele>
        <time>2020-10-11T12:47:14.000Z</time>
      </trkpt>
      <trkpt lat="43.27794" lon="2.68348">
        <ele>74</ele>
        <time>2020-10-11T12:47:17.000Z</time>
      </trkpt>
      <trkpt lat="43.27801" lon="2.68341">
        <ele>74</ele>
        <time>2020-10-11T12:47:21.000Z</time>
      </trkpt>
      <trkpt lat="43.27804" lon="2.68334">
        <ele>75</ele>
        <time>2020-10-11T12:47:24.000Z</time>
      </trkpt>
      <trkpt lat="43.27804" lon="2.68332">
        <ele>75</ele>
        <time>2020-10-11T12:47:25.000Z</time>
      </trkpt>
      <trkpt lat="43.27803" lon="2.68329">
        <ele>76</ele>
        <time>2020-10-11T12:47:26.000Z</time>
      </trkpt>
      <trkpt lat="43.27786" lon="2.68312">
        <ele>79</ele>
        <time>2020-10-11T12:47:35.000Z</time>
      </trkpt>
      <trkpt lat="43.27772" lon="2.68294">
        <ele>79</ele>
        <time>2020-10-11T12:47:44.000Z</time>
      </trkpt>
      <trkpt lat="43.27751" lon="2.68272">
        <ele>82</ele>
        <time>2020-10-11T12:47:57.000Z</time>
      </trkpt>
      <trkpt lat="43.27738" lon="2.68261">
        <ele>82</ele>
        <time>2020-10-11T12:48:05.000Z</time>
      </trkpt>
      <trkpt lat="43.27733" lon="2.68259">
        <ele>82</ele>
        <time>2020-10-11T12:48:10.000Z</time>
      </trkpt>
      <trkpt lat="43.27721" lon="2.6826">
        <ele>81</ele>
        <time>2020-10-11T12:48:15.000Z</time>
      </trkpt>
      <trkpt lat="43.27719" lon="2.68261">
        <ele>81</ele>
        <time>2020-10-11T12:48:16.000Z</time>
      </trkpt>
      <trkpt lat="43.27716" lon="2.68263">
        <ele>81</ele>
        <time>2020-10-11T12:48:17.000Z</time>
      </trkpt>
      <trkpt lat="43.27713" lon="2.68267">
        <ele>81</ele>
        <time>2020-10-11T12:48:18.000Z</time>
      </trkpt>
      <trkpt lat="43.27711" lon="2.68271">
        <ele>81</ele>
        <time>2020-10-11T12:48:19.000Z</time>
      </trkpt>
      <trkpt lat="43.27704" lon="2.68282">
        <ele>80</ele>
        <time>2020-10-11T12:48:22.000Z</time>
      </trkpt>
      <trkpt lat="43.27701" lon="2.68283">
        <ele>80</ele>
        <time>2020-10-11T12:48:23.000Z</time>
      </trkpt>
      <trkpt lat="43.27698" lon="2.68282">
        <ele>80</ele>
        <time>2020-10-11T12:48:24.000Z</time>
      </trkpt>
      <trkpt lat="43.2769" lon="2.68279">
        <ele>79</ele>
        <time>2020-10-11T12:48:26.000Z</time>
      </trkpt>
      <trkpt lat="43.27677" lon="2.68278">
        <ele>79</ele>
        <time>2020-10-11T12:48:29.000Z</time>
      </trkpt>
      <trkpt lat="43.27673" lon="2.68281">
        <ele>78</ele>
        <time>2020-10-11T12:48:30.000Z</time>
      </trkpt>
      <trkpt lat="43.27669" lon="2.68285">
        <ele>78</ele>
        <time>2020-10-11T12:48:31.000Z</time>
      </trkpt>
      <trkpt lat="43.27662" lon="2.68294">
        <ele>76</ele>
        <time>2020-10-11T12:48:33.000Z</time>
      </trkpt>
      <trkpt lat="43.27652" lon="2.68299">
        <ele>75</ele>
        <time>2020-10-11T12:48:36.000Z</time>
      </trkpt>
      <trkpt lat="43.27648" lon="2.68296">
        <ele>75</ele>
        <time>2020-10-11T12:48:37.000Z</time>
      </trkpt>
      <trkpt lat="43.27638" lon="2.68284">
        <ele>74</ele>
        <time>2020-10-11T12:48:40.000Z</time>
      </trkpt>
      <trkpt lat="43.27601" lon="2.68247">
        <ele>72</ele>
        <time>2020-10-11T12:48:51.000Z</time>
      </trkpt>
      <trkpt lat="43.27594" lon="2.68243">
        <ele>72</ele>
        <time>2020-10-11T12:48:54.000Z</time>
      </trkpt>
      <trkpt lat="43.27586" lon="2.68247">
        <ele>72</ele>
        <time>2020-10-11T12:49:01.000Z</time>
      </trkpt>
      <trkpt lat="43.27585" lon="2.68244">
        <ele>72</ele>
        <time>2020-10-11T12:49:08.000Z</time>
      </trkpt>
      <trkpt lat="43.27585" lon="2.68242">
        <ele>71</ele>
        <time>2020-10-11T12:49:37.000Z</time>
      </trkpt>
      <trkpt lat="43.27586" lon="2.68241">
        <ele>70</ele>
        <time>2020-10-11T12:49:53.000Z</time>
      </trkpt>
      <trkpt lat="43.27591" lon="2.68235">
        <ele>70</ele>
        <time>2020-10-11T12:49:56.000Z</time>
      </trkpt>
      <trkpt lat="43.27604" lon="2.68217">
        <ele>70</ele>
        <time>2020-10-11T12:50:04.000Z</time>
      </trkpt>
      <trkpt lat="43.27608" lon="2.68213">
        <ele>70</ele>
        <time>2020-10-11T12:50:07.000Z</time>
      </trkpt>
      <trkpt lat="43.27611" lon="2.68209">
        <ele>71</ele>
        <time>2020-10-11T12:50:09.000Z</time>
      </trkpt>
      <trkpt lat="43.27613" lon="2.68205">
        <ele>71</ele>
        <time>2020-10-11T12:50:12.000Z</time>
      </trkpt>
      <trkpt lat="43.2761" lon="2.68203">
        <ele>72</ele>
        <time>2020-10-11T12:50:18.000Z</time>
      </trkpt>
      <trkpt lat="43.27602" lon="2.682">
        <ele>72</ele>
        <time>2020-10-11T12:50:23.000Z</time>
      </trkpt>
      <trkpt lat="43.2758" lon="2.68188">
        <ele>71</ele>
        <time>2020-10-11T12:50:33.000Z</time>
      </trkpt>
      <trkpt lat="43.27568" lon="2.68183">
        <ele>71</ele>
        <time>2020-10-11T12:50:38.000Z</time>
      </trkpt>
      <trkpt lat="43.27566" lon="2.68181">
        <ele>71</ele>
        <time>2020-10-11T12:50:39.000Z</time>
      </trkpt>
      <trkpt lat="43.27565" lon="2.68178">
        <ele>71</ele>
        <time>2020-10-11T12:50:40.000Z</time>
      </trkpt>
      <trkpt lat="43.27568" lon="2.68164">
        <ele>71</ele>
        <time>2020-10-11T12:50:44.000Z</time>
      </trkpt>
      <trkpt lat="43.27578" lon="2.68125">
        <ele>70</ele>
        <time>2020-10-11T12:50:54.000Z</time>
      </trkpt>
      <trkpt lat="43.27583" lon="2.68106">
        <ele>71</ele>
        <time>2020-10-11T12:50:59.000Z</time>
      </trkpt>
      <trkpt lat="43.27585" lon="2.68098">
        <ele>71</ele>
        <time>2020-10-11T12:51:01.000Z</time>
      </trkpt>
      <trkpt lat="43.27588" lon="2.68091">
        <ele>71</ele>
        <time>2020-10-11T12:51:03.000Z</time>
      </trkpt>
      <trkpt lat="43.27591" lon="2.68089">
        <ele>72</ele>
        <time>2020-10-11T12:51:04.000Z</time>
      </trkpt>
      <trkpt lat="43.27593" lon="2.68088">
        <ele>72</ele>
        <time>2020-10-11T12:51:05.000Z</time>
      </trkpt>
      <trkpt lat="43.27618" lon="2.68099">
        <ele>74</ele>
        <time>2020-10-11T12:51:13.000Z</time>
      </trkpt>
      <trkpt lat="43.2762" lon="2.68098">
        <ele>74</ele>
        <time>2020-10-11T12:51:14.000Z</time>
      </trkpt>
      <trkpt lat="43.27624" lon="2.68093">
        <ele>74</ele>
        <time>2020-10-11T12:51:16.000Z</time>
      </trkpt>
      <trkpt lat="43.27627" lon="2.68087">
        <ele>73</ele>
        <time>2020-10-11T12:51:18.000Z</time>
      </trkpt>
      <trkpt lat="43.27633" lon="2.68061">
        <ele>74</ele>
        <time>2020-10-11T12:51:25.000Z</time>
      </trkpt>
      <trkpt lat="43.2765" lon="2.68">
        <ele>74</ele>
        <time>2020-10-11T12:51:41.000Z</time>
      </trkpt>
      <trkpt lat="43.27656" lon="2.67982">
        <ele>74</ele>
        <time>2020-10-11T12:51:46.000Z</time>
      </trkpt>
      <trkpt lat="43.27665" lon="2.67958">
        <ele>76</ele>
        <time>2020-10-11T12:51:53.000Z</time>
      </trkpt>
      <trkpt lat="43.27668" lon="2.67956">
        <ele>76</ele>
        <time>2020-10-11T12:51:54.000Z</time>
      </trkpt>
      <trkpt lat="43.2767" lon="2.67955">
        <ele>77</ele>
        <time>2020-10-11T12:51:55.000Z</time>
      </trkpt>
      <trkpt lat="43.27688" lon="2.67953">
        <ele>78</ele>
        <time>2020-10-11T12:52:01.000Z</time>
      </trkpt>
      <trkpt lat="43.27696" lon="2.6795">
        <ele>78</ele>
        <time>2020-10-11T12:52:04.000Z</time>
      </trkpt>
      <trkpt lat="43.27698" lon="2.67948">
        <ele>78</ele>
        <time>2020-10-11T12:52:05.000Z</time>
      </trkpt>
      <trkpt lat="43.27702" lon="2.6794">
        <ele>77</ele>
        <time>2020-10-11T12:52:08.000Z</time>
      </trkpt>
      <trkpt lat="43.27706" lon="2.67931">
        <ele>77</ele>
        <time>2020-10-11T12:52:11.000Z</time>
      </trkpt>
      <trkpt lat="43.27713" lon="2.67914">
        <ele>77</ele>
        <time>2020-10-11T12:52:16.000Z</time>
      </trkpt>
      <trkpt lat="43.2772" lon="2.67887">
        <ele>78</ele>
        <time>2020-10-11T12:52:23.000Z</time>
      </trkpt>
      <trkpt lat="43.27728" lon="2.6785">
        <ele>79</ele>
        <time>2020-10-11T12:52:32.000Z</time>
      </trkpt>
      <trkpt lat="43.27728" lon="2.67846">
        <ele>80</ele>
        <time>2020-10-11T12:52:33.000Z</time>
      </trkpt>
      <trkpt lat="43.27727" lon="2.67843">
        <ele>80</ele>
        <time>2020-10-11T12:52:34.000Z</time>
      </trkpt>
      <trkpt lat="43.27725" lon="2.6784">
        <ele>80</ele>
        <time>2020-10-11T12:52:35.000Z</time>
      </trkpt>
      <trkpt lat="43.2772" lon="2.67836">
        <ele>81</ele>
        <time>2020-10-11T12:52:37.000Z</time>
      </trkpt>
      <trkpt lat="43.27712" lon="2.67834">
        <ele>81</ele>
        <time>2020-10-11T12:52:39.000Z</time>
      </trkpt>
      <trkpt lat="43.27689" lon="2.67828">
        <ele>80</ele>
        <time>2020-10-11T12:52:45.000Z</time>
      </trkpt>
      <trkpt lat="43.27682" lon="2.67825">
        <ele>79</ele>
        <time>2020-10-11T12:52:47.000Z</time>
      </trkpt>
      <trkpt lat="43.27679" lon="2.67817">
        <ele>78</ele>
        <time>2020-10-11T12:52:49.000Z</time>
      </trkpt>
      <trkpt lat="43.27679" lon="2.67812">
        <ele>78</ele>
        <time>2020-10-11T12:52:50.000Z</time>
      </trkpt>
      <trkpt lat="43.27683" lon="2.67783">
        <ele>75</ele>
        <time>2020-10-11T12:52:56.000Z</time>
      </trkpt>
      <trkpt lat="43.27697" lon="2.67711">
        <ele>76</ele>
        <time>2020-10-11T12:53:13.000Z</time>
      </trkpt>
      <trkpt lat="43.277" lon="2.67704">
        <ele>76</ele>
        <time>2020-10-11T12:53:15.000Z</time>
      </trkpt>
      <trkpt lat="43.27704" lon="2.67698">
        <ele>77</ele>
        <time>2020-10-11T12:53:17.000Z</time>
      </trkpt>
      <trkpt lat="43.27707" lon="2.67692">
        <ele>78</ele>
        <time>2020-10-11T12:53:19.000Z</time>
      </trkpt>
      <trkpt lat="43.27708" lon="2.67685">
        <ele>78</ele>
        <time>2020-10-11T12:53:21.000Z</time>
      </trkpt>
      <trkpt lat="43.27702" lon="2.67672">
        <ele>78</ele>
        <time>2020-10-11T12:53:25.000Z</time>
      </trkpt>
      <trkpt lat="43.27695" lon="2.67662">
        <ele>79</ele>
        <time>2020-10-11T12:53:31.000Z</time>
      </trkpt>
      <trkpt lat="43.27695" lon="2.67656">
        <ele>79</ele>
        <time>2020-10-11T12:53:38.000Z</time>
      </trkpt>
      <trkpt lat="43.27691" lon="2.67648">
        <ele>79</ele>
        <time>2020-10-11T12:53:43.000Z</time>
      </trkpt>
      <trkpt lat="43.27691" lon="2.67635">
        <ele>77</ele>
        <time>2020-10-11T12:53:47.000Z</time>
      </trkpt>
      <trkpt lat="43.27704" lon="2.67601">
        <ele>76</ele>
        <time>2020-10-11T12:53:57.000Z</time>
      </trkpt>
      <trkpt lat="43.27713" lon="2.67583">
        <ele>75</ele>
        <time>2020-10-11T12:54:03.000Z</time>
      </trkpt>
      <trkpt lat="43.27718" lon="2.67569">
        <ele>75</ele>
        <time>2020-10-11T12:54:07.000Z</time>
      </trkpt>
      <trkpt lat="43.27728" lon="2.67548">
        <ele>76</ele>
        <time>2020-10-11T12:54:13.000Z</time>
      </trkpt>
      <trkpt lat="43.2774" lon="2.67519">
        <ele>76</ele>
        <time>2020-10-11T12:54:22.000Z</time>
      </trkpt>
      <trkpt lat="43.27744" lon="2.67497">
        <ele>77</ele>
        <time>2020-10-11T12:54:28.000Z</time>
      </trkpt>
      <trkpt lat="43.27747" lon="2.67482">
        <ele>78</ele>
        <time>2020-10-11T12:54:32.000Z</time>
      </trkpt>
      <trkpt lat="43.2775" lon="2.6747">
        <ele>78</ele>
        <time>2020-10-11T12:54:35.000Z</time>
      </trkpt>
      <trkpt lat="43.27754" lon="2.67451">
        <ele>78</ele>
        <time>2020-10-11T12:54:40.000Z</time>
      </trkpt>
      <trkpt lat="43.27756" lon="2.67443">
        <ele>78</ele>
        <time>2020-10-11T12:54:42.000Z</time>
      </trkpt>
      <trkpt lat="43.27765" lon="2.67403">
        <ele>80</ele>
        <time>2020-10-11T12:54:52.000Z</time>
      </trkpt>
      <trkpt lat="43.27773" lon="2.6738">
        <ele>81</ele>
        <time>2020-10-11T12:54:58.000Z</time>
      </trkpt>
      <trkpt lat="43.27793" lon="2.67319">
        <ele>82</ele>
        <time>2020-10-11T12:55:15.000Z</time>
      </trkpt>
      <trkpt lat="43.27802" lon="2.67288">
        <ele>80</ele>
        <time>2020-10-11T12:55:24.000Z</time>
      </trkpt>
      <trkpt lat="43.27805" lon="2.67264">
        <ele>81</ele>
        <time>2020-10-11T12:55:30.000Z</time>
      </trkpt>
      <trkpt lat="43.2781" lon="2.67246">
        <ele>82</ele>
        <time>2020-10-11T12:55:35.000Z</time>
      </trkpt>
      <trkpt lat="43.27826" lon="2.67213">
        <ele>84</ele>
        <time>2020-10-11T12:55:45.000Z</time>
      </trkpt>
      <trkpt lat="43.27828" lon="2.67206">
        <ele>84</ele>
        <time>2020-10-11T12:55:47.000Z</time>
      </trkpt>
      <trkpt lat="43.27835" lon="2.6719">
        <ele>84</ele>
        <time>2020-10-11T12:55:52.000Z</time>
      </trkpt>
      <trkpt lat="43.27846" lon="2.67158">
        <ele>83</ele>
        <time>2020-10-11T12:56:01.000Z</time>
      </trkpt>
      <trkpt lat="43.27851" lon="2.67143">
        <ele>83</ele>
        <time>2020-10-11T12:56:05.000Z</time>
      </trkpt>
      <trkpt lat="43.27858" lon="2.67128">
        <ele>84</ele>
        <time>2020-10-11T12:56:10.000Z</time>
      </trkpt>
      <trkpt lat="43.27859" lon="2.67121">
        <ele>84</ele>
        <time>2020-10-11T12:56:13.000Z</time>
      </trkpt>
      <trkpt lat="43.27879" lon="2.67057">
        <ele>85</ele>
        <time>2020-10-11T12:56:35.000Z</time>
      </trkpt>
      <trkpt lat="43.27882" lon="2.67044">
        <ele>85</ele>
        <time>2020-10-11T12:56:40.000Z</time>
      </trkpt>
      <trkpt lat="43.27885" lon="2.67031">
        <ele>85</ele>
        <time>2020-10-11T12:56:44.000Z</time>
      </trkpt>
      <trkpt lat="43.27898" lon="2.66996">
        <ele>87</ele>
        <time>2020-10-11T12:56:55.000Z</time>
      </trkpt>
      <trkpt lat="43.279" lon="2.66986">
        <ele>86</ele>
        <time>2020-10-11T12:56:58.000Z</time>
      </trkpt>
      <trkpt lat="43.27906" lon="2.66967">
        <ele>86</ele>
        <time>2020-10-11T12:57:04.000Z</time>
      </trkpt>
      <trkpt lat="43.2791" lon="2.66964">
        <ele>87</ele>
        <time>2020-10-11T12:57:06.000Z</time>
      </trkpt>
      <trkpt lat="43.27914" lon="2.66965">
        <ele>88</ele>
        <time>2020-10-11T12:57:08.000Z</time>
      </trkpt>
      <trkpt lat="43.27916" lon="2.66963">
        <ele>88</ele>
        <time>2020-10-11T12:57:10.000Z</time>
      </trkpt>
      <trkpt lat="43.27909" lon="2.66939">
        <ele>87</ele>
        <time>2020-10-11T12:57:18.000Z</time>
      </trkpt>
      <trkpt lat="43.27898" lon="2.66907">
        <ele>86</ele>
        <time>2020-10-11T12:57:27.000Z</time>
      </trkpt>
      <trkpt lat="43.27893" lon="2.66888">
        <ele>86</ele>
        <time>2020-10-11T12:57:32.000Z</time>
      </trkpt>
      <trkpt lat="43.27889" lon="2.66871">
        <ele>86</ele>
        <time>2020-10-11T12:57:36.000Z</time>
      </trkpt>
      <trkpt lat="43.27876" lon="2.6682">
        <ele>85</ele>
        <time>2020-10-11T12:57:48.000Z</time>
      </trkpt>
      <trkpt lat="43.27869" lon="2.6679">
        <ele>86</ele>
        <time>2020-10-11T12:57:55.000Z</time>
      </trkpt>
      <trkpt lat="43.2784" lon="2.66685">
        <ele>90</ele>
        <time>2020-10-11T12:58:21.000Z</time>
      </trkpt>
      <trkpt lat="43.27826" lon="2.66626">
        <ele>92</ele>
        <time>2020-10-11T12:58:36.000Z</time>
      </trkpt>
      <trkpt lat="43.2782" lon="2.66603">
        <ele>92</ele>
        <time>2020-10-11T12:58:42.000Z</time>
      </trkpt>
      <trkpt lat="43.27806" lon="2.66542">
        <ele>95</ele>
        <time>2020-10-11T12:58:57.000Z</time>
      </trkpt>
      <trkpt lat="43.278" lon="2.66521">
        <ele>96</ele>
        <time>2020-10-11T12:59:02.000Z</time>
      </trkpt>
      <trkpt lat="43.27797" lon="2.66507">
        <ele>96</ele>
        <time>2020-10-11T12:59:05.000Z</time>
      </trkpt>
      <trkpt lat="43.27782" lon="2.66429">
        <ele>96</ele>
        <time>2020-10-11T12:59:22.000Z</time>
      </trkpt>
      <trkpt lat="43.27769" lon="2.66353">
        <ele>97</ele>
        <time>2020-10-11T12:59:38.000Z</time>
      </trkpt>
      <trkpt lat="43.27762" lon="2.66317">
        <ele>98</ele>
        <time>2020-10-11T12:59:45.000Z</time>
      </trkpt>
      <trkpt lat="43.27755" lon="2.66261">
        <ele>98</ele>
        <time>2020-10-11T12:59:55.000Z</time>
      </trkpt>
      <trkpt lat="43.27751" lon="2.66221">
        <ele>98</ele>
        <time>2020-10-11T13:00:03.000Z</time>
      </trkpt>
      <trkpt lat="43.27751" lon="2.66187">
        <ele>98</ele>
        <time>2020-10-11T13:00:11.000Z</time>
      </trkpt>
      <trkpt lat="43.27757" lon="2.66158">
        <ele>98</ele>
        <time>2020-10-11T13:00:17.000Z</time>
      </trkpt>
      <trkpt lat="43.27763" lon="2.6614">
        <ele>99</ele>
        <time>2020-10-11T13:00:21.000Z</time>
      </trkpt>
      <trkpt lat="43.27765" lon="2.66123">
        <ele>99</ele>
        <time>2020-10-11T13:00:25.000Z</time>
      </trkpt>
      <trkpt lat="43.27764" lon="2.66117">
        <ele>100</ele>
        <time>2020-10-11T13:00:30.000Z</time>
      </trkpt>
      <trkpt lat="43.27767" lon="2.66094">
        <ele>100</ele>
        <time>2020-10-11T13:00:42.000Z</time>
      </trkpt>
      <trkpt lat="43.27768" lon="2.66083">
        <ele>100</ele>
        <time>2020-10-11T13:00:46.000Z</time>
      </trkpt>
      <trkpt lat="43.27775" lon="2.66098">
        <ele>102</ele>
        <time>2020-10-11T13:04:35.000Z</time>
      </trkpt>
      <trkpt lat="43.27779" lon="2.66079">
        <ele>101</ele>
        <time>2020-10-11T13:04:40.000Z</time>
      </trkpt>
      <trkpt lat="43.27781" lon="2.66043">
        <ele>102</ele>
        <time>2020-10-11T13:04:47.000Z</time>
      </trkpt>
      <trkpt lat="43.27783" lon="2.66017">
        <ele>101</ele>
        <time>2020-10-11T13:04:52.000Z</time>
      </trkpt>
      <trkpt lat="43.27784" lon="2.66005">
        <ele>101</ele>
        <time>2020-10-11T13:04:54.000Z</time>
      </trkpt>
      <trkpt lat="43.27786" lon="2.6594">
        <ele>100</ele>
        <time>2020-10-11T13:05:04.000Z</time>
      </trkpt>
      <trkpt lat="43.27786" lon="2.65927">
        <ele>100</ele>
        <time>2020-10-11T13:05:06.000Z</time>
      </trkpt>
      <trkpt lat="43.27784" lon="2.65914">
        <ele>100</ele>
        <time>2020-10-11T13:05:08.000Z</time>
      </trkpt>
      <trkpt lat="43.27778" lon="2.65895">
        <ele>100</ele>
        <time>2020-10-11T13:05:11.000Z</time>
      </trkpt>
      <trkpt lat="43.27763" lon="2.6586">
        <ele>100</ele>
        <time>2020-10-11T13:05:16.000Z</time>
      </trkpt>
      <trkpt lat="43.27753" lon="2.6584">
        <ele>100</ele>
        <time>2020-10-11T13:05:19.000Z</time>
      </trkpt>
      <trkpt lat="43.27742" lon="2.65824">
        <ele>100</ele>
        <time>2020-10-11T13:05:22.000Z</time>
      </trkpt>
      <trkpt lat="43.27731" lon="2.6581">
        <ele>99</ele>
        <time>2020-10-11T13:05:25.000Z</time>
      </trkpt>
      <trkpt lat="43.27718" lon="2.658">
        <ele>99</ele>
        <time>2020-10-11T13:05:28.000Z</time>
      </trkpt>
      <trkpt lat="43.27703" lon="2.65785">
        <ele>99</ele>
        <time>2020-10-11T13:05:32.000Z</time>
      </trkpt>
      <trkpt lat="43.27697" lon="2.65775">
        <ele>99</ele>
        <time>2020-10-11T13:05:34.000Z</time>
      </trkpt>
      <trkpt lat="43.27695" lon="2.65763">
        <ele>99</ele>
        <time>2020-10-11T13:05:36.000Z</time>
      </trkpt>
      <trkpt lat="43.27695" lon="2.65756">
        <ele>99</ele>
        <time>2020-10-11T13:05:37.000Z</time>
      </trkpt>
      <trkpt lat="43.27697" lon="2.65742">
        <ele>98</ele>
        <time>2020-10-11T13:05:39.000Z</time>
      </trkpt>
      <trkpt lat="43.277" lon="2.65726">
        <ele>97</ele>
        <time>2020-10-11T13:05:41.000Z</time>
      </trkpt>
      <trkpt lat="43.27706" lon="2.65709">
        <ele>96</ele>
        <time>2020-10-11T13:05:44.000Z</time>
      </trkpt>
      <trkpt lat="43.27721" lon="2.65673">
        <ele>96</ele>
        <time>2020-10-11T13:05:53.000Z</time>
      </trkpt>
      <trkpt lat="43.27727" lon="2.65655">
        <ele>94</ele>
        <time>2020-10-11T13:05:56.000Z</time>
      </trkpt>
      <trkpt lat="43.27731" lon="2.65643">
        <ele>93</ele>
        <time>2020-10-11T13:05:58.000Z</time>
      </trkpt>
      <trkpt lat="43.27731" lon="2.65636">
        <ele>92</ele>
        <time>2020-10-11T13:05:59.000Z</time>
      </trkpt>
      <trkpt lat="43.27733" lon="2.65622">
        <ele>90</ele>
        <time>2020-10-11T13:06:01.000Z</time>
      </trkpt>
      <trkpt lat="43.27733" lon="2.65607">
        <ele>89</ele>
        <time>2020-10-11T13:06:03.000Z</time>
      </trkpt>
      <trkpt lat="43.27736" lon="2.65584">
        <ele>87</ele>
        <time>2020-10-11T13:06:06.000Z</time>
      </trkpt>
      <trkpt lat="43.27737" lon="2.65539">
        <ele>83</ele>
        <time>2020-10-11T13:06:10.000Z</time>
      </trkpt>
      <trkpt lat="43.27733" lon="2.65514">
        <ele>81</ele>
        <time>2020-10-11T13:06:13.000Z</time>
      </trkpt>
      <trkpt lat="43.27732" lon="2.65499">
        <ele>79</ele>
        <time>2020-10-11T13:06:15.000Z</time>
      </trkpt>
      <trkpt lat="43.27732" lon="2.65493">
        <ele>78</ele>
        <time>2020-10-11T13:06:16.000Z</time>
      </trkpt>
      <trkpt lat="43.27735" lon="2.65484">
        <ele>75</ele>
        <time>2020-10-11T13:06:18.000Z</time>
      </trkpt>
      <trkpt lat="43.27735" lon="2.65474">
        <ele>74</ele>
        <time>2020-10-11T13:06:20.000Z</time>
      </trkpt>
      <trkpt lat="43.2773" lon="2.6546">
        <ele>74</ele>
        <time>2020-10-11T13:06:25.000Z</time>
      </trkpt>
      <trkpt lat="43.27734" lon="2.65458">
        <ele>75</ele>
        <time>2020-10-11T13:06:29.000Z</time>
      </trkpt>
      <trkpt lat="43.27737" lon="2.65459">
        <ele>76</ele>
        <time>2020-10-11T13:06:33.000Z</time>
      </trkpt>
      <trkpt lat="43.27742" lon="2.65457">
        <ele>77</ele>
        <time>2020-10-11T13:06:40.000Z</time>
      </trkpt>
      <trkpt lat="43.27755" lon="2.65427">
        <ele>75</ele>
        <time>2020-10-11T13:06:50.000Z</time>
      </trkpt>
      <trkpt lat="43.27784" lon="2.65374">
        <ele>75</ele>
        <time>2020-10-11T13:07:04.000Z</time>
      </trkpt>
      <trkpt lat="43.27798" lon="2.65347">
        <ele>77</ele>
        <time>2020-10-11T13:07:11.000Z</time>
      </trkpt>
      <trkpt lat="43.27812" lon="2.65317">
        <ele>77</ele>
        <time>2020-10-11T13:07:18.000Z</time>
      </trkpt>
      <trkpt lat="43.27825" lon="2.65284">
        <ele>77</ele>
        <time>2020-10-11T13:07:26.000Z</time>
      </trkpt>
      <trkpt lat="43.2783" lon="2.65267">
        <ele>76</ele>
        <time>2020-10-11T13:07:30.000Z</time>
      </trkpt>
      <trkpt lat="43.27839" lon="2.65247">
        <ele>77</ele>
        <time>2020-10-11T13:07:35.000Z</time>
      </trkpt>
      <trkpt lat="43.2785" lon="2.65216">
        <ele>78</ele>
        <time>2020-10-11T13:07:42.000Z</time>
      </trkpt>
      <trkpt lat="43.27868" lon="2.65166">
        <ele>77</ele>
        <time>2020-10-11T13:07:54.000Z</time>
      </trkpt>
      <trkpt lat="43.27881" lon="2.65122">
        <ele>78</ele>
        <time>2020-10-11T13:08:05.000Z</time>
      </trkpt>
      <trkpt lat="43.2789" lon="2.65094">
        <ele>77</ele>
        <time>2020-10-11T13:08:12.000Z</time>
      </trkpt>
      <trkpt lat="43.27901" lon="2.65064">
        <ele>79</ele>
        <time>2020-10-11T13:08:20.000Z</time>
      </trkpt>
      <trkpt lat="43.27907" lon="2.65049">
        <ele>79</ele>
        <time>2020-10-11T13:08:24.000Z</time>
      </trkpt>
      <trkpt lat="43.2792" lon="2.65019">
        <ele>79</ele>
        <time>2020-10-11T13:08:32.000Z</time>
      </trkpt>
      <trkpt lat="43.2794" lon="2.6498">
        <ele>79</ele>
        <time>2020-10-11T13:08:43.000Z</time>
      </trkpt>
      <trkpt lat="43.27963" lon="2.64944">
        <ele>80</ele>
        <time>2020-10-11T13:08:54.000Z</time>
      </trkpt>
      <trkpt lat="43.27981" lon="2.6492">
        <ele>79</ele>
        <time>2020-10-11T13:09:02.000Z</time>
      </trkpt>
      <trkpt lat="43.28002" lon="2.6489">
        <ele>79</ele>
        <time>2020-10-11T13:09:11.000Z</time>
      </trkpt>
      <trkpt lat="43.28017" lon="2.64866">
        <ele>79</ele>
        <time>2020-10-11T13:09:18.000Z</time>
      </trkpt>
      <trkpt lat="43.28062" lon="2.64802">
        <ele>82</ele>
        <time>2020-10-11T13:09:38.000Z</time>
      </trkpt>
      <trkpt lat="43.28102" lon="2.64742">
        <ele>82</ele>
        <time>2020-10-11T13:09:56.000Z</time>
      </trkpt>
      <trkpt lat="43.28118" lon="2.6472">
        <ele>79</ele>
        <time>2020-10-11T13:10:03.000Z</time>
      </trkpt>
      <trkpt lat="43.28124" lon="2.6471">
        <ele>81</ele>
        <time>2020-10-11T13:10:06.000Z</time>
      </trkpt>
      <trkpt lat="43.28154" lon="2.64669">
        <ele>84</ele>
        <time>2020-10-11T13:10:19.000Z</time>
      </trkpt>
      <trkpt lat="43.28226" lon="2.64562">
        <ele>85</ele>
        <time>2020-10-11T13:10:51.000Z</time>
      </trkpt>
      <trkpt lat="43.28249" lon="2.6453">
        <ele>85</ele>
        <time>2020-10-11T13:11:01.000Z</time>
      </trkpt>
      <trkpt lat="43.28279" lon="2.6449">
        <ele>86</ele>
        <time>2020-10-11T13:11:14.000Z</time>
      </trkpt>
      <trkpt lat="43.28317" lon="2.64447">
        <ele>86</ele>
        <time>2020-10-11T13:11:29.000Z</time>
      </trkpt>
      <trkpt lat="43.28328" lon="2.64436">
        <ele>87</ele>
        <time>2020-10-11T13:11:33.000Z</time>
      </trkpt>
      <trkpt lat="43.28355" lon="2.64412">
        <ele>88</ele>
        <time>2020-10-11T13:11:42.000Z</time>
      </trkpt>
      <trkpt lat="43.28395" lon="2.64379">
        <ele>88</ele>
        <time>2020-10-11T13:11:56.000Z</time>
      </trkpt>
      <trkpt lat="43.28415" lon="2.64366">
        <ele>88</ele>
        <time>2020-10-11T13:12:03.000Z</time>
      </trkpt>
      <trkpt lat="43.28428" lon="2.64362">
        <ele>89</ele>
        <time>2020-10-11T13:12:08.000Z</time>
      </trkpt>
      <trkpt lat="43.28433" lon="2.64361">
        <ele>89</ele>
        <time>2020-10-11T13:12:10.000Z</time>
      </trkpt>
      <trkpt lat="43.28444" lon="2.64357">
        <ele>89</ele>
        <time>2020-10-11T13:12:14.000Z</time>
      </trkpt>
      <trkpt lat="43.28452" lon="2.64352">
        <ele>90</ele>
        <time>2020-10-11T13:12:17.000Z</time>
      </trkpt>
      <trkpt lat="43.28466" lon="2.64345">
        <ele>91</ele>
        <time>2020-10-11T13:12:22.000Z</time>
      </trkpt>
      <trkpt lat="43.28487" lon="2.64331">
        <ele>91</ele>
        <time>2020-10-11T13:12:30.000Z</time>
      </trkpt>
      <trkpt lat="43.2857" lon="2.64266">
        <ele>89</ele>
        <time>2020-10-11T13:12:54.000Z</time>
      </trkpt>
      <trkpt lat="43.28583" lon="2.64252">
        <ele>89</ele>
        <time>2020-10-11T13:12:58.000Z</time>
      </trkpt>
      <trkpt lat="43.28589" lon="2.64246">
        <ele>89</ele>
        <time>2020-10-11T13:13:00.000Z</time>
      </trkpt>
      <trkpt lat="43.28598" lon="2.64244">
        <ele>90</ele>
        <time>2020-10-11T13:13:02.000Z</time>
      </trkpt>
      <trkpt lat="43.28611" lon="2.64249">
        <ele>91</ele>
        <time>2020-10-11T13:13:07.000Z</time>
      </trkpt>
      <trkpt lat="43.28623" lon="2.64254">
        <ele>93</ele>
        <time>2020-10-11T13:13:11.000Z</time>
      </trkpt>
      <trkpt lat="43.28646" lon="2.64261">
        <ele>95</ele>
        <time>2020-10-11T13:13:19.000Z</time>
      </trkpt>
      <trkpt lat="43.28658" lon="2.64263">
        <ele>97</ele>
        <time>2020-10-11T13:13:25.000Z</time>
      </trkpt>
      <trkpt lat="43.28668" lon="2.64266">
        <ele>98</ele>
        <time>2020-10-11T13:13:31.000Z</time>
      </trkpt>
      <trkpt lat="43.287" lon="2.64272">
        <ele>101</ele>
        <time>2020-10-11T13:13:46.000Z</time>
      </trkpt>
      <trkpt lat="43.28724" lon="2.64276">
        <ele>102</ele>
        <time>2020-10-11T13:13:57.000Z</time>
      </trkpt>
      <trkpt lat="43.28743" lon="2.64276">
        <ele>101</ele>
        <time>2020-10-11T13:14:04.000Z</time>
      </trkpt>
      <trkpt lat="43.28745" lon="2.64276">
        <ele>101</ele>
        <time>2020-10-11T13:14:05.000Z</time>
      </trkpt>
      <trkpt lat="43.2875" lon="2.64273">
        <ele>102</ele>
        <time>2020-10-11T13:14:07.000Z</time>
      </trkpt>
      <trkpt lat="43.28767" lon="2.64257">
        <ele>102</ele>
        <time>2020-10-11T13:14:14.000Z</time>
      </trkpt>
      <trkpt lat="43.288" lon="2.64218">
        <ele>103</ele>
        <time>2020-10-11T13:14:30.000Z</time>
      </trkpt>
      <trkpt lat="43.2881" lon="2.6421">
        <ele>104</ele>
        <time>2020-10-11T13:14:35.000Z</time>
      </trkpt>
      <trkpt lat="43.28814" lon="2.64206">
        <ele>104</ele>
        <time>2020-10-11T13:14:37.000Z</time>
      </trkpt>
      <trkpt lat="43.28824" lon="2.64193">
        <ele>106</ele>
        <time>2020-10-11T13:14:43.000Z</time>
      </trkpt>
      <trkpt lat="43.2883" lon="2.64186">
        <ele>106</ele>
        <time>2020-10-11T13:14:46.000Z</time>
      </trkpt>
      <trkpt lat="43.28836" lon="2.64181">
        <ele>107</ele>
        <time>2020-10-11T13:14:49.000Z</time>
      </trkpt>
      <trkpt lat="43.28844" lon="2.64177">
        <ele>107</ele>
        <time>2020-10-11T13:14:52.000Z</time>
      </trkpt>
      <trkpt lat="43.28849" lon="2.64175">
        <ele>108</ele>
        <time>2020-10-11T13:14:54.000Z</time>
      </trkpt>
      <trkpt lat="43.28863" lon="2.64167">
        <ele>107</ele>
        <time>2020-10-11T13:14:59.000Z</time>
      </trkpt>
      <trkpt lat="43.28877" lon="2.64154">
        <ele>107</ele>
        <time>2020-10-11T13:15:05.000Z</time>
      </trkpt>
      <trkpt lat="43.28888" lon="2.64149">
        <ele>108</ele>
        <time>2020-10-11T13:15:10.000Z</time>
      </trkpt>
      <trkpt lat="43.2889" lon="2.64144">
        <ele>108</ele>
        <time>2020-10-11T13:15:12.000Z</time>
      </trkpt>
      <trkpt lat="43.28891" lon="2.64117">
        <ele>108</ele>
        <time>2020-10-11T13:15:21.000Z</time>
      </trkpt>
      <trkpt lat="43.28892" lon="2.64108">
        <ele>109</ele>
        <time>2020-10-11T13:15:24.000Z</time>
      </trkpt>
      <trkpt lat="43.28894" lon="2.64094">
        <ele>111</ele>
        <time>2020-10-11T13:15:28.000Z</time>
      </trkpt>
      <trkpt lat="43.28894" lon="2.64068">
        <ele>111</ele>
        <time>2020-10-11T13:15:35.000Z</time>
      </trkpt>
      <trkpt lat="43.28891" lon="2.64036">
        <ele>112</ele>
        <time>2020-10-11T13:15:44.000Z</time>
      </trkpt>
      <trkpt lat="43.28891" lon="2.64008">
        <ele>114</ele>
        <time>2020-10-11T13:15:52.000Z</time>
      </trkpt>
      <trkpt lat="43.28893" lon="2.63956">
        <ele>115</ele>
        <time>2020-10-11T13:16:07.000Z</time>
      </trkpt>
      <trkpt lat="43.28895" lon="2.6394">
        <ele>116</ele>
        <time>2020-10-11T13:16:12.000Z</time>
      </trkpt>
      <trkpt lat="43.28902" lon="2.63912">
        <ele>116</ele>
        <time>2020-10-11T13:16:20.000Z</time>
      </trkpt>
      <trkpt lat="43.28906" lon="2.63896">
        <ele>117</ele>
        <time>2020-10-11T13:16:24.000Z</time>
      </trkpt>
      <trkpt lat="43.28916" lon="2.63871">
        <ele>117</ele>
        <time>2020-10-11T13:16:31.000Z</time>
      </trkpt>
      <trkpt lat="43.28929" lon="2.6383">
        <ele>117</ele>
        <time>2020-10-11T13:16:42.000Z</time>
      </trkpt>
      <trkpt lat="43.28948" lon="2.63785">
        <ele>119</ele>
        <time>2020-10-11T13:16:55.000Z</time>
      </trkpt>
      <trkpt lat="43.28966" lon="2.63736">
        <ele>120</ele>
        <time>2020-10-11T13:17:08.000Z</time>
      </trkpt>
      <trkpt lat="43.28973" lon="2.63722">
        <ele>120</ele>
        <time>2020-10-11T13:17:12.000Z</time>
      </trkpt>
      <trkpt lat="43.28986" lon="2.63705">
        <ele>120</ele>
        <time>2020-10-11T13:17:18.000Z</time>
      </trkpt>
      <trkpt lat="43.29007" lon="2.63679">
        <ele>122</ele>
        <time>2020-10-11T13:17:27.000Z</time>
      </trkpt>
      <trkpt lat="43.29009" lon="2.63676">
        <ele>122</ele>
        <time>2020-10-11T13:17:28.000Z</time>
      </trkpt>
      <trkpt lat="43.29012" lon="2.63669">
        <ele>121</ele>
        <time>2020-10-11T13:17:30.000Z</time>
      </trkpt>
      <trkpt lat="43.29013" lon="2.63665">
        <ele>120</ele>
        <time>2020-10-11T13:17:31.000Z</time>
      </trkpt>
      <trkpt lat="43.29014" lon="2.63657">
        <ele>119</ele>
        <time>2020-10-11T13:17:33.000Z</time>
      </trkpt>
      <trkpt lat="43.29015" lon="2.63636">
        <ele>119</ele>
        <time>2020-10-11T13:17:37.000Z</time>
      </trkpt>
      <trkpt lat="43.29016" lon="2.63632">
        <ele>120</ele>
        <time>2020-10-11T13:17:38.000Z</time>
      </trkpt>
      <trkpt lat="43.29018" lon="2.63623">
        <ele>120</ele>
        <time>2020-10-11T13:17:40.000Z</time>
      </trkpt>
      <trkpt lat="43.29022" lon="2.63615">
        <ele>120</ele>
        <time>2020-10-11T13:17:42.000Z</time>
      </trkpt>
      <trkpt lat="43.2903" lon="2.63602">
        <ele>120</ele>
        <time>2020-10-11T13:17:46.000Z</time>
      </trkpt>
      <trkpt lat="43.29042" lon="2.63588">
        <ele>121</ele>
        <time>2020-10-11T13:17:50.000Z</time>
      </trkpt>
      <trkpt lat="43.29072" lon="2.63559">
        <ele>122</ele>
        <time>2020-10-11T13:18:00.000Z</time>
      </trkpt>
      <trkpt lat="43.29149" lon="2.63493">
        <ele>123</ele>
        <time>2020-10-11T13:18:26.000Z</time>
      </trkpt>
      <trkpt lat="43.29162" lon="2.63485">
        <ele>123</ele>
        <time>2020-10-11T13:18:30.000Z</time>
      </trkpt>
      <trkpt lat="43.29181" lon="2.6347">
        <ele>125</ele>
        <time>2020-10-11T13:18:38.000Z</time>
      </trkpt>
      <trkpt lat="43.29185" lon="2.63467">
        <ele>125</ele>
        <time>2020-10-11T13:18:40.000Z</time>
      </trkpt>
      <trkpt lat="43.29192" lon="2.63456">
        <ele>125</ele>
        <time>2020-10-11T13:18:45.000Z</time>
      </trkpt>
      <trkpt lat="43.29203" lon="2.63444">
        <ele>127</ele>
        <time>2020-10-11T13:18:51.000Z</time>
      </trkpt>
      <trkpt lat="43.2921" lon="2.63439">
        <ele>127</ele>
        <time>2020-10-11T13:18:54.000Z</time>
      </trkpt>
      <trkpt lat="43.29218" lon="2.63431">
        <ele>127</ele>
        <time>2020-10-11T13:18:58.000Z</time>
      </trkpt>
      <trkpt lat="43.29227" lon="2.63424">
        <ele>127</ele>
        <time>2020-10-11T13:19:02.000Z</time>
      </trkpt>
      <trkpt lat="43.29247" lon="2.63414">
        <ele>128</ele>
        <time>2020-10-11T13:19:10.000Z</time>
      </trkpt>
      <trkpt lat="43.29268" lon="2.63404">
        <ele>128</ele>
        <time>2020-10-11T13:19:18.000Z</time>
      </trkpt>
      <trkpt lat="43.29273" lon="2.63402">
        <ele>129</ele>
        <time>2020-10-11T13:19:20.000Z</time>
      </trkpt>
      <trkpt lat="43.29282" lon="2.63401">
        <ele>129</ele>
        <time>2020-10-11T13:19:23.000Z</time>
      </trkpt>
      <trkpt lat="43.29288" lon="2.63401">
        <ele>129</ele>
        <time>2020-10-11T13:19:25.000Z</time>
      </trkpt>
      <trkpt lat="43.293" lon="2.63406">
        <ele>129</ele>
        <time>2020-10-11T13:19:29.000Z</time>
      </trkpt>
      <trkpt lat="43.29315" lon="2.63415">
        <ele>128</ele>
        <time>2020-10-11T13:19:34.000Z</time>
      </trkpt>
      <trkpt lat="43.2933" lon="2.63427">
        <ele>129</ele>
        <time>2020-10-11T13:19:40.000Z</time>
      </trkpt>
      <trkpt lat="43.29333" lon="2.63429">
        <ele>129</ele>
        <time>2020-10-11T13:19:41.000Z</time>
      </trkpt>
      <trkpt lat="43.29337" lon="2.63435">
        <ele>129</ele>
        <time>2020-10-11T13:19:43.000Z</time>
      </trkpt>
      <trkpt lat="43.29344" lon="2.6345">
        <ele>128</ele>
        <time>2020-10-11T13:19:47.000Z</time>
      </trkpt>
      <trkpt lat="43.29347" lon="2.63459">
        <ele>128</ele>
        <time>2020-10-11T13:19:49.000Z</time>
      </trkpt>
      <trkpt lat="43.29361" lon="2.63511">
        <ele>127</ele>
        <time>2020-10-11T13:20:00.000Z</time>
      </trkpt>
      <trkpt lat="43.29371" lon="2.63556">
        <ele>127</ele>
        <time>2020-10-11T13:20:08.000Z</time>
      </trkpt>
      <trkpt lat="43.29391" lon="2.63629">
        <ele>127</ele>
        <time>2020-10-11T13:20:20.000Z</time>
      </trkpt>
      <trkpt lat="43.29396" lon="2.63656">
        <ele>127</ele>
        <time>2020-10-11T13:20:24.000Z</time>
      </trkpt>
      <trkpt lat="43.29397" lon="2.6367">
        <ele>126</ele>
        <time>2020-10-11T13:20:26.000Z</time>
      </trkpt>
      <trkpt lat="43.29401" lon="2.63694">
        <ele>126</ele>
        <time>2020-10-11T13:20:30.000Z</time>
      </trkpt>
      <trkpt lat="43.2941" lon="2.63718">
        <ele>126</ele>
        <time>2020-10-11T13:20:34.000Z</time>
      </trkpt>
      <trkpt lat="43.29413" lon="2.63731">
        <ele>126</ele>
        <time>2020-10-11T13:20:36.000Z</time>
      </trkpt>
      <trkpt lat="43.29424" lon="2.638">
        <ele>126</ele>
        <time>2020-10-11T13:20:46.000Z</time>
      </trkpt>
      <trkpt lat="43.29427" lon="2.63812">
        <ele>126</ele>
        <time>2020-10-11T13:20:48.000Z</time>
      </trkpt>
      <trkpt lat="43.29436" lon="2.63834">
        <ele>126</ele>
        <time>2020-10-11T13:20:52.000Z</time>
      </trkpt>
      <trkpt lat="43.29467" lon="2.63892">
        <ele>126</ele>
        <time>2020-10-11T13:21:04.000Z</time>
      </trkpt>
      <trkpt lat="43.29472" lon="2.63898">
        <ele>126</ele>
        <time>2020-10-11T13:21:06.000Z</time>
      </trkpt>
      <trkpt lat="43.29476" lon="2.63897">
        <ele>126</ele>
        <time>2020-10-11T13:21:08.000Z</time>
      </trkpt>
      <trkpt lat="43.29478" lon="2.63895">
        <ele>126</ele>
        <time>2020-10-11T13:21:09.000Z</time>
      </trkpt>
      <trkpt lat="43.29483" lon="2.63879">
        <ele>124</ele>
        <time>2020-10-11T13:21:13.000Z</time>
      </trkpt>
      <trkpt lat="43.29496" lon="2.63852">
        <ele>124</ele>
        <time>2020-10-11T13:21:19.000Z</time>
      </trkpt>
      <trkpt lat="43.29522" lon="2.63793">
        <ele>125</ele>
        <time>2020-10-11T13:21:32.000Z</time>
      </trkpt>
      <trkpt lat="43.29539" lon="2.63754">
        <ele>125</ele>
        <time>2020-10-11T13:21:41.000Z</time>
      </trkpt>
      <trkpt lat="43.29543" lon="2.63745">
        <ele>125</ele>
        <time>2020-10-11T13:21:43.000Z</time>
      </trkpt>
      <trkpt lat="43.2955" lon="2.6372">
        <ele>127</ele>
        <time>2020-10-11T13:21:48.000Z</time>
      </trkpt>
      <trkpt lat="43.29563" lon="2.63682">
        <ele>126</ele>
        <time>2020-10-11T13:21:56.000Z</time>
      </trkpt>
      <trkpt lat="43.29568" lon="2.63651">
        <ele>125</ele>
        <time>2020-10-11T13:22:02.000Z</time>
      </trkpt>
      <trkpt lat="43.29572" lon="2.63632">
        <ele>124</ele>
        <time>2020-10-11T13:22:06.000Z</time>
      </trkpt>
      <trkpt lat="43.29584" lon="2.63596">
        <ele>125</ele>
        <time>2020-10-11T13:22:14.000Z</time>
      </trkpt>
      <trkpt lat="43.29591" lon="2.63571">
        <ele>125</ele>
        <time>2020-10-11T13:22:20.000Z</time>
      </trkpt>
      <trkpt lat="43.29601" lon="2.63547">
        <ele>125</ele>
        <time>2020-10-11T13:22:26.000Z</time>
      </trkpt>
      <trkpt lat="43.29605" lon="2.63539">
        <ele>125</ele>
        <time>2020-10-11T13:22:28.000Z</time>
      </trkpt>
      <trkpt lat="43.29611" lon="2.6353">
        <ele>127</ele>
        <time>2020-10-11T13:22:31.000Z</time>
      </trkpt>
      <trkpt lat="43.29618" lon="2.6352">
        <ele>127</ele>
        <time>2020-10-11T13:22:34.000Z</time>
      </trkpt>
      <trkpt lat="43.29632" lon="2.63504">
        <ele>127</ele>
        <time>2020-10-11T13:22:40.000Z</time>
      </trkpt>
      <trkpt lat="43.29655" lon="2.63475">
        <ele>127</ele>
        <time>2020-10-11T13:22:50.000Z</time>
      </trkpt>
      <trkpt lat="43.29662" lon="2.63465">
        <ele>127</ele>
        <time>2020-10-11T13:22:53.000Z</time>
      </trkpt>
      <trkpt lat="43.29676" lon="2.63443">
        <ele>129</ele>
        <time>2020-10-11T13:23:00.000Z</time>
      </trkpt>
      <trkpt lat="43.29689" lon="2.63427">
        <ele>129</ele>
        <time>2020-10-11T13:23:05.000Z</time>
      </trkpt>
      <trkpt lat="43.29718" lon="2.63387">
        <ele>129</ele>
        <time>2020-10-11T13:23:18.000Z</time>
      </trkpt>
      <trkpt lat="43.29732" lon="2.63375">
        <ele>133</ele>
        <time>2020-10-11T13:26:11.000Z</time>
      </trkpt>
      <trkpt lat="43.29733" lon="2.63378">
        <ele>133</ele>
        <time>2020-10-11T13:26:12.000Z</time>
      </trkpt>
      <trkpt lat="43.2974" lon="2.63385">
        <ele>133</ele>
        <time>2020-10-11T13:26:14.000Z</time>
      </trkpt>
      <trkpt lat="43.29746" lon="2.63388">
        <ele>132</ele>
        <time>2020-10-11T13:26:16.000Z</time>
      </trkpt>
      <trkpt lat="43.2977" lon="2.63406">
        <ele>132</ele>
        <time>2020-10-11T13:26:22.000Z</time>
      </trkpt>
      <trkpt lat="43.29823" lon="2.63447">
        <ele>133</ele>
        <time>2020-10-11T13:26:34.000Z</time>
      </trkpt>
      <trkpt lat="43.29871" lon="2.63486">
        <ele>133</ele>
        <time>2020-10-11T13:26:45.000Z</time>
      </trkpt>
      <trkpt lat="43.29882" lon="2.63492">
        <ele>132</ele>
        <time>2020-10-11T13:26:48.000Z</time>
      </trkpt>
      <trkpt lat="43.29902" lon="2.63498">
        <ele>133</ele>
        <time>2020-10-11T13:26:52.000Z</time>
      </trkpt>
      <trkpt lat="43.29913" lon="2.63503">
        <ele>133</ele>
        <time>2020-10-11T13:26:54.000Z</time>
      </trkpt>
      <trkpt lat="43.29924" lon="2.63511">
        <ele>133</ele>
        <time>2020-10-11T13:26:57.000Z</time>
      </trkpt>
      <trkpt lat="43.2994" lon="2.63527">
        <ele>133</ele>
        <time>2020-10-11T13:27:01.000Z</time>
      </trkpt>
      <trkpt lat="43.29962" lon="2.6355">
        <ele>133</ele>
        <time>2020-10-11T13:27:06.000Z</time>
      </trkpt>
      <trkpt lat="43.29977" lon="2.63564">
        <ele>133</ele>
        <time>2020-10-11T13:27:10.000Z</time>
      </trkpt>
      <trkpt lat="43.29994" lon="2.6358">
        <ele>133</ele>
        <time>2020-10-11T13:27:14.000Z</time>
      </trkpt>
      <trkpt lat="43.30004" lon="2.63589">
        <ele>133</ele>
        <time>2020-10-11T13:27:16.000Z</time>
      </trkpt>
      <trkpt lat="43.30012" lon="2.63593">
        <ele>132</ele>
        <time>2020-10-11T13:27:18.000Z</time>
      </trkpt>
      <trkpt lat="43.30027" lon="2.63598">
        <ele>132</ele>
        <time>2020-10-11T13:27:21.000Z</time>
      </trkpt>
      <trkpt lat="43.30044" lon="2.63601">
        <ele>132</ele>
        <time>2020-10-11T13:27:25.000Z</time>
      </trkpt>
      <trkpt lat="43.30054" lon="2.63604">
        <ele>132</ele>
        <time>2020-10-11T13:27:27.000Z</time>
      </trkpt>
      <trkpt lat="43.30068" lon="2.63613">
        <ele>132</ele>
        <time>2020-10-11T13:27:30.000Z</time>
      </trkpt>
      <trkpt lat="43.30087" lon="2.63628">
        <ele>132</ele>
        <time>2020-10-11T13:27:34.000Z</time>
      </trkpt>
      <trkpt lat="43.30107" lon="2.63636">
        <ele>132</ele>
        <time>2020-10-11T13:27:38.000Z</time>
      </trkpt>
      <trkpt lat="43.30133" lon="2.63638">
        <ele>131</ele>
        <time>2020-10-11T13:27:43.000Z</time>
      </trkpt>
      <trkpt lat="43.30168" lon="2.63642">
        <ele>130</ele>
        <time>2020-10-11T13:27:50.000Z</time>
      </trkpt>
      <trkpt lat="43.30178" lon="2.63642">
        <ele>130</ele>
        <time>2020-10-11T13:27:52.000Z</time>
      </trkpt>
      <trkpt lat="43.30187" lon="2.63637">
        <ele>130</ele>
        <time>2020-10-11T13:27:54.000Z</time>
      </trkpt>
      <trkpt lat="43.30203" lon="2.63623">
        <ele>130</ele>
        <time>2020-10-11T13:27:58.000Z</time>
      </trkpt>
      <trkpt lat="43.30212" lon="2.63619">
        <ele>130</ele>
        <time>2020-10-11T13:28:00.000Z</time>
      </trkpt>
      <trkpt lat="43.30221" lon="2.63618">
        <ele>130</ele>
        <time>2020-10-11T13:28:02.000Z</time>
      </trkpt>
      <trkpt lat="43.30248" lon="2.63621">
        <ele>131</ele>
        <time>2020-10-11T13:28:07.000Z</time>
      </trkpt>
      <trkpt lat="43.30267" lon="2.63625">
        <ele>130</ele>
        <time>2020-10-11T13:28:11.000Z</time>
      </trkpt>
      <trkpt lat="43.30317" lon="2.63631">
        <ele>130</ele>
        <time>2020-10-11T13:28:22.000Z</time>
      </trkpt>
      <trkpt lat="43.30344" lon="2.63634">
        <ele>130</ele>
        <time>2020-10-11T13:28:29.000Z</time>
      </trkpt>
      <trkpt lat="43.30376" lon="2.63645">
        <ele>129</ele>
        <time>2020-10-11T13:28:38.000Z</time>
      </trkpt>
      <trkpt lat="43.30391" lon="2.63649">
        <ele>129</ele>
        <time>2020-10-11T13:28:45.000Z</time>
      </trkpt>
      <trkpt lat="43.3039" lon="2.63648">
        <ele>129</ele>
        <time>2020-10-11T13:28:53.000Z</time>
      </trkpt>
      <trkpt lat="43.3039" lon="2.63648">
        <ele>129</ele>
        <time>2020-10-11T13:29:00.000Z</time>
      </trkpt>
      <trkpt lat="43.30421" lon="2.63658">
        <ele>128</ele>
        <time>2020-10-11T13:29:18.000Z</time>
      </trkpt>
      <trkpt lat="43.30453" lon="2.6367">
        <ele>126</ele>
        <time>2020-10-11T13:29:25.000Z</time>
      </trkpt>
      <trkpt lat="43.30476" lon="2.6368">
        <ele>127</ele>
        <time>2020-10-11T13:29:30.000Z</time>
      </trkpt>
      <trkpt lat="43.30501" lon="2.63688">
        <ele>126</ele>
        <time>2020-10-11T13:29:35.000Z</time>
      </trkpt>
      <trkpt lat="43.30528" lon="2.63701">
        <ele>126</ele>
        <time>2020-10-11T13:29:41.000Z</time>
      </trkpt>
      <trkpt lat="43.30542" lon="2.63705">
        <ele>125</ele>
        <time>2020-10-11T13:29:44.000Z</time>
      </trkpt>
      <trkpt lat="43.30551" lon="2.63705">
        <ele>125</ele>
        <time>2020-10-11T13:29:46.000Z</time>
      </trkpt>
      <trkpt lat="43.30578" lon="2.637">
        <ele>124</ele>
        <time>2020-10-11T13:29:52.000Z</time>
      </trkpt>
      <trkpt lat="43.30601" lon="2.63697">
        <ele>124</ele>
        <time>2020-10-11T13:29:57.000Z</time>
      </trkpt>
      <trkpt lat="43.30611" lon="2.63694">
        <ele>124</ele>
        <time>2020-10-11T13:29:59.000Z</time>
      </trkpt>
      <trkpt lat="43.30624" lon="2.63688">
        <ele>125</ele>
        <time>2020-10-11T13:30:02.000Z</time>
      </trkpt>
      <trkpt lat="43.30629" lon="2.63684">
        <ele>125</ele>
        <time>2020-10-11T13:30:03.000Z</time>
      </trkpt>
      <trkpt lat="43.30643" lon="2.63671">
        <ele>124</ele>
        <time>2020-10-11T13:30:07.000Z</time>
      </trkpt>
      <trkpt lat="43.30659" lon="2.6365">
        <ele>125</ele>
        <time>2020-10-11T13:30:12.000Z</time>
      </trkpt>
      <trkpt lat="43.30671" lon="2.63641">
        <ele>126</ele>
        <time>2020-10-11T13:30:15.000Z</time>
      </trkpt>
      <trkpt lat="43.30675" lon="2.63639">
        <ele>126</ele>
        <time>2020-10-11T13:30:16.000Z</time>
      </trkpt>
      <trkpt lat="43.30684" lon="2.63636">
        <ele>125</ele>
        <time>2020-10-11T13:30:18.000Z</time>
      </trkpt>
      <trkpt lat="43.30702" lon="2.63634">
        <ele>124</ele>
        <time>2020-10-11T13:30:23.000Z</time>
      </trkpt>
      <trkpt lat="43.30709" lon="2.63636">
        <ele>126</ele>
        <time>2020-10-11T13:30:25.000Z</time>
      </trkpt>
      <trkpt lat="43.30723" lon="2.63643">
        <ele>126</ele>
        <time>2020-10-11T13:30:29.000Z</time>
      </trkpt>
      <trkpt lat="43.30741" lon="2.63653">
        <ele>127</ele>
        <time>2020-10-11T13:30:34.000Z</time>
      </trkpt>
      <trkpt lat="43.30758" lon="2.63663">
        <ele>127</ele>
        <time>2020-10-11T13:30:39.000Z</time>
      </trkpt>
      <trkpt lat="43.30788" lon="2.63671">
        <ele>128</ele>
        <time>2020-10-11T13:30:47.000Z</time>
      </trkpt>
      <trkpt lat="43.30824" lon="2.63684">
        <ele>129</ele>
        <time>2020-10-11T13:30:57.000Z</time>
      </trkpt>
      <trkpt lat="43.30833" lon="2.63686">
        <ele>129</ele>
        <time>2020-10-11T13:30:59.000Z</time>
      </trkpt>
      <trkpt lat="43.30852" lon="2.63687">
        <ele>129</ele>
        <time>2020-10-11T13:31:04.000Z</time>
      </trkpt>
      <trkpt lat="43.30872" lon="2.63686">
        <ele>129</ele>
        <time>2020-10-11T13:31:09.000Z</time>
      </trkpt>
      <trkpt lat="43.30891" lon="2.63684">
        <ele>129</ele>
        <time>2020-10-11T13:31:14.000Z</time>
      </trkpt>
      <trkpt lat="43.30918" lon="2.63685">
        <ele>129</ele>
        <time>2020-10-11T13:31:21.000Z</time>
      </trkpt>
      <trkpt lat="43.30941" lon="2.63688">
        <ele>130</ele>
        <time>2020-10-11T13:31:27.000Z</time>
      </trkpt>
      <trkpt lat="43.30967" lon="2.63689">
        <ele>130</ele>
        <time>2020-10-11T13:31:34.000Z</time>
      </trkpt>
      <trkpt lat="43.30982" lon="2.63691">
        <ele>131</ele>
        <time>2020-10-11T13:31:38.000Z</time>
      </trkpt>
      <trkpt lat="43.31008" lon="2.637">
        <ele>133</ele>
        <time>2020-10-11T13:31:45.000Z</time>
      </trkpt>
      <trkpt lat="43.31026" lon="2.63702">
        <ele>133</ele>
        <time>2020-10-11T13:31:50.000Z</time>
      </trkpt>
      <trkpt lat="43.31055" lon="2.63701">
        <ele>134</ele>
        <time>2020-10-11T13:31:58.000Z</time>
      </trkpt>
      <trkpt lat="43.3109" lon="2.63702">
        <ele>135</ele>
        <time>2020-10-11T13:32:09.000Z</time>
      </trkpt>
      <trkpt lat="43.3111" lon="2.63701">
        <ele>135</ele>
        <time>2020-10-11T13:32:14.000Z</time>
      </trkpt>
      <trkpt lat="43.31132" lon="2.63698">
        <ele>133</ele>
        <time>2020-10-11T13:32:20.000Z</time>
      </trkpt>
      <trkpt lat="43.31163" lon="2.63689">
        <ele>134</ele>
        <time>2020-10-11T13:32:28.000Z</time>
      </trkpt>
      <trkpt lat="43.31203" lon="2.63679">
        <ele>135</ele>
        <time>2020-10-11T13:32:39.000Z</time>
      </trkpt>
      <trkpt lat="43.31222" lon="2.63678">
        <ele>135</ele>
        <time>2020-10-11T13:32:44.000Z</time>
      </trkpt>
      <trkpt lat="43.31237" lon="2.63664">
        <ele>135</ele>
        <time>2020-10-11T13:32:49.000Z</time>
      </trkpt>
      <trkpt lat="43.31258" lon="2.63639">
        <ele>136</ele>
        <time>2020-10-11T13:32:57.000Z</time>
      </trkpt>
      <trkpt lat="43.31267" lon="2.63627">
        <ele>136</ele>
        <time>2020-10-11T13:33:00.000Z</time>
      </trkpt>
      <trkpt lat="43.31273" lon="2.63616">
        <ele>136</ele>
        <time>2020-10-11T13:33:02.000Z</time>
      </trkpt>
      <trkpt lat="43.31279" lon="2.63607">
        <ele>136</ele>
        <time>2020-10-11T13:33:05.000Z</time>
      </trkpt>
      <trkpt lat="43.31331" lon="2.63561">
        <ele>138</ele>
        <time>2020-10-11T13:33:23.000Z</time>
      </trkpt>
      <trkpt lat="43.31347" lon="2.63547">
        <ele>137</ele>
        <time>2020-10-11T13:33:29.000Z</time>
      </trkpt>
      <trkpt lat="43.31365" lon="2.63534">
        <ele>138</ele>
        <time>2020-10-11T13:33:35.000Z</time>
      </trkpt>
      <trkpt lat="43.3138" lon="2.6352">
        <ele>139</ele>
        <time>2020-10-11T13:33:40.000Z</time>
      </trkpt>
      <trkpt lat="43.31399" lon="2.63511">
        <ele>140</ele>
        <time>2020-10-11T13:33:46.000Z</time>
      </trkpt>
      <trkpt lat="43.31408" lon="2.63508">
        <ele>141</ele>
        <time>2020-10-11T13:33:49.000Z</time>
      </trkpt>
      <trkpt lat="43.31436" lon="2.63507">
        <ele>142</ele>
        <time>2020-10-11T13:33:57.000Z</time>
      </trkpt>
      <trkpt lat="43.31441" lon="2.63502">
        <ele>142</ele>
        <time>2020-10-11T13:33:59.000Z</time>
      </trkpt>
      <trkpt lat="43.31444" lon="2.63496">
        <ele>142</ele>
        <time>2020-10-11T13:34:01.000Z</time>
      </trkpt>
      <trkpt lat="43.31451" lon="2.63476">
        <ele>142</ele>
        <time>2020-10-11T13:34:07.000Z</time>
      </trkpt>
      <trkpt lat="43.31457" lon="2.63465">
        <ele>142</ele>
        <time>2020-10-11T13:34:11.000Z</time>
      </trkpt>
      <trkpt lat="43.31472" lon="2.63451">
        <ele>144</ele>
        <time>2020-10-11T13:34:18.000Z</time>
      </trkpt>
      <trkpt lat="43.31475" lon="2.63447">
        <ele>144</ele>
        <time>2020-10-11T13:34:20.000Z</time>
      </trkpt>
      <trkpt lat="43.31478" lon="2.63439">
        <ele>145</ele>
        <time>2020-10-11T13:34:23.000Z</time>
      </trkpt>
      <trkpt lat="43.31484" lon="2.63419">
        <ele>148</ele>
        <time>2020-10-11T13:34:30.000Z</time>
      </trkpt>
      <trkpt lat="43.31496" lon="2.63392">
        <ele>149</ele>
        <time>2020-10-11T13:34:41.000Z</time>
      </trkpt>
      <trkpt lat="43.31503" lon="2.63375">
        <ele>150</ele>
        <time>2020-10-11T13:34:48.000Z</time>
      </trkpt>
      <trkpt lat="43.31504" lon="2.6337">
        <ele>151</ele>
        <time>2020-10-11T13:34:50.000Z</time>
      </trkpt>
      <trkpt lat="43.31508" lon="2.63345">
        <ele>154</ele>
        <time>2020-10-11T13:34:59.000Z</time>
      </trkpt>
      <trkpt lat="43.31509" lon="2.6334">
        <ele>154</ele>
        <time>2020-10-11T13:35:01.000Z</time>
      </trkpt>
      <trkpt lat="43.3151" lon="2.63331">
        <ele>154</ele>
        <time>2020-10-11T13:35:04.000Z</time>
      </trkpt>
      <trkpt lat="43.31509" lon="2.63319">
        <ele>156</ele>
        <time>2020-10-11T13:35:09.000Z</time>
      </trkpt>
      <trkpt lat="43.3151" lon="2.63314">
        <ele>157</ele>
        <time>2020-10-11T13:35:11.000Z</time>
      </trkpt>
      <trkpt lat="43.31513" lon="2.63288">
        <ele>159</ele>
        <time>2020-10-11T13:35:22.000Z</time>
      </trkpt>
      <trkpt lat="43.31514" lon="2.63281">
        <ele>160</ele>
        <time>2020-10-11T13:35:25.000Z</time>
      </trkpt>
      <trkpt lat="43.31516" lon="2.63248">
        <ele>162</ele>
        <time>2020-10-11T13:35:38.000Z</time>
      </trkpt>
      <trkpt lat="43.31518" lon="2.63235">
        <ele>162</ele>
        <time>2020-10-11T13:35:43.000Z</time>
      </trkpt>
      <trkpt lat="43.31523" lon="2.63224">
        <ele>163</ele>
        <time>2020-10-11T13:35:48.000Z</time>
      </trkpt>
      <trkpt lat="43.31528" lon="2.63214">
        <ele>164</ele>
        <time>2020-10-11T13:35:52.000Z</time>
      </trkpt>
      <trkpt lat="43.31533" lon="2.6319">
        <ele>165</ele>
        <time>2020-10-11T13:36:01.000Z</time>
      </trkpt>
      <trkpt lat="43.31535" lon="2.63183">
        <ele>166</ele>
        <time>2020-10-11T13:36:04.000Z</time>
      </trkpt>
      <trkpt lat="43.31544" lon="2.63165">
        <ele>168</ele>
        <time>2020-10-11T13:36:12.000Z</time>
      </trkpt>
      <trkpt lat="43.31554" lon="2.63154">
        <ele>168</ele>
        <time>2020-10-11T13:36:18.000Z</time>
      </trkpt>
      <trkpt lat="43.31558" lon="2.63144">
        <ele>169</ele>
        <time>2020-10-11T13:36:22.000Z</time>
      </trkpt>
      <trkpt lat="43.31557" lon="2.63136">
        <ele>169</ele>
        <time>2020-10-11T13:36:24.000Z</time>
      </trkpt>
      <trkpt lat="43.31554" lon="2.63124">
        <ele>169</ele>
        <time>2020-10-11T13:36:27.000Z</time>
      </trkpt>
      <trkpt lat="43.31549" lon="2.63107">
        <ele>169</ele>
        <time>2020-10-11T13:36:31.000Z</time>
      </trkpt>
      <trkpt lat="43.3154" lon="2.63083">
        <ele>169</ele>
        <time>2020-10-11T13:36:37.000Z</time>
      </trkpt>
      <trkpt lat="43.31541" lon="2.63075">
        <ele>169</ele>
        <time>2020-10-11T13:36:39.000Z</time>
      </trkpt>
      <trkpt lat="43.31552" lon="2.63055">
        <ele>168</ele>
        <time>2020-10-11T13:36:47.000Z</time>
      </trkpt>
      <trkpt lat="43.31559" lon="2.63036">
        <ele>169</ele>
        <time>2020-10-11T13:36:53.000Z</time>
      </trkpt>
      <trkpt lat="43.31569" lon="2.63">
        <ele>169</ele>
        <time>2020-10-11T13:37:02.000Z</time>
      </trkpt>
      <trkpt lat="43.31577" lon="2.62982">
        <ele>167</ele>
        <time>2020-10-11T13:37:06.000Z</time>
      </trkpt>
      <trkpt lat="43.31591" lon="2.62943">
        <ele>165</ele>
        <time>2020-10-11T13:37:14.000Z</time>
      </trkpt>
      <trkpt lat="43.31594" lon="2.62928">
        <ele>166</ele>
        <time>2020-10-11T13:37:17.000Z</time>
      </trkpt>
      <trkpt lat="43.31596" lon="2.62909">
        <ele>167</ele>
        <time>2020-10-11T13:37:21.000Z</time>
      </trkpt>
      <trkpt lat="43.31598" lon="2.629">
        <ele>167</ele>
        <time>2020-10-11T13:37:23.000Z</time>
      </trkpt>
      <trkpt lat="43.316" lon="2.62894">
        <ele>168</ele>
        <time>2020-10-11T13:37:25.000Z</time>
      </trkpt>
      <trkpt lat="43.31604" lon="2.62886">
        <ele>169</ele>
        <time>2020-10-11T13:37:28.000Z</time>
      </trkpt>
      <trkpt lat="43.31607" lon="2.62882">
        <ele>169</ele>
        <time>2020-10-11T13:37:30.000Z</time>
      </trkpt>
      <trkpt lat="43.31613" lon="2.62878">
        <ele>169</ele>
        <time>2020-10-11T13:37:33.000Z</time>
      </trkpt>
      <trkpt lat="43.31618" lon="2.62875">
        <ele>170</ele>
        <time>2020-10-11T13:37:35.000Z</time>
      </trkpt>
      <trkpt lat="43.31629" lon="2.62873">
        <ele>171</ele>
        <time>2020-10-11T13:37:40.000Z</time>
      </trkpt>
      <trkpt lat="43.31636" lon="2.6287">
        <ele>171</ele>
        <time>2020-10-11T13:37:43.000Z</time>
      </trkpt>
      <trkpt lat="43.31646" lon="2.62863">
        <ele>173</ele>
        <time>2020-10-11T13:37:48.000Z</time>
      </trkpt>
      <trkpt lat="43.31653" lon="2.62862">
        <ele>174</ele>
        <time>2020-10-11T13:37:51.000Z</time>
      </trkpt>
      <trkpt lat="43.31655" lon="2.62863">
        <ele>174</ele>
        <time>2020-10-11T13:37:52.000Z</time>
      </trkpt>
      <trkpt lat="43.31664" lon="2.62874">
        <ele>175</ele>
        <time>2020-10-11T13:37:57.000Z</time>
      </trkpt>
      <trkpt lat="43.31672" lon="2.6288">
        <ele>176</ele>
        <time>2020-10-11T13:38:01.000Z</time>
      </trkpt>
      <trkpt lat="43.31686" lon="2.62894">
        <ele>176</ele>
        <time>2020-10-11T13:38:08.000Z</time>
      </trkpt>
      <trkpt lat="43.3169" lon="2.62909">
        <ele>177</ele>
        <time>2020-10-11T13:38:12.000Z</time>
      </trkpt>
      <trkpt lat="43.31696" lon="2.62926">
        <ele>177</ele>
        <time>2020-10-11T13:38:17.000Z</time>
      </trkpt>
      <trkpt lat="43.31702" lon="2.62951">
        <ele>177</ele>
        <time>2020-10-11T13:38:24.000Z</time>
      </trkpt>
      <trkpt lat="43.31706" lon="2.62973">
        <ele>178</ele>
        <time>2020-10-11T13:38:30.000Z</time>
      </trkpt>
      <trkpt lat="43.3171" lon="2.62976">
        <ele>179</ele>
        <time>2020-10-11T13:38:32.000Z</time>
      </trkpt>
      <trkpt lat="43.31712" lon="2.62975">
        <ele>179</ele>
        <time>2020-10-11T13:38:33.000Z</time>
      </trkpt>
      <trkpt lat="43.31718" lon="2.62969">
        <ele>179</ele>
        <time>2020-10-11T13:38:36.000Z</time>
      </trkpt>
      <trkpt lat="43.31724" lon="2.62961">
        <ele>179</ele>
        <time>2020-10-11T13:38:39.000Z</time>
      </trkpt>
      <trkpt lat="43.31734" lon="2.62944">
        <ele>180</ele>
        <time>2020-10-11T13:38:45.000Z</time>
      </trkpt>
      <trkpt lat="43.31744" lon="2.62929">
        <ele>180</ele>
        <time>2020-10-11T13:38:51.000Z</time>
      </trkpt>
      <trkpt lat="43.31752" lon="2.62913">
        <ele>181</ele>
        <time>2020-10-11T13:38:56.000Z</time>
      </trkpt>
      <trkpt lat="43.3176" lon="2.62902">
        <ele>181</ele>
        <time>2020-10-11T13:39:00.000Z</time>
      </trkpt>
      <trkpt lat="43.31776" lon="2.62886">
        <ele>183</ele>
        <time>2020-10-11T13:39:08.000Z</time>
      </trkpt>
      <trkpt lat="43.31785" lon="2.62875">
        <ele>184</ele>
        <time>2020-10-11T13:39:13.000Z</time>
      </trkpt>
      <trkpt lat="43.31795" lon="2.6286">
        <ele>184</ele>
        <time>2020-10-11T13:39:19.000Z</time>
      </trkpt>
      <trkpt lat="43.31818" lon="2.6282">
        <ele>184</ele>
        <time>2020-10-11T13:39:34.000Z</time>
      </trkpt>
      <trkpt lat="43.31827" lon="2.62812">
        <ele>185</ele>
        <time>2020-10-11T13:39:38.000Z</time>
      </trkpt>
      <trkpt lat="43.31852" lon="2.62797">
        <ele>187</ele>
        <time>2020-10-11T13:39:48.000Z</time>
      </trkpt>
      <trkpt lat="43.31857" lon="2.62792">
        <ele>187</ele>
        <time>2020-10-11T13:39:50.000Z</time>
      </trkpt>
      <trkpt lat="43.31863" lon="2.62779">
        <ele>187</ele>
        <time>2020-10-11T13:39:54.000Z</time>
      </trkpt>
      <trkpt lat="43.31866" lon="2.62772">
        <ele>187</ele>
        <time>2020-10-11T13:39:56.000Z</time>
      </trkpt>
      <trkpt lat="43.31878" lon="2.62753">
        <ele>186</ele>
        <time>2020-10-11T13:40:02.000Z</time>
      </trkpt>
      <trkpt lat="43.31882" lon="2.62747">
        <ele>186</ele>
        <time>2020-10-11T13:40:04.000Z</time>
      </trkpt>
      <trkpt lat="43.31894" lon="2.6273">
        <ele>187</ele>
        <time>2020-10-11T13:40:10.000Z</time>
      </trkpt>
      <trkpt lat="43.31925" lon="2.62682">
        <ele>188</ele>
        <time>2020-10-11T13:40:26.000Z</time>
      </trkpt>
      <trkpt lat="43.31937" lon="2.62664">
        <ele>189</ele>
        <time>2020-10-11T13:40:33.000Z</time>
      </trkpt>
      <trkpt lat="43.31942" lon="2.62657">
        <ele>190</ele>
        <time>2020-10-11T13:40:36.000Z</time>
      </trkpt>
      <trkpt lat="43.31957" lon="2.62637">
        <ele>193</ele>
        <time>2020-10-11T13:40:45.000Z</time>
      </trkpt>
      <trkpt lat="43.31976" lon="2.62611">
        <ele>194</ele>
        <time>2020-10-11T13:40:57.000Z</time>
      </trkpt>
      <trkpt lat="43.31981" lon="2.62603">
        <ele>196</ele>
        <time>2020-10-11T13:41:01.000Z</time>
      </trkpt>
      <trkpt lat="43.31997" lon="2.62582">
        <ele>199</ele>
        <time>2020-10-11T13:41:13.000Z</time>
      </trkpt>
      <trkpt lat="43.32002" lon="2.62576">
        <ele>201</ele>
        <time>2020-10-11T13:41:17.000Z</time>
      </trkpt>
      <trkpt lat="43.32009" lon="2.62565">
        <ele>202</ele>
        <time>2020-10-11T13:41:24.000Z</time>
      </trkpt>
      <trkpt lat="43.32013" lon="2.62555">
        <ele>204</ele>
        <time>2020-10-11T13:41:30.000Z</time>
      </trkpt>
      <trkpt lat="43.32016" lon="2.62536">
        <ele>206</ele>
        <time>2020-10-11T13:41:40.000Z</time>
      </trkpt>
      <trkpt lat="43.32017" lon="2.62533">
        <ele>206</ele>
        <time>2020-10-11T13:41:42.000Z</time>
      </trkpt>
      <trkpt lat="43.32021" lon="2.62524">
        <ele>207</ele>
        <time>2020-10-11T13:41:47.000Z</time>
      </trkpt>
      <trkpt lat="43.32043" lon="2.62494">
        <ele>208</ele>
        <time>2020-10-11T13:42:06.000Z</time>
      </trkpt>
      <trkpt lat="43.32047" lon="2.62487">
        <ele>209</ele>
        <time>2020-10-11T13:42:10.000Z</time>
      </trkpt>
      <trkpt lat="43.32053" lon="2.62466">
        <ele>209</ele>
        <time>2020-10-11T13:42:19.000Z</time>
      </trkpt>
      <trkpt lat="43.32058" lon="2.62446">
        <ele>210</ele>
        <time>2020-10-11T13:42:27.000Z</time>
      </trkpt>
      <trkpt lat="43.32058" lon="2.62434">
        <ele>210</ele>
        <time>2020-10-11T13:42:31.000Z</time>
      </trkpt>
      <trkpt lat="43.32053" lon="2.62417">
        <ele>209</ele>
        <time>2020-10-11T13:42:35.000Z</time>
      </trkpt>
      <trkpt lat="43.32052" lon="2.62411">
        <ele>209</ele>
        <time>2020-10-11T13:42:36.000Z</time>
      </trkpt>
      <trkpt lat="43.32055" lon="2.624">
        <ele>209</ele>
        <time>2020-10-11T13:42:38.000Z</time>
      </trkpt>
      <trkpt lat="43.32061" lon="2.62394">
        <ele>209</ele>
        <time>2020-10-11T13:42:40.000Z</time>
      </trkpt>
      <trkpt lat="43.3207" lon="2.62388">
        <ele>209</ele>
        <time>2020-10-11T13:42:43.000Z</time>
      </trkpt>
      <trkpt lat="43.32074" lon="2.62383">
        <ele>208</ele>
        <time>2020-10-11T13:42:45.000Z</time>
      </trkpt>
      <trkpt lat="43.3208" lon="2.62373">
        <ele>208</ele>
        <time>2020-10-11T13:42:48.000Z</time>
      </trkpt>
      <trkpt lat="43.32085" lon="2.62358">
        <ele>209</ele>
        <time>2020-10-11T13:42:52.000Z</time>
      </trkpt>
      <trkpt lat="43.32096" lon="2.6234">
        <ele>209</ele>
        <time>2020-10-11T13:42:58.000Z</time>
      </trkpt>
      <trkpt lat="43.32105" lon="2.62316">
        <ele>211</ele>
        <time>2020-10-11T13:43:06.000Z</time>
      </trkpt>
      <trkpt lat="43.32111" lon="2.62297">
        <ele>213</ele>
        <time>2020-10-11T13:43:13.000Z</time>
      </trkpt>
      <trkpt lat="43.32113" lon="2.62286">
        <ele>214</ele>
        <time>2020-10-11T13:43:17.000Z</time>
      </trkpt>
      <trkpt lat="43.32116" lon="2.62268">
        <ele>215</ele>
        <time>2020-10-11T13:43:24.000Z</time>
      </trkpt>
      <trkpt lat="43.32117" lon="2.62256">
        <ele>216</ele>
        <time>2020-10-11T13:43:28.000Z</time>
      </trkpt>
      <trkpt lat="43.32119" lon="2.62246">
        <ele>217</ele>
        <time>2020-10-11T13:43:32.000Z</time>
      </trkpt>
      <trkpt lat="43.3212" lon="2.62241">
        <ele>217</ele>
        <time>2020-10-11T13:43:34.000Z</time>
      </trkpt>
      <trkpt lat="43.32126" lon="2.6223">
        <ele>218</ele>
        <time>2020-10-11T13:43:40.000Z</time>
      </trkpt>
      <trkpt lat="43.32129" lon="2.62223">
        <ele>219</ele>
        <time>2020-10-11T13:43:43.000Z</time>
      </trkpt>
      <trkpt lat="43.32132" lon="2.62213">
        <ele>220</ele>
        <time>2020-10-11T13:43:47.000Z</time>
      </trkpt>
      <trkpt lat="43.32134" lon="2.62203">
        <ele>219</ele>
        <time>2020-10-11T13:43:50.000Z</time>
      </trkpt>
      <trkpt lat="43.32135" lon="2.62196">
        <ele>219</ele>
        <time>2020-10-11T13:43:52.000Z</time>
      </trkpt>
      <trkpt lat="43.32137" lon="2.62188">
        <ele>219</ele>
        <time>2020-10-11T13:43:54.000Z</time>
      </trkpt>
      <trkpt lat="43.32139" lon="2.62183">
        <ele>217</ele>
        <time>2020-10-11T13:43:55.000Z</time>
      </trkpt>
      <trkpt lat="43.3216" lon="2.6214">
        <ele>211</ele>
        <time>2020-10-11T13:44:01.000Z</time>
      </trkpt>
      <trkpt lat="43.32163" lon="2.62133">
        <ele>209</ele>
        <time>2020-10-11T13:44:02.000Z</time>
      </trkpt>
      <trkpt lat="43.32168" lon="2.62118">
        <ele>208</ele>
        <time>2020-10-11T13:44:04.000Z</time>
      </trkpt>
      <trkpt lat="43.32169" lon="2.62111">
        <ele>208</ele>
        <time>2020-10-11T13:44:05.000Z</time>
      </trkpt>
      <trkpt lat="43.32172" lon="2.62082">
        <ele>211</ele>
        <time>2020-10-11T13:44:10.000Z</time>
      </trkpt>
      <trkpt lat="43.32172" lon="2.62069">
        <ele>214</ele>
        <time>2020-10-11T13:44:13.000Z</time>
      </trkpt>
      <trkpt lat="43.3217" lon="2.62037">
        <ele>215</ele>
        <time>2020-10-11T13:44:20.000Z</time>
      </trkpt>
      <trkpt lat="43.32169" lon="2.62029">
        <ele>215</ele>
        <time>2020-10-11T13:44:22.000Z</time>
      </trkpt>
      <trkpt lat="43.32159" lon="2.62004">
        <ele>215</ele>
        <time>2020-10-11T13:44:29.000Z</time>
      </trkpt>
      <trkpt lat="43.32157" lon="2.61997">
        <ele>215</ele>
        <time>2020-10-11T13:44:31.000Z</time>
      </trkpt>
      <trkpt lat="43.32157" lon="2.6199">
        <ele>215</ele>
        <time>2020-10-11T13:44:33.000Z</time>
      </trkpt>
      <trkpt lat="43.32158" lon="2.61987">
        <ele>216</ele>
        <time>2020-10-11T13:44:34.000Z</time>
      </trkpt>
      <trkpt lat="43.32161" lon="2.61981">
        <ele>216</ele>
        <time>2020-10-11T13:44:36.000Z</time>
      </trkpt>
      <trkpt lat="43.32183" lon="2.61955">
        <ele>218</ele>
        <time>2020-10-11T13:44:48.000Z</time>
      </trkpt>
      <trkpt lat="43.3219" lon="2.61945">
        <ele>220</ele>
        <time>2020-10-11T13:44:53.000Z</time>
      </trkpt>
      <trkpt lat="43.32194" lon="2.61935">
        <ele>221</ele>
        <time>2020-10-11T13:44:57.000Z</time>
      </trkpt>
      <trkpt lat="43.32199" lon="2.61917">
        <ele>223</ele>
        <time>2020-10-11T13:45:04.000Z</time>
      </trkpt>
      <trkpt lat="43.32201" lon="2.61903">
        <ele>226</ele>
        <time>2020-10-11T13:45:10.000Z</time>
      </trkpt>
      <trkpt lat="43.32202" lon="2.61879">
        <ele>227</ele>
        <time>2020-10-11T13:45:19.000Z</time>
      </trkpt>
      <trkpt lat="43.32205" lon="2.61858">
        <ele>228</ele>
        <time>2020-10-11T13:45:28.000Z</time>
      </trkpt>
      <trkpt lat="43.32206" lon="2.61832">
        <ele>228</ele>
        <time>2020-10-11T13:45:37.000Z</time>
      </trkpt>
      <trkpt lat="43.32206" lon="2.61819">
        <ele>228</ele>
        <time>2020-10-11T13:45:41.000Z</time>
      </trkpt>
      <trkpt lat="43.32204" lon="2.61806">
        <ele>229</ele>
        <time>2020-10-11T13:45:45.000Z</time>
      </trkpt>
      <trkpt lat="43.32202" lon="2.61794">
        <ele>230</ele>
        <time>2020-10-11T13:45:49.000Z</time>
      </trkpt>
      <trkpt lat="43.32201" lon="2.61784">
        <ele>230</ele>
        <time>2020-10-11T13:45:52.000Z</time>
      </trkpt>
      <trkpt lat="43.32203" lon="2.61772">
        <ele>231</ele>
        <time>2020-10-11T13:45:56.000Z</time>
      </trkpt>
      <trkpt lat="43.32205" lon="2.61766">
        <ele>231</ele>
        <time>2020-10-11T13:45:58.000Z</time>
      </trkpt>
      <trkpt lat="43.32208" lon="2.61759">
        <ele>232</ele>
        <time>2020-10-11T13:46:01.000Z</time>
      </trkpt>
      <trkpt lat="43.3221" lon="2.61754">
        <ele>233</ele>
        <time>2020-10-11T13:46:03.000Z</time>
      </trkpt>
      <trkpt lat="43.32213" lon="2.61741">
        <ele>233</ele>
        <time>2020-10-11T13:46:07.000Z</time>
      </trkpt>
      <trkpt lat="43.32215" lon="2.6171">
        <ele>234</ele>
        <time>2020-10-11T13:46:15.000Z</time>
      </trkpt>
      <trkpt lat="43.32217" lon="2.61695">
        <ele>234</ele>
        <time>2020-10-11T13:46:19.000Z</time>
      </trkpt>
      <trkpt lat="43.32218" lon="2.61643">
        <ele>236</ele>
        <time>2020-10-11T13:46:34.000Z</time>
      </trkpt>
      <trkpt lat="43.32221" lon="2.61632">
        <ele>237</ele>
        <time>2020-10-11T13:46:37.000Z</time>
      </trkpt>
      <trkpt lat="43.32235" lon="2.61587">
        <ele>237</ele>
        <time>2020-10-11T13:46:48.000Z</time>
      </trkpt>
      <trkpt lat="43.32241" lon="2.61575">
        <ele>236</ele>
        <time>2020-10-11T13:46:51.000Z</time>
      </trkpt>
      <trkpt lat="43.32243" lon="2.61571">
        <ele>236</ele>
        <time>2020-10-11T13:46:52.000Z</time>
      </trkpt>
      <trkpt lat="43.32254" lon="2.61563">
        <ele>237</ele>
        <time>2020-10-11T13:46:57.000Z</time>
      </trkpt>
      <trkpt lat="43.32273" lon="2.61569">
        <ele>236</ele>
        <time>2020-10-11T13:47:03.000Z</time>
      </trkpt>
      <trkpt lat="43.32282" lon="2.61571">
        <ele>234</ele>
        <time>2020-10-11T13:47:05.000Z</time>
      </trkpt>
      <trkpt lat="43.32292" lon="2.6157">
        <ele>232</ele>
        <time>2020-10-11T13:47:08.000Z</time>
      </trkpt>
      <trkpt lat="43.32298" lon="2.6157">
        <ele>231</ele>
        <time>2020-10-11T13:47:18.000Z</time>
      </trkpt>
      <trkpt lat="43.32305" lon="2.6158">
        <ele>231</ele>
        <time>2020-10-11T13:47:23.000Z</time>
      </trkpt>
      <trkpt lat="43.32318" lon="2.61603">
        <ele>231</ele>
        <time>2020-10-11T13:47:29.000Z</time>
      </trkpt>
      <trkpt lat="43.32323" lon="2.61611">
        <ele>231</ele>
        <time>2020-10-11T13:47:31.000Z</time>
      </trkpt>
      <trkpt lat="43.32334" lon="2.61623">
        <ele>231</ele>
        <time>2020-10-11T13:47:34.000Z</time>
      </trkpt>
      <trkpt lat="43.32344" lon="2.6163">
        <ele>230</ele>
        <time>2020-10-11T13:47:36.000Z</time>
      </trkpt>
      <trkpt lat="43.32354" lon="2.61637">
        <ele>230</ele>
        <time>2020-10-11T13:47:38.000Z</time>
      </trkpt>
      <trkpt lat="43.32359" lon="2.61639">
        <ele>229</ele>
        <time>2020-10-11T13:47:39.000Z</time>
      </trkpt>
      <trkpt lat="43.32365" lon="2.61641">
        <ele>229</ele>
        <time>2020-10-11T13:47:40.000Z</time>
      </trkpt>
      <trkpt lat="43.32381" lon="2.6164">
        <ele>228</ele>
        <time>2020-10-11T13:47:43.000Z</time>
      </trkpt>
      <trkpt lat="43.32396" lon="2.61636">
        <ele>229</ele>
        <time>2020-10-11T13:47:46.000Z</time>
      </trkpt>
      <trkpt lat="43.32411" lon="2.61635">
        <ele>229</ele>
        <time>2020-10-11T13:47:50.000Z</time>
      </trkpt>
      <trkpt lat="43.32416" lon="2.61637">
        <ele>229</ele>
        <time>2020-10-11T13:47:52.000Z</time>
      </trkpt>
      <trkpt lat="43.32423" lon="2.61642">
        <ele>230</ele>
        <time>2020-10-11T13:47:55.000Z</time>
      </trkpt>
      <trkpt lat="43.32436" lon="2.61655">
        <ele>233</ele>
        <time>2020-10-11T13:48:01.000Z</time>
      </trkpt>
      <trkpt lat="43.32443" lon="2.61665">
        <ele>234</ele>
        <time>2020-10-11T13:48:04.000Z</time>
      </trkpt>
      <trkpt lat="43.32449" lon="2.61675">
        <ele>235</ele>
        <time>2020-10-11T13:48:07.000Z</time>
      </trkpt>
      <trkpt lat="43.3246" lon="2.61689">
        <ele>235</ele>
        <time>2020-10-11T13:48:12.000Z</time>
      </trkpt>
      <trkpt lat="43.32478" lon="2.61701">
        <ele>236</ele>
        <time>2020-10-11T13:48:18.000Z</time>
      </trkpt>
      <trkpt lat="43.32483" lon="2.61706">
        <ele>236</ele>
        <time>2020-10-11T13:48:20.000Z</time>
      </trkpt>
      <trkpt lat="43.32498" lon="2.61724">
        <ele>237</ele>
        <time>2020-10-11T13:48:26.000Z</time>
      </trkpt>
      <trkpt lat="43.32504" lon="2.61728">
        <ele>237</ele>
        <time>2020-10-11T13:48:28.000Z</time>
      </trkpt>
      <trkpt lat="43.32521" lon="2.61736">
        <ele>235</ele>
        <time>2020-10-11T13:48:32.000Z</time>
      </trkpt>
      <trkpt lat="43.32527" lon="2.61737">
        <ele>234</ele>
        <time>2020-10-11T13:48:33.000Z</time>
      </trkpt>
      <trkpt lat="43.32539" lon="2.61741">
        <ele>234</ele>
        <time>2020-10-11T13:48:35.000Z</time>
      </trkpt>
      <trkpt lat="43.32544" lon="2.61743">
        <ele>234</ele>
        <time>2020-10-11T13:48:36.000Z</time>
      </trkpt>
      <trkpt lat="43.32548" lon="2.61746">
        <ele>233</ele>
        <time>2020-10-11T13:48:37.000Z</time>
      </trkpt>
      <trkpt lat="43.32554" lon="2.61754">
        <ele>233</ele>
        <time>2020-10-11T13:48:39.000Z</time>
      </trkpt>
      <trkpt lat="43.32557" lon="2.61758">
        <ele>233</ele>
        <time>2020-10-11T13:48:40.000Z</time>
      </trkpt>
      <trkpt lat="43.3256" lon="2.61766">
        <ele>233</ele>
        <time>2020-10-11T13:48:42.000Z</time>
      </trkpt>
      <trkpt lat="43.32561" lon="2.61779">
        <ele>232</ele>
        <time>2020-10-11T13:48:45.000Z</time>
      </trkpt>
      <trkpt lat="43.32564" lon="2.61786">
        <ele>230</ele>
        <time>2020-10-11T13:48:47.000Z</time>
      </trkpt>
      <trkpt lat="43.32567" lon="2.61791">
        <ele>229</ele>
        <time>2020-10-11T13:48:49.000Z</time>
      </trkpt>
      <trkpt lat="43.32573" lon="2.61791">
        <ele>227</ele>
        <time>2020-10-11T13:48:51.000Z</time>
      </trkpt>
      <trkpt lat="43.32576" lon="2.6179">
        <ele>226</ele>
        <time>2020-10-11T13:48:52.000Z</time>
      </trkpt>
      <trkpt lat="43.32583" lon="2.61785">
        <ele>224</ele>
        <time>2020-10-11T13:48:54.000Z</time>
      </trkpt>
      <trkpt lat="43.32589" lon="2.61778">
        <ele>223</ele>
        <time>2020-10-11T13:48:56.000Z</time>
      </trkpt>
      <trkpt lat="43.32613" lon="2.61747">
        <ele>224</ele>
        <time>2020-10-11T13:49:04.000Z</time>
      </trkpt>
      <trkpt lat="43.3262" lon="2.61741">
        <ele>225</ele>
        <time>2020-10-11T13:49:06.000Z</time>
      </trkpt>
      <trkpt lat="43.32628" lon="2.61738">
        <ele>226</ele>
        <time>2020-10-11T13:49:11.000Z</time>
      </trkpt>
      <trkpt lat="43.32627" lon="2.61738">
        <ele>226</ele>
        <time>2020-10-11T13:49:20.000Z</time>
      </trkpt>
      <trkpt lat="43.32629" lon="2.61741">
        <ele>226</ele>
        <time>2020-10-11T13:50:16.000Z</time>
      </trkpt>
      <trkpt lat="43.32628" lon="2.61739">
        <ele>226</ele>
        <time>2020-10-11T13:50:50.000Z</time>
      </trkpt>
      <trkpt lat="43.32627" lon="2.61739">
        <ele>226</ele>
        <time>2020-10-11T13:51:21.000Z</time>
      </trkpt>
      <trkpt lat="43.32628" lon="2.61738">
        <ele>226</ele>
        <time>2020-10-11T13:51:57.000Z</time>
      </trkpt>
      <trkpt lat="43.32635" lon="2.61741">
        <ele>226</ele>
        <time>2020-10-11T13:52:07.000Z</time>
      </trkpt>
      <trkpt lat="43.32646" lon="2.61752">
        <ele>226</ele>
        <time>2020-10-11T13:52:10.000Z</time>
      </trkpt>
      <trkpt lat="43.32664" lon="2.61773">
        <ele>224</ele>
        <time>2020-10-11T13:52:14.000Z</time>
      </trkpt>
      <trkpt lat="43.32672" lon="2.61785">
        <ele>223</ele>
        <time>2020-10-11T13:52:16.000Z</time>
      </trkpt>
      <trkpt lat="43.32678" lon="2.61795">
        <ele>222</ele>
        <time>2020-10-11T13:52:18.000Z</time>
      </trkpt>
      <trkpt lat="43.32699" lon="2.61825">
        <ele>224</ele>
        <time>2020-10-11T13:52:28.000Z</time>
      </trkpt>
      <trkpt lat="43.32715" lon="2.61854">
        <ele>224</ele>
        <time>2020-10-11T13:52:36.000Z</time>
      </trkpt>
      <trkpt lat="43.32729" lon="2.61872">
        <ele>225</ele>
        <time>2020-10-11T13:52:42.000Z</time>
      </trkpt>
      <trkpt lat="43.32749" lon="2.61896">
        <ele>226</ele>
        <time>2020-10-11T13:52:50.000Z</time>
      </trkpt>
      <trkpt lat="43.32754" lon="2.61901">
        <ele>227</ele>
        <time>2020-10-11T13:52:52.000Z</time>
      </trkpt>
      <trkpt lat="43.32762" lon="2.61906">
        <ele>228</ele>
        <time>2020-10-11T13:52:55.000Z</time>
      </trkpt>
      <trkpt lat="43.32779" lon="2.61912">
        <ele>229</ele>
        <time>2020-10-11T13:53:03.000Z</time>
      </trkpt>
      <trkpt lat="43.32785" lon="2.61914">
        <ele>229</ele>
        <time>2020-10-11T13:53:05.000Z</time>
      </trkpt>
      <trkpt lat="43.32797" lon="2.61923">
        <ele>230</ele>
        <time>2020-10-11T13:53:10.000Z</time>
      </trkpt>
      <trkpt lat="43.32823" lon="2.61945">
        <ele>231</ele>
        <time>2020-10-11T13:53:21.000Z</time>
      </trkpt>
      <trkpt lat="43.32834" lon="2.61959">
        <ele>232</ele>
        <time>2020-10-11T13:53:26.000Z</time>
      </trkpt>
      <trkpt lat="43.32837" lon="2.61966">
        <ele>231</ele>
        <time>2020-10-11T13:53:28.000Z</time>
      </trkpt>
      <trkpt lat="43.3284" lon="2.61974">
        <ele>232</ele>
        <time>2020-10-11T13:53:30.000Z</time>
      </trkpt>
      <trkpt lat="43.32842" lon="2.61983">
        <ele>232</ele>
        <time>2020-10-11T13:53:32.000Z</time>
      </trkpt>
      <trkpt lat="43.32844" lon="2.62001">
        <ele>231</ele>
        <time>2020-10-11T13:53:36.000Z</time>
      </trkpt>
      <trkpt lat="43.32848" lon="2.62009">
        <ele>231</ele>
        <time>2020-10-11T13:53:38.000Z</time>
      </trkpt>
      <trkpt lat="43.32851" lon="2.62012">
        <ele>231</ele>
        <time>2020-10-11T13:53:39.000Z</time>
      </trkpt>
      <trkpt lat="43.32872" lon="2.62018">
        <ele>228</ele>
        <time>2020-10-11T13:53:43.000Z</time>
      </trkpt>
      <trkpt lat="43.32891" lon="2.62028">
        <ele>227</ele>
        <time>2020-10-11T13:53:47.000Z</time>
      </trkpt>
      <trkpt lat="43.32903" lon="2.62026">
        <ele>227</ele>
        <time>2020-10-11T13:53:50.000Z</time>
      </trkpt>
      <trkpt lat="43.32907" lon="2.6202">
        <ele>227</ele>
        <time>2020-10-11T13:53:52.000Z</time>
      </trkpt>
      <trkpt lat="43.32908" lon="2.62013">
        <ele>228</ele>
        <time>2020-10-11T13:53:54.000Z</time>
      </trkpt>
      <trkpt lat="43.32921" lon="2.61978">
        <ele>230</ele>
        <time>2020-10-11T13:54:05.000Z</time>
      </trkpt>
      <trkpt lat="43.32927" lon="2.61957">
        <ele>232</ele>
        <time>2020-10-11T13:54:12.000Z</time>
      </trkpt>
      <trkpt lat="43.32941" lon="2.61897">
        <ele>236</ele>
        <time>2020-10-11T13:54:31.000Z</time>
      </trkpt>
      <trkpt lat="43.32948" lon="2.61867">
        <ele>235</ele>
        <time>2020-10-11T13:54:41.000Z</time>
      </trkpt>
      <trkpt lat="43.32956" lon="2.61847">
        <ele>238</ele>
        <time>2020-10-11T13:54:49.000Z</time>
      </trkpt>
      <trkpt lat="43.3296" lon="2.61833">
        <ele>238</ele>
        <time>2020-10-11T13:54:54.000Z</time>
      </trkpt>
      <trkpt lat="43.32967" lon="2.61813">
        <ele>240</ele>
        <time>2020-10-11T13:55:02.000Z</time>
      </trkpt>
      <trkpt lat="43.32972" lon="2.61808">
        <ele>240</ele>
        <time>2020-10-11T13:55:05.000Z</time>
      </trkpt>
      <trkpt lat="43.32977" lon="2.61804">
        <ele>242</ele>
        <time>2020-10-11T13:55:09.000Z</time>
      </trkpt>
      <trkpt lat="43.32979" lon="2.61803">
        <ele>242</ele>
        <time>2020-10-11T13:55:10.000Z</time>
      </trkpt>
      <trkpt lat="43.32988" lon="2.61804">
        <ele>243</ele>
        <time>2020-10-11T13:55:15.000Z</time>
      </trkpt>
      <trkpt lat="43.32999" lon="2.61806">
        <ele>244</ele>
        <time>2020-10-11T13:55:21.000Z</time>
      </trkpt>
      <trkpt lat="43.33017" lon="2.61795">
        <ele>246</ele>
        <time>2020-10-11T13:55:32.000Z</time>
      </trkpt>
      <trkpt lat="43.33032" lon="2.61789">
        <ele>249</ele>
        <time>2020-10-11T13:55:42.000Z</time>
      </trkpt>
      <trkpt lat="43.33089" lon="2.61753">
        <ele>254</ele>
        <time>2020-10-11T13:56:19.000Z</time>
      </trkpt>
      <trkpt lat="43.33097" lon="2.61749">
        <ele>255</ele>
        <time>2020-10-11T13:56:25.000Z</time>
      </trkpt>
      <trkpt lat="43.33109" lon="2.61746">
        <ele>256</ele>
        <time>2020-10-11T13:56:33.000Z</time>
      </trkpt>
      <trkpt lat="43.33116" lon="2.61746">
        <ele>256</ele>
        <time>2020-10-11T13:56:37.000Z</time>
      </trkpt>
      <trkpt lat="43.3314" lon="2.6175">
        <ele>259</ele>
        <time>2020-10-11T13:56:50.000Z</time>
      </trkpt>
      <trkpt lat="43.33145" lon="2.6175">
        <ele>259</ele>
        <time>2020-10-11T13:56:53.000Z</time>
      </trkpt>
      <trkpt lat="43.33152" lon="2.61748">
        <ele>259</ele>
        <time>2020-10-11T13:56:56.000Z</time>
      </trkpt>
      <trkpt lat="43.33162" lon="2.61744">
        <ele>257</ele>
        <time>2020-10-11T13:56:59.000Z</time>
      </trkpt>
      <trkpt lat="43.33174" lon="2.61737">
        <ele>256</ele>
        <time>2020-10-11T13:57:02.000Z</time>
      </trkpt>
      <trkpt lat="43.33182" lon="2.61732">
        <ele>255</ele>
        <time>2020-10-11T13:57:04.000Z</time>
      </trkpt>
      <trkpt lat="43.33199" lon="2.61723">
        <ele>256</ele>
        <time>2020-10-11T13:57:09.000Z</time>
      </trkpt>
      <trkpt lat="43.3321" lon="2.61718">
        <ele>255</ele>
        <time>2020-10-11T13:57:12.000Z</time>
      </trkpt>
      <trkpt lat="43.33228" lon="2.61711">
        <ele>254</ele>
        <time>2020-10-11T13:57:18.000Z</time>
      </trkpt>
      <trkpt lat="43.33238" lon="2.6171">
        <ele>254</ele>
        <time>2020-10-11T13:57:21.000Z</time>
      </trkpt>
      <trkpt lat="43.33256" lon="2.61714">
        <ele>255</ele>
        <time>2020-10-11T13:57:26.000Z</time>
      </trkpt>
      <trkpt lat="43.33271" lon="2.61722">
        <ele>254</ele>
        <time>2020-10-11T13:57:30.000Z</time>
      </trkpt>
      <trkpt lat="43.33279" lon="2.61725">
        <ele>254</ele>
        <time>2020-10-11T13:57:33.000Z</time>
      </trkpt>
      <trkpt lat="43.33293" lon="2.61724">
        <ele>255</ele>
        <time>2020-10-11T13:57:39.000Z</time>
      </trkpt>
      <trkpt lat="43.33309" lon="2.61718">
        <ele>255</ele>
        <time>2020-10-11T13:57:46.000Z</time>
      </trkpt>
      <trkpt lat="43.33321" lon="2.61707">
        <ele>255</ele>
        <time>2020-10-11T13:57:52.000Z</time>
      </trkpt>
      <trkpt lat="43.33326" lon="2.61701">
        <ele>255</ele>
        <time>2020-10-11T13:57:55.000Z</time>
      </trkpt>
      <trkpt lat="43.3333" lon="2.61694">
        <ele>256</ele>
        <time>2020-10-11T13:57:58.000Z</time>
      </trkpt>
      <trkpt lat="43.33343" lon="2.61668">
        <ele>256</ele>
        <time>2020-10-11T13:58:08.000Z</time>
      </trkpt>
      <trkpt lat="43.33345" lon="2.61665">
        <ele>257</ele>
        <time>2020-10-11T13:58:10.000Z</time>
      </trkpt>
      <trkpt lat="43.33348" lon="2.61663">
        <ele>258</ele>
        <time>2020-10-11T13:58:12.000Z</time>
      </trkpt>
      <trkpt lat="43.3336" lon="2.61663">
        <ele>261</ele>
        <time>2020-10-11T13:58:19.000Z</time>
      </trkpt>
      <trkpt lat="43.33367" lon="2.61659">
        <ele>262</ele>
        <time>2020-10-11T13:58:24.000Z</time>
      </trkpt>
      <trkpt lat="43.33379" lon="2.61645">
        <ele>265</ele>
        <time>2020-10-11T13:58:34.000Z</time>
      </trkpt>
      <trkpt lat="43.33385" lon="2.61638">
        <ele>264</ele>
        <time>2020-10-11T13:58:40.000Z</time>
      </trkpt>
      <trkpt lat="43.33401" lon="2.61632">
        <ele>268</ele>
        <time>2020-10-11T13:58:53.000Z</time>
      </trkpt>
      <trkpt lat="43.33408" lon="2.61633">
        <ele>268</ele>
        <time>2020-10-11T13:58:59.000Z</time>
      </trkpt>
      <trkpt lat="43.33423" lon="2.6163">
        <ele>272</ele>
        <time>2020-10-11T13:59:12.000Z</time>
      </trkpt>
      <trkpt lat="43.33429" lon="2.61628">
        <ele>273</ele>
        <time>2020-10-11T13:59:18.000Z</time>
      </trkpt>
      <trkpt lat="43.33435" lon="2.61625">
        <ele>273</ele>
        <time>2020-10-11T13:59:23.000Z</time>
      </trkpt>
      <trkpt lat="43.33446" lon="2.61621">
        <ele>275</ele>
        <time>2020-10-11T13:59:33.000Z</time>
      </trkpt>
      <trkpt lat="43.33449" lon="2.61619">
        <ele>274</ele>
        <time>2020-10-11T13:59:36.000Z</time>
      </trkpt>
      <trkpt lat="43.33456" lon="2.61618">
        <ele>275</ele>
        <time>2020-10-11T13:59:42.000Z</time>
      </trkpt>
      <trkpt lat="43.3346" lon="2.61618">
        <ele>276</ele>
        <time>2020-10-11T13:59:46.000Z</time>
      </trkpt>
      <trkpt lat="43.33467" lon="2.61618">
        <ele>277</ele>
        <time>2020-10-11T13:59:53.000Z</time>
      </trkpt>
      <trkpt lat="43.33481" lon="2.61623">
        <ele>279</ele>
        <time>2020-10-11T14:00:06.000Z</time>
      </trkpt>
      <trkpt lat="43.33488" lon="2.61627">
        <ele>281</ele>
        <time>2020-10-11T14:00:11.000Z</time>
      </trkpt>
      <trkpt lat="43.33506" lon="2.6163">
        <ele>281</ele>
        <time>2020-10-11T14:00:24.000Z</time>
      </trkpt>
      <trkpt lat="43.33519" lon="2.61629">
        <ele>284</ele>
        <time>2020-10-11T14:00:33.000Z</time>
      </trkpt>
      <trkpt lat="43.3353" lon="2.61625">
        <ele>284</ele>
        <time>2020-10-11T14:00:41.000Z</time>
      </trkpt>
      <trkpt lat="43.33541" lon="2.61624">
        <ele>284</ele>
        <time>2020-10-11T14:00:48.000Z</time>
      </trkpt>
      <trkpt lat="43.33559" lon="2.61619">
        <ele>286</ele>
        <time>2020-10-11T14:01:02.000Z</time>
      </trkpt>
      <trkpt lat="43.33562" lon="2.61619">
        <ele>287</ele>
        <time>2020-10-11T14:01:04.000Z</time>
      </trkpt>
      <trkpt lat="43.33567" lon="2.6162">
        <ele>287</ele>
        <time>2020-10-11T14:01:08.000Z</time>
      </trkpt>
      <trkpt lat="43.33572" lon="2.61618">
        <ele>289</ele>
        <time>2020-10-11T14:01:12.000Z</time>
      </trkpt>
      <trkpt lat="43.33581" lon="2.61617">
        <ele>289</ele>
        <time>2020-10-11T14:01:22.000Z</time>
      </trkpt>
      <trkpt lat="43.33581" lon="2.61617">
        <ele>290</ele>
        <time>2020-10-11T14:01:26.000Z</time>
      </trkpt>
      <trkpt lat="43.33585" lon="2.61619">
        <ele>291</ele>
        <time>2020-10-11T14:01:32.000Z</time>
      </trkpt>
      <trkpt lat="43.33589" lon="2.61622">
        <ele>291</ele>
        <time>2020-10-11T14:01:37.000Z</time>
      </trkpt>
      <trkpt lat="43.33589" lon="2.61629">
        <ele>293</ele>
        <time>2020-10-11T14:01:45.000Z</time>
      </trkpt>
      <trkpt lat="43.33587" lon="2.61644">
        <ele>294</ele>
        <time>2020-10-11T14:01:56.000Z</time>
      </trkpt>
      <trkpt lat="43.33581" lon="2.61667">
        <ele>297</ele>
        <time>2020-10-11T14:02:18.000Z</time>
      </trkpt>
      <trkpt lat="43.33583" lon="2.61693">
        <ele>299</ele>
        <time>2020-10-11T14:02:36.000Z</time>
      </trkpt>
      <trkpt lat="43.33584" lon="2.61703">
        <ele>301</ele>
        <time>2020-10-11T14:02:43.000Z</time>
      </trkpt>
      <trkpt lat="43.33584" lon="2.61736">
        <ele>307</ele>
        <time>2020-10-11T14:03:06.000Z</time>
      </trkpt>
      <trkpt lat="43.33584" lon="2.61745">
        <ele>307</ele>
        <time>2020-10-11T14:03:13.000Z</time>
      </trkpt>
      <trkpt lat="43.33582" lon="2.61757">
        <ele>308</ele>
        <time>2020-10-11T14:03:17.000Z</time>
      </trkpt>
      <trkpt lat="43.33578" lon="2.61769">
        <ele>308</ele>
        <time>2020-10-11T14:03:21.000Z</time>
      </trkpt>
      <trkpt lat="43.33576" lon="2.61781">
        <ele>307</ele>
        <time>2020-10-11T14:03:25.000Z</time>
      </trkpt>
      <trkpt lat="43.33575" lon="2.61803">
        <ele>307</ele>
        <time>2020-10-11T14:03:31.000Z</time>
      </trkpt>
      <trkpt lat="43.33574" lon="2.61821">
        <ele>307</ele>
        <time>2020-10-11T14:03:35.000Z</time>
      </trkpt>
      <trkpt lat="43.33572" lon="2.61831">
        <ele>307</ele>
        <time>2020-10-11T14:03:37.000Z</time>
      </trkpt>
      <trkpt lat="43.3357" lon="2.61842">
        <ele>307</ele>
        <time>2020-10-11T14:03:39.000Z</time>
      </trkpt>
      <trkpt lat="43.33566" lon="2.61855">
        <ele>306</ele>
        <time>2020-10-11T14:03:41.000Z</time>
      </trkpt>
      <trkpt lat="43.33563" lon="2.61862">
        <ele>306</ele>
        <time>2020-10-11T14:03:42.000Z</time>
      </trkpt>
      <trkpt lat="43.3356" lon="2.61868">
        <ele>305</ele>
        <time>2020-10-11T14:03:43.000Z</time>
      </trkpt>
      <trkpt lat="43.33556" lon="2.61872">
        <ele>305</ele>
        <time>2020-10-11T14:03:44.000Z</time>
      </trkpt>
      <trkpt lat="43.33547" lon="2.61877">
        <ele>304</ele>
        <time>2020-10-11T14:03:46.000Z</time>
      </trkpt>
      <trkpt lat="43.33544" lon="2.61878">
        <ele>304</ele>
        <time>2020-10-11T14:03:47.000Z</time>
      </trkpt>
      <trkpt lat="43.33531" lon="2.61874">
        <ele>307</ele>
        <time>2020-10-11T14:03:52.000Z</time>
      </trkpt>
      <trkpt lat="43.33524" lon="2.61876">
        <ele>309</ele>
        <time>2020-10-11T14:03:55.000Z</time>
      </trkpt>
      <trkpt lat="43.3352" lon="2.61877">
        <ele>309</ele>
        <time>2020-10-11T14:03:57.000Z</time>
      </trkpt>
      <trkpt lat="43.33517" lon="2.61881">
        <ele>308</ele>
        <time>2020-10-11T14:03:59.000Z</time>
      </trkpt>
      <trkpt lat="43.3351" lon="2.61902">
        <ele>306</ele>
        <time>2020-10-11T14:04:04.000Z</time>
      </trkpt>
      <trkpt lat="43.33502" lon="2.61918">
        <ele>303</ele>
        <time>2020-10-11T14:04:07.000Z</time>
      </trkpt>
      <trkpt lat="43.33487" lon="2.61945">
        <ele>300</ele>
        <time>2020-10-11T14:04:13.000Z</time>
      </trkpt>
      <trkpt lat="43.33461" lon="2.62002">
        <ele>292</ele>
        <time>2020-10-11T14:04:24.000Z</time>
      </trkpt>
      <trkpt lat="43.33457" lon="2.62012">
        <ele>290</ele>
        <time>2020-10-11T14:04:26.000Z</time>
      </trkpt>
      <trkpt lat="43.33453" lon="2.62025">
        <ele>288</ele>
        <time>2020-10-11T14:04:28.000Z</time>
      </trkpt>
      <trkpt lat="43.3344" lon="2.62077">
        <ele>283</ele>
        <time>2020-10-11T14:04:37.000Z</time>
      </trkpt>
      <trkpt lat="43.33431" lon="2.62097">
        <ele>282</ele>
        <time>2020-10-11T14:04:41.000Z</time>
      </trkpt>
      <trkpt lat="43.3341" lon="2.62139">
        <ele>275</ele>
        <time>2020-10-11T14:04:49.000Z</time>
      </trkpt>
      <trkpt lat="43.33397" lon="2.62162">
        <ele>273</ele>
        <time>2020-10-11T14:04:53.000Z</time>
      </trkpt>
      <trkpt lat="43.33388" lon="2.62176">
        <ele>271</ele>
        <time>2020-10-11T14:04:56.000Z</time>
      </trkpt>
      <trkpt lat="43.33367" lon="2.62199">
        <ele>268</ele>
        <time>2020-10-11T14:05:02.000Z</time>
      </trkpt>
      <trkpt lat="43.33355" lon="2.62216">
        <ele>266</ele>
        <time>2020-10-11T14:05:06.000Z</time>
      </trkpt>
      <trkpt lat="43.33342" lon="2.62238">
        <ele>263</ele>
        <time>2020-10-11T14:05:11.000Z</time>
      </trkpt>
      <trkpt lat="43.33338" lon="2.62248">
        <ele>262</ele>
        <time>2020-10-11T14:05:13.000Z</time>
      </trkpt>
      <trkpt lat="43.33338" lon="2.62259">
        <ele>261</ele>
        <time>2020-10-11T14:05:15.000Z</time>
      </trkpt>
      <trkpt lat="43.3334" lon="2.62264">
        <ele>260</ele>
        <time>2020-10-11T14:05:16.000Z</time>
      </trkpt>
      <trkpt lat="43.33345" lon="2.62268">
        <ele>260</ele>
        <time>2020-10-11T14:05:18.000Z</time>
      </trkpt>
      <trkpt lat="43.33357" lon="2.62282">
        <ele>260</ele>
        <time>2020-10-11T14:05:23.000Z</time>
      </trkpt>
      <trkpt lat="43.33365" lon="2.62294">
        <ele>261</ele>
        <time>2020-10-11T14:05:27.000Z</time>
      </trkpt>
      <trkpt lat="43.33374" lon="2.6231">
        <ele>262</ele>
        <time>2020-10-11T14:05:32.000Z</time>
      </trkpt>
      <trkpt lat="43.33377" lon="2.62321">
        <ele>263</ele>
        <time>2020-10-11T14:05:35.000Z</time>
      </trkpt>
      <trkpt lat="43.3338" lon="2.62333">
        <ele>264</ele>
        <time>2020-10-11T14:05:38.000Z</time>
      </trkpt>
      <trkpt lat="43.33381" lon="2.62345">
        <ele>264</ele>
        <time>2020-10-11T14:05:41.000Z</time>
      </trkpt>
      <trkpt lat="43.33385" lon="2.62358">
        <ele>264</ele>
        <time>2020-10-11T14:05:45.000Z</time>
      </trkpt>
      <trkpt lat="43.33386" lon="2.62372">
        <ele>266</ele>
        <time>2020-10-11T14:05:49.000Z</time>
      </trkpt>
      <trkpt lat="43.33385" lon="2.62383">
        <ele>266</ele>
        <time>2020-10-11T14:05:53.000Z</time>
      </trkpt>
      <trkpt lat="43.33384" lon="2.6239">
        <ele>267</ele>
        <time>2020-10-11T14:05:55.000Z</time>
      </trkpt>
      <trkpt lat="43.33382" lon="2.62395">
        <ele>268</ele>
        <time>2020-10-11T14:05:57.000Z</time>
      </trkpt>
      <trkpt lat="43.33379" lon="2.62399">
        <ele>269</ele>
        <time>2020-10-11T14:05:59.000Z</time>
      </trkpt>
      <trkpt lat="43.33371" lon="2.62408">
        <ele>270</ele>
        <time>2020-10-11T14:06:04.000Z</time>
      </trkpt>
      <trkpt lat="43.3337" lon="2.62413">
        <ele>270</ele>
        <time>2020-10-11T14:06:06.000Z</time>
      </trkpt>
      <trkpt lat="43.33371" lon="2.62414">
        <ele>270</ele>
        <time>2020-10-11T14:06:07.000Z</time>
      </trkpt>
      <trkpt lat="43.33375" lon="2.62414">
        <ele>270</ele>
        <time>2020-10-11T14:06:09.000Z</time>
      </trkpt>
      <trkpt lat="43.33407" lon="2.62393">
        <ele>269</ele>
        <time>2020-10-11T14:06:25.000Z</time>
      </trkpt>
      <trkpt lat="43.33425" lon="2.62384">
        <ele>269</ele>
        <time>2020-10-11T14:06:34.000Z</time>
      </trkpt>
      <trkpt lat="43.33437" lon="2.62381">
        <ele>270</ele>
        <time>2020-10-11T14:06:39.000Z</time>
      </trkpt>
      <trkpt lat="43.33448" lon="2.62381">
        <ele>271</ele>
        <time>2020-10-11T14:06:43.000Z</time>
      </trkpt>
      <trkpt lat="43.33472" lon="2.62383">
        <ele>271</ele>
        <time>2020-10-11T14:06:51.000Z</time>
      </trkpt>
      <trkpt lat="43.33505" lon="2.6239">
        <ele>269</ele>
        <time>2020-10-11T14:06:59.000Z</time>
      </trkpt>
      <trkpt lat="43.33515" lon="2.62396">
        <ele>268</ele>
        <time>2020-10-11T14:07:01.000Z</time>
      </trkpt>
      <trkpt lat="43.3352" lon="2.624">
        <ele>268</ele>
        <time>2020-10-11T14:07:02.000Z</time>
      </trkpt>
      <trkpt lat="43.3355" lon="2.62432">
        <ele>265</ele>
        <time>2020-10-11T14:07:08.000Z</time>
      </trkpt>
      <trkpt lat="43.33568" lon="2.62445">
        <ele>265</ele>
        <time>2020-10-11T14:07:11.000Z</time>
      </trkpt>
      <trkpt lat="43.33581" lon="2.62451">
        <ele>262</ele>
        <time>2020-10-11T14:07:13.000Z</time>
      </trkpt>
      <trkpt lat="43.33612" lon="2.62461">
        <ele>261</ele>
        <time>2020-10-11T14:07:18.000Z</time>
      </trkpt>
      <trkpt lat="43.33616" lon="2.62464">
        <ele>261</ele>
        <time>2020-10-11T14:07:19.000Z</time>
      </trkpt>
      <trkpt lat="43.33631" lon="2.62471">
        <ele>261</ele>
        <time>2020-10-11T14:07:22.000Z</time>
      </trkpt>
      <trkpt lat="43.33642" lon="2.6247">
        <ele>260</ele>
        <time>2020-10-11T14:07:24.000Z</time>
      </trkpt>
      <trkpt lat="43.33654" lon="2.62466">
        <ele>260</ele>
        <time>2020-10-11T14:07:26.000Z</time>
      </trkpt>
      <trkpt lat="43.33678" lon="2.62461">
        <ele>257</ele>
        <time>2020-10-11T14:07:30.000Z</time>
      </trkpt>
      <trkpt lat="43.33695" lon="2.62456">
        <ele>256</ele>
        <time>2020-10-11T14:07:33.000Z</time>
      </trkpt>
      <trkpt lat="43.33708" lon="2.62455">
        <ele>256</ele>
        <time>2020-10-11T14:07:36.000Z</time>
      </trkpt>
      <trkpt lat="43.3371" lon="2.62456">
        <ele>256</ele>
        <time>2020-10-11T14:07:37.000Z</time>
      </trkpt>
      <trkpt lat="43.33719" lon="2.62468">
        <ele>255</ele>
        <time>2020-10-11T14:07:41.000Z</time>
      </trkpt>
      <trkpt lat="43.33728" lon="2.62477">
        <ele>254</ele>
        <time>2020-10-11T14:07:44.000Z</time>
      </trkpt>
      <trkpt lat="43.33731" lon="2.6248">
        <ele>254</ele>
        <time>2020-10-11T14:07:45.000Z</time>
      </trkpt>
      <trkpt lat="43.33745" lon="2.62482">
        <ele>253</ele>
        <time>2020-10-11T14:07:49.000Z</time>
      </trkpt>
      <trkpt lat="43.33781" lon="2.62479">
        <ele>252</ele>
        <time>2020-10-11T14:07:58.000Z</time>
      </trkpt>
      <trkpt lat="43.33787" lon="2.62475">
        <ele>251</ele>
        <time>2020-10-11T14:08:00.000Z</time>
      </trkpt>
      <trkpt lat="43.33788" lon="2.62471">
        <ele>251</ele>
        <time>2020-10-11T14:08:01.000Z</time>
      </trkpt>
      <trkpt lat="43.33791" lon="2.62463">
        <ele>249</ele>
        <time>2020-10-11T14:08:03.000Z</time>
      </trkpt>
      <trkpt lat="43.33795" lon="2.62453">
        <ele>247</ele>
        <time>2020-10-11T14:08:05.000Z</time>
      </trkpt>
      <trkpt lat="43.33808" lon="2.62433">
        <ele>247</ele>
        <time>2020-10-11T14:08:10.000Z</time>
      </trkpt>
      <trkpt lat="43.33811" lon="2.62432">
        <ele>247</ele>
        <time>2020-10-11T14:08:11.000Z</time>
      </trkpt>
      <trkpt lat="43.33815" lon="2.62431">
        <ele>247</ele>
        <time>2020-10-11T14:08:12.000Z</time>
      </trkpt>
      <trkpt lat="43.33817" lon="2.62431">
        <ele>248</ele>
        <time>2020-10-11T14:08:13.000Z</time>
      </trkpt>
      <trkpt lat="43.33851" lon="2.62431">
        <ele>248</ele>
        <time>2020-10-11T14:08:24.000Z</time>
      </trkpt>
      <trkpt lat="43.33898" lon="2.62424">
        <ele>248</ele>
        <time>2020-10-11T14:08:38.000Z</time>
      </trkpt>
      <trkpt lat="43.33914" lon="2.62421">
        <ele>247</ele>
        <time>2020-10-11T14:08:44.000Z</time>
      </trkpt>
      <trkpt lat="43.33931" lon="2.62421">
        <ele>248</ele>
        <time>2020-10-11T14:08:52.000Z</time>
      </trkpt>
      <trkpt lat="43.33938" lon="2.6242">
        <ele>249</ele>
        <time>2020-10-11T14:08:56.000Z</time>
      </trkpt>
      <trkpt lat="43.33941" lon="2.6242">
        <ele>249</ele>
        <time>2020-10-11T14:08:58.000Z</time>
      </trkpt>
      <trkpt lat="43.33948" lon="2.62421">
        <ele>250</ele>
        <time>2020-10-11T14:09:02.000Z</time>
      </trkpt>
      <trkpt lat="43.33962" lon="2.62426">
        <ele>252</ele>
        <time>2020-10-11T14:09:10.000Z</time>
      </trkpt>
      <trkpt lat="43.33972" lon="2.62425">
        <ele>252</ele>
        <time>2020-10-11T14:09:15.000Z</time>
      </trkpt>
      <trkpt lat="43.33992" lon="2.62417">
        <ele>254</ele>
        <time>2020-10-11T14:09:26.000Z</time>
      </trkpt>
      <trkpt lat="43.34001" lon="2.62414">
        <ele>255</ele>
        <time>2020-10-11T14:09:31.000Z</time>
      </trkpt>
      <trkpt lat="43.34006" lon="2.62414">
        <ele>256</ele>
        <time>2020-10-11T14:09:34.000Z</time>
      </trkpt>
      <trkpt lat="43.34018" lon="2.62414">
        <ele>259</ele>
        <time>2020-10-11T14:09:42.000Z</time>
      </trkpt>
      <trkpt lat="43.34026" lon="2.62416">
        <ele>259</ele>
        <time>2020-10-11T14:09:48.000Z</time>
      </trkpt>
      <trkpt lat="43.3403" lon="2.62417">
        <ele>259</ele>
        <time>2020-10-11T14:09:51.000Z</time>
      </trkpt>
      <trkpt lat="43.34033" lon="2.62422">
        <ele>260</ele>
        <time>2020-10-11T14:09:54.000Z</time>
      </trkpt>
      <trkpt lat="43.34036" lon="2.62427">
        <ele>261</ele>
        <time>2020-10-11T14:09:57.000Z</time>
      </trkpt>
      <trkpt lat="43.34038" lon="2.62434">
        <ele>261</ele>
        <time>2020-10-11T14:10:00.000Z</time>
      </trkpt>
      <trkpt lat="43.34042" lon="2.62468">
        <ele>261</ele>
        <time>2020-10-11T14:10:12.000Z</time>
      </trkpt>
      <trkpt lat="43.34046" lon="2.6248">
        <ele>262</ele>
        <time>2020-10-11T14:10:17.000Z</time>
      </trkpt>
      <trkpt lat="43.3405" lon="2.62487">
        <ele>262</ele>
        <time>2020-10-11T14:10:20.000Z</time>
      </trkpt>
      <trkpt lat="43.34056" lon="2.62493">
        <ele>262</ele>
        <time>2020-10-11T14:10:24.000Z</time>
      </trkpt>
      <trkpt lat="43.34059" lon="2.62499">
        <ele>263</ele>
        <time>2020-10-11T14:10:27.000Z</time>
      </trkpt>
      <trkpt lat="43.34061" lon="2.62507">
        <ele>263</ele>
        <time>2020-10-11T14:10:30.000Z</time>
      </trkpt>
      <trkpt lat="43.34064" lon="2.62514">
        <ele>264</ele>
        <time>2020-10-11T14:10:33.000Z</time>
      </trkpt>
      <trkpt lat="43.34069" lon="2.62521">
        <ele>264</ele>
        <time>2020-10-11T14:10:37.000Z</time>
      </trkpt>
      <trkpt lat="43.34079" lon="2.6253">
        <ele>265</ele>
        <time>2020-10-11T14:10:44.000Z</time>
      </trkpt>
      <trkpt lat="43.34085" lon="2.62533">
        <ele>266</ele>
        <time>2020-10-11T14:10:48.000Z</time>
      </trkpt>
      <trkpt lat="43.34093" lon="2.62539">
        <ele>268</ele>
        <time>2020-10-11T14:10:54.000Z</time>
      </trkpt>
      <trkpt lat="43.34104" lon="2.62545">
        <ele>269</ele>
        <time>2020-10-11T14:11:02.000Z</time>
      </trkpt>
      <trkpt lat="43.34114" lon="2.6255">
        <ele>269</ele>
        <time>2020-10-11T14:11:10.000Z</time>
      </trkpt>
      <trkpt lat="43.34132" lon="2.62548">
        <ele>271</ele>
        <time>2020-10-11T14:11:22.000Z</time>
      </trkpt>
      <trkpt lat="43.34137" lon="2.62545">
        <ele>272</ele>
        <time>2020-10-11T14:11:26.000Z</time>
      </trkpt>
      <trkpt lat="43.34148" lon="2.62542">
        <ele>274</ele>
        <time>2020-10-11T14:11:35.000Z</time>
      </trkpt>
      <trkpt lat="43.34156" lon="2.62538">
        <ele>275</ele>
        <time>2020-10-11T14:11:41.000Z</time>
      </trkpt>
      <trkpt lat="43.34161" lon="2.62537">
        <ele>275</ele>
        <time>2020-10-11T14:11:46.000Z</time>
      </trkpt>
      <trkpt lat="43.34169" lon="2.62537">
        <ele>276</ele>
        <time>2020-10-11T14:11:52.000Z</time>
      </trkpt>
      <trkpt lat="43.34175" lon="2.6254">
        <ele>277</ele>
        <time>2020-10-11T14:11:57.000Z</time>
      </trkpt>
      <trkpt lat="43.34178" lon="2.62542">
        <ele>277</ele>
        <time>2020-10-11T14:11:59.000Z</time>
      </trkpt>
      <trkpt lat="43.34193" lon="2.62548">
        <ele>276</ele>
        <time>2020-10-11T14:12:06.000Z</time>
      </trkpt>
      <trkpt lat="43.34198" lon="2.6255">
        <ele>276</ele>
        <time>2020-10-11T14:12:08.000Z</time>
      </trkpt>
      <trkpt lat="43.3421" lon="2.6256">
        <ele>275</ele>
        <time>2020-10-11T14:12:13.000Z</time>
      </trkpt>
      <trkpt lat="43.34214" lon="2.62566">
        <ele>275</ele>
        <time>2020-10-11T14:12:15.000Z</time>
      </trkpt>
      <trkpt lat="43.34217" lon="2.62572">
        <ele>276</ele>
        <time>2020-10-11T14:12:17.000Z</time>
      </trkpt>
      <trkpt lat="43.34219" lon="2.62581">
        <ele>276</ele>
        <time>2020-10-11T14:12:20.000Z</time>
      </trkpt>
      <trkpt lat="43.34218" lon="2.62599">
        <ele>277</ele>
        <time>2020-10-11T14:12:27.000Z</time>
      </trkpt>
      <trkpt lat="43.34221" lon="2.62605">
        <ele>278</ele>
        <time>2020-10-11T14:12:30.000Z</time>
      </trkpt>
      <trkpt lat="43.34223" lon="2.62608">
        <ele>278</ele>
        <time>2020-10-11T14:12:32.000Z</time>
      </trkpt>
      <trkpt lat="43.34232" lon="2.62611">
        <ele>280</ele>
        <time>2020-10-11T14:12:38.000Z</time>
      </trkpt>
      <trkpt lat="43.34242" lon="2.62611">
        <ele>281</ele>
        <time>2020-10-11T14:12:45.000Z</time>
      </trkpt>
      <trkpt lat="43.34259" lon="2.62613">
        <ele>283</ele>
        <time>2020-10-11T14:12:56.000Z</time>
      </trkpt>
      <trkpt lat="43.34275" lon="2.6262">
        <ele>285</ele>
        <time>2020-10-11T14:13:08.000Z</time>
      </trkpt>
      <trkpt lat="43.34282" lon="2.62624">
        <ele>285</ele>
        <time>2020-10-11T14:13:13.000Z</time>
      </trkpt>
      <trkpt lat="43.34329" lon="2.62644">
        <ele>291</ele>
        <time>2020-10-11T14:13:46.000Z</time>
      </trkpt>
      <trkpt lat="43.34343" lon="2.62652">
        <ele>291</ele>
        <time>2020-10-11T14:13:55.000Z</time>
      </trkpt>
      <trkpt lat="43.34367" lon="2.62663">
        <ele>293</ele>
        <time>2020-10-11T14:14:11.000Z</time>
      </trkpt>
      <trkpt lat="43.34383" lon="2.62671">
        <ele>295</ele>
        <time>2020-10-11T14:14:22.000Z</time>
      </trkpt>
      <trkpt lat="43.34424" lon="2.62689">
        <ele>299</ele>
        <time>2020-10-11T14:14:47.000Z</time>
      </trkpt>
      <trkpt lat="43.34445" lon="2.62701">
        <ele>301</ele>
        <time>2020-10-11T14:15:01.000Z</time>
      </trkpt>
      <trkpt lat="43.34459" lon="2.62707">
        <ele>303</ele>
        <time>2020-10-11T14:15:11.000Z</time>
      </trkpt>
      <trkpt lat="43.3447" lon="2.62713">
        <ele>304</ele>
        <time>2020-10-11T14:15:18.000Z</time>
      </trkpt>
      <trkpt lat="43.3448" lon="2.62721">
        <ele>304</ele>
        <time>2020-10-11T14:15:25.000Z</time>
      </trkpt>
      <trkpt lat="43.34482" lon="2.62724">
        <ele>305</ele>
        <time>2020-10-11T14:15:27.000Z</time>
      </trkpt>
      <trkpt lat="43.34489" lon="2.62735">
        <ele>305</ele>
        <time>2020-10-11T14:15:33.000Z</time>
      </trkpt>
      <trkpt lat="43.34492" lon="2.6274">
        <ele>305</ele>
        <time>2020-10-11T14:15:36.000Z</time>
      </trkpt>
      <trkpt lat="43.34493" lon="2.62746">
        <ele>306</ele>
        <time>2020-10-11T14:15:39.000Z</time>
      </trkpt>
      <trkpt lat="43.34496" lon="2.62763">
        <ele>307</ele>
        <time>2020-10-11T14:15:47.000Z</time>
      </trkpt>
      <trkpt lat="43.34498" lon="2.62772">
        <ele>308</ele>
        <time>2020-10-11T14:15:51.000Z</time>
      </trkpt>
      <trkpt lat="43.34504" lon="2.62783">
        <ele>308</ele>
        <time>2020-10-11T14:15:57.000Z</time>
      </trkpt>
      <trkpt lat="43.34512" lon="2.62793">
        <ele>309</ele>
        <time>2020-10-11T14:16:03.000Z</time>
      </trkpt>
      <trkpt lat="43.3452" lon="2.62801">
        <ele>310</ele>
        <time>2020-10-11T14:16:09.000Z</time>
      </trkpt>
      <trkpt lat="43.34525" lon="2.62807">
        <ele>310</ele>
        <time>2020-10-11T14:16:13.000Z</time>
      </trkpt>
      <trkpt lat="43.34534" lon="2.62816">
        <ele>310</ele>
        <time>2020-10-11T14:16:19.000Z</time>
      </trkpt>
      <trkpt lat="43.34541" lon="2.6282">
        <ele>310</ele>
        <time>2020-10-11T14:16:23.000Z</time>
      </trkpt>
      <trkpt lat="43.34553" lon="2.62824">
        <ele>311</ele>
        <time>2020-10-11T14:16:30.000Z</time>
      </trkpt>
      <trkpt lat="43.34563" lon="2.62824">
        <ele>311</ele>
        <time>2020-10-11T14:16:36.000Z</time>
      </trkpt>
      <trkpt lat="43.34587" lon="2.6282">
        <ele>312</ele>
        <time>2020-10-11T14:16:50.000Z</time>
      </trkpt>
      <trkpt lat="43.34613" lon="2.62814">
        <ele>315</ele>
        <time>2020-10-11T14:17:07.000Z</time>
      </trkpt>
      <trkpt lat="43.34628" lon="2.62813">
        <ele>318</ele>
        <time>2020-10-11T14:17:16.000Z</time>
      </trkpt>
      <trkpt lat="43.34635" lon="2.62813">
        <ele>319</ele>
        <time>2020-10-11T14:17:20.000Z</time>
      </trkpt>
      <trkpt lat="43.34651" lon="2.62813">
        <ele>320</ele>
        <time>2020-10-11T14:17:30.000Z</time>
      </trkpt>
      <trkpt lat="43.34671" lon="2.62815">
        <ele>322</ele>
        <time>2020-10-11T14:17:43.000Z</time>
      </trkpt>
      <trkpt lat="43.34681" lon="2.62815">
        <ele>323</ele>
        <time>2020-10-11T14:17:49.000Z</time>
      </trkpt>
      <trkpt lat="43.34724" lon="2.6282">
        <ele>328</ele>
        <time>2020-10-11T14:18:21.000Z</time>
      </trkpt>
      <trkpt lat="43.34743" lon="2.62826">
        <ele>330</ele>
        <time>2020-10-11T14:18:35.000Z</time>
      </trkpt>
      <trkpt lat="43.34761" lon="2.62834">
        <ele>331</ele>
        <time>2020-10-11T14:18:48.000Z</time>
      </trkpt>
      <trkpt lat="43.3477" lon="2.62838">
        <ele>331</ele>
        <time>2020-10-11T14:18:54.000Z</time>
      </trkpt>
      <trkpt lat="43.34774" lon="2.6284">
        <ele>332</ele>
        <time>2020-10-11T14:18:57.000Z</time>
      </trkpt>
      <trkpt lat="43.34784" lon="2.62844">
        <ele>333</ele>
        <time>2020-10-11T14:19:05.000Z</time>
      </trkpt>
      <trkpt lat="43.34791" lon="2.62848">
        <ele>334</ele>
        <time>2020-10-11T14:19:10.000Z</time>
      </trkpt>
      <trkpt lat="43.34808" lon="2.62855">
        <ele>337</ele>
        <time>2020-10-11T14:19:24.000Z</time>
      </trkpt>
      <trkpt lat="43.34872" lon="2.62877">
        <ele>343</ele>
        <time>2020-10-11T14:20:11.000Z</time>
      </trkpt>
      <trkpt lat="43.34884" lon="2.62881">
        <ele>345</ele>
        <time>2020-10-11T14:20:21.000Z</time>
      </trkpt>
      <trkpt lat="43.34905" lon="2.62886">
        <ele>347</ele>
        <time>2020-10-11T14:20:37.000Z</time>
      </trkpt>
      <trkpt lat="43.3491" lon="2.62888">
        <ele>348</ele>
        <time>2020-10-11T14:20:41.000Z</time>
      </trkpt>
      <trkpt lat="43.34927" lon="2.62892">
        <ele>349</ele>
        <time>2020-10-11T14:20:53.000Z</time>
      </trkpt>
      <trkpt lat="43.34933" lon="2.62892">
        <ele>350</ele>
        <time>2020-10-11T14:20:58.000Z</time>
      </trkpt>
      <trkpt lat="43.34968" lon="2.62903">
        <ele>354</ele>
        <time>2020-10-11T14:21:23.000Z</time>
      </trkpt>
      <trkpt lat="43.34976" lon="2.62908">
        <ele>355</ele>
        <time>2020-10-11T14:21:29.000Z</time>
      </trkpt>
      <trkpt lat="43.35002" lon="2.62926">
        <ele>356</ele>
        <time>2020-10-11T14:21:47.000Z</time>
      </trkpt>
      <trkpt lat="43.35012" lon="2.62933">
        <ele>356</ele>
        <time>2020-10-11T14:21:55.000Z</time>
      </trkpt>
      <trkpt lat="43.35014" lon="2.62935">
        <ele>355</ele>
        <time>2020-10-11T14:21:56.000Z</time>
      </trkpt>
      <trkpt lat="43.3502" lon="2.62949">
        <ele>354</ele>
        <time>2020-10-11T14:21:59.000Z</time>
      </trkpt>
      <trkpt lat="43.35025" lon="2.62964">
        <ele>352</ele>
        <time>2020-10-11T14:22:01.000Z</time>
      </trkpt>
      <trkpt lat="43.35032" lon="2.62978">
        <ele>351</ele>
        <time>2020-10-11T14:22:03.000Z</time>
      </trkpt>
      <trkpt lat="43.3504" lon="2.62992">
        <ele>351</ele>
        <time>2020-10-11T14:22:06.000Z</time>
      </trkpt>
      <trkpt lat="43.35051" lon="2.63009">
        <ele>354</ele>
        <time>2020-10-11T14:22:14.000Z</time>
      </trkpt>
      <trkpt lat="43.3506" lon="2.63019">
        <ele>355</ele>
        <time>2020-10-11T14:22:21.000Z</time>
      </trkpt>
      <trkpt lat="43.35067" lon="2.63024">
        <ele>356</ele>
        <time>2020-10-11T14:22:26.000Z</time>
      </trkpt>
      <trkpt lat="43.35082" lon="2.6304">
        <ele>358</ele>
        <time>2020-10-11T14:22:40.000Z</time>
      </trkpt>
      <trkpt lat="43.35091" lon="2.63046">
        <ele>359</ele>
        <time>2020-10-11T14:22:47.000Z</time>
      </trkpt>
      <trkpt lat="43.35103" lon="2.63058">
        <ele>361</ele>
        <time>2020-10-11T14:22:59.000Z</time>
      </trkpt>
      <trkpt lat="43.35116" lon="2.63065">
        <ele>362</ele>
        <time>2020-10-11T14:23:10.000Z</time>
      </trkpt>
      <trkpt lat="43.35118" lon="2.63067">
        <ele>363</ele>
        <time>2020-10-11T14:23:12.000Z</time>
      </trkpt>
      <trkpt lat="43.3513" lon="2.63075">
        <ele>363</ele>
        <time>2020-10-11T14:23:21.000Z</time>
      </trkpt>
      <trkpt lat="43.35134" lon="2.63076">
        <ele>364</ele>
        <time>2020-10-11T14:23:24.000Z</time>
      </trkpt>
      <trkpt lat="43.35147" lon="2.63084">
        <ele>366</ele>
        <time>2020-10-11T14:23:33.000Z</time>
      </trkpt>
      <trkpt lat="43.35166" lon="2.631">
        <ele>368</ele>
        <time>2020-10-11T14:23:47.000Z</time>
      </trkpt>
      <trkpt lat="43.35176" lon="2.63113">
        <ele>370</ele>
        <time>2020-10-11T14:23:56.000Z</time>
      </trkpt>
      <trkpt lat="43.35186" lon="2.63125">
        <ele>370</ele>
        <time>2020-10-11T14:24:05.000Z</time>
      </trkpt>
      <trkpt lat="43.35204" lon="2.63139">
        <ele>372</ele>
        <time>2020-10-11T14:24:19.000Z</time>
      </trkpt>
      <trkpt lat="43.3521" lon="2.63144">
        <ele>373</ele>
        <time>2020-10-11T14:24:24.000Z</time>
      </trkpt>
      <trkpt lat="43.35218" lon="2.63157">
        <ele>375</ele>
        <time>2020-10-11T14:24:34.000Z</time>
      </trkpt>
      <trkpt lat="43.35222" lon="2.63168">
        <ele>377</ele>
        <time>2020-10-11T14:24:41.000Z</time>
      </trkpt>
      <trkpt lat="43.35225" lon="2.63173">
        <ele>377</ele>
        <time>2020-10-11T14:24:45.000Z</time>
      </trkpt>
      <trkpt lat="43.3523" lon="2.63181">
        <ele>378</ele>
        <time>2020-10-11T14:24:51.000Z</time>
      </trkpt>
      <trkpt lat="43.35238" lon="2.63191">
        <ele>380</ele>
        <time>2020-10-11T14:24:59.000Z</time>
      </trkpt>
      <trkpt lat="43.35245" lon="2.63201">
        <ele>380</ele>
        <time>2020-10-11T14:25:07.000Z</time>
      </trkpt>
      <trkpt lat="43.35249" lon="2.63209">
        <ele>381</ele>
        <time>2020-10-11T14:25:12.000Z</time>
      </trkpt>
      <trkpt lat="43.35255" lon="2.63226">
        <ele>382</ele>
        <time>2020-10-11T14:25:22.000Z</time>
      </trkpt>
      <trkpt lat="43.35258" lon="2.63231">
        <ele>382</ele>
        <time>2020-10-11T14:25:26.000Z</time>
      </trkpt>
      <trkpt lat="43.35265" lon="2.63242">
        <ele>383</ele>
        <time>2020-10-11T14:25:34.000Z</time>
      </trkpt>
      <trkpt lat="43.35277" lon="2.63254">
        <ele>385</ele>
        <time>2020-10-11T14:25:46.000Z</time>
      </trkpt>
      <trkpt lat="43.35288" lon="2.63264">
        <ele>386</ele>
        <time>2020-10-11T14:25:57.000Z</time>
      </trkpt>
      <trkpt lat="43.35292" lon="2.63266">
        <ele>386</ele>
        <time>2020-10-11T14:26:00.000Z</time>
      </trkpt>
      <trkpt lat="43.35294" lon="2.63269">
        <ele>387</ele>
        <time>2020-10-11T14:26:03.000Z</time>
      </trkpt>
      <trkpt lat="43.35302" lon="2.63273">
        <ele>387</ele>
        <time>2020-10-11T14:26:09.000Z</time>
      </trkpt>
      <trkpt lat="43.35312" lon="2.63275">
        <ele>388</ele>
        <time>2020-10-11T14:26:17.000Z</time>
      </trkpt>
      <trkpt lat="43.35317" lon="2.63275">
        <ele>389</ele>
        <time>2020-10-11T14:26:21.000Z</time>
      </trkpt>
      <trkpt lat="43.35325" lon="2.63276">
        <ele>389</ele>
        <time>2020-10-11T14:26:27.000Z</time>
      </trkpt>
      <trkpt lat="43.3533" lon="2.63276">
        <ele>390</ele>
        <time>2020-10-11T14:26:31.000Z</time>
      </trkpt>
      <trkpt lat="43.35349" lon="2.63274">
        <ele>392</ele>
        <time>2020-10-11T14:26:46.000Z</time>
      </trkpt>
      <trkpt lat="43.35359" lon="2.63271">
        <ele>395</ele>
        <time>2020-10-11T14:26:54.000Z</time>
      </trkpt>
      <trkpt lat="43.35368" lon="2.63275">
        <ele>396</ele>
        <time>2020-10-11T14:27:02.000Z</time>
      </trkpt>
      <trkpt lat="43.35385" lon="2.63285">
        <ele>398</ele>
        <time>2020-10-11T14:27:16.000Z</time>
      </trkpt>
      <trkpt lat="43.35388" lon="2.63288">
        <ele>398</ele>
        <time>2020-10-11T14:27:19.000Z</time>
      </trkpt>
      <trkpt lat="43.35394" lon="2.63291">
        <ele>398</ele>
        <time>2020-10-11T14:27:24.000Z</time>
      </trkpt>
      <trkpt lat="43.35408" lon="2.633">
        <ele>399</ele>
        <time>2020-10-11T14:27:36.000Z</time>
      </trkpt>
      <trkpt lat="43.35418" lon="2.63308">
        <ele>400</ele>
        <time>2020-10-11T14:27:44.000Z</time>
      </trkpt>
      <trkpt lat="43.35423" lon="2.63312">
        <ele>402</ele>
        <time>2020-10-11T14:27:48.000Z</time>
      </trkpt>
      <trkpt lat="43.35432" lon="2.63319">
        <ele>402</ele>
        <time>2020-10-11T14:27:55.000Z</time>
      </trkpt>
      <trkpt lat="43.35437" lon="2.63321">
        <ele>402</ele>
        <time>2020-10-11T14:27:59.000Z</time>
      </trkpt>
      <trkpt lat="43.35448" lon="2.63325">
        <ele>403</ele>
        <time>2020-10-11T14:28:07.000Z</time>
      </trkpt>
      <trkpt lat="43.35454" lon="2.63328">
        <ele>404</ele>
        <time>2020-10-11T14:28:11.000Z</time>
      </trkpt>
      <trkpt lat="43.35467" lon="2.63336">
        <ele>405</ele>
        <time>2020-10-11T14:28:20.000Z</time>
      </trkpt>
      <trkpt lat="43.3549" lon="2.63355">
        <ele>409</ele>
        <time>2020-10-11T14:28:39.000Z</time>
      </trkpt>
      <trkpt lat="43.35494" lon="2.63363">
        <ele>411</ele>
        <time>2020-10-11T14:28:44.000Z</time>
      </trkpt>
      <trkpt lat="43.35495" lon="2.63371">
        <ele>411</ele>
        <time>2020-10-11T14:28:48.000Z</time>
      </trkpt>
      <trkpt lat="43.35497" lon="2.63378">
        <ele>411</ele>
        <time>2020-10-11T14:28:52.000Z</time>
      </trkpt>
      <trkpt lat="43.35497" lon="2.63387">
        <ele>411</ele>
        <time>2020-10-11T14:28:56.000Z</time>
      </trkpt>
      <trkpt lat="43.35499" lon="2.63399">
        <ele>411</ele>
        <time>2020-10-11T14:29:01.000Z</time>
      </trkpt>
      <trkpt lat="43.35501" lon="2.63405">
        <ele>412</ele>
        <time>2020-10-11T14:29:04.000Z</time>
      </trkpt>
      <trkpt lat="43.35507" lon="2.63419">
        <ele>413</ele>
        <time>2020-10-11T14:29:11.000Z</time>
      </trkpt>
      <trkpt lat="43.3551" lon="2.63431">
        <ele>413</ele>
        <time>2020-10-11T14:29:16.000Z</time>
      </trkpt>
      <trkpt lat="43.35515" lon="2.63446">
        <ele>414</ele>
        <time>2020-10-11T14:29:23.000Z</time>
      </trkpt>
      <trkpt lat="43.35536" lon="2.63494">
        <ele>416</ele>
        <time>2020-10-11T14:29:46.000Z</time>
      </trkpt>
      <trkpt lat="43.35548" lon="2.63514">
        <ele>417</ele>
        <time>2020-10-11T14:29:57.000Z</time>
      </trkpt>
      <trkpt lat="43.35552" lon="2.63518">
        <ele>418</ele>
        <time>2020-10-11T14:30:00.000Z</time>
      </trkpt>
      <trkpt lat="43.35558" lon="2.6352">
        <ele>418</ele>
        <time>2020-10-11T14:30:04.000Z</time>
      </trkpt>
      <trkpt lat="43.35564" lon="2.63524">
        <ele>419</ele>
        <time>2020-10-11T14:30:08.000Z</time>
      </trkpt>
      <trkpt lat="43.35573" lon="2.63527">
        <ele>420</ele>
        <time>2020-10-11T14:30:14.000Z</time>
      </trkpt>
      <trkpt lat="43.35585" lon="2.63535">
        <ele>422</ele>
        <time>2020-10-11T14:30:23.000Z</time>
      </trkpt>
      <trkpt lat="43.3559" lon="2.6354">
        <ele>423</ele>
        <time>2020-10-11T14:30:27.000Z</time>
      </trkpt>
      <trkpt lat="43.35604" lon="2.63551">
        <ele>423</ele>
        <time>2020-10-11T14:30:37.000Z</time>
      </trkpt>
      <trkpt lat="43.35608" lon="2.63553">
        <ele>424</ele>
        <time>2020-10-11T14:30:40.000Z</time>
      </trkpt>
      <trkpt lat="43.35625" lon="2.63554">
        <ele>424</ele>
        <time>2020-10-11T14:30:50.000Z</time>
      </trkpt>
      <trkpt lat="43.35636" lon="2.63553">
        <ele>425</ele>
        <time>2020-10-11T14:30:57.000Z</time>
      </trkpt>
      <trkpt lat="43.35651" lon="2.63549">
        <ele>426</ele>
        <time>2020-10-11T14:31:07.000Z</time>
      </trkpt>
      <trkpt lat="43.35658" lon="2.63545">
        <ele>427</ele>
        <time>2020-10-11T14:31:12.000Z</time>
      </trkpt>
      <trkpt lat="43.35664" lon="2.6354">
        <ele>427</ele>
        <time>2020-10-11T14:31:16.000Z</time>
      </trkpt>
      <trkpt lat="43.35695" lon="2.63516">
        <ele>429</ele>
        <time>2020-10-11T14:31:36.000Z</time>
      </trkpt>
      <trkpt lat="43.35705" lon="2.63507">
        <ele>429</ele>
        <time>2020-10-11T14:31:42.000Z</time>
      </trkpt>
      <trkpt lat="43.35712" lon="2.63503">
        <ele>429</ele>
        <time>2020-10-11T14:31:46.000Z</time>
      </trkpt>
      <trkpt lat="43.35715" lon="2.63503">
        <ele>430</ele>
        <time>2020-10-11T14:31:48.000Z</time>
      </trkpt>
      <trkpt lat="43.35719" lon="2.63504">
        <ele>431</ele>
        <time>2020-10-11T14:31:50.000Z</time>
      </trkpt>
      <trkpt lat="43.35722" lon="2.63507">
        <ele>431</ele>
        <time>2020-10-11T14:31:52.000Z</time>
      </trkpt>
      <trkpt lat="43.35733" lon="2.6353">
        <ele>432</ele>
        <time>2020-10-11T14:32:03.000Z</time>
      </trkpt>
      <trkpt lat="43.3574" lon="2.63546">
        <ele>432</ele>
        <time>2020-10-11T14:32:09.000Z</time>
      </trkpt>
      <trkpt lat="43.35743" lon="2.63554">
        <ele>432</ele>
        <time>2020-10-11T14:32:12.000Z</time>
      </trkpt>
      <trkpt lat="43.35746" lon="2.63564">
        <ele>433</ele>
        <time>2020-10-11T14:32:16.000Z</time>
      </trkpt>
      <trkpt lat="43.35751" lon="2.63584">
        <ele>434</ele>
        <time>2020-10-11T14:32:24.000Z</time>
      </trkpt>
      <trkpt lat="43.35754" lon="2.63591">
        <ele>434</ele>
        <time>2020-10-11T14:32:27.000Z</time>
      </trkpt>
      <trkpt lat="43.35759" lon="2.63601">
        <ele>435</ele>
        <time>2020-10-11T14:32:33.000Z</time>
      </trkpt>
      <trkpt lat="43.35765" lon="2.63615">
        <ele>437</ele>
        <time>2020-10-11T14:32:40.000Z</time>
      </trkpt>
      <trkpt lat="43.35769" lon="2.6364">
        <ele>437</ele>
        <time>2020-10-11T14:32:49.000Z</time>
      </trkpt>
      <trkpt lat="43.35773" lon="2.63653">
        <ele>438</ele>
        <time>2020-10-11T14:32:54.000Z</time>
      </trkpt>
      <trkpt lat="43.35779" lon="2.63677">
        <ele>438</ele>
        <time>2020-10-11T14:33:02.000Z</time>
      </trkpt>
      <trkpt lat="43.35779" lon="2.6368">
        <ele>438</ele>
        <time>2020-10-11T14:33:03.000Z</time>
      </trkpt>
      <trkpt lat="43.35783" lon="2.63687">
        <ele>439</ele>
        <time>2020-10-11T14:33:06.000Z</time>
      </trkpt>
      <trkpt lat="43.35791" lon="2.63694">
        <ele>440</ele>
        <time>2020-10-11T14:33:12.000Z</time>
      </trkpt>
      <trkpt lat="43.35794" lon="2.63696">
        <ele>441</ele>
        <time>2020-10-11T14:33:14.000Z</time>
      </trkpt>
      <trkpt lat="43.35798" lon="2.63696">
        <ele>441</ele>
        <time>2020-10-11T14:33:17.000Z</time>
      </trkpt>
      <trkpt lat="43.35809" lon="2.63693">
        <ele>442</ele>
        <time>2020-10-11T14:33:24.000Z</time>
      </trkpt>
      <trkpt lat="43.35818" lon="2.63689">
        <ele>442</ele>
        <time>2020-10-11T14:33:30.000Z</time>
      </trkpt>
      <trkpt lat="43.35823" lon="2.63688">
        <ele>442</ele>
        <time>2020-10-11T14:33:34.000Z</time>
      </trkpt>
      <trkpt lat="43.35824" lon="2.63689">
        <ele>443</ele>
        <time>2020-10-11T14:33:35.000Z</time>
      </trkpt>
      <trkpt lat="43.35826" lon="2.63694">
        <ele>443</ele>
        <time>2020-10-11T14:33:38.000Z</time>
      </trkpt>
      <trkpt lat="43.35827" lon="2.63702">
        <ele>443</ele>
        <time>2020-10-11T14:33:42.000Z</time>
      </trkpt>
      <trkpt lat="43.35831" lon="2.63706">
        <ele>444</ele>
        <time>2020-10-11T14:33:46.000Z</time>
      </trkpt>
      <trkpt lat="43.35833" lon="2.63707">
        <ele>444</ele>
        <time>2020-10-11T14:33:48.000Z</time>
      </trkpt>
      <trkpt lat="43.35839" lon="2.63706">
        <ele>445</ele>
        <time>2020-10-11T14:33:54.000Z</time>
      </trkpt>
      <trkpt lat="43.35855" lon="2.63712">
        <ele>447</ele>
        <time>2020-10-11T14:34:04.000Z</time>
      </trkpt>
      <trkpt lat="43.35858" lon="2.63714">
        <ele>447</ele>
        <time>2020-10-11T14:34:07.000Z</time>
      </trkpt>
      <trkpt lat="43.3586" lon="2.63724">
        <ele>448</ele>
        <time>2020-10-11T14:34:12.000Z</time>
      </trkpt>
      <trkpt lat="43.35865" lon="2.63736">
        <ele>449</ele>
        <time>2020-10-11T14:34:18.000Z</time>
      </trkpt>
      <trkpt lat="43.3587" lon="2.63739">
        <ele>449</ele>
        <time>2020-10-11T14:34:21.000Z</time>
      </trkpt>
      <trkpt lat="43.35874" lon="2.63738">
        <ele>449</ele>
        <time>2020-10-11T14:34:23.000Z</time>
      </trkpt>
      <trkpt lat="43.35886" lon="2.63731">
        <ele>448</ele>
        <time>2020-10-11T14:34:28.000Z</time>
      </trkpt>
      <trkpt lat="43.35896" lon="2.63736">
        <ele>448</ele>
        <time>2020-10-11T14:34:33.000Z</time>
      </trkpt>
      <trkpt lat="43.35896" lon="2.63744">
        <ele>448</ele>
        <time>2020-10-11T14:34:36.000Z</time>
      </trkpt>
      <trkpt lat="43.35894" lon="2.63756">
        <ele>448</ele>
        <time>2020-10-11T14:34:40.000Z</time>
      </trkpt>
      <trkpt lat="43.35892" lon="2.63772">
        <ele>449</ele>
        <time>2020-10-11T14:34:45.000Z</time>
      </trkpt>
      <trkpt lat="43.35889" lon="2.63778">
        <ele>449</ele>
        <time>2020-10-11T14:34:47.000Z</time>
      </trkpt>
      <trkpt lat="43.3588" lon="2.63793">
        <ele>449</ele>
        <time>2020-10-11T14:34:53.000Z</time>
      </trkpt>
      <trkpt lat="43.35879" lon="2.63799">
        <ele>449</ele>
        <time>2020-10-11T14:34:55.000Z</time>
      </trkpt>
      <trkpt lat="43.35876" lon="2.63805">
        <ele>449</ele>
        <time>2020-10-11T14:34:57.000Z</time>
      </trkpt>
      <trkpt lat="43.35865" lon="2.63822">
        <ele>449</ele>
        <time>2020-10-11T14:35:04.000Z</time>
      </trkpt>
      <trkpt lat="43.35859" lon="2.63824">
        <ele>449</ele>
        <time>2020-10-11T14:35:07.000Z</time>
      </trkpt>
      <trkpt lat="43.35857" lon="2.63824">
        <ele>449</ele>
        <time>2020-10-11T14:35:08.000Z</time>
      </trkpt>
      <trkpt lat="43.35853" lon="2.63819">
        <ele>448</ele>
        <time>2020-10-11T14:35:10.000Z</time>
      </trkpt>
      <trkpt lat="43.3585" lon="2.63811">
        <ele>447</ele>
        <time>2020-10-11T14:35:12.000Z</time>
      </trkpt>
      <trkpt lat="43.35847" lon="2.63795">
        <ele>446</ele>
        <time>2020-10-11T14:35:16.000Z</time>
      </trkpt>
      <trkpt lat="43.35844" lon="2.63779">
        <ele>445</ele>
        <time>2020-10-11T14:35:20.000Z</time>
      </trkpt>
      <trkpt lat="43.35843" lon="2.63776">
        <ele>445</ele>
        <time>2020-10-11T14:35:21.000Z</time>
      </trkpt>
      <trkpt lat="43.3584" lon="2.63772">
        <ele>444</ele>
        <time>2020-10-11T14:35:23.000Z</time>
      </trkpt>
      <trkpt lat="43.35837" lon="2.63772">
        <ele>444</ele>
        <time>2020-10-11T14:35:24.000Z</time>
      </trkpt>
      <trkpt lat="43.35829" lon="2.63775">
        <ele>444</ele>
        <time>2020-10-11T14:35:26.000Z</time>
      </trkpt>
      <trkpt lat="43.35822" lon="2.63779">
        <ele>443</ele>
        <time>2020-10-11T14:35:28.000Z</time>
      </trkpt>
      <trkpt lat="43.35818" lon="2.63779">
        <ele>443</ele>
        <time>2020-10-11T14:35:29.000Z</time>
      </trkpt>
      <trkpt lat="43.35806" lon="2.63777">
        <ele>443</ele>
        <time>2020-10-11T14:35:33.000Z</time>
      </trkpt>
      <trkpt lat="43.35799" lon="2.63781">
        <ele>442</ele>
        <time>2020-10-11T14:35:36.000Z</time>
      </trkpt>
      <trkpt lat="43.35797" lon="2.63787">
        <ele>442</ele>
        <time>2020-10-11T14:35:38.000Z</time>
      </trkpt>
      <trkpt lat="43.35797" lon="2.63794">
        <ele>442</ele>
        <time>2020-10-11T14:35:40.000Z</time>
      </trkpt>
      <trkpt lat="43.35801" lon="2.6382">
        <ele>442</ele>
        <time>2020-10-11T14:35:48.000Z</time>
      </trkpt>
      <trkpt lat="43.35805" lon="2.63836">
        <ele>443</ele>
        <time>2020-10-11T14:35:54.000Z</time>
      </trkpt>
      <trkpt lat="43.35806" lon="2.63848">
        <ele>443</ele>
        <time>2020-10-11T14:35:58.000Z</time>
      </trkpt>
      <trkpt lat="43.35807" lon="2.6386">
        <ele>443</ele>
        <time>2020-10-11T14:36:02.000Z</time>
      </trkpt>
      <trkpt lat="43.3581" lon="2.63877">
        <ele>443</ele>
        <time>2020-10-11T14:36:09.000Z</time>
      </trkpt>
      <trkpt lat="43.35813" lon="2.63901">
        <ele>443</ele>
        <time>2020-10-11T14:36:18.000Z</time>
      </trkpt>
      <trkpt lat="43.35815" lon="2.63933">
        <ele>444</ele>
        <time>2020-10-11T14:36:30.000Z</time>
      </trkpt>
      <trkpt lat="43.35816" lon="2.6394">
        <ele>445</ele>
        <time>2020-10-11T14:36:33.000Z</time>
      </trkpt>
      <trkpt lat="43.35819" lon="2.63962">
        <ele>444</ele>
        <time>2020-10-11T14:36:42.000Z</time>
      </trkpt>
      <trkpt lat="43.35823" lon="2.63981">
        <ele>445</ele>
        <time>2020-10-11T14:36:50.000Z</time>
      </trkpt>
      <trkpt lat="43.35824" lon="2.63992">
        <ele>445</ele>
        <time>2020-10-11T14:36:55.000Z</time>
      </trkpt>
      <trkpt lat="43.35824" lon="2.63999">
        <ele>445</ele>
        <time>2020-10-11T14:36:58.000Z</time>
      </trkpt>
      <trkpt lat="43.35824" lon="2.64011">
        <ele>445</ele>
        <time>2020-10-11T14:37:03.000Z</time>
      </trkpt>
      <trkpt lat="43.35827" lon="2.6404">
        <ele>446</ele>
        <time>2020-10-11T14:37:15.000Z</time>
      </trkpt>
      <trkpt lat="43.35827" lon="2.6405">
        <ele>446</ele>
        <time>2020-10-11T14:37:19.000Z</time>
      </trkpt>
      <trkpt lat="43.35825" lon="2.64061">
        <ele>445</ele>
        <time>2020-10-11T14:37:23.000Z</time>
      </trkpt>
      <trkpt lat="43.35826" lon="2.64066">
        <ele>445</ele>
        <time>2020-10-11T14:37:25.000Z</time>
      </trkpt>
      <trkpt lat="43.35823" lon="2.64082">
        <ele>445</ele>
        <time>2020-10-11T14:37:32.000Z</time>
      </trkpt>
      <trkpt lat="43.35824" lon="2.64093">
        <ele>445</ele>
        <time>2020-10-11T14:37:38.000Z</time>
      </trkpt>
      <trkpt lat="43.35828" lon="2.64107">
        <ele>446</ele>
        <time>2020-10-11T14:37:46.000Z</time>
      </trkpt>
      <trkpt lat="43.35834" lon="2.64119">
        <ele>447</ele>
        <time>2020-10-11T14:37:53.000Z</time>
      </trkpt>
      <trkpt lat="43.35837" lon="2.64132">
        <ele>446</ele>
        <time>2020-10-11T14:37:59.000Z</time>
      </trkpt>
      <trkpt lat="43.35839" lon="2.64143">
        <ele>447</ele>
        <time>2020-10-11T14:38:04.000Z</time>
      </trkpt>
      <trkpt lat="43.3584" lon="2.64152">
        <ele>447</ele>
        <time>2020-10-11T14:38:08.000Z</time>
      </trkpt>
      <trkpt lat="43.35845" lon="2.64183">
        <ele>448</ele>
        <time>2020-10-11T14:38:21.000Z</time>
      </trkpt>
      <trkpt lat="43.35846" lon="2.64193">
        <ele>449</ele>
        <time>2020-10-11T14:38:26.000Z</time>
      </trkpt>
      <trkpt lat="43.35848" lon="2.64199">
        <ele>449</ele>
        <time>2020-10-11T14:38:29.000Z</time>
      </trkpt>
      <trkpt lat="43.35853" lon="2.64207">
        <ele>450</ele>
        <time>2020-10-11T14:38:35.000Z</time>
      </trkpt>
      <trkpt lat="43.35854" lon="2.64208">
        <ele>450</ele>
        <time>2020-10-11T14:38:38.000Z</time>
      </trkpt>
      <trkpt lat="43.35858" lon="2.64212">
        <ele>450</ele>
        <time>2020-10-11T14:38:55.000Z</time>
      </trkpt>
      <trkpt lat="43.35862" lon="2.64222">
        <ele>451</ele>
        <time>2020-10-11T14:39:05.000Z</time>
      </trkpt>
      <trkpt lat="43.35867" lon="2.6423">
        <ele>451</ele>
        <time>2020-10-11T14:39:20.000Z</time>
      </trkpt>
      <trkpt lat="43.3587" lon="2.64238">
        <ele>451</ele>
        <time>2020-10-11T14:39:24.000Z</time>
      </trkpt>
      <trkpt lat="43.3588" lon="2.64262">
        <ele>452</ele>
        <time>2020-10-11T14:39:35.000Z</time>
      </trkpt>
      <trkpt lat="43.35883" lon="2.64272">
        <ele>453</ele>
        <time>2020-10-11T14:39:40.000Z</time>
      </trkpt>
      <trkpt lat="43.35885" lon="2.64283">
        <ele>453</ele>
        <time>2020-10-11T14:39:45.000Z</time>
      </trkpt>
      <trkpt lat="43.35884" lon="2.64294">
        <ele>452</ele>
        <time>2020-10-11T14:39:50.000Z</time>
      </trkpt>
      <trkpt lat="43.35874" lon="2.64329">
        <ele>453</ele>
        <time>2020-10-11T14:40:05.000Z</time>
      </trkpt>
      <trkpt lat="43.35871" lon="2.64337">
        <ele>453</ele>
        <time>2020-10-11T14:40:09.000Z</time>
      </trkpt>
      <trkpt lat="43.35871" lon="2.64342">
        <ele>453</ele>
        <time>2020-10-11T14:40:11.000Z</time>
      </trkpt>
      <trkpt lat="43.35875" lon="2.64351">
        <ele>453</ele>
        <time>2020-10-11T14:40:15.000Z</time>
      </trkpt>
      <trkpt lat="43.35878" lon="2.64356">
        <ele>452</ele>
        <time>2020-10-11T14:40:18.000Z</time>
      </trkpt>
      <trkpt lat="43.35884" lon="2.64362">
        <ele>453</ele>
        <time>2020-10-11T14:40:22.000Z</time>
      </trkpt>
      <trkpt lat="43.35894" lon="2.64381">
        <ele>455</ele>
        <time>2020-10-11T14:40:30.000Z</time>
      </trkpt>
      <trkpt lat="43.35901" lon="2.64393">
        <ele>456</ele>
        <time>2020-10-11T14:40:36.000Z</time>
      </trkpt>
      <trkpt lat="43.35904" lon="2.64401">
        <ele>456</ele>
        <time>2020-10-11T14:40:39.000Z</time>
      </trkpt>
      <trkpt lat="43.35905" lon="2.64406">
        <ele>457</ele>
        <time>2020-10-11T14:40:41.000Z</time>
      </trkpt>
      <trkpt lat="43.35903" lon="2.64414">
        <ele>457</ele>
        <time>2020-10-11T14:40:44.000Z</time>
      </trkpt>
      <trkpt lat="43.35905" lon="2.64426">
        <ele>456</ele>
        <time>2020-10-11T14:40:48.000Z</time>
      </trkpt>
      <trkpt lat="43.35905" lon="2.64448">
        <ele>457</ele>
        <time>2020-10-11T14:40:55.000Z</time>
      </trkpt>
      <trkpt lat="43.35907" lon="2.64476">
        <ele>458</ele>
        <time>2020-10-11T14:41:04.000Z</time>
      </trkpt>
      <trkpt lat="43.35908" lon="2.64489">
        <ele>458</ele>
        <time>2020-10-11T14:41:08.000Z</time>
      </trkpt>
      <trkpt lat="43.35914" lon="2.64522">
        <ele>458</ele>
        <time>2020-10-11T14:41:19.000Z</time>
      </trkpt>
      <trkpt lat="43.35914" lon="2.64533">
        <ele>459</ele>
        <time>2020-10-11T14:41:24.000Z</time>
      </trkpt>
      <trkpt lat="43.35914" lon="2.64537">
        <ele>459</ele>
        <time>2020-10-11T14:41:26.000Z</time>
      </trkpt>
      <trkpt lat="43.35912" lon="2.64539">
        <ele>459</ele>
        <time>2020-10-11T14:41:27.000Z</time>
      </trkpt>
      <trkpt lat="43.35905" lon="2.6454">
        <ele>459</ele>
        <time>2020-10-11T14:41:30.000Z</time>
      </trkpt>
      <trkpt lat="43.35893" lon="2.64538">
        <ele>459</ele>
        <time>2020-10-11T14:41:36.000Z</time>
      </trkpt>
      <trkpt lat="43.3588" lon="2.64533">
        <ele>458</ele>
        <time>2020-10-11T14:41:42.000Z</time>
      </trkpt>
      <trkpt lat="43.35861" lon="2.64524">
        <ele>457</ele>
        <time>2020-10-11T14:41:48.000Z</time>
      </trkpt>
      <trkpt lat="43.35851" lon="2.64529">
        <ele>456</ele>
        <time>2020-10-11T14:41:51.000Z</time>
      </trkpt>
      <trkpt lat="43.35849" lon="2.64532">
        <ele>456</ele>
        <time>2020-10-11T14:41:52.000Z</time>
      </trkpt>
      <trkpt lat="43.35849" lon="2.64539">
        <ele>456</ele>
        <time>2020-10-11T14:41:54.000Z</time>
      </trkpt>
      <trkpt lat="43.35853" lon="2.64562">
        <ele>456</ele>
        <time>2020-10-11T14:41:59.000Z</time>
      </trkpt>
      <trkpt lat="43.3586" lon="2.64581">
        <ele>457</ele>
        <time>2020-10-11T14:42:03.000Z</time>
      </trkpt>
      <trkpt lat="43.35866" lon="2.64605">
        <ele>457</ele>
        <time>2020-10-11T14:42:08.000Z</time>
      </trkpt>
      <trkpt lat="43.35869" lon="2.6463">
        <ele>458</ele>
        <time>2020-10-11T14:42:13.000Z</time>
      </trkpt>
      <trkpt lat="43.3587" lon="2.64641">
        <ele>458</ele>
        <time>2020-10-11T14:42:15.000Z</time>
      </trkpt>
      <trkpt lat="43.35874" lon="2.64677">
        <ele>459</ele>
        <time>2020-10-11T14:42:22.000Z</time>
      </trkpt>
      <trkpt lat="43.3588" lon="2.64707">
        <ele>460</ele>
        <time>2020-10-11T14:42:28.000Z</time>
      </trkpt>
      <trkpt lat="43.35892" lon="2.64761">
        <ele>461</ele>
        <time>2020-10-11T14:42:38.000Z</time>
      </trkpt>
      <trkpt lat="43.35894" lon="2.64785">
        <ele>462</ele>
        <time>2020-10-11T14:42:43.000Z</time>
      </trkpt>
      <trkpt lat="43.35893" lon="2.648">
        <ele>463</ele>
        <time>2020-10-11T14:42:46.000Z</time>
      </trkpt>
      <trkpt lat="43.35886" lon="2.64827">
        <ele>462</ele>
        <time>2020-10-11T14:42:51.000Z</time>
      </trkpt>
      <trkpt lat="43.35871" lon="2.64859">
        <ele>460</ele>
        <time>2020-10-11T14:42:56.000Z</time>
      </trkpt>
      <trkpt lat="43.35861" lon="2.64884">
        <ele>459</ele>
        <time>2020-10-11T14:42:59.000Z</time>
      </trkpt>
      <trkpt lat="43.35849" lon="2.64919">
        <ele>457</ele>
        <time>2020-10-11T14:43:03.000Z</time>
      </trkpt>
      <trkpt lat="43.35839" lon="2.64953">
        <ele>457</ele>
        <time>2020-10-11T14:43:07.000Z</time>
      </trkpt>
      <trkpt lat="43.35833" lon="2.64979">
        <ele>457</ele>
        <time>2020-10-11T14:43:10.000Z</time>
      </trkpt>
      <trkpt lat="43.35827" lon="2.65005">
        <ele>457</ele>
        <time>2020-10-11T14:43:13.000Z</time>
      </trkpt>
      <trkpt lat="43.35806" lon="2.65114">
        <ele>452</ele>
        <time>2020-10-11T14:43:25.000Z</time>
      </trkpt>
      <trkpt lat="43.35807" lon="2.65135">
        <ele>451</ele>
        <time>2020-10-11T14:43:27.000Z</time>
      </trkpt>
      <trkpt lat="43.35812" lon="2.65154">
        <ele>451</ele>
        <time>2020-10-11T14:43:29.000Z</time>
      </trkpt>
      <trkpt lat="43.35815" lon="2.6516">
        <ele>451</ele>
        <time>2020-10-11T14:43:30.000Z</time>
      </trkpt>
      <trkpt lat="43.3582" lon="2.65169">
        <ele>453</ele>
        <time>2020-10-11T14:43:32.000Z</time>
      </trkpt>
      <trkpt lat="43.35827" lon="2.65181">
        <ele>456</ele>
        <time>2020-10-11T14:43:37.000Z</time>
      </trkpt>
      <trkpt lat="43.35842" lon="2.65208">
        <ele>459</ele>
        <time>2020-10-11T14:43:49.000Z</time>
      </trkpt>
      <trkpt lat="43.35845" lon="2.65218">
        <ele>461</ele>
        <time>2020-10-11T14:43:53.000Z</time>
      </trkpt>
      <trkpt lat="43.35847" lon="2.6523">
        <ele>462</ele>
        <time>2020-10-11T14:43:58.000Z</time>
      </trkpt>
      <trkpt lat="43.35852" lon="2.65243">
        <ele>464</ele>
        <time>2020-10-11T14:44:04.000Z</time>
      </trkpt>
      <trkpt lat="43.35861" lon="2.65257">
        <ele>465</ele>
        <time>2020-10-11T14:44:12.000Z</time>
      </trkpt>
      <trkpt lat="43.35874" lon="2.65277">
        <ele>468</ele>
        <time>2020-10-11T14:44:24.000Z</time>
      </trkpt>
      <trkpt lat="43.35893" lon="2.6531">
        <ele>470</ele>
        <time>2020-10-11T14:44:42.000Z</time>
      </trkpt>
      <trkpt lat="43.35905" lon="2.65328">
        <ele>471</ele>
        <time>2020-10-11T14:44:52.000Z</time>
      </trkpt>
      <trkpt lat="43.35912" lon="2.65335">
        <ele>472</ele>
        <time>2020-10-11T14:44:57.000Z</time>
      </trkpt>
      <trkpt lat="43.35929" lon="2.65355">
        <ele>474</ele>
        <time>2020-10-11T14:45:11.000Z</time>
      </trkpt>
      <trkpt lat="43.35937" lon="2.65365">
        <ele>475</ele>
        <time>2020-10-11T14:45:17.000Z</time>
      </trkpt>
      <trkpt lat="43.35947" lon="2.65378">
        <ele>477</ele>
        <time>2020-10-11T14:45:25.000Z</time>
      </trkpt>
      <trkpt lat="43.35953" lon="2.65382">
        <ele>477</ele>
        <time>2020-10-11T14:45:28.000Z</time>
      </trkpt>
      <trkpt lat="43.35965" lon="2.65391">
        <ele>478</ele>
        <time>2020-10-11T14:45:35.000Z</time>
      </trkpt>
      <trkpt lat="43.35982" lon="2.65401">
        <ele>479</ele>
        <time>2020-10-11T14:45:44.000Z</time>
      </trkpt>
      <trkpt lat="43.35989" lon="2.65408">
        <ele>479</ele>
        <time>2020-10-11T14:45:48.000Z</time>
      </trkpt>
      <trkpt lat="43.35992" lon="2.65414">
        <ele>480</ele>
        <time>2020-10-11T14:45:51.000Z</time>
      </trkpt>
      <trkpt lat="43.35994" lon="2.65423">
        <ele>481</ele>
        <time>2020-10-11T14:45:54.000Z</time>
      </trkpt>
      <trkpt lat="43.35988" lon="2.65443">
        <ele>480</ele>
        <time>2020-10-11T14:46:00.000Z</time>
      </trkpt>
      <trkpt lat="43.35978" lon="2.65459">
        <ele>480</ele>
        <time>2020-10-11T14:46:05.000Z</time>
      </trkpt>
      <trkpt lat="43.35969" lon="2.65476">
        <ele>479</ele>
        <time>2020-10-11T14:46:09.000Z</time>
      </trkpt>
      <trkpt lat="43.35942" lon="2.65533">
        <ele>475</ele>
        <time>2020-10-11T14:46:20.000Z</time>
      </trkpt>
      <trkpt lat="43.35929" lon="2.65563">
        <ele>474</ele>
        <time>2020-10-11T14:46:25.000Z</time>
      </trkpt>
      <trkpt lat="43.35915" lon="2.65601">
        <ele>473</ele>
        <time>2020-10-11T14:46:31.000Z</time>
      </trkpt>
      <trkpt lat="43.359" lon="2.65639">
        <ele>472</ele>
        <time>2020-10-11T14:46:37.000Z</time>
      </trkpt>
      <trkpt lat="43.35894" lon="2.65658">
        <ele>472</ele>
        <time>2020-10-11T14:46:40.000Z</time>
      </trkpt>
      <trkpt lat="43.35889" lon="2.65673">
        <ele>472</ele>
        <time>2020-10-11T14:46:42.000Z</time>
      </trkpt>
      <trkpt lat="43.35885" lon="2.65701">
        <ele>471</ele>
        <time>2020-10-11T14:46:46.000Z</time>
      </trkpt>
      <trkpt lat="43.35878" lon="2.65735">
        <ele>469</ele>
        <time>2020-10-11T14:46:50.000Z</time>
      </trkpt>
      <trkpt lat="43.35874" lon="2.65759">
        <ele>469</ele>
        <time>2020-10-11T14:46:53.000Z</time>
      </trkpt>
      <trkpt lat="43.35872" lon="2.65776">
        <ele>469</ele>
        <time>2020-10-11T14:46:56.000Z</time>
      </trkpt>
      <trkpt lat="43.35874" lon="2.65785">
        <ele>469</ele>
        <time>2020-10-11T14:46:59.000Z</time>
      </trkpt>
      <trkpt lat="43.35877" lon="2.65794">
        <ele>469</ele>
        <time>2020-10-11T14:47:02.000Z</time>
      </trkpt>
      <trkpt lat="43.35883" lon="2.65804">
        <ele>469</ele>
        <time>2020-10-11T14:47:06.000Z</time>
      </trkpt>
      <trkpt lat="43.35889" lon="2.6581">
        <ele>469</ele>
        <time>2020-10-11T14:47:09.000Z</time>
      </trkpt>
      <trkpt lat="43.35901" lon="2.65819">
        <ele>470</ele>
        <time>2020-10-11T14:47:15.000Z</time>
      </trkpt>
      <trkpt lat="43.35908" lon="2.65826">
        <ele>471</ele>
        <time>2020-10-11T14:47:19.000Z</time>
      </trkpt>
      <trkpt lat="43.35919" lon="2.65842">
        <ele>474</ele>
        <time>2020-10-11T14:47:26.000Z</time>
      </trkpt>
      <trkpt lat="43.35924" lon="2.65849">
        <ele>474</ele>
        <time>2020-10-11T14:47:29.000Z</time>
      </trkpt>
      <trkpt lat="43.35929" lon="2.65859">
        <ele>475</ele>
        <time>2020-10-11T14:47:33.000Z</time>
      </trkpt>
      <trkpt lat="43.35933" lon="2.6587">
        <ele>475</ele>
        <time>2020-10-11T14:47:37.000Z</time>
      </trkpt>
      <trkpt lat="43.3594" lon="2.65883">
        <ele>476</ele>
        <time>2020-10-11T14:47:42.000Z</time>
      </trkpt>
      <trkpt lat="43.35959" lon="2.65934">
        <ele>481</ele>
        <time>2020-10-11T14:48:02.000Z</time>
      </trkpt>
      <trkpt lat="43.35959" lon="2.65939">
        <ele>481</ele>
        <time>2020-10-11T14:48:04.000Z</time>
      </trkpt>
      <trkpt lat="43.35958" lon="2.65947">
        <ele>481</ele>
        <time>2020-10-11T14:48:07.000Z</time>
      </trkpt>
      <trkpt lat="43.35954" lon="2.65956">
        <ele>481</ele>
        <time>2020-10-11T14:48:10.000Z</time>
      </trkpt>
      <trkpt lat="43.35936" lon="2.65998">
        <ele>479</ele>
        <time>2020-10-11T14:48:20.000Z</time>
      </trkpt>
      <trkpt lat="43.35927" lon="2.66015">
        <ele>478</ele>
        <time>2020-10-11T14:48:23.000Z</time>
      </trkpt>
      <trkpt lat="43.35924" lon="2.66019">
        <ele>478</ele>
        <time>2020-10-11T14:48:24.000Z</time>
      </trkpt>
      <trkpt lat="43.35898" lon="2.66055">
        <ele>477</ele>
        <time>2020-10-11T14:48:32.000Z</time>
      </trkpt>
      <trkpt lat="43.35877" lon="2.66085">
        <ele>474</ele>
        <time>2020-10-11T14:48:37.000Z</time>
      </trkpt>
      <trkpt lat="43.35866" lon="2.66105">
        <ele>474</ele>
        <time>2020-10-11T14:48:40.000Z</time>
      </trkpt>
      <trkpt lat="43.35856" lon="2.66131">
        <ele>473</ele>
        <time>2020-10-11T14:48:44.000Z</time>
      </trkpt>
      <trkpt lat="43.35851" lon="2.66145">
        <ele>473</ele>
        <time>2020-10-11T14:48:46.000Z</time>
      </trkpt>
      <trkpt lat="43.35848" lon="2.66166">
        <ele>473</ele>
        <time>2020-10-11T14:48:49.000Z</time>
      </trkpt>
      <trkpt lat="43.35839" lon="2.66237">
        <ele>476</ele>
        <time>2020-10-11T14:49:01.000Z</time>
      </trkpt>
      <trkpt lat="43.35837" lon="2.66253">
        <ele>476</ele>
        <time>2020-10-11T14:49:04.000Z</time>
      </trkpt>
      <trkpt lat="43.35832" lon="2.66296">
        <ele>477</ele>
        <time>2020-10-11T14:49:12.000Z</time>
      </trkpt>
      <trkpt lat="43.35828" lon="2.66322">
        <ele>477</ele>
        <time>2020-10-11T14:49:18.000Z</time>
      </trkpt>
      <trkpt lat="43.35828" lon="2.66337">
        <ele>476</ele>
        <time>2020-10-11T14:49:21.000Z</time>
      </trkpt>
      <trkpt lat="43.35835" lon="2.66372">
        <ele>474</ele>
        <time>2020-10-11T14:49:28.000Z</time>
      </trkpt>
      <trkpt lat="43.35836" lon="2.66392">
        <ele>475</ele>
        <time>2020-10-11T14:49:32.000Z</time>
      </trkpt>
      <trkpt lat="43.35832" lon="2.66451">
        <ele>477</ele>
        <time>2020-10-11T14:49:43.000Z</time>
      </trkpt>
      <trkpt lat="43.35831" lon="2.66493">
        <ele>478</ele>
        <time>2020-10-11T14:49:51.000Z</time>
      </trkpt>
      <trkpt lat="43.35832" lon="2.66506">
        <ele>478</ele>
        <time>2020-10-11T14:49:54.000Z</time>
      </trkpt>
      <trkpt lat="43.35836" lon="2.66527">
        <ele>479</ele>
        <time>2020-10-11T14:49:59.000Z</time>
      </trkpt>
      <trkpt lat="43.35846" lon="2.66562">
        <ele>481</ele>
        <time>2020-10-11T14:50:09.000Z</time>
      </trkpt>
      <trkpt lat="43.35863" lon="2.66602">
        <ele>481</ele>
        <time>2020-10-11T14:50:20.000Z</time>
      </trkpt>
      <trkpt lat="43.35871" lon="2.66625">
        <ele>481</ele>
        <time>2020-10-11T14:50:25.000Z</time>
      </trkpt>
      <trkpt lat="43.35886" lon="2.6667">
        <ele>483</ele>
        <time>2020-10-11T14:50:34.000Z</time>
      </trkpt>
      <trkpt lat="43.35901" lon="2.66705">
        <ele>483</ele>
        <time>2020-10-11T14:50:42.000Z</time>
      </trkpt>
      <trkpt lat="43.35905" lon="2.66713">
        <ele>483</ele>
        <time>2020-10-11T14:50:44.000Z</time>
      </trkpt>
      <trkpt lat="43.3591" lon="2.6672">
        <ele>483</ele>
        <time>2020-10-11T14:50:46.000Z</time>
      </trkpt>
      <trkpt lat="43.35924" lon="2.66735">
        <ele>482</ele>
        <time>2020-10-11T14:50:51.000Z</time>
      </trkpt>
      <trkpt lat="43.35928" lon="2.66741">
        <ele>482</ele>
        <time>2020-10-11T14:50:53.000Z</time>
      </trkpt>
      <trkpt lat="43.35931" lon="2.66749">
        <ele>482</ele>
        <time>2020-10-11T14:50:55.000Z</time>
      </trkpt>
      <trkpt lat="43.35935" lon="2.66774">
        <ele>482</ele>
        <time>2020-10-11T14:51:00.000Z</time>
      </trkpt>
      <trkpt lat="43.35938" lon="2.66835">
        <ele>480</ele>
        <time>2020-10-11T14:51:10.000Z</time>
      </trkpt>
      <trkpt lat="43.35941" lon="2.66866">
        <ele>479</ele>
        <time>2020-10-11T14:51:14.000Z</time>
      </trkpt>
      <trkpt lat="43.35945" lon="2.66891">
        <ele>479</ele>
        <time>2020-10-11T14:51:17.000Z</time>
      </trkpt>
      <trkpt lat="43.35949" lon="2.66908">
        <ele>479</ele>
        <time>2020-10-11T14:51:19.000Z</time>
      </trkpt>
      <trkpt lat="43.35962" lon="2.66945">
        <ele>477</ele>
        <time>2020-10-11T14:51:24.000Z</time>
      </trkpt>
      <trkpt lat="43.35964" lon="2.66952">
        <ele>476</ele>
        <time>2020-10-11T14:51:25.000Z</time>
      </trkpt>
      <trkpt lat="43.35965" lon="2.6696">
        <ele>476</ele>
        <time>2020-10-11T14:51:26.000Z</time>
      </trkpt>
      <trkpt lat="43.35965" lon="2.66969">
        <ele>475</ele>
        <time>2020-10-11T14:51:27.000Z</time>
      </trkpt>
      <trkpt lat="43.35965" lon="2.66978">
        <ele>474</ele>
        <time>2020-10-11T14:51:28.000Z</time>
      </trkpt>
      <trkpt lat="43.35963" lon="2.66988">
        <ele>474</ele>
        <time>2020-10-11T14:51:29.000Z</time>
      </trkpt>
      <trkpt lat="43.35961" lon="2.66997">
        <ele>473</ele>
        <time>2020-10-11T14:51:30.000Z</time>
      </trkpt>
      <trkpt lat="43.35958" lon="2.67007">
        <ele>473</ele>
        <time>2020-10-11T14:51:31.000Z</time>
      </trkpt>
      <trkpt lat="43.35955" lon="2.67016">
        <ele>473</ele>
        <time>2020-10-11T14:51:32.000Z</time>
      </trkpt>
      <trkpt lat="43.35944" lon="2.67031">
        <ele>472</ele>
        <time>2020-10-11T14:51:34.000Z</time>
      </trkpt>
      <trkpt lat="43.35938" lon="2.67037">
        <ele>472</ele>
        <time>2020-10-11T14:51:35.000Z</time>
      </trkpt>
      <trkpt lat="43.35925" lon="2.67048">
        <ele>471</ele>
        <time>2020-10-11T14:51:37.000Z</time>
      </trkpt>
      <trkpt lat="43.35898" lon="2.67069">
        <ele>470</ele>
        <time>2020-10-11T14:51:40.000Z</time>
      </trkpt>
      <trkpt lat="43.35883" lon="2.67079">
        <ele>469</ele>
        <time>2020-10-11T14:51:43.000Z</time>
      </trkpt>
      <trkpt lat="43.3586" lon="2.67093">
        <ele>467</ele>
        <time>2020-10-11T14:51:46.000Z</time>
      </trkpt>
      <trkpt lat="43.35852" lon="2.67097">
        <ele>467</ele>
        <time>2020-10-11T14:51:47.000Z</time>
      </trkpt>
      <trkpt lat="43.35824" lon="2.67106">
        <ele>464</ele>
        <time>2020-10-11T14:51:50.000Z</time>
      </trkpt>
      <trkpt lat="43.35815" lon="2.67109">
        <ele>463</ele>
        <time>2020-10-11T14:51:51.000Z</time>
      </trkpt>
      <trkpt lat="43.35799" lon="2.67121">
        <ele>462</ele>
        <time>2020-10-11T14:51:53.000Z</time>
      </trkpt>
      <trkpt lat="43.35792" lon="2.67129">
        <ele>462</ele>
        <time>2020-10-11T14:51:54.000Z</time>
      </trkpt>
      <trkpt lat="43.35786" lon="2.67137">
        <ele>462</ele>
        <time>2020-10-11T14:51:55.000Z</time>
      </trkpt>
      <trkpt lat="43.35761" lon="2.67177">
        <ele>462</ele>
        <time>2020-10-11T14:51:59.000Z</time>
      </trkpt>
      <trkpt lat="43.35746" lon="2.67199">
        <ele>461</ele>
        <time>2020-10-11T14:52:02.000Z</time>
      </trkpt>
      <trkpt lat="43.35734" lon="2.67218">
        <ele>459</ele>
        <time>2020-10-11T14:52:06.000Z</time>
      </trkpt>
      <trkpt lat="43.3571" lon="2.67251">
        <ele>456</ele>
        <time>2020-10-11T14:52:12.000Z</time>
      </trkpt>
      <trkpt lat="43.35701" lon="2.67271">
        <ele>455</ele>
        <time>2020-10-11T14:52:15.000Z</time>
      </trkpt>
      <trkpt lat="43.35698" lon="2.67278">
        <ele>454</ele>
        <time>2020-10-11T14:52:16.000Z</time>
      </trkpt>
      <trkpt lat="43.3569" lon="2.67306">
        <ele>451</ele>
        <time>2020-10-11T14:52:20.000Z</time>
      </trkpt>
      <trkpt lat="43.35678" lon="2.67337">
        <ele>449</ele>
        <time>2020-10-11T14:52:25.000Z</time>
      </trkpt>
      <trkpt lat="43.35672" lon="2.67349">
        <ele>448</ele>
        <time>2020-10-11T14:52:27.000Z</time>
      </trkpt>
      <trkpt lat="43.35665" lon="2.6736">
        <ele>446</ele>
        <time>2020-10-11T14:52:29.000Z</time>
      </trkpt>
      <trkpt lat="43.3566" lon="2.67365">
        <ele>445</ele>
        <time>2020-10-11T14:52:30.000Z</time>
      </trkpt>
      <trkpt lat="43.35646" lon="2.67377">
        <ele>443</ele>
        <time>2020-10-11T14:52:33.000Z</time>
      </trkpt>
      <trkpt lat="43.35638" lon="2.67385">
        <ele>442</ele>
        <time>2020-10-11T14:52:35.000Z</time>
      </trkpt>
      <trkpt lat="43.3563" lon="2.67395">
        <ele>441</ele>
        <time>2020-10-11T14:52:37.000Z</time>
      </trkpt>
      <trkpt lat="43.3561" lon="2.67424">
        <ele>438</ele>
        <time>2020-10-11T14:52:42.000Z</time>
      </trkpt>
      <trkpt lat="43.35604" lon="2.67436">
        <ele>437</ele>
        <time>2020-10-11T14:52:44.000Z</time>
      </trkpt>
      <trkpt lat="43.35601" lon="2.67449">
        <ele>435</ele>
        <time>2020-10-11T14:52:46.000Z</time>
      </trkpt>
      <trkpt lat="43.35598" lon="2.67474">
        <ele>434</ele>
        <time>2020-10-11T14:52:50.000Z</time>
      </trkpt>
      <trkpt lat="43.35595" lon="2.67491">
        <ele>433</ele>
        <time>2020-10-11T14:52:53.000Z</time>
      </trkpt>
      <trkpt lat="43.35591" lon="2.67506">
        <ele>432</ele>
        <time>2020-10-11T14:52:56.000Z</time>
      </trkpt>
      <trkpt lat="43.35587" lon="2.67516">
        <ele>431</ele>
        <time>2020-10-11T14:52:58.000Z</time>
      </trkpt>
      <trkpt lat="43.3558" lon="2.67528">
        <ele>429</ele>
        <time>2020-10-11T14:53:01.000Z</time>
      </trkpt>
      <trkpt lat="43.35572" lon="2.67535">
        <ele>428</ele>
        <time>2020-10-11T14:53:04.000Z</time>
      </trkpt>
      <trkpt lat="43.35566" lon="2.67539">
        <ele>428</ele>
        <time>2020-10-11T14:53:06.000Z</time>
      </trkpt>
      <trkpt lat="43.35557" lon="2.67542">
        <ele>427</ele>
        <time>2020-10-11T14:53:08.000Z</time>
      </trkpt>
      <trkpt lat="43.35545" lon="2.67544">
        <ele>426</ele>
        <time>2020-10-11T14:53:11.000Z</time>
      </trkpt>
      <trkpt lat="43.35539" lon="2.67547">
        <ele>425</ele>
        <time>2020-10-11T14:53:13.000Z</time>
      </trkpt>
      <trkpt lat="43.35538" lon="2.6755">
        <ele>425</ele>
        <time>2020-10-11T14:53:14.000Z</time>
      </trkpt>
      <trkpt lat="43.35538" lon="2.67554">
        <ele>425</ele>
        <time>2020-10-11T14:53:15.000Z</time>
      </trkpt>
      <trkpt lat="43.35542" lon="2.67564">
        <ele>424</ele>
        <time>2020-10-11T14:53:18.000Z</time>
      </trkpt>
      <trkpt lat="43.35554" lon="2.67579">
        <ele>424</ele>
        <time>2020-10-11T14:53:23.000Z</time>
      </trkpt>
      <trkpt lat="43.35561" lon="2.67586">
        <ele>424</ele>
        <time>2020-10-11T14:53:26.000Z</time>
      </trkpt>
      <trkpt lat="43.35568" lon="2.67589">
        <ele>424</ele>
        <time>2020-10-11T14:53:30.000Z</time>
      </trkpt>
      <trkpt lat="43.35576" lon="2.67598">
        <ele>424</ele>
        <time>2020-10-11T14:53:35.000Z</time>
      </trkpt>
      <trkpt lat="43.35585" lon="2.67619">
        <ele>425</ele>
        <time>2020-10-11T14:53:42.000Z</time>
      </trkpt>
      <trkpt lat="43.35588" lon="2.67647">
        <ele>425</ele>
        <time>2020-10-11T14:53:48.000Z</time>
      </trkpt>
      <trkpt lat="43.35591" lon="2.6769">
        <ele>425</ele>
        <time>2020-10-11T14:53:58.000Z</time>
      </trkpt>
      <trkpt lat="43.35593" lon="2.67732">
        <ele>424</ele>
        <time>2020-10-11T14:54:08.000Z</time>
      </trkpt>
      <trkpt lat="43.35593" lon="2.67735">
        <ele>424</ele>
        <time>2020-10-11T14:54:09.000Z</time>
      </trkpt>
      <trkpt lat="43.35591" lon="2.67742">
        <ele>423</ele>
        <time>2020-10-11T14:54:14.000Z</time>
      </trkpt>
      <trkpt lat="43.35579" lon="2.67747">
        <ele>421</ele>
        <time>2020-10-11T14:54:25.000Z</time>
      </trkpt>
      <trkpt lat="43.35579" lon="2.67745">
        <ele>421</ele>
        <time>2020-10-11T14:54:33.000Z</time>
      </trkpt>
      <trkpt lat="43.3558" lon="2.67743">
        <ele>421</ele>
        <time>2020-10-11T14:54:34.000Z</time>
      </trkpt>
      <trkpt lat="43.3558" lon="2.67736">
        <ele>421</ele>
        <time>2020-10-11T14:54:42.000Z</time>
      </trkpt>
      <trkpt lat="43.35576" lon="2.67737">
        <ele>422</ele>
        <time>2020-10-11T14:54:48.000Z</time>
      </trkpt>
      <trkpt lat="43.35565" lon="2.67739">
        <ele>421</ele>
        <time>2020-10-11T14:54:52.000Z</time>
      </trkpt>
      <trkpt lat="43.35559" lon="2.67741">
        <ele>420</ele>
        <time>2020-10-11T14:54:54.000Z</time>
      </trkpt>
      <trkpt lat="43.35548" lon="2.67747">
        <ele>419</ele>
        <time>2020-10-11T14:54:57.000Z</time>
      </trkpt>
      <trkpt lat="43.35533" lon="2.67758">
        <ele>416</ele>
        <time>2020-10-11T14:55:01.000Z</time>
      </trkpt>
      <trkpt lat="43.35522" lon="2.67764">
        <ele>415</ele>
        <time>2020-10-11T14:55:04.000Z</time>
      </trkpt>
      <trkpt lat="43.35509" lon="2.67767">
        <ele>413</ele>
        <time>2020-10-11T14:55:08.000Z</time>
      </trkpt>
      <trkpt lat="43.355" lon="2.67768">
        <ele>411</ele>
        <time>2020-10-11T14:55:10.000Z</time>
      </trkpt>
      <trkpt lat="43.35485" lon="2.67766">
        <ele>410</ele>
        <time>2020-10-11T14:55:17.000Z</time>
      </trkpt>
      <trkpt lat="43.3548" lon="2.67765">
        <ele>408</ele>
        <time>2020-10-11T14:55:21.000Z</time>
      </trkpt>
      <trkpt lat="43.3548" lon="2.67764">
        <ele>407</ele>
        <time>2020-10-11T14:55:23.000Z</time>
      </trkpt>
      <trkpt lat="43.35474" lon="2.67762">
        <ele>407</ele>
        <time>2020-10-11T14:55:31.000Z</time>
      </trkpt>
      <trkpt lat="43.35471" lon="2.67761">
        <ele>408</ele>
        <time>2020-10-11T14:55:35.000Z</time>
      </trkpt>
      <trkpt lat="43.35466" lon="2.67763">
        <ele>408</ele>
        <time>2020-10-11T14:55:41.000Z</time>
      </trkpt>
      <trkpt lat="43.35465" lon="2.67762">
        <ele>409</ele>
        <time>2020-10-11T14:55:47.000Z</time>
      </trkpt>
      <trkpt lat="43.35465" lon="2.67763">
        <ele>409</ele>
        <time>2020-10-11T14:55:48.000Z</time>
      </trkpt>
      <trkpt lat="43.35458" lon="2.67765">
        <ele>409</ele>
        <time>2020-10-11T14:55:56.000Z</time>
      </trkpt>
      <trkpt lat="43.35452" lon="2.67763">
        <ele>410</ele>
        <time>2020-10-11T14:56:01.000Z</time>
      </trkpt>
      <trkpt lat="43.35445" lon="2.67762">
        <ele>410</ele>
        <time>2020-10-11T14:56:11.000Z</time>
      </trkpt>
      <trkpt lat="43.35429" lon="2.67755">
        <ele>410</ele>
        <time>2020-10-11T14:56:40.000Z</time>
      </trkpt>
      <trkpt lat="43.35423" lon="2.67757">
        <ele>409</ele>
        <time>2020-10-11T14:56:47.000Z</time>
      </trkpt>
      <trkpt lat="43.35417" lon="2.67761">
        <ele>409</ele>
        <time>2020-10-11T14:56:55.000Z</time>
      </trkpt>
      <trkpt lat="43.35414" lon="2.67761">
        <ele>410</ele>
        <time>2020-10-11T14:57:06.000Z</time>
      </trkpt>
      <trkpt lat="43.35409" lon="2.67768">
        <ele>409</ele>
        <time>2020-10-11T14:57:16.000Z</time>
      </trkpt>
      <trkpt lat="43.35403" lon="2.67772">
        <ele>409</ele>
        <time>2020-10-11T14:57:22.000Z</time>
      </trkpt>
      <trkpt lat="43.35396" lon="2.67771">
        <ele>410</ele>
        <time>2020-10-11T14:57:30.000Z</time>
      </trkpt>
      <trkpt lat="43.35387" lon="2.67777">
        <ele>410</ele>
        <time>2020-10-11T14:57:36.000Z</time>
      </trkpt>
      <trkpt lat="43.35376" lon="2.67787">
        <ele>410</ele>
        <time>2020-10-11T14:57:41.000Z</time>
      </trkpt>
      <trkpt lat="43.35369" lon="2.6779">
        <ele>410</ele>
        <time>2020-10-11T14:57:44.000Z</time>
      </trkpt>
      <trkpt lat="43.35363" lon="2.67796">
        <ele>410</ele>
        <time>2020-10-11T14:57:49.000Z</time>
      </trkpt>
      <trkpt lat="43.35359" lon="2.67796">
        <ele>410</ele>
        <time>2020-10-11T14:57:54.000Z</time>
      </trkpt>
      <trkpt lat="43.35358" lon="2.678">
        <ele>410</ele>
        <time>2020-10-11T14:57:59.000Z</time>
      </trkpt>
      <trkpt lat="43.35355" lon="2.67817">
        <ele>410</ele>
        <time>2020-10-11T14:58:07.000Z</time>
      </trkpt>
      <trkpt lat="43.35353" lon="2.67822">
        <ele>410</ele>
        <time>2020-10-11T14:58:09.000Z</time>
      </trkpt>
      <trkpt lat="43.35349" lon="2.67832">
        <ele>411</ele>
        <time>2020-10-11T14:58:13.000Z</time>
      </trkpt>
      <trkpt lat="43.35348" lon="2.67834">
        <ele>412</ele>
        <time>2020-10-11T14:58:14.000Z</time>
      </trkpt>
      <trkpt lat="43.35344" lon="2.67837">
        <ele>413</ele>
        <time>2020-10-11T14:58:17.000Z</time>
      </trkpt>
      <trkpt lat="43.35339" lon="2.67839">
        <ele>414</ele>
        <time>2020-10-11T14:58:20.000Z</time>
      </trkpt>
      <trkpt lat="43.3533" lon="2.67838">
        <ele>416</ele>
        <time>2020-10-11T14:58:27.000Z</time>
      </trkpt>
      <trkpt lat="43.35325" lon="2.67841">
        <ele>417</ele>
        <time>2020-10-11T14:58:31.000Z</time>
      </trkpt>
      <trkpt lat="43.35318" lon="2.67847">
        <ele>418</ele>
        <time>2020-10-11T14:58:37.000Z</time>
      </trkpt>
      <trkpt lat="43.35309" lon="2.67857">
        <ele>420</ele>
        <time>2020-10-11T14:58:52.000Z</time>
      </trkpt>
      <trkpt lat="43.35302" lon="2.67866">
        <ele>421</ele>
        <time>2020-10-11T14:59:00.000Z</time>
      </trkpt>
      <trkpt lat="43.35298" lon="2.67875">
        <ele>422</ele>
        <time>2020-10-11T14:59:07.000Z</time>
      </trkpt>
      <trkpt lat="43.35295" lon="2.67885">
        <ele>424</ele>
        <time>2020-10-11T14:59:14.000Z</time>
      </trkpt>
      <trkpt lat="43.35286" lon="2.67902">
        <ele>425</ele>
        <time>2020-10-11T14:59:27.000Z</time>
      </trkpt>
      <trkpt lat="43.35279" lon="2.67912">
        <ele>426</ele>
        <time>2020-10-11T14:59:35.000Z</time>
      </trkpt>
      <trkpt lat="43.35275" lon="2.67919">
        <ele>427</ele>
        <time>2020-10-11T14:59:40.000Z</time>
      </trkpt>
      <trkpt lat="43.35271" lon="2.67929">
        <ele>429</ele>
        <time>2020-10-11T14:59:47.000Z</time>
      </trkpt>
      <trkpt lat="43.3527" lon="2.67934">
        <ele>429</ele>
        <time>2020-10-11T14:59:50.000Z</time>
      </trkpt>
      <trkpt lat="43.35271" lon="2.67956">
        <ele>429</ele>
        <time>2020-10-11T15:00:01.000Z</time>
      </trkpt>
      <trkpt lat="43.3527" lon="2.67963">
        <ele>429</ele>
        <time>2020-10-11T15:00:05.000Z</time>
      </trkpt>
      <trkpt lat="43.35269" lon="2.67967">
        <ele>429</ele>
        <time>2020-10-11T15:00:07.000Z</time>
      </trkpt>
      <trkpt lat="43.35265" lon="2.67972">
        <ele>429</ele>
        <time>2020-10-11T15:00:11.000Z</time>
      </trkpt>
      <trkpt lat="43.35264" lon="2.67973">
        <ele>429</ele>
        <time>2020-10-11T15:00:12.000Z</time>
      </trkpt>
      <trkpt lat="43.35259" lon="2.67974">
        <ele>429</ele>
        <time>2020-10-11T15:00:16.000Z</time>
      </trkpt>
      <trkpt lat="43.35252" lon="2.67972">
        <ele>430</ele>
        <time>2020-10-11T15:00:22.000Z</time>
      </trkpt>
      <trkpt lat="43.35242" lon="2.67973">
        <ele>431</ele>
        <time>2020-10-11T15:00:29.000Z</time>
      </trkpt>
      <trkpt lat="43.35236" lon="2.67972">
        <ele>431</ele>
        <time>2020-10-11T15:00:34.000Z</time>
      </trkpt>
      <trkpt lat="43.35233" lon="2.6797">
        <ele>431</ele>
        <time>2020-10-11T15:00:37.000Z</time>
      </trkpt>
      <trkpt lat="43.3523" lon="2.67969">
        <ele>431</ele>
        <time>2020-10-11T15:00:40.000Z</time>
      </trkpt>
      <trkpt lat="43.35227" lon="2.6797">
        <ele>432</ele>
        <time>2020-10-11T15:00:43.000Z</time>
      </trkpt>
      <trkpt lat="43.35222" lon="2.67971">
        <ele>433</ele>
        <time>2020-10-11T15:00:47.000Z</time>
      </trkpt>
      <trkpt lat="43.35219" lon="2.67973">
        <ele>433</ele>
        <time>2020-10-11T15:00:50.000Z</time>
      </trkpt>
      <trkpt lat="43.35216" lon="2.67979">
        <ele>434</ele>
        <time>2020-10-11T15:00:54.000Z</time>
      </trkpt>
      <trkpt lat="43.35215" lon="2.67987">
        <ele>434</ele>
        <time>2020-10-11T15:01:00.000Z</time>
      </trkpt>
      <trkpt lat="43.35212" lon="2.67991">
        <ele>415.6</ele>
        <time>2020-10-11T15:01:10.000Z</time>
      </trkpt>
      <trkpt lat="43.35207" lon="2.67995">
        <ele>416.2</ele>
        <time>2020-10-11T15:01:20.000Z</time>
      </trkpt>
      <trkpt lat="43.35197" lon="2.68005">
        <ele>438</ele>
        <time>2020-10-11T15:03:58.000Z</time>
      </trkpt>
      <trkpt lat="43.3519" lon="2.68019">
        <ele>438</ele>
        <time>2020-10-11T15:04:03.000Z</time>
      </trkpt>
      <trkpt lat="43.35181" lon="2.68043">
        <ele>436</ele>
        <time>2020-10-11T15:04:08.000Z</time>
      </trkpt>
      <trkpt lat="43.35175" lon="2.68055">
        <ele>436</ele>
        <time>2020-10-11T15:04:11.000Z</time>
      </trkpt>
      <trkpt lat="43.35167" lon="2.6807">
        <ele>435</ele>
        <time>2020-10-11T15:04:15.000Z</time>
      </trkpt>
      <trkpt lat="43.35164" lon="2.68078">
        <ele>434</ele>
        <time>2020-10-11T15:04:18.000Z</time>
      </trkpt>
      <trkpt lat="43.35163" lon="2.68083">
        <ele>434</ele>
        <time>2020-10-11T15:04:23.000Z</time>
      </trkpt>
      <trkpt lat="43.35164" lon="2.68083">
        <ele>434</ele>
        <time>2020-10-11T15:05:00.000Z</time>
      </trkpt>
      <trkpt lat="43.35162" lon="2.68087">
        <ele>434</ele>
        <time>2020-10-11T15:05:03.000Z</time>
      </trkpt>
      <trkpt lat="43.35117" lon="2.6819">
        <ele>428</ele>
        <time>2020-10-11T15:05:18.000Z</time>
      </trkpt>
      <trkpt lat="43.35097" lon="2.68242">
        <ele>424</ele>
        <time>2020-10-11T15:05:25.000Z</time>
      </trkpt>
      <trkpt lat="43.35095" lon="2.68252">
        <ele>422</ele>
        <time>2020-10-11T15:05:27.000Z</time>
      </trkpt>
      <trkpt lat="43.35093" lon="2.6827">
        <ele>421</ele>
        <time>2020-10-11T15:05:31.000Z</time>
      </trkpt>
      <trkpt lat="43.35092" lon="2.68282">
        <ele>420</ele>
        <time>2020-10-11T15:05:33.000Z</time>
      </trkpt>
      <trkpt lat="43.3509" lon="2.68295">
        <ele>418</ele>
        <time>2020-10-11T15:05:35.000Z</time>
      </trkpt>
      <trkpt lat="43.35087" lon="2.6831">
        <ele>417</ele>
        <time>2020-10-11T15:05:37.000Z</time>
      </trkpt>
      <trkpt lat="43.35081" lon="2.68325">
        <ele>416</ele>
        <time>2020-10-11T15:05:39.000Z</time>
      </trkpt>
      <trkpt lat="43.35075" lon="2.68335">
        <ele>415</ele>
        <time>2020-10-11T15:05:41.000Z</time>
      </trkpt>
      <trkpt lat="43.35072" lon="2.68343">
        <ele>414</ele>
        <time>2020-10-11T15:05:43.000Z</time>
      </trkpt>
      <trkpt lat="43.35072" lon="2.68347">
        <ele>413</ele>
        <time>2020-10-11T15:05:44.000Z</time>
      </trkpt>
      <trkpt lat="43.35078" lon="2.68362">
        <ele>411</ele>
        <time>2020-10-11T15:05:48.000Z</time>
      </trkpt>
      <trkpt lat="43.35078" lon="2.68371">
        <ele>410</ele>
        <time>2020-10-11T15:05:50.000Z</time>
      </trkpt>
      <trkpt lat="43.35075" lon="2.68381">
        <ele>408</ele>
        <time>2020-10-11T15:05:52.000Z</time>
      </trkpt>
      <trkpt lat="43.35067" lon="2.68394">
        <ele>407</ele>
        <time>2020-10-11T15:05:54.000Z</time>
      </trkpt>
      <trkpt lat="43.35057" lon="2.68407">
        <ele>407</ele>
        <time>2020-10-11T15:05:56.000Z</time>
      </trkpt>
      <trkpt lat="43.35002" lon="2.68475">
        <ele>400</ele>
        <time>2020-10-11T15:06:04.000Z</time>
      </trkpt>
      <trkpt lat="43.34985" lon="2.68503">
        <ele>396</ele>
        <time>2020-10-11T15:06:09.000Z</time>
      </trkpt>
      <trkpt lat="43.34968" lon="2.68523">
        <ele>392</ele>
        <time>2020-10-11T15:06:13.000Z</time>
      </trkpt>
      <trkpt lat="43.34963" lon="2.68534">
        <ele>392</ele>
        <time>2020-10-11T15:06:15.000Z</time>
      </trkpt>
      <trkpt lat="43.34961" lon="2.6854">
        <ele>391</ele>
        <time>2020-10-11T15:06:16.000Z</time>
      </trkpt>
      <trkpt lat="43.34959" lon="2.68554">
        <ele>388</ele>
        <time>2020-10-11T15:06:18.000Z</time>
      </trkpt>
      <trkpt lat="43.34958" lon="2.68567">
        <ele>386</ele>
        <time>2020-10-11T15:06:20.000Z</time>
      </trkpt>
      <trkpt lat="43.34958" lon="2.68573">
        <ele>385</ele>
        <time>2020-10-11T15:06:21.000Z</time>
      </trkpt>
      <trkpt lat="43.3496" lon="2.68583">
        <ele>384</ele>
        <time>2020-10-11T15:06:23.000Z</time>
      </trkpt>
      <trkpt lat="43.34964" lon="2.6859">
        <ele>382</ele>
        <time>2020-10-11T15:06:25.000Z</time>
      </trkpt>
      <trkpt lat="43.34969" lon="2.68594">
        <ele>381</ele>
        <time>2020-10-11T15:06:27.000Z</time>
      </trkpt>
      <trkpt lat="43.34973" lon="2.68595">
        <ele>380</ele>
        <time>2020-10-11T15:06:28.000Z</time>
      </trkpt>
      <trkpt lat="43.34976" lon="2.68593">
        <ele>378</ele>
        <time>2020-10-11T15:06:29.000Z</time>
      </trkpt>
      <trkpt lat="43.34988" lon="2.68585">
        <ele>375</ele>
        <time>2020-10-11T15:06:32.000Z</time>
      </trkpt>
      <trkpt lat="43.34997" lon="2.68583">
        <ele>374</ele>
        <time>2020-10-11T15:06:34.000Z</time>
      </trkpt>
      <trkpt lat="43.35001" lon="2.68582">
        <ele>374</ele>
        <time>2020-10-11T15:06:35.000Z</time>
      </trkpt>
      <trkpt lat="43.35008" lon="2.68584">
        <ele>374</ele>
        <time>2020-10-11T15:06:37.000Z</time>
      </trkpt>
      <trkpt lat="43.35009" lon="2.68598">
        <ele>375</ele>
        <time>2020-10-11T15:06:40.000Z</time>
      </trkpt>
      <trkpt lat="43.34988" lon="2.68628">
        <ele>374</ele>
        <time>2020-10-11T15:06:46.000Z</time>
      </trkpt>
      <trkpt lat="43.34983" lon="2.68642">
        <ele>373</ele>
        <time>2020-10-11T15:06:48.000Z</time>
      </trkpt>
      <trkpt lat="43.34982" lon="2.6865">
        <ele>373</ele>
        <time>2020-10-11T15:06:49.000Z</time>
      </trkpt>
      <trkpt lat="43.34981" lon="2.68658">
        <ele>373</ele>
        <time>2020-10-11T15:06:50.000Z</time>
      </trkpt>
      <trkpt lat="43.34984" lon="2.68675">
        <ele>372</ele>
        <time>2020-10-11T15:06:53.000Z</time>
      </trkpt>
      <trkpt lat="43.34986" lon="2.68678">
        <ele>372</ele>
        <time>2020-10-11T15:06:54.000Z</time>
      </trkpt>
      <trkpt lat="43.34988" lon="2.68679">
        <ele>372</ele>
        <time>2020-10-11T15:06:55.000Z</time>
      </trkpt>
      <trkpt lat="43.3499" lon="2.68678">
        <ele>371</ele>
        <time>2020-10-11T15:06:56.000Z</time>
      </trkpt>
      <trkpt lat="43.34996" lon="2.68671">
        <ele>371</ele>
        <time>2020-10-11T15:06:59.000Z</time>
      </trkpt>
      <trkpt lat="43.35001" lon="2.68661">
        <ele>370</ele>
        <time>2020-10-11T15:07:02.000Z</time>
      </trkpt>
      <trkpt lat="43.35006" lon="2.68655">
        <ele>370</ele>
        <time>2020-10-11T15:07:04.000Z</time>
      </trkpt>
      <trkpt lat="43.35011" lon="2.68652">
        <ele>370</ele>
        <time>2020-10-11T15:07:06.000Z</time>
      </trkpt>
      <trkpt lat="43.35017" lon="2.68648">
        <ele>370</ele>
        <time>2020-10-11T15:07:08.000Z</time>
      </trkpt>
      <trkpt lat="43.35029" lon="2.6863">
        <ele>368</ele>
        <time>2020-10-11T15:07:14.000Z</time>
      </trkpt>
      <trkpt lat="43.35048" lon="2.68604">
        <ele>369</ele>
        <time>2020-10-11T15:07:22.000Z</time>
      </trkpt>
      <trkpt lat="43.35062" lon="2.6859">
        <ele>369</ele>
        <time>2020-10-11T15:07:27.000Z</time>
      </trkpt>
      <trkpt lat="43.35073" lon="2.68581">
        <ele>370</ele>
        <time>2020-10-11T15:07:31.000Z</time>
      </trkpt>
      <trkpt lat="43.35086" lon="2.68573">
        <ele>370</ele>
        <time>2020-10-11T15:07:36.000Z</time>
      </trkpt>
      <trkpt lat="43.35098" lon="2.68566">
        <ele>370</ele>
        <time>2020-10-11T15:07:41.000Z</time>
      </trkpt>
      <trkpt lat="43.3512" lon="2.68556">
        <ele>371</ele>
        <time>2020-10-11T15:07:50.000Z</time>
      </trkpt>
      <trkpt lat="43.35172" lon="2.68544">
        <ele>368</ele>
        <time>2020-10-11T15:08:09.000Z</time>
      </trkpt>
      <trkpt lat="43.35193" lon="2.68538">
        <ele>367</ele>
        <time>2020-10-11T15:08:16.000Z</time>
      </trkpt>
      <trkpt lat="43.35198" lon="2.68537">
        <ele>367</ele>
        <time>2020-10-11T15:08:18.000Z</time>
      </trkpt>
      <trkpt lat="43.35213" lon="2.68535">
        <ele>367</ele>
        <time>2020-10-11T15:08:23.000Z</time>
      </trkpt>
      <trkpt lat="43.35241" lon="2.68528">
        <ele>365</ele>
        <time>2020-10-11T15:08:33.000Z</time>
      </trkpt>
      <trkpt lat="43.35248" lon="2.68531">
        <ele>365</ele>
        <time>2020-10-11T15:08:36.000Z</time>
      </trkpt>
      <trkpt lat="43.35249" lon="2.68534">
        <ele>365</ele>
        <time>2020-10-11T15:08:37.000Z</time>
      </trkpt>
      <trkpt lat="43.3525" lon="2.68562">
        <ele>363</ele>
        <time>2020-10-11T15:08:42.000Z</time>
      </trkpt>
      <trkpt lat="43.35253" lon="2.68573">
        <ele>362</ele>
        <time>2020-10-11T15:08:44.000Z</time>
      </trkpt>
      <trkpt lat="43.35254" lon="2.68578">
        <ele>362</ele>
        <time>2020-10-11T15:08:46.000Z</time>
      </trkpt>
      <trkpt lat="43.35252" lon="2.68588">
        <ele>361</ele>
        <time>2020-10-11T15:08:50.000Z</time>
      </trkpt>
      <trkpt lat="43.35238" lon="2.68592">
        <ele>361</ele>
        <time>2020-10-11T15:08:55.000Z</time>
      </trkpt>
      <trkpt lat="43.35236" lon="2.68594">
        <ele>361</ele>
        <time>2020-10-11T15:08:56.000Z</time>
      </trkpt>
      <trkpt lat="43.35235" lon="2.68597">
        <ele>361</ele>
        <time>2020-10-11T15:08:57.000Z</time>
      </trkpt>
      <trkpt lat="43.35235" lon="2.68607">
        <ele>361</ele>
        <time>2020-10-11T15:08:59.000Z</time>
      </trkpt>
      <trkpt lat="43.35236" lon="2.68612">
        <ele>360</ele>
        <time>2020-10-11T15:09:00.000Z</time>
      </trkpt>
      <trkpt lat="43.35244" lon="2.68632">
        <ele>361</ele>
        <time>2020-10-11T15:09:05.000Z</time>
      </trkpt>
      <trkpt lat="43.35255" lon="2.68655">
        <ele>362</ele>
        <time>2020-10-11T15:09:11.000Z</time>
      </trkpt>
      <trkpt lat="43.3526" lon="2.68664">
        <ele>361</ele>
        <time>2020-10-11T15:09:13.000Z</time>
      </trkpt>
      <trkpt lat="43.35292" lon="2.68704">
        <ele>357</ele>
        <time>2020-10-11T15:09:20.000Z</time>
      </trkpt>
      <trkpt lat="43.35322" lon="2.68739">
        <ele>357</ele>
        <time>2020-10-11T15:09:26.000Z</time>
      </trkpt>
      <trkpt lat="43.35334" lon="2.68757">
        <ele>357</ele>
        <time>2020-10-11T15:09:30.000Z</time>
      </trkpt>
      <trkpt lat="43.35347" lon="2.68781">
        <ele>358</ele>
        <time>2020-10-11T15:09:34.000Z</time>
      </trkpt>
      <trkpt lat="43.35353" lon="2.68801">
        <ele>360</ele>
        <time>2020-10-11T15:09:38.000Z</time>
      </trkpt>
      <trkpt lat="43.35358" lon="2.68818">
        <ele>361</ele>
        <time>2020-10-11T15:09:42.000Z</time>
      </trkpt>
      <trkpt lat="43.35361" lon="2.68849">
        <ele>362</ele>
        <time>2020-10-11T15:09:49.000Z</time>
      </trkpt>
      <trkpt lat="43.35364" lon="2.68866">
        <ele>363</ele>
        <time>2020-10-11T15:09:53.000Z</time>
      </trkpt>
      <trkpt lat="43.35366" lon="2.68877">
        <ele>363</ele>
        <time>2020-10-11T15:09:56.000Z</time>
      </trkpt>
      <trkpt lat="43.3537" lon="2.68883">
        <ele>363</ele>
        <time>2020-10-11T15:09:58.000Z</time>
      </trkpt>
      <trkpt lat="43.35374" lon="2.6889">
        <ele>363</ele>
        <time>2020-10-11T15:10:00.000Z</time>
      </trkpt>
      <trkpt lat="43.35385" lon="2.68903">
        <ele>364</ele>
        <time>2020-10-11T15:10:05.000Z</time>
      </trkpt>
      <trkpt lat="43.35394" lon="2.68913">
        <ele>365</ele>
        <time>2020-10-11T15:10:09.000Z</time>
      </trkpt>
      <trkpt lat="43.35403" lon="2.68922">
        <ele>365</ele>
        <time>2020-10-11T15:10:13.000Z</time>
      </trkpt>
      <trkpt lat="43.35411" lon="2.68929">
        <ele>365</ele>
        <time>2020-10-11T15:10:16.000Z</time>
      </trkpt>
      <trkpt lat="43.35418" lon="2.68933">
        <ele>366</ele>
        <time>2020-10-11T15:10:19.000Z</time>
      </trkpt>
      <trkpt lat="43.35446" lon="2.6895">
        <ele>367</ele>
        <time>2020-10-11T15:10:30.000Z</time>
      </trkpt>
      <trkpt lat="43.35447" lon="2.68952">
        <ele>368</ele>
        <time>2020-10-11T15:10:31.000Z</time>
      </trkpt>
      <trkpt lat="43.35457" lon="2.68978">
        <ele>369</ele>
        <time>2020-10-11T15:10:39.000Z</time>
      </trkpt>
      <trkpt lat="43.35462" lon="2.68987">
        <ele>369</ele>
        <time>2020-10-11T15:10:42.000Z</time>
      </trkpt>
      <trkpt lat="43.35471" lon="2.69009">
        <ele>369</ele>
        <time>2020-10-11T15:10:49.000Z</time>
      </trkpt>
      <trkpt lat="43.35476" lon="2.69018">
        <ele>370</ele>
        <time>2020-10-11T15:10:52.000Z</time>
      </trkpt>
      <trkpt lat="43.35494" lon="2.69062">
        <ele>371</ele>
        <time>2020-10-11T15:11:05.000Z</time>
      </trkpt>
      <trkpt lat="43.35499" lon="2.69074">
        <ele>371</ele>
        <time>2020-10-11T15:11:08.000Z</time>
      </trkpt>
      <trkpt lat="43.35506" lon="2.691">
        <ele>370</ele>
        <time>2020-10-11T15:11:13.000Z</time>
      </trkpt>
      <trkpt lat="43.35512" lon="2.69123">
        <ele>369</ele>
        <time>2020-10-11T15:11:17.000Z</time>
      </trkpt>
      <trkpt lat="43.35513" lon="2.69136">
        <ele>369</ele>
        <time>2020-10-11T15:11:19.000Z</time>
      </trkpt>
      <trkpt lat="43.35514" lon="2.69154">
        <ele>368</ele>
        <time>2020-10-11T15:11:22.000Z</time>
      </trkpt>
      <trkpt lat="43.35516" lon="2.69204">
        <ele>369</ele>
        <time>2020-10-11T15:11:30.000Z</time>
      </trkpt>
      <trkpt lat="43.35516" lon="2.6923">
        <ele>370</ele>
        <time>2020-10-11T15:11:34.000Z</time>
      </trkpt>
      <trkpt lat="43.35516" lon="2.69244">
        <ele>370</ele>
        <time>2020-10-11T15:11:36.000Z</time>
      </trkpt>
      <trkpt lat="43.35507" lon="2.69272">
        <ele>368</ele>
        <time>2020-10-11T15:11:40.000Z</time>
      </trkpt>
      <trkpt lat="43.35505" lon="2.69276">
        <ele>368</ele>
        <time>2020-10-11T15:11:41.000Z</time>
      </trkpt>
      <trkpt lat="43.355" lon="2.69295">
        <ele>367</ele>
        <time>2020-10-11T15:11:44.000Z</time>
      </trkpt>
      <trkpt lat="43.355" lon="2.69301">
        <ele>367</ele>
        <time>2020-10-11T15:11:45.000Z</time>
      </trkpt>
      <trkpt lat="43.35505" lon="2.69331">
        <ele>367</ele>
        <time>2020-10-11T15:11:49.000Z</time>
      </trkpt>
      <trkpt lat="43.35506" lon="2.69355">
        <ele>366</ele>
        <time>2020-10-11T15:11:52.000Z</time>
      </trkpt>
      <trkpt lat="43.35505" lon="2.6938">
        <ele>365</ele>
        <time>2020-10-11T15:11:55.000Z</time>
      </trkpt>
      <trkpt lat="43.35504" lon="2.69389">
        <ele>365</ele>
        <time>2020-10-11T15:11:56.000Z</time>
      </trkpt>
      <trkpt lat="43.35499" lon="2.69418">
        <ele>364</ele>
        <time>2020-10-11T15:11:59.000Z</time>
      </trkpt>
      <trkpt lat="43.35497" lon="2.69427">
        <ele>363</ele>
        <time>2020-10-11T15:12:00.000Z</time>
      </trkpt>
      <trkpt lat="43.35487" lon="2.69452">
        <ele>362</ele>
        <time>2020-10-11T15:12:03.000Z</time>
      </trkpt>
      <trkpt lat="43.35484" lon="2.69469">
        <ele>361</ele>
        <time>2020-10-11T15:12:05.000Z</time>
      </trkpt>
      <trkpt lat="43.35483" lon="2.69494">
        <ele>359</ele>
        <time>2020-10-11T15:12:08.000Z</time>
      </trkpt>
      <trkpt lat="43.35482" lon="2.69501">
        <ele>358</ele>
        <time>2020-10-11T15:12:09.000Z</time>
      </trkpt>
      <trkpt lat="43.3548" lon="2.69508">
        <ele>357</ele>
        <time>2020-10-11T15:12:10.000Z</time>
      </trkpt>
      <trkpt lat="43.35472" lon="2.6952">
        <ele>356</ele>
        <time>2020-10-11T15:12:12.000Z</time>
      </trkpt>
      <trkpt lat="43.35458" lon="2.69539">
        <ele>354</ele>
        <time>2020-10-11T15:12:15.000Z</time>
      </trkpt>
      <trkpt lat="43.35439" lon="2.69567">
        <ele>351</ele>
        <time>2020-10-11T15:12:19.000Z</time>
      </trkpt>
      <trkpt lat="43.35429" lon="2.69586">
        <ele>350</ele>
        <time>2020-10-11T15:12:22.000Z</time>
      </trkpt>
      <trkpt lat="43.35419" lon="2.69607">
        <ele>348</ele>
        <time>2020-10-11T15:12:25.000Z</time>
      </trkpt>
      <trkpt lat="43.35413" lon="2.69627">
        <ele>345</ele>
        <time>2020-10-11T15:12:28.000Z</time>
      </trkpt>
      <trkpt lat="43.3541" lon="2.69634">
        <ele>344</ele>
        <time>2020-10-11T15:12:29.000Z</time>
      </trkpt>
      <trkpt lat="43.35402" lon="2.69646">
        <ele>342</ele>
        <time>2020-10-11T15:12:31.000Z</time>
      </trkpt>
      <trkpt lat="43.35393" lon="2.69656">
        <ele>342</ele>
        <time>2020-10-11T15:12:33.000Z</time>
      </trkpt>
      <trkpt lat="43.35369" lon="2.6968">
        <ele>337</ele>
        <time>2020-10-11T15:12:38.000Z</time>
      </trkpt>
      <trkpt lat="43.35349" lon="2.69696">
        <ele>335</ele>
        <time>2020-10-11T15:12:43.000Z</time>
      </trkpt>
      <trkpt lat="43.35338" lon="2.69704">
        <ele>333</ele>
        <time>2020-10-11T15:12:45.000Z</time>
      </trkpt>
      <trkpt lat="43.35327" lon="2.6971">
        <ele>332</ele>
        <time>2020-10-11T15:12:47.000Z</time>
      </trkpt>
      <trkpt lat="43.35323" lon="2.69713">
        <ele>331</ele>
        <time>2020-10-11T15:12:48.000Z</time>
      </trkpt>
      <trkpt lat="43.35319" lon="2.69717">
        <ele>330</ele>
        <time>2020-10-11T15:12:49.000Z</time>
      </trkpt>
      <trkpt lat="43.35314" lon="2.69731">
        <ele>329</ele>
        <time>2020-10-11T15:12:51.000Z</time>
      </trkpt>
      <trkpt lat="43.3531" lon="2.69755">
        <ele>327</ele>
        <time>2020-10-11T15:12:54.000Z</time>
      </trkpt>
      <trkpt lat="43.3531" lon="2.69772">
        <ele>326</ele>
        <time>2020-10-11T15:12:56.000Z</time>
      </trkpt>
      <trkpt lat="43.35311" lon="2.6978">
        <ele>326</ele>
        <time>2020-10-11T15:12:57.000Z</time>
      </trkpt>
      <trkpt lat="43.35315" lon="2.69793">
        <ele>326</ele>
        <time>2020-10-11T15:12:59.000Z</time>
      </trkpt>
      <trkpt lat="43.35316" lon="2.69798">
        <ele>325</ele>
        <time>2020-10-11T15:13:00.000Z</time>
      </trkpt>
      <trkpt lat="43.35316" lon="2.69803">
        <ele>325</ele>
        <time>2020-10-11T15:13:01.000Z</time>
      </trkpt>
      <trkpt lat="43.35315" lon="2.69808">
        <ele>325</ele>
        <time>2020-10-11T15:13:02.000Z</time>
      </trkpt>
      <trkpt lat="43.35313" lon="2.69811">
        <ele>325</ele>
        <time>2020-10-11T15:13:03.000Z</time>
      </trkpt>
      <trkpt lat="43.35292" lon="2.69835">
        <ele>323</ele>
        <time>2020-10-11T15:13:09.000Z</time>
      </trkpt>
      <trkpt lat="43.3528" lon="2.69843">
        <ele>321</ele>
        <time>2020-10-11T15:13:12.000Z</time>
      </trkpt>
      <trkpt lat="43.35266" lon="2.6985">
        <ele>319</ele>
        <time>2020-10-11T15:13:15.000Z</time>
      </trkpt>
      <trkpt lat="43.35258" lon="2.69856">
        <ele>318</ele>
        <time>2020-10-11T15:13:17.000Z</time>
      </trkpt>
      <trkpt lat="43.35253" lon="2.69865">
        <ele>318</ele>
        <time>2020-10-11T15:13:19.000Z</time>
      </trkpt>
      <trkpt lat="43.35252" lon="2.6987">
        <ele>318</ele>
        <time>2020-10-11T15:13:20.000Z</time>
      </trkpt>
      <trkpt lat="43.35251" lon="2.69887">
        <ele>316</ele>
        <time>2020-10-11T15:13:23.000Z</time>
      </trkpt>
      <trkpt lat="43.35248" lon="2.69897">
        <ele>315</ele>
        <time>2020-10-11T15:13:25.000Z</time>
      </trkpt>
      <trkpt lat="43.35246" lon="2.69901">
        <ele>315</ele>
        <time>2020-10-11T15:13:26.000Z</time>
      </trkpt>
      <trkpt lat="43.35242" lon="2.69905">
        <ele>315</ele>
        <time>2020-10-11T15:13:27.000Z</time>
      </trkpt>
      <trkpt lat="43.35235" lon="2.69909">
        <ele>314</ele>
        <time>2020-10-11T15:13:29.000Z</time>
      </trkpt>
      <trkpt lat="43.35231" lon="2.69911">
        <ele>314</ele>
        <time>2020-10-11T15:13:30.000Z</time>
      </trkpt>
      <trkpt lat="43.35202" lon="2.6991">
        <ele>313</ele>
        <time>2020-10-11T15:13:37.000Z</time>
      </trkpt>
      <trkpt lat="43.35198" lon="2.69911">
        <ele>313</ele>
        <time>2020-10-11T15:13:38.000Z</time>
      </trkpt>
      <trkpt lat="43.35193" lon="2.69915">
        <ele>313</ele>
        <time>2020-10-11T15:13:40.000Z</time>
      </trkpt>
      <trkpt lat="43.3519" lon="2.69922">
        <ele>313</ele>
        <time>2020-10-11T15:13:42.000Z</time>
      </trkpt>
      <trkpt lat="43.35182" lon="2.69953">
        <ele>312</ele>
        <time>2020-10-11T15:13:47.000Z</time>
      </trkpt>
      <trkpt lat="43.35172" lon="2.69984">
        <ele>310</ele>
        <time>2020-10-11T15:13:51.000Z</time>
      </trkpt>
      <trkpt lat="43.35164" lon="2.70014">
        <ele>308</ele>
        <time>2020-10-11T15:13:55.000Z</time>
      </trkpt>
      <trkpt lat="43.35161" lon="2.7003">
        <ele>307</ele>
        <time>2020-10-11T15:13:57.000Z</time>
      </trkpt>
      <trkpt lat="43.3516" lon="2.70045">
        <ele>306</ele>
        <time>2020-10-11T15:13:59.000Z</time>
      </trkpt>
      <trkpt lat="43.35157" lon="2.70061">
        <ele>304</ele>
        <time>2020-10-11T15:14:01.000Z</time>
      </trkpt>
      <trkpt lat="43.35154" lon="2.70068">
        <ele>303</ele>
        <time>2020-10-11T15:14:02.000Z</time>
      </trkpt>
      <trkpt lat="43.3514" lon="2.70097">
        <ele>302</ele>
        <time>2020-10-11T15:14:06.000Z</time>
      </trkpt>
      <trkpt lat="43.35132" lon="2.70122">
        <ele>300</ele>
        <time>2020-10-11T15:14:09.000Z</time>
      </trkpt>
      <trkpt lat="43.35127" lon="2.70144">
        <ele>298</ele>
        <time>2020-10-11T15:14:12.000Z</time>
      </trkpt>
      <trkpt lat="43.35125" lon="2.70154">
        <ele>297</ele>
        <time>2020-10-11T15:14:14.000Z</time>
      </trkpt>
      <trkpt lat="43.35126" lon="2.70166">
        <ele>295</ele>
        <time>2020-10-11T15:14:17.000Z</time>
      </trkpt>
      <trkpt lat="43.35126" lon="2.70169">
        <ele>295</ele>
        <time>2020-10-11T15:14:18.000Z</time>
      </trkpt>
      <trkpt lat="43.35122" lon="2.7019">
        <ele>292</ele>
        <time>2020-10-11T15:14:22.000Z</time>
      </trkpt>
      <trkpt lat="43.35118" lon="2.70214">
        <ele>290</ele>
        <time>2020-10-11T15:14:26.000Z</time>
      </trkpt>
      <trkpt lat="43.35107" lon="2.70244">
        <ele>287</ele>
        <time>2020-10-11T15:14:31.000Z</time>
      </trkpt>
      <trkpt lat="43.35105" lon="2.70251">
        <ele>287</ele>
        <time>2020-10-11T15:14:32.000Z</time>
      </trkpt>
      <trkpt lat="43.35103" lon="2.70267">
        <ele>285</ele>
        <time>2020-10-11T15:14:34.000Z</time>
      </trkpt>
      <trkpt lat="43.35102" lon="2.70292">
        <ele>283</ele>
        <time>2020-10-11T15:14:38.000Z</time>
      </trkpt>
      <trkpt lat="43.35095" lon="2.70304">
        <ele>283</ele>
        <time>2020-10-11T15:14:41.000Z</time>
      </trkpt>
      <trkpt lat="43.35092" lon="2.70305">
        <ele>282</ele>
        <time>2020-10-11T15:14:42.000Z</time>
      </trkpt>
      <trkpt lat="43.35082" lon="2.70305">
        <ele>281</ele>
        <time>2020-10-11T15:14:46.000Z</time>
      </trkpt>
      <trkpt lat="43.35071" lon="2.70311">
        <ele>282</ele>
        <time>2020-10-11T15:14:50.000Z</time>
      </trkpt>
      <trkpt lat="43.35065" lon="2.7032">
        <ele>283</ele>
        <time>2020-10-11T15:14:53.000Z</time>
      </trkpt>
      <trkpt lat="43.35061" lon="2.70328">
        <ele>283</ele>
        <time>2020-10-11T15:14:55.000Z</time>
      </trkpt>
      <trkpt lat="43.35055" lon="2.70341">
        <ele>283</ele>
        <time>2020-10-11T15:14:58.000Z</time>
      </trkpt>
      <trkpt lat="43.3505" lon="2.7035">
        <ele>283</ele>
        <time>2020-10-11T15:15:00.000Z</time>
      </trkpt>
      <trkpt lat="43.35031" lon="2.70383">
        <ele>283</ele>
        <time>2020-10-11T15:15:07.000Z</time>
      </trkpt>
      <trkpt lat="43.35018" lon="2.70408">
        <ele>282</ele>
        <time>2020-10-11T15:15:12.000Z</time>
      </trkpt>
      <trkpt lat="43.35014" lon="2.7042">
        <ele>281</ele>
        <time>2020-10-11T15:15:14.000Z</time>
      </trkpt>
      <trkpt lat="43.3501" lon="2.70441">
        <ele>278</ele>
        <time>2020-10-11T15:15:17.000Z</time>
      </trkpt>
      <trkpt lat="43.35008" lon="2.70448">
        <ele>277</ele>
        <time>2020-10-11T15:15:18.000Z</time>
      </trkpt>
      <trkpt lat="43.35004" lon="2.70456">
        <ele>276</ele>
        <time>2020-10-11T15:15:19.000Z</time>
      </trkpt>
      <trkpt lat="43.34993" lon="2.70478">
        <ele>273</ele>
        <time>2020-10-11T15:15:22.000Z</time>
      </trkpt>
      <trkpt lat="43.3499" lon="2.70485">
        <ele>273</ele>
        <time>2020-10-11T15:15:23.000Z</time>
      </trkpt>
      <trkpt lat="43.34984" lon="2.70508">
        <ele>270</ele>
        <time>2020-10-11T15:15:26.000Z</time>
      </trkpt>
      <trkpt lat="43.34977" lon="2.70522">
        <ele>269</ele>
        <time>2020-10-11T15:15:28.000Z</time>
      </trkpt>
      <trkpt lat="43.34967" lon="2.70535">
        <ele>268</ele>
        <time>2020-10-11T15:15:30.000Z</time>
      </trkpt>
      <trkpt lat="43.3495" lon="2.70552">
        <ele>267</ele>
        <time>2020-10-11T15:15:33.000Z</time>
      </trkpt>
      <trkpt lat="43.34944" lon="2.70558">
        <ele>267</ele>
        <time>2020-10-11T15:15:34.000Z</time>
      </trkpt>
      <trkpt lat="43.34927" lon="2.70571">
        <ele>266</ele>
        <time>2020-10-11T15:15:37.000Z</time>
      </trkpt>
      <trkpt lat="43.34922" lon="2.70576">
        <ele>266</ele>
        <time>2020-10-11T15:15:38.000Z</time>
      </trkpt>
      <trkpt lat="43.34916" lon="2.70585">
        <ele>265</ele>
        <time>2020-10-11T15:15:40.000Z</time>
      </trkpt>
      <trkpt lat="43.34915" lon="2.7059">
        <ele>264</ele>
        <time>2020-10-11T15:15:41.000Z</time>
      </trkpt>
      <trkpt lat="43.3491" lon="2.70602">
        <ele>263</ele>
        <time>2020-10-11T15:15:43.000Z</time>
      </trkpt>
      <trkpt lat="43.34906" lon="2.70607">
        <ele>262</ele>
        <time>2020-10-11T15:15:44.000Z</time>
      </trkpt>
      <trkpt lat="43.34901" lon="2.7061">
        <ele>262</ele>
        <time>2020-10-11T15:15:45.000Z</time>
      </trkpt>
      <trkpt lat="43.34896" lon="2.70613">
        <ele>261</ele>
        <time>2020-10-11T15:15:46.000Z</time>
      </trkpt>
      <trkpt lat="43.34878" lon="2.70619">
        <ele>260</ele>
        <time>2020-10-11T15:15:49.000Z</time>
      </trkpt>
      <trkpt lat="43.34844" lon="2.70634">
        <ele>260</ele>
        <time>2020-10-11T15:15:55.000Z</time>
      </trkpt>
      <trkpt lat="43.34815" lon="2.70642">
        <ele>259</ele>
        <time>2020-10-11T15:16:00.000Z</time>
      </trkpt>
      <trkpt lat="43.34781" lon="2.70653">
        <ele>257</ele>
        <time>2020-10-11T15:16:06.000Z</time>
      </trkpt>
      <trkpt lat="43.34766" lon="2.70656">
        <ele>257</ele>
        <time>2020-10-11T15:16:09.000Z</time>
      </trkpt>
      <trkpt lat="43.34755" lon="2.70656">
        <ele>257</ele>
        <time>2020-10-11T15:16:11.000Z</time>
      </trkpt>
      <trkpt lat="43.34703" lon="2.7065">
        <ele>248</ele>
        <time>2020-10-11T15:16:18.000Z</time>
      </trkpt>
      <trkpt lat="43.34689" lon="2.70651">
        <ele>246</ele>
        <time>2020-10-11T15:16:20.000Z</time>
      </trkpt>
      <trkpt lat="43.34677" lon="2.70651">
        <ele>245</ele>
        <time>2020-10-11T15:16:22.000Z</time>
      </trkpt>
      <trkpt lat="43.3464" lon="2.70646">
        <ele>244</ele>
        <time>2020-10-11T15:16:28.000Z</time>
      </trkpt>
      <trkpt lat="43.34625" lon="2.70646">
        <ele>245</ele>
        <time>2020-10-11T15:16:31.000Z</time>
      </trkpt>
      <trkpt lat="43.34617" lon="2.70647">
        <ele>246</ele>
        <time>2020-10-11T15:16:34.000Z</time>
      </trkpt>
      <trkpt lat="43.34613" lon="2.70647">
        <ele>247</ele>
        <time>2020-10-11T15:16:36.000Z</time>
      </trkpt>
      <trkpt lat="43.3461" lon="2.70645">
        <ele>247</ele>
        <time>2020-10-11T15:16:38.000Z</time>
      </trkpt>
      <trkpt lat="43.34608" lon="2.70637">
        <ele>247</ele>
        <time>2020-10-11T15:16:41.000Z</time>
      </trkpt>
      <trkpt lat="43.34601" lon="2.70631">
        <ele>248</ele>
        <time>2020-10-11T15:16:45.000Z</time>
      </trkpt>
      <trkpt lat="43.3459" lon="2.70627">
        <ele>249</ele>
        <time>2020-10-11T15:16:50.000Z</time>
      </trkpt>
      <trkpt lat="43.3458" lon="2.70625">
        <ele>249</ele>
        <time>2020-10-11T15:16:54.000Z</time>
      </trkpt>
      <trkpt lat="43.34563" lon="2.70622">
        <ele>251</ele>
        <time>2020-10-11T15:17:02.000Z</time>
      </trkpt>
      <trkpt lat="43.34557" lon="2.70623">
        <ele>251</ele>
        <time>2020-10-11T15:17:05.000Z</time>
      </trkpt>
      <trkpt lat="43.34545" lon="2.70626">
        <ele>253</ele>
        <time>2020-10-11T15:17:12.000Z</time>
      </trkpt>
      <trkpt lat="43.34542" lon="2.70626">
        <ele>253</ele>
        <time>2020-10-11T15:17:14.000Z</time>
      </trkpt>
      <trkpt lat="43.34537" lon="2.70624">
        <ele>254</ele>
        <time>2020-10-11T15:17:18.000Z</time>
      </trkpt>
      <trkpt lat="43.34535" lon="2.70622">
        <ele>254</ele>
        <time>2020-10-11T15:17:20.000Z</time>
      </trkpt>
      <trkpt lat="43.34532" lon="2.70613">
        <ele>254</ele>
        <time>2020-10-11T15:17:24.000Z</time>
      </trkpt>
      <trkpt lat="43.34531" lon="2.7061">
        <ele>255</ele>
        <time>2020-10-11T15:17:26.000Z</time>
      </trkpt>
      <trkpt lat="43.34527" lon="2.70606">
        <ele>256</ele>
        <time>2020-10-11T15:17:30.000Z</time>
      </trkpt>
      <trkpt lat="43.34525" lon="2.70607">
        <ele>256</ele>
        <time>2020-10-11T15:17:32.000Z</time>
      </trkpt>
      <trkpt lat="43.34518" lon="2.70618">
        <ele>256</ele>
        <time>2020-10-11T15:17:38.000Z</time>
      </trkpt>
      <trkpt lat="43.34513" lon="2.70624">
        <ele>256</ele>
        <time>2020-10-11T15:17:42.000Z</time>
      </trkpt>
      <trkpt lat="43.34502" lon="2.70638">
        <ele>257</ele>
        <time>2020-10-11T15:17:51.000Z</time>
      </trkpt>
      <trkpt lat="43.345" lon="2.70644">
        <ele>258</ele>
        <time>2020-10-11T15:17:54.000Z</time>
      </trkpt>
      <trkpt lat="43.345" lon="2.70648">
        <ele>258</ele>
        <time>2020-10-11T15:17:56.000Z</time>
      </trkpt>
      <trkpt lat="43.345" lon="2.70652">
        <ele>258</ele>
        <time>2020-10-11T15:17:58.000Z</time>
      </trkpt>
      <trkpt lat="43.34503" lon="2.70658">
        <ele>258</ele>
        <time>2020-10-11T15:18:02.000Z</time>
      </trkpt>
      <trkpt lat="43.34508" lon="2.70665">
        <ele>260</ele>
        <time>2020-10-11T15:18:17.000Z</time>
      </trkpt>
      <trkpt lat="43.34509" lon="2.7067">
        <ele>262</ele>
        <time>2020-10-11T15:18:27.000Z</time>
      </trkpt>
      <trkpt lat="43.34511" lon="2.70676">
        <ele>263</ele>
        <time>2020-10-11T15:18:36.000Z</time>
      </trkpt>
      <trkpt lat="43.34516" lon="2.70683">
        <ele>265</ele>
        <time>2020-10-11T15:18:47.000Z</time>
      </trkpt>
      <trkpt lat="43.34518" lon="2.70688">
        <ele>267</ele>
        <time>2020-10-11T15:18:56.000Z</time>
      </trkpt>
      <trkpt lat="43.34521" lon="2.70692">
        <ele>268</ele>
        <time>2020-10-11T15:19:04.000Z</time>
      </trkpt>
      <trkpt lat="43.34524" lon="2.70694">
        <ele>269</ele>
        <time>2020-10-11T15:19:09.000Z</time>
      </trkpt>
      <trkpt lat="43.34526" lon="2.70695">
        <ele>270</ele>
        <time>2020-10-11T15:19:17.000Z</time>
      </trkpt>
      <trkpt lat="43.34532" lon="2.70695">
        <ele>270</ele>
        <time>2020-10-11T15:19:26.000Z</time>
      </trkpt>
      <trkpt lat="43.34544" lon="2.70699">
        <ele>271</ele>
        <time>2020-10-11T15:19:35.000Z</time>
      </trkpt>
      <trkpt lat="43.34548" lon="2.70701">
        <ele>271</ele>
        <time>2020-10-11T15:19:38.000Z</time>
      </trkpt>
      <trkpt lat="43.34554" lon="2.70705">
        <ele>273</ele>
        <time>2020-10-11T15:19:42.000Z</time>
      </trkpt>
      <trkpt lat="43.34558" lon="2.70714">
        <ele>274</ele>
        <time>2020-10-11T15:19:48.000Z</time>
      </trkpt>
      <trkpt lat="43.34561" lon="2.70719">
        <ele>275</ele>
        <time>2020-10-11T15:19:52.000Z</time>
      </trkpt>
      <trkpt lat="43.34563" lon="2.70723">
        <ele>276</ele>
        <time>2020-10-11T15:19:55.000Z</time>
      </trkpt>
      <trkpt lat="43.34568" lon="2.70727">
        <ele>277</ele>
        <time>2020-10-11T15:19:59.000Z</time>
      </trkpt>
      <trkpt lat="43.34575" lon="2.70732">
        <ele>277</ele>
        <time>2020-10-11T15:20:04.000Z</time>
      </trkpt>
      <trkpt lat="43.34583" lon="2.70739">
        <ele>277</ele>
        <time>2020-10-11T15:20:10.000Z</time>
      </trkpt>
      <trkpt lat="43.34585" lon="2.70743">
        <ele>277</ele>
        <time>2020-10-11T15:20:14.000Z</time>
      </trkpt>
      <trkpt lat="43.34588" lon="2.7075">
        <ele>278</ele>
        <time>2020-10-11T15:20:33.000Z</time>
      </trkpt>
      <trkpt lat="43.34587" lon="2.70752">
        <ele>278</ele>
        <time>2020-10-11T15:20:40.000Z</time>
      </trkpt>
      <trkpt lat="43.34586" lon="2.70753">
        <ele>278</ele>
        <time>2020-10-11T15:20:44.000Z</time>
      </trkpt>
      <trkpt lat="43.34585" lon="2.70756">
        <ele>279</ele>
        <time>2020-10-11T15:20:48.000Z</time>
      </trkpt>
      <trkpt lat="43.34588" lon="2.70761">
        <ele>281</ele>
        <time>2020-10-11T15:20:56.000Z</time>
      </trkpt>
      <trkpt lat="43.34589" lon="2.70773">
        <ele>283</ele>
        <time>2020-10-11T15:21:10.000Z</time>
      </trkpt>
      <trkpt lat="43.34587" lon="2.70778">
        <ele>284</ele>
        <time>2020-10-11T15:21:17.000Z</time>
      </trkpt>
      <trkpt lat="43.34586" lon="2.70787">
        <ele>287</ele>
        <time>2020-10-11T15:21:27.000Z</time>
      </trkpt>
      <trkpt lat="43.3458" lon="2.70797">
        <ele>289</ele>
        <time>2020-10-11T15:21:42.000Z</time>
      </trkpt>
      <trkpt lat="43.34578" lon="2.70808">
        <ele>291</ele>
        <time>2020-10-11T15:21:54.000Z</time>
      </trkpt>
      <trkpt lat="43.34569" lon="2.70815">
        <ele>291</ele>
        <time>2020-10-11T15:22:06.000Z</time>
      </trkpt>
      <trkpt lat="43.34563" lon="2.70822">
        <ele>292</ele>
        <time>2020-10-11T15:22:11.000Z</time>
      </trkpt>
      <trkpt lat="43.34559" lon="2.70828">
        <ele>292</ele>
        <time>2020-10-11T15:22:14.000Z</time>
      </trkpt>
      <trkpt lat="43.34552" lon="2.70836">
        <ele>293</ele>
        <time>2020-10-11T15:22:19.000Z</time>
      </trkpt>
      <trkpt lat="43.3455" lon="2.70842">
        <ele>292</ele>
        <time>2020-10-11T15:22:21.000Z</time>
      </trkpt>
      <trkpt lat="43.34546" lon="2.70864">
        <ele>292</ele>
        <time>2020-10-11T15:22:27.000Z</time>
      </trkpt>
      <trkpt lat="43.34538" lon="2.70891">
        <ele>290</ele>
        <time>2020-10-11T15:22:34.000Z</time>
      </trkpt>
      <trkpt lat="43.34529" lon="2.70913">
        <ele>289</ele>
        <time>2020-10-11T15:22:39.000Z</time>
      </trkpt>
      <trkpt lat="43.34511" lon="2.70947">
        <ele>289</ele>
        <time>2020-10-11T15:22:48.000Z</time>
      </trkpt>
      <trkpt lat="43.34498" lon="2.70969">
        <ele>287</ele>
        <time>2020-10-11T15:22:53.000Z</time>
      </trkpt>
      <trkpt lat="43.34492" lon="2.70978">
        <ele>286</ele>
        <time>2020-10-11T15:22:55.000Z</time>
      </trkpt>
      <trkpt lat="43.34487" lon="2.70988">
        <ele>286</ele>
        <time>2020-10-11T15:22:57.000Z</time>
      </trkpt>
      <trkpt lat="43.34482" lon="2.71">
        <ele>285</ele>
        <time>2020-10-11T15:22:59.000Z</time>
      </trkpt>
      <trkpt lat="43.3447" lon="2.71039">
        <ele>285</ele>
        <time>2020-10-11T15:23:06.000Z</time>
      </trkpt>
      <trkpt lat="43.34451" lon="2.71082">
        <ele>287</ele>
        <time>2020-10-11T15:23:16.000Z</time>
      </trkpt>
      <trkpt lat="43.34441" lon="2.711">
        <ele>287</ele>
        <time>2020-10-11T15:23:21.000Z</time>
      </trkpt>
      <trkpt lat="43.34434" lon="2.7112">
        <ele>288</ele>
        <time>2020-10-11T15:23:26.000Z</time>
      </trkpt>
      <trkpt lat="43.34434" lon="2.71129">
        <ele>288</ele>
        <time>2020-10-11T15:23:28.000Z</time>
      </trkpt>
      <trkpt lat="43.34439" lon="2.71157">
        <ele>287</ele>
        <time>2020-10-11T15:23:33.000Z</time>
      </trkpt>
      <trkpt lat="43.34438" lon="2.71171">
        <ele>286</ele>
        <time>2020-10-11T15:23:35.000Z</time>
      </trkpt>
      <trkpt lat="43.34437" lon="2.71178">
        <ele>286</ele>
        <time>2020-10-11T15:23:36.000Z</time>
      </trkpt>
      <trkpt lat="43.34433" lon="2.71189">
        <ele>286</ele>
        <time>2020-10-11T15:23:38.000Z</time>
      </trkpt>
      <trkpt lat="43.34431" lon="2.71192">
        <ele>286</ele>
        <time>2020-10-11T15:23:39.000Z</time>
      </trkpt>
      <trkpt lat="43.34428" lon="2.71194">
        <ele>288</ele>
        <time>2020-10-11T15:23:42.000Z</time>
      </trkpt>
      <trkpt lat="43.34425" lon="2.71192">
        <ele>289</ele>
        <time>2020-10-11T15:23:47.000Z</time>
      </trkpt>
      <trkpt lat="43.34411" lon="2.71193">
        <ele>291</ele>
        <time>2020-10-11T15:24:02.000Z</time>
      </trkpt>
      <trkpt lat="43.34399" lon="2.71197">
        <ele>291</ele>
        <time>2020-10-11T15:24:08.000Z</time>
      </trkpt>
      <trkpt lat="43.34389" lon="2.71201">
        <ele>292</ele>
        <time>2020-10-11T15:24:13.000Z</time>
      </trkpt>
      <trkpt lat="43.34386" lon="2.71204">
        <ele>293</ele>
        <time>2020-10-11T15:24:15.000Z</time>
      </trkpt>
      <trkpt lat="43.34377" lon="2.71216">
        <ele>292</ele>
        <time>2020-10-11T15:24:19.000Z</time>
      </trkpt>
      <trkpt lat="43.34366" lon="2.71227">
        <ele>291</ele>
        <time>2020-10-11T15:24:23.000Z</time>
      </trkpt>
      <trkpt lat="43.34328" lon="2.71258">
        <ele>290</ele>
        <time>2020-10-11T15:24:34.000Z</time>
      </trkpt>
      <trkpt lat="43.34314" lon="2.71272">
        <ele>290</ele>
        <time>2020-10-11T15:24:38.000Z</time>
      </trkpt>
      <trkpt lat="43.34298" lon="2.71285">
        <ele>290</ele>
        <time>2020-10-11T15:24:42.000Z</time>
      </trkpt>
      <trkpt lat="43.34291" lon="2.7129">
        <ele>290</ele>
        <time>2020-10-11T15:24:44.000Z</time>
      </trkpt>
      <trkpt lat="43.34288" lon="2.71293">
        <ele>290</ele>
        <time>2020-10-11T15:24:45.000Z</time>
      </trkpt>
      <trkpt lat="43.34284" lon="2.71307">
        <ele>290</ele>
        <time>2020-10-11T15:24:48.000Z</time>
      </trkpt>
      <trkpt lat="43.34277" lon="2.71327">
        <ele>290</ele>
        <time>2020-10-11T15:24:52.000Z</time>
      </trkpt>
      <trkpt lat="43.34274" lon="2.71331">
        <ele>290</ele>
        <time>2020-10-11T15:24:53.000Z</time>
      </trkpt>
      <trkpt lat="43.3426" lon="2.71338">
        <ele>289</ele>
        <time>2020-10-11T15:24:57.000Z</time>
      </trkpt>
      <trkpt lat="43.34237" lon="2.71331">
        <ele>287</ele>
        <time>2020-10-11T15:25:02.000Z</time>
      </trkpt>
      <trkpt lat="43.34233" lon="2.71329">
        <ele>287</ele>
        <time>2020-10-11T15:25:03.000Z</time>
      </trkpt>
      <trkpt lat="43.34226" lon="2.7132">
        <ele>285</ele>
        <time>2020-10-11T15:25:06.000Z</time>
      </trkpt>
      <trkpt lat="43.34221" lon="2.71315">
        <ele>284</ele>
        <time>2020-10-11T15:25:08.000Z</time>
      </trkpt>
      <trkpt lat="43.34215" lon="2.71313">
        <ele>283</ele>
        <time>2020-10-11T15:25:10.000Z</time>
      </trkpt>
      <trkpt lat="43.34208" lon="2.71313">
        <ele>281</ele>
        <time>2020-10-11T15:25:12.000Z</time>
      </trkpt>
      <trkpt lat="43.34186" lon="2.71313">
        <ele>278</ele>
        <time>2020-10-11T15:25:19.000Z</time>
      </trkpt>
      <trkpt lat="43.34178" lon="2.71308">
        <ele>257.2</ele>
        <time>2020-10-11T15:25:29.000Z</time>
      </trkpt>
      <trkpt lat="43.34175" lon="2.71309">
        <ele>256.9</ele>
        <time>2020-10-11T15:25:39.000Z</time>
      </trkpt>
      <trkpt lat="43.34171" lon="2.71313">
        <ele>275</ele>
        <time>2020-10-11T15:26:45.000Z</time>
      </trkpt>
      <trkpt lat="43.34167" lon="2.71324">
        <ele>274</ele>
        <time>2020-10-11T15:26:48.000Z</time>
      </trkpt>
      <trkpt lat="43.34166" lon="2.71348">
        <ele>273</ele>
        <time>2020-10-11T15:26:53.000Z</time>
      </trkpt>
      <trkpt lat="43.34165" lon="2.71365">
        <ele>273</ele>
        <time>2020-10-11T15:26:56.000Z</time>
      </trkpt>
      <trkpt lat="43.34162" lon="2.71376">
        <ele>272</ele>
        <time>2020-10-11T15:26:58.000Z</time>
      </trkpt>
      <trkpt lat="43.34153" lon="2.71401">
        <ele>271</ele>
        <time>2020-10-11T15:27:02.000Z</time>
      </trkpt>
      <trkpt lat="43.34141" lon="2.71441">
        <ele>270</ele>
        <time>2020-10-11T15:27:08.000Z</time>
      </trkpt>
      <trkpt lat="43.34138" lon="2.71455">
        <ele>270</ele>
        <time>2020-10-11T15:27:10.000Z</time>
      </trkpt>
      <trkpt lat="43.34134" lon="2.71482">
        <ele>269</ele>
        <time>2020-10-11T15:27:14.000Z</time>
      </trkpt>
      <trkpt lat="43.34131" lon="2.71495">
        <ele>269</ele>
        <time>2020-10-11T15:27:16.000Z</time>
      </trkpt>
      <trkpt lat="43.34127" lon="2.71521">
        <ele>269</ele>
        <time>2020-10-11T15:27:20.000Z</time>
      </trkpt>
      <trkpt lat="43.34124" lon="2.71531">
        <ele>269</ele>
        <time>2020-10-11T15:27:22.000Z</time>
      </trkpt>
      <trkpt lat="43.34121" lon="2.71533">
        <ele>269</ele>
        <time>2020-10-11T15:27:23.000Z</time>
      </trkpt>
      <trkpt lat="43.34118" lon="2.71533">
        <ele>269</ele>
        <time>2020-10-11T15:27:24.000Z</time>
      </trkpt>
      <trkpt lat="43.34112" lon="2.71529">
        <ele>268</ele>
        <time>2020-10-11T15:27:26.000Z</time>
      </trkpt>
      <trkpt lat="43.34106" lon="2.71521">
        <ele>268</ele>
        <time>2020-10-11T15:27:28.000Z</time>
      </trkpt>
      <trkpt lat="43.34093" lon="2.71501">
        <ele>266</ele>
        <time>2020-10-11T15:27:31.000Z</time>
      </trkpt>
      <trkpt lat="43.3409" lon="2.71495">
        <ele>265</ele>
        <time>2020-10-11T15:27:33.000Z</time>
      </trkpt>
      <trkpt lat="43.34087" lon="2.71488">
        <ele>264</ele>
        <time>2020-10-11T15:27:34.000Z</time>
      </trkpt>
      <trkpt lat="43.34083" lon="2.71474">
        <ele>262</ele>
        <time>2020-10-11T15:27:36.000Z</time>
      </trkpt>
      <trkpt lat="43.3408" lon="2.71458">
        <ele>261</ele>
        <time>2020-10-11T15:27:38.000Z</time>
      </trkpt>
      <trkpt lat="43.34078" lon="2.71436">
        <ele>260</ele>
        <time>2020-10-11T15:27:41.000Z</time>
      </trkpt>
      <trkpt lat="43.34075" lon="2.71389">
        <ele>260</ele>
        <time>2020-10-11T15:27:48.000Z</time>
      </trkpt>
      <trkpt lat="43.34069" lon="2.71362">
        <ele>260</ele>
        <time>2020-10-11T15:27:53.000Z</time>
      </trkpt>
      <trkpt lat="43.34067" lon="2.71357">
        <ele>261</ele>
        <time>2020-10-11T15:27:54.000Z</time>
      </trkpt>
      <trkpt lat="43.3406" lon="2.71334">
        <ele>260</ele>
        <time>2020-10-11T15:27:58.000Z</time>
      </trkpt>
      <trkpt lat="43.34054" lon="2.71315">
        <ele>260</ele>
        <time>2020-10-11T15:28:02.000Z</time>
      </trkpt>
      <trkpt lat="43.34045" lon="2.71298">
        <ele>260</ele>
        <time>2020-10-11T15:28:06.000Z</time>
      </trkpt>
      <trkpt lat="43.3404" lon="2.71291">
        <ele>260</ele>
        <time>2020-10-11T15:28:08.000Z</time>
      </trkpt>
      <trkpt lat="43.34018" lon="2.71274">
        <ele>259</ele>
        <time>2020-10-11T15:28:14.000Z</time>
      </trkpt>
      <trkpt lat="43.34006" lon="2.71266">
        <ele>257</ele>
        <time>2020-10-11T15:28:17.000Z</time>
      </trkpt>
      <trkpt lat="43.34" lon="2.71259">
        <ele>255</ele>
        <time>2020-10-11T15:28:19.000Z</time>
      </trkpt>
      <trkpt lat="43.33996" lon="2.71255">
        <ele>255</ele>
        <time>2020-10-11T15:28:20.000Z</time>
      </trkpt>
      <trkpt lat="43.33989" lon="2.71248">
        <ele>254</ele>
        <time>2020-10-11T15:28:22.000Z</time>
      </trkpt>
      <trkpt lat="43.33985" lon="2.71246">
        <ele>254</ele>
        <time>2020-10-11T15:28:23.000Z</time>
      </trkpt>
      <trkpt lat="43.33972" lon="2.71241">
        <ele>254</ele>
        <time>2020-10-11T15:28:26.000Z</time>
      </trkpt>
      <trkpt lat="43.33963" lon="2.71236">
        <ele>254</ele>
        <time>2020-10-11T15:28:28.000Z</time>
      </trkpt>
      <trkpt lat="43.33945" lon="2.71225">
        <ele>254</ele>
        <time>2020-10-11T15:28:32.000Z</time>
      </trkpt>
      <trkpt lat="43.33933" lon="2.71215">
        <ele>253</ele>
        <time>2020-10-11T15:28:35.000Z</time>
      </trkpt>
      <trkpt lat="43.33894" lon="2.71177">
        <ele>247</ele>
        <time>2020-10-11T15:28:44.000Z</time>
      </trkpt>
      <trkpt lat="43.33885" lon="2.71169">
        <ele>244</ele>
        <time>2020-10-11T15:28:46.000Z</time>
      </trkpt>
      <trkpt lat="43.33875" lon="2.71164">
        <ele>243</ele>
        <time>2020-10-11T15:28:48.000Z</time>
      </trkpt>
      <trkpt lat="43.3387" lon="2.71162">
        <ele>243</ele>
        <time>2020-10-11T15:28:49.000Z</time>
      </trkpt>
      <trkpt lat="43.33843" lon="2.71157">
        <ele>242</ele>
        <time>2020-10-11T15:28:55.000Z</time>
      </trkpt>
      <trkpt lat="43.3383" lon="2.71151">
        <ele>240</ele>
        <time>2020-10-11T15:28:58.000Z</time>
      </trkpt>
      <trkpt lat="43.33821" lon="2.71144">
        <ele>239</ele>
        <time>2020-10-11T15:29:00.000Z</time>
      </trkpt>
      <trkpt lat="43.33809" lon="2.71132">
        <ele>239</ele>
        <time>2020-10-11T15:29:03.000Z</time>
      </trkpt>
      <trkpt lat="43.33801" lon="2.71126">
        <ele>239</ele>
        <time>2020-10-11T15:29:05.000Z</time>
      </trkpt>
      <trkpt lat="43.33797" lon="2.71125">
        <ele>238</ele>
        <time>2020-10-11T15:29:06.000Z</time>
      </trkpt>
      <trkpt lat="43.33784" lon="2.71125">
        <ele>237</ele>
        <time>2020-10-11T15:29:09.000Z</time>
      </trkpt>
      <trkpt lat="43.33777" lon="2.71129">
        <ele>235</ele>
        <time>2020-10-11T15:29:11.000Z</time>
      </trkpt>
      <trkpt lat="43.33762" lon="2.7114">
        <ele>233</ele>
        <time>2020-10-11T15:29:15.000Z</time>
      </trkpt>
      <trkpt lat="43.33754" lon="2.71147">
        <ele>231</ele>
        <time>2020-10-11T15:29:17.000Z</time>
      </trkpt>
      <trkpt lat="43.33738" lon="2.71163">
        <ele>229</ele>
        <time>2020-10-11T15:29:23.000Z</time>
      </trkpt>
      <trkpt lat="43.33732" lon="2.71165">
        <ele>227</ele>
        <time>2020-10-11T15:29:26.000Z</time>
      </trkpt>
      <trkpt lat="43.33722" lon="2.71172">
        <ele>224</ele>
        <time>2020-10-11T15:29:30.000Z</time>
      </trkpt>
      <trkpt lat="43.33713" lon="2.71176">
        <ele>224</ele>
        <time>2020-10-11T15:29:33.000Z</time>
      </trkpt>
      <trkpt lat="43.33691" lon="2.71174">
        <ele>222</ele>
        <time>2020-10-11T15:29:39.000Z</time>
      </trkpt>
      <trkpt lat="43.33684" lon="2.71171">
        <ele>221</ele>
        <time>2020-10-11T15:29:41.000Z</time>
      </trkpt>
      <trkpt lat="43.33677" lon="2.71167">
        <ele>219</ele>
        <time>2020-10-11T15:29:43.000Z</time>
      </trkpt>
      <trkpt lat="43.33658" lon="2.71164">
        <ele>218</ele>
        <time>2020-10-11T15:29:49.000Z</time>
      </trkpt>
      <trkpt lat="43.33651" lon="2.7117">
        <ele>217</ele>
        <time>2020-10-11T15:29:52.000Z</time>
      </trkpt>
      <trkpt lat="43.33649" lon="2.71174">
        <ele>217</ele>
        <time>2020-10-11T15:29:53.000Z</time>
      </trkpt>
      <trkpt lat="43.33641" lon="2.71184">
        <ele>216</ele>
        <time>2020-10-11T15:29:56.000Z</time>
      </trkpt>
      <trkpt lat="43.33633" lon="2.71189">
        <ele>215</ele>
        <time>2020-10-11T15:29:59.000Z</time>
      </trkpt>
      <trkpt lat="43.33627" lon="2.71196">
        <ele>215</ele>
        <time>2020-10-11T15:30:02.000Z</time>
      </trkpt>
      <trkpt lat="43.33624" lon="2.71201">
        <ele>214</ele>
        <time>2020-10-11T15:30:04.000Z</time>
      </trkpt>
      <trkpt lat="43.3362" lon="2.71211">
        <ele>213</ele>
        <time>2020-10-11T15:30:07.000Z</time>
      </trkpt>
      <trkpt lat="43.33616" lon="2.71222">
        <ele>212</ele>
        <time>2020-10-11T15:30:12.000Z</time>
      </trkpt>
      <trkpt lat="43.33614" lon="2.71225">
        <ele>212</ele>
        <time>2020-10-11T15:30:16.000Z</time>
      </trkpt>
      <trkpt lat="43.33609" lon="2.71226">
        <ele>211</ele>
        <time>2020-10-11T15:30:22.000Z</time>
      </trkpt>
      <trkpt lat="43.336" lon="2.71231">
        <ele>208</ele>
        <time>2020-10-11T15:30:29.000Z</time>
      </trkpt>
      <trkpt lat="43.33596" lon="2.7123">
        <ele>208</ele>
        <time>2020-10-11T15:30:34.000Z</time>
      </trkpt>
      <trkpt lat="43.33587" lon="2.71231">
        <ele>208</ele>
        <time>2020-10-11T15:30:41.000Z</time>
      </trkpt>
      <trkpt lat="43.33581" lon="2.71235">
        <ele>207</ele>
        <time>2020-10-11T15:30:47.000Z</time>
      </trkpt>
      <trkpt lat="43.33576" lon="2.71235">
        <ele>206</ele>
        <time>2020-10-11T15:30:53.000Z</time>
      </trkpt>
      <trkpt lat="43.33568" lon="2.71233">
        <ele>205</ele>
        <time>2020-10-11T15:30:59.000Z</time>
      </trkpt>
      <trkpt lat="43.33565" lon="2.71234">
        <ele>204</ele>
        <time>2020-10-11T15:31:02.000Z</time>
      </trkpt>
      <trkpt lat="43.33553" lon="2.71236">
        <ele>202</ele>
        <time>2020-10-11T15:31:12.000Z</time>
      </trkpt>
      <trkpt lat="43.33549" lon="2.7124">
        <ele>201</ele>
        <time>2020-10-11T15:31:16.000Z</time>
      </trkpt>
      <trkpt lat="43.33548" lon="2.71244">
        <ele>201</ele>
        <time>2020-10-11T15:31:19.000Z</time>
      </trkpt>
      <trkpt lat="43.33542" lon="2.7125">
        <ele>202</ele>
        <time>2020-10-11T15:31:25.000Z</time>
      </trkpt>
      <trkpt lat="43.3354" lon="2.7125">
        <ele>202</ele>
        <time>2020-10-11T15:31:29.000Z</time>
      </trkpt>
      <trkpt lat="43.33513" lon="2.71262">
        <ele>200</ele>
        <time>2020-10-11T15:31:40.000Z</time>
      </trkpt>
      <trkpt lat="43.33509" lon="2.71262">
        <ele>199</ele>
        <time>2020-10-11T15:31:42.000Z</time>
      </trkpt>
      <trkpt lat="43.33498" lon="2.71262">
        <ele>198</ele>
        <time>2020-10-11T15:31:46.000Z</time>
      </trkpt>
      <trkpt lat="43.33491" lon="2.71263">
        <ele>197</ele>
        <time>2020-10-11T15:31:48.000Z</time>
      </trkpt>
      <trkpt lat="43.33484" lon="2.71268">
        <ele>196</ele>
        <time>2020-10-11T15:31:50.000Z</time>
      </trkpt>
      <trkpt lat="43.33475" lon="2.71276">
        <ele>195</ele>
        <time>2020-10-11T15:31:54.000Z</time>
      </trkpt>
      <trkpt lat="43.3347" lon="2.7128">
        <ele>195</ele>
        <time>2020-10-11T15:31:56.000Z</time>
      </trkpt>
      <trkpt lat="43.33451" lon="2.71291">
        <ele>192</ele>
        <time>2020-10-11T15:32:03.000Z</time>
      </trkpt>
      <trkpt lat="43.33429" lon="2.71289">
        <ele>190</ele>
        <time>2020-10-11T15:32:12.000Z</time>
      </trkpt>
      <trkpt lat="43.33423" lon="2.7129">
        <ele>189</ele>
        <time>2020-10-11T15:32:14.000Z</time>
      </trkpt>
      <trkpt lat="43.33417" lon="2.71292">
        <ele>189</ele>
        <time>2020-10-11T15:32:16.000Z</time>
      </trkpt>
      <trkpt lat="43.33405" lon="2.713">
        <ele>189</ele>
        <time>2020-10-11T15:32:21.000Z</time>
      </trkpt>
      <trkpt lat="43.33399" lon="2.71302">
        <ele>188</ele>
        <time>2020-10-11T15:32:23.000Z</time>
      </trkpt>
      <trkpt lat="43.3339" lon="2.71306">
        <ele>187</ele>
        <time>2020-10-11T15:32:26.000Z</time>
      </trkpt>
      <trkpt lat="43.33374" lon="2.7131">
        <ele>188</ele>
        <time>2020-10-11T15:32:31.000Z</time>
      </trkpt>
      <trkpt lat="43.33364" lon="2.7131">
        <ele>189</ele>
        <time>2020-10-11T15:32:34.000Z</time>
      </trkpt>
      <trkpt lat="43.33351" lon="2.71309">
        <ele>189</ele>
        <time>2020-10-11T15:32:39.000Z</time>
      </trkpt>
      <trkpt lat="43.33339" lon="2.71305">
        <ele>186</ele>
        <time>2020-10-11T15:32:44.000Z</time>
      </trkpt>
      <trkpt lat="43.33331" lon="2.71304">
        <ele>186</ele>
        <time>2020-10-11T15:32:48.000Z</time>
      </trkpt>
      <trkpt lat="43.3332" lon="2.7131">
        <ele>184</ele>
        <time>2020-10-11T15:32:53.000Z</time>
      </trkpt>
      <trkpt lat="43.33291" lon="2.71312">
        <ele>183</ele>
        <time>2020-10-11T15:33:05.000Z</time>
      </trkpt>
      <trkpt lat="43.33288" lon="2.71311">
        <ele>182</ele>
        <time>2020-10-11T15:33:06.000Z</time>
      </trkpt>
      <trkpt lat="43.33285" lon="2.71313">
        <ele>181</ele>
        <time>2020-10-11T15:33:09.000Z</time>
      </trkpt>
      <trkpt lat="43.33284" lon="2.71314">
        <ele>181</ele>
        <time>2020-10-11T15:33:10.000Z</time>
      </trkpt>
      <trkpt lat="43.33283" lon="2.71318">
        <ele>181</ele>
        <time>2020-10-11T15:33:14.000Z</time>
      </trkpt>
      <trkpt lat="43.33284" lon="2.71317">
        <ele>180</ele>
        <time>2020-10-11T15:33:20.000Z</time>
      </trkpt>
      <trkpt lat="43.33291" lon="2.71319">
        <ele>180</ele>
        <time>2020-10-11T15:33:25.000Z</time>
      </trkpt>
      <trkpt lat="43.33289" lon="2.71319">
        <ele>180</ele>
        <time>2020-10-11T15:33:40.000Z</time>
      </trkpt>
      <trkpt lat="43.33286" lon="2.71328">
        <ele>179</ele>
        <time>2020-10-11T15:33:52.000Z</time>
      </trkpt>
      <trkpt lat="43.33282" lon="2.71333">
        <ele>179</ele>
        <time>2020-10-11T15:33:54.000Z</time>
      </trkpt>
      <trkpt lat="43.33276" lon="2.71343">
        <ele>177</ele>
        <time>2020-10-11T15:33:58.000Z</time>
      </trkpt>
      <trkpt lat="43.33265" lon="2.71351">
        <ele>175</ele>
        <time>2020-10-11T15:34:04.000Z</time>
      </trkpt>
      <trkpt lat="43.33253" lon="2.71365">
        <ele>174</ele>
        <time>2020-10-11T15:34:10.000Z</time>
      </trkpt>
      <trkpt lat="43.3324" lon="2.71375">
        <ele>173</ele>
        <time>2020-10-11T15:34:15.000Z</time>
      </trkpt>
      <trkpt lat="43.33236" lon="2.7138">
        <ele>173</ele>
        <time>2020-10-11T15:34:17.000Z</time>
      </trkpt>
      <trkpt lat="43.3323" lon="2.71384">
        <ele>172</ele>
        <time>2020-10-11T15:34:20.000Z</time>
      </trkpt>
      <trkpt lat="43.33224" lon="2.71387">
        <ele>171</ele>
        <time>2020-10-11T15:34:23.000Z</time>
      </trkpt>
      <trkpt lat="43.33217" lon="2.71389">
        <ele>171</ele>
        <time>2020-10-11T15:34:27.000Z</time>
      </trkpt>
      <trkpt lat="43.33207" lon="2.71393">
        <ele>170</ele>
        <time>2020-10-11T15:34:33.000Z</time>
      </trkpt>
      <trkpt lat="43.33203" lon="2.71396">
        <ele>169</ele>
        <time>2020-10-11T15:34:35.000Z</time>
      </trkpt>
      <trkpt lat="43.33196" lon="2.71399">
        <ele>167</ele>
        <time>2020-10-11T15:34:39.000Z</time>
      </trkpt>
      <trkpt lat="43.3319" lon="2.71401">
        <ele>166</ele>
        <time>2020-10-11T15:34:42.000Z</time>
      </trkpt>
      <trkpt lat="43.33184" lon="2.71401">
        <ele>166</ele>
        <time>2020-10-11T15:34:45.000Z</time>
      </trkpt>
      <trkpt lat="43.3318" lon="2.71402">
        <ele>166</ele>
        <time>2020-10-11T15:34:47.000Z</time>
      </trkpt>
      <trkpt lat="43.33162" lon="2.71404">
        <ele>164</ele>
        <time>2020-10-11T15:34:57.000Z</time>
      </trkpt>
      <trkpt lat="43.33156" lon="2.71405">
        <ele>163</ele>
        <time>2020-10-11T15:35:02.000Z</time>
      </trkpt>
      <trkpt lat="43.33152" lon="2.71405">
        <ele>163</ele>
        <time>2020-10-11T15:35:07.000Z</time>
      </trkpt>
      <trkpt lat="43.33148" lon="2.71401">
        <ele>162</ele>
        <time>2020-10-11T15:35:11.000Z</time>
      </trkpt>
      <trkpt lat="43.33142" lon="2.71396">
        <ele>161</ele>
        <time>2020-10-11T15:35:17.000Z</time>
      </trkpt>
      <trkpt lat="43.33139" lon="2.71398">
        <ele>161</ele>
        <time>2020-10-11T15:35:20.000Z</time>
      </trkpt>
      <trkpt lat="43.33137" lon="2.71402">
        <ele>161</ele>
        <time>2020-10-11T15:35:25.000Z</time>
      </trkpt>
      <trkpt lat="43.33131" lon="2.71415">
        <ele>160</ele>
        <time>2020-10-11T15:35:32.000Z</time>
      </trkpt>
      <trkpt lat="43.33127" lon="2.71421">
        <ele>159</ele>
        <time>2020-10-11T15:35:35.000Z</time>
      </trkpt>
      <trkpt lat="43.33124" lon="2.71423">
        <ele>159</ele>
        <time>2020-10-11T15:35:37.000Z</time>
      </trkpt>
      <trkpt lat="43.33114" lon="2.7142">
        <ele>157</ele>
        <time>2020-10-11T15:35:43.000Z</time>
      </trkpt>
      <trkpt lat="43.33107" lon="2.71416">
        <ele>156</ele>
        <time>2020-10-11T15:35:47.000Z</time>
      </trkpt>
      <trkpt lat="43.33096" lon="2.71415">
        <ele>157</ele>
        <time>2020-10-11T15:35:52.000Z</time>
      </trkpt>
      <trkpt lat="43.33093" lon="2.71414">
        <ele>157</ele>
        <time>2020-10-11T15:35:56.000Z</time>
      </trkpt>
      <trkpt lat="43.33089" lon="2.71414">
        <ele>157</ele>
        <time>2020-10-11T15:36:00.000Z</time>
      </trkpt>
      <trkpt lat="43.3308" lon="2.71418">
        <ele>156</ele>
        <time>2020-10-11T15:36:07.000Z</time>
      </trkpt>
      <trkpt lat="43.33072" lon="2.7142">
        <ele>155</ele>
        <time>2020-10-11T15:36:14.000Z</time>
      </trkpt>
      <trkpt lat="43.3307" lon="2.71421">
        <ele>154</ele>
        <time>2020-10-11T15:36:17.000Z</time>
      </trkpt>
      <trkpt lat="43.3306" lon="2.71417">
        <ele>153</ele>
        <time>2020-10-11T15:36:26.000Z</time>
      </trkpt>
      <trkpt lat="43.33042" lon="2.7142">
        <ele>150</ele>
        <time>2020-10-11T15:36:34.000Z</time>
      </trkpt>
      <trkpt lat="43.3304" lon="2.71421">
        <ele>149</ele>
        <time>2020-10-11T15:36:36.000Z</time>
      </trkpt>
      <trkpt lat="43.3304" lon="2.71422">
        <ele>149</ele>
        <time>2020-10-11T15:36:38.000Z</time>
      </trkpt>
      <trkpt lat="43.33041" lon="2.71424">
        <ele>149</ele>
        <time>2020-10-11T15:36:44.000Z</time>
      </trkpt>
      <trkpt lat="43.33042" lon="2.71427">
        <ele>149</ele>
        <time>2020-10-11T15:36:46.000Z</time>
      </trkpt>
      <trkpt lat="43.33044" lon="2.71437">
        <ele>150</ele>
        <time>2020-10-11T15:36:51.000Z</time>
      </trkpt>
      <trkpt lat="43.33044" lon="2.71454">
        <ele>151</ele>
        <time>2020-10-11T15:36:56.000Z</time>
      </trkpt>
      <trkpt lat="43.33035" lon="2.71485">
        <ele>150</ele>
        <time>2020-10-11T15:37:02.000Z</time>
      </trkpt>
      <trkpt lat="43.33026" lon="2.71525">
        <ele>149</ele>
        <time>2020-10-11T15:37:10.000Z</time>
      </trkpt>
      <trkpt lat="43.33024" lon="2.71535">
        <ele>150</ele>
        <time>2020-10-11T15:37:12.000Z</time>
      </trkpt>
      <trkpt lat="43.33023" lon="2.71548">
        <ele>151</ele>
        <time>2020-10-11T15:37:15.000Z</time>
      </trkpt>
      <trkpt lat="43.33019" lon="2.71566">
        <ele>151</ele>
        <time>2020-10-11T15:37:19.000Z</time>
      </trkpt>
      <trkpt lat="43.33019" lon="2.71574">
        <ele>151</ele>
        <time>2020-10-11T15:37:21.000Z</time>
      </trkpt>
      <trkpt lat="43.33023" lon="2.71589">
        <ele>152</ele>
        <time>2020-10-11T15:37:26.000Z</time>
      </trkpt>
      <trkpt lat="43.33024" lon="2.71608">
        <ele>151</ele>
        <time>2020-10-11T15:37:31.000Z</time>
      </trkpt>
      <trkpt lat="43.33017" lon="2.71635">
        <ele>151</ele>
        <time>2020-10-11T15:37:37.000Z</time>
      </trkpt>
      <trkpt lat="43.33015" lon="2.71644">
        <ele>151</ele>
        <time>2020-10-11T15:37:39.000Z</time>
      </trkpt>
      <trkpt lat="43.33013" lon="2.71655">
        <ele>152</ele>
        <time>2020-10-11T15:37:42.000Z</time>
      </trkpt>
      <trkpt lat="43.33014" lon="2.71668">
        <ele>152</ele>
        <time>2020-10-11T15:37:46.000Z</time>
      </trkpt>
      <trkpt lat="43.33015" lon="2.71679">
        <ele>153</ele>
        <time>2020-10-11T15:37:52.000Z</time>
      </trkpt>
      <trkpt lat="43.33014" lon="2.71683">
        <ele>153</ele>
        <time>2020-10-11T15:37:55.000Z</time>
      </trkpt>
      <trkpt lat="43.33014" lon="2.71695">
        <ele>153</ele>
        <time>2020-10-11T15:38:03.000Z</time>
      </trkpt>
      <trkpt lat="43.33011" lon="2.71705">
        <ele>154</ele>
        <time>2020-10-11T15:38:11.000Z</time>
      </trkpt>
      <trkpt lat="43.33011" lon="2.71712">
        <ele>154</ele>
        <time>2020-10-11T15:38:16.000Z</time>
      </trkpt>
      <trkpt lat="43.33007" lon="2.71732">
        <ele>154</ele>
        <time>2020-10-11T15:38:22.000Z</time>
      </trkpt>
      <trkpt lat="43.33" lon="2.7175">
        <ele>153</ele>
        <time>2020-10-11T15:38:28.000Z</time>
      </trkpt>
      <trkpt lat="43.32998" lon="2.71755">
        <ele>153</ele>
        <time>2020-10-11T15:38:30.000Z</time>
      </trkpt>
      <trkpt lat="43.32996" lon="2.71761">
        <ele>154</ele>
        <time>2020-10-11T15:38:32.000Z</time>
      </trkpt>
      <trkpt lat="43.32992" lon="2.71772">
        <ele>152</ele>
        <time>2020-10-11T15:38:37.000Z</time>
      </trkpt>
      <trkpt lat="43.32986" lon="2.71779">
        <ele>151</ele>
        <time>2020-10-11T15:38:41.000Z</time>
      </trkpt>
      <trkpt lat="43.32983" lon="2.7178">
        <ele>151</ele>
        <time>2020-10-11T15:38:42.000Z</time>
      </trkpt>
      <trkpt lat="43.32976" lon="2.71789">
        <ele>149</ele>
        <time>2020-10-11T15:38:45.000Z</time>
      </trkpt>
      <trkpt lat="43.32969" lon="2.718">
        <ele>147</ele>
        <time>2020-10-11T15:38:50.000Z</time>
      </trkpt>
      <trkpt lat="43.32964" lon="2.71806">
        <ele>147</ele>
        <time>2020-10-11T15:38:53.000Z</time>
      </trkpt>
      <trkpt lat="43.3296" lon="2.71813">
        <ele>145</ele>
        <time>2020-10-11T15:38:56.000Z</time>
      </trkpt>
      <trkpt lat="43.32957" lon="2.71817">
        <ele>145</ele>
        <time>2020-10-11T15:38:58.000Z</time>
      </trkpt>
      <trkpt lat="43.32952" lon="2.71822">
        <ele>144</ele>
        <time>2020-10-11T15:39:01.000Z</time>
      </trkpt>
      <trkpt lat="43.32945" lon="2.71823">
        <ele>143</ele>
        <time>2020-10-11T15:39:04.000Z</time>
      </trkpt>
      <trkpt lat="43.32943" lon="2.71822">
        <ele>142</ele>
        <time>2020-10-11T15:39:05.000Z</time>
      </trkpt>
      <trkpt lat="43.32928" lon="2.7181">
        <ele>140</ele>
        <time>2020-10-11T15:39:13.000Z</time>
      </trkpt>
      <trkpt lat="43.3292" lon="2.71806">
        <ele>140</ele>
        <time>2020-10-11T15:39:20.000Z</time>
      </trkpt>
      <trkpt lat="43.32897" lon="2.71811">
        <ele>138</ele>
        <time>2020-10-11T15:39:26.000Z</time>
      </trkpt>
      <trkpt lat="43.32889" lon="2.71812">
        <ele>138</ele>
        <time>2020-10-11T15:39:28.000Z</time>
      </trkpt>
      <trkpt lat="43.32874" lon="2.71807">
        <ele>138</ele>
        <time>2020-10-11T15:39:32.000Z</time>
      </trkpt>
      <trkpt lat="43.32871" lon="2.71803">
        <ele>138</ele>
        <time>2020-10-11T15:39:33.000Z</time>
      </trkpt>
      <trkpt lat="43.32869" lon="2.71799">
        <ele>138</ele>
        <time>2020-10-11T15:39:34.000Z</time>
      </trkpt>
      <trkpt lat="43.32864" lon="2.71787">
        <ele>137</ele>
        <time>2020-10-11T15:39:36.000Z</time>
      </trkpt>
      <trkpt lat="43.32855" lon="2.71753">
        <ele>135</ele>
        <time>2020-10-11T15:39:42.000Z</time>
      </trkpt>
      <trkpt lat="43.32849" lon="2.7172">
        <ele>135</ele>
        <time>2020-10-11T15:39:49.000Z</time>
      </trkpt>
      <trkpt lat="43.32847" lon="2.71693">
        <ele>117</ele>
        <time>2020-10-11T15:39:59.000Z</time>
      </trkpt>
      <trkpt lat="43.32843" lon="2.71665">
        <ele>116.6</ele>
        <time>2020-10-11T15:40:09.000Z</time>
      </trkpt>
      <trkpt lat="43.32841" lon="2.71626">
        <ele>115.4</ele>
        <time>2020-10-11T15:40:19.000Z</time>
      </trkpt>
      <trkpt lat="43.32843" lon="2.7161">
        <ele>114.6</ele>
        <time>2020-10-11T15:40:29.000Z</time>
      </trkpt>
      <trkpt lat="43.3283" lon="2.71592">
        <ele>114.8</ele>
        <time>2020-10-11T15:40:39.000Z</time>
      </trkpt>
      <trkpt lat="43.32815" lon="2.71579">
        <ele>116.5</ele>
        <time>2020-10-11T15:40:49.000Z</time>
      </trkpt>
      <trkpt lat="43.32808" lon="2.71566">
        <ele>117</ele>
        <time>2020-10-11T15:40:59.000Z</time>
      </trkpt>
      <trkpt lat="43.32795" lon="2.71566">
        <ele>120</ele>
        <time>2020-10-11T15:41:09.000Z</time>
      </trkpt>
      <trkpt lat="43.32786" lon="2.71567">
        <ele>122.2</ele>
        <time>2020-10-11T15:41:19.000Z</time>
      </trkpt>
      <trkpt lat="43.32776" lon="2.71569">
        <ele>124</ele>
        <time>2020-10-11T15:41:29.000Z</time>
      </trkpt>
      <trkpt lat="43.3277" lon="2.71571">
        <ele>123.9</ele>
        <time>2020-10-11T15:41:39.000Z</time>
      </trkpt>
      <trkpt lat="43.32763" lon="2.71573">
        <ele>123.7</ele>
        <time>2020-10-11T15:41:49.000Z</time>
      </trkpt>
      <trkpt lat="43.32754" lon="2.71576">
        <ele>123.5</ele>
        <time>2020-10-11T15:41:59.000Z</time>
      </trkpt>
      <trkpt lat="43.32746" lon="2.71568">
        <ele>123.8</ele>
        <time>2020-10-11T15:42:09.000Z</time>
      </trkpt>
      <trkpt lat="43.32735" lon="2.7156">
        <ele>123.2</ele>
        <time>2020-10-11T15:42:19.000Z</time>
      </trkpt>
      <trkpt lat="43.32718" lon="2.71551">
        <ele>121.3</ele>
        <time>2020-10-11T15:42:29.000Z</time>
      </trkpt>
      <trkpt lat="43.32701" lon="2.71551">
        <ele>120</ele>
        <time>2020-10-11T15:42:39.000Z</time>
      </trkpt>
      <trkpt lat="43.32683" lon="2.71554">
        <ele>119.1</ele>
        <time>2020-10-11T15:42:49.000Z</time>
      </trkpt>
      <trkpt lat="43.32661" lon="2.71566">
        <ele>117.4</ele>
        <time>2020-10-11T15:42:59.000Z</time>
      </trkpt>
      <trkpt lat="43.32646" lon="2.71575">
        <ele>115.5</ele>
        <time>2020-10-11T15:43:09.000Z</time>
      </trkpt>
      <trkpt lat="43.32637" lon="2.71579">
        <ele>114.1</ele>
        <time>2020-10-11T15:43:19.000Z</time>
      </trkpt>
      <trkpt lat="43.3263" lon="2.71582">
        <ele>113.1</ele>
        <time>2020-10-11T15:43:29.000Z</time>
      </trkpt>
      <trkpt lat="43.32625" lon="2.71578">
        <ele>112.6</ele>
        <time>2020-10-11T15:43:39.000Z</time>
      </trkpt>
      <trkpt lat="43.3262" lon="2.71575">
        <ele>111.9</ele>
        <time>2020-10-11T15:43:49.000Z</time>
      </trkpt>
      <trkpt lat="43.32613" lon="2.71579">
        <ele>111.1</ele>
        <time>2020-10-11T15:43:59.000Z</time>
      </trkpt>
      <trkpt lat="43.32606" lon="2.71587">
        <ele>127</ele>
        <time>2020-10-11T15:41:53.000Z</time>
      </trkpt>
      <trkpt lat="43.32601" lon="2.71573">
        <ele>127</ele>
        <time>2020-10-11T15:41:55.000Z</time>
      </trkpt>
      <trkpt lat="43.326" lon="2.71566">
        <ele>126</ele>
        <time>2020-10-11T15:41:56.000Z</time>
      </trkpt>
      <trkpt lat="43.32596" lon="2.71541">
        <ele>124</ele>
        <time>2020-10-11T15:41:59.000Z</time>
      </trkpt>
      <trkpt lat="43.32596" lon="2.71533">
        <ele>124</ele>
        <time>2020-10-11T15:42:00.000Z</time>
      </trkpt>
      <trkpt lat="43.32596" lon="2.71524">
        <ele>123</ele>
        <time>2020-10-11T15:42:01.000Z</time>
      </trkpt>
      <trkpt lat="43.32597" lon="2.71507">
        <ele>122</ele>
        <time>2020-10-11T15:42:03.000Z</time>
      </trkpt>
      <trkpt lat="43.326" lon="2.71479">
        <ele>121</ele>
        <time>2020-10-11T15:42:06.000Z</time>
      </trkpt>
      <trkpt lat="43.326" lon="2.71473">
        <ele>121</ele>
        <time>2020-10-11T15:42:08.000Z</time>
      </trkpt>
      <trkpt lat="43.326" lon="2.71451">
        <ele>119</ele>
        <time>2020-10-11T15:42:11.000Z</time>
      </trkpt>
      <trkpt lat="43.3261" lon="2.71406">
        <ele>116</ele>
        <time>2020-10-11T15:42:18.000Z</time>
      </trkpt>
      <trkpt lat="43.32607" lon="2.71401">
        <ele>116</ele>
        <time>2020-10-11T15:42:21.000Z</time>
      </trkpt>
      <trkpt lat="43.32573" lon="2.71389">
        <ele>115</ele>
        <time>2020-10-11T15:42:31.000Z</time>
      </trkpt>
      <trkpt lat="43.32565" lon="2.71389">
        <ele>116</ele>
        <time>2020-10-11T15:42:34.000Z</time>
      </trkpt>
      <trkpt lat="43.32562" lon="2.71388">
        <ele>116</ele>
        <time>2020-10-11T15:42:36.000Z</time>
      </trkpt>
      <trkpt lat="43.32562" lon="2.71386">
        <ele>115</ele>
        <time>2020-10-11T15:42:38.000Z</time>
      </trkpt>
      <trkpt lat="43.32562" lon="2.71386">
        <ele>115</ele>
        <time>2020-10-11T15:42:41.000Z</time>
      </trkpt>
      <trkpt lat="43.32576" lon="2.71371">
        <ele>113</ele>
        <time>2020-10-11T15:42:48.000Z</time>
      </trkpt>
      <trkpt lat="43.32578" lon="2.71367">
        <ele>112</ele>
        <time>2020-10-11T15:42:49.000Z</time>
      </trkpt>
      <trkpt lat="43.32583" lon="2.71359">
        <ele>111</ele>
        <time>2020-10-11T15:42:51.000Z</time>
      </trkpt>
      <trkpt lat="43.32585" lon="2.71352">
        <ele>111</ele>
        <time>2020-10-11T15:42:53.000Z</time>
      </trkpt>
      <trkpt lat="43.32585" lon="2.71349">
        <ele>111</ele>
        <time>2020-10-11T15:42:54.000Z</time>
      </trkpt>
      <trkpt lat="43.32582" lon="2.7134">
        <ele>110</ele>
        <time>2020-10-11T15:42:57.000Z</time>
      </trkpt>
      <trkpt lat="43.32586" lon="2.71333">
        <ele>110</ele>
        <time>2020-10-11T15:43:00.000Z</time>
      </trkpt>
      <trkpt lat="43.32591" lon="2.71321">
        <ele>110</ele>
        <time>2020-10-11T15:43:04.000Z</time>
      </trkpt>
      <trkpt lat="43.32592" lon="2.71317">
        <ele>110</ele>
        <time>2020-10-11T15:43:05.000Z</time>
      </trkpt>
      <trkpt lat="43.32589" lon="2.71312">
        <ele>110</ele>
        <time>2020-10-11T15:43:07.000Z</time>
      </trkpt>
      <trkpt lat="43.32587" lon="2.71309">
        <ele>110</ele>
        <time>2020-10-11T15:43:08.000Z</time>
      </trkpt>
      <trkpt lat="43.32579" lon="2.71305">
        <ele>110</ele>
        <time>2020-10-11T15:43:10.000Z</time>
      </trkpt>
      <trkpt lat="43.3257" lon="2.71304">
        <ele>109</ele>
        <time>2020-10-11T15:43:12.000Z</time>
      </trkpt>
      <trkpt lat="43.32567" lon="2.71307">
        <ele>109</ele>
        <time>2020-10-11T15:43:13.000Z</time>
      </trkpt>
      <trkpt lat="43.32563" lon="2.7131">
        <ele>89.9</ele>
        <time>2020-10-11T15:43:23.000Z</time>
      </trkpt>
      <trkpt lat="43.32557" lon="2.71299">
        <ele>88.9</ele>
        <time>2020-10-11T15:43:33.000Z</time>
      </trkpt>
      <trkpt lat="43.32559" lon="2.71294">
        <ele>94</ele>
        <time>2020-10-12T10:46:32.000Z</time>
      </trkpt>
      <trkpt lat="43.32561" lon="2.71284">
        <ele>93</ele>
        <time>2020-10-12T10:46:35.000Z</time>
      </trkpt>
      <trkpt lat="43.32565" lon="2.71274">
        <ele>92</ele>
        <time>2020-10-12T10:46:38.000Z</time>
      </trkpt>
      <trkpt lat="43.32569" lon="2.71269">
        <ele>91</ele>
        <time>2020-10-12T10:46:40.000Z</time>
      </trkpt>
      <trkpt lat="43.32578" lon="2.71266">
        <ele>90</ele>
        <time>2020-10-12T10:46:43.000Z</time>
      </trkpt>
      <trkpt lat="43.32584" lon="2.71266">
        <ele>90</ele>
        <time>2020-10-12T10:46:45.000Z</time>
      </trkpt>
      <trkpt lat="43.32614" lon="2.71258">
        <ele>85</ele>
        <time>2020-10-12T10:46:57.000Z</time>
      </trkpt>
      <trkpt lat="43.32627" lon="2.71252">
        <ele>84</ele>
        <time>2020-10-12T10:47:01.000Z</time>
      </trkpt>
      <trkpt lat="43.32639" lon="2.71244">
        <ele>82</ele>
        <time>2020-10-12T10:47:09.000Z</time>
      </trkpt>
      <trkpt lat="43.32645" lon="2.71241">
        <ele>80</ele>
        <time>2020-10-12T10:47:15.000Z</time>
      </trkpt>
      <trkpt lat="43.32647" lon="2.71238">
        <ele>80</ele>
        <time>2020-10-12T10:47:17.000Z</time>
      </trkpt>
      <trkpt lat="43.32654" lon="2.71233">
        <ele>79</ele>
        <time>2020-10-12T10:47:21.000Z</time>
      </trkpt>
      <trkpt lat="43.32659" lon="2.71236">
        <ele>78</ele>
        <time>2020-10-12T10:47:26.000Z</time>
      </trkpt>
      <trkpt lat="43.32664" lon="2.71235">
        <ele>77</ele>
        <time>2020-10-12T10:47:30.000Z</time>
      </trkpt>
      <trkpt lat="43.32666" lon="2.71235">
        <ele>76</ele>
        <time>2020-10-12T10:47:32.000Z</time>
      </trkpt>
      <trkpt lat="43.3267" lon="2.71233">
        <ele>76</ele>
        <time>2020-10-12T10:47:36.000Z</time>
      </trkpt>
      <trkpt lat="43.32672" lon="2.7123">
        <ele>75</ele>
        <time>2020-10-12T10:47:38.000Z</time>
      </trkpt>
      <trkpt lat="43.32672" lon="2.71229">
        <ele>75</ele>
        <time>2020-10-12T10:47:40.000Z</time>
      </trkpt>
      <trkpt lat="43.32675" lon="2.71228">
        <ele>75</ele>
        <time>2020-10-12T10:47:42.000Z</time>
      </trkpt>
      <trkpt lat="43.32677" lon="2.71226">
        <ele>74</ele>
        <time>2020-10-12T10:47:43.000Z</time>
      </trkpt>
      <trkpt lat="43.32688" lon="2.71214">
        <ele>73</ele>
        <time>2020-10-12T10:47:49.000Z</time>
      </trkpt>
      <trkpt lat="43.32705" lon="2.7119">
        <ele>72</ele>
        <time>2020-10-12T10:48:00.000Z</time>
      </trkpt>
      <trkpt lat="43.32707" lon="2.71181">
        <ele>71</ele>
        <time>2020-10-12T10:48:04.000Z</time>
      </trkpt>
      <trkpt lat="43.32708" lon="2.71171">
        <ele>71</ele>
        <time>2020-10-12T10:48:08.000Z</time>
      </trkpt>
      <trkpt lat="43.3271" lon="2.71162">
        <ele>70</ele>
        <time>2020-10-12T10:48:13.000Z</time>
      </trkpt>
      <trkpt lat="43.32712" lon="2.71159">
        <ele>70</ele>
        <time>2020-10-12T10:48:15.000Z</time>
      </trkpt>
      <trkpt lat="43.3272" lon="2.71143">
        <ele>70</ele>
        <time>2020-10-12T10:48:23.000Z</time>
      </trkpt>
      <trkpt lat="43.32729" lon="2.71125">
        <ele>69</ele>
        <time>2020-10-12T10:48:31.000Z</time>
      </trkpt>
      <trkpt lat="43.32744" lon="2.71097">
        <ele>69</ele>
        <time>2020-10-12T10:48:44.000Z</time>
      </trkpt>
      <trkpt lat="43.32749" lon="2.71082">
        <ele>68</ele>
        <time>2020-10-12T10:48:50.000Z</time>
      </trkpt>
      <trkpt lat="43.32749" lon="2.71076">
        <ele>68</ele>
        <time>2020-10-12T10:48:52.000Z</time>
      </trkpt>
      <trkpt lat="43.32744" lon="2.71067">
        <ele>68</ele>
        <time>2020-10-12T10:48:56.000Z</time>
      </trkpt>
      <trkpt lat="43.32731" lon="2.71045">
        <ele>68</ele>
        <time>2020-10-12T10:49:06.000Z</time>
      </trkpt>
      <trkpt lat="43.32724" lon="2.71035">
        <ele>68</ele>
        <time>2020-10-12T10:49:10.000Z</time>
      </trkpt>
      <trkpt lat="43.32722" lon="2.7103">
        <ele>68</ele>
        <time>2020-10-12T10:49:12.000Z</time>
      </trkpt>
      <trkpt lat="43.32721" lon="2.71024">
        <ele>68</ele>
        <time>2020-10-12T10:49:14.000Z</time>
      </trkpt>
      <trkpt lat="43.32721" lon="2.71018">
        <ele>68</ele>
        <time>2020-10-12T10:49:16.000Z</time>
      </trkpt>
      <trkpt lat="43.32726" lon="2.7101">
        <ele>68</ele>
        <time>2020-10-12T10:49:21.000Z</time>
      </trkpt>
      <trkpt lat="43.32738" lon="2.70995">
        <ele>68</ele>
        <time>2020-10-12T10:49:28.000Z</time>
      </trkpt>
      <trkpt lat="43.32745" lon="2.70986">
        <ele>68</ele>
        <time>2020-10-12T10:49:32.000Z</time>
      </trkpt>
      <trkpt lat="43.3275" lon="2.70978">
        <ele>68</ele>
        <time>2020-10-12T10:49:35.000Z</time>
      </trkpt>
      <trkpt lat="43.32759" lon="2.70961">
        <ele>68</ele>
        <time>2020-10-12T10:49:41.000Z</time>
      </trkpt>
      <trkpt lat="43.32764" lon="2.70946">
        <ele>68</ele>
        <time>2020-10-12T10:49:46.000Z</time>
      </trkpt>
      <trkpt lat="43.32769" lon="2.70933">
        <ele>68</ele>
        <time>2020-10-12T10:49:50.000Z</time>
      </trkpt>
      <trkpt lat="43.3277" lon="2.70927">
        <ele>67</ele>
        <time>2020-10-12T10:49:52.000Z</time>
      </trkpt>
      <trkpt lat="43.32776" lon="2.70898">
        <ele>67</ele>
        <time>2020-10-12T10:50:01.000Z</time>
      </trkpt>
      <trkpt lat="43.32778" lon="2.70893">
        <ele>67</ele>
        <time>2020-10-12T10:50:03.000Z</time>
      </trkpt>
      <trkpt lat="43.32779" lon="2.70891">
        <ele>67</ele>
        <time>2020-10-12T10:50:04.000Z</time>
      </trkpt>
      <trkpt lat="43.32785" lon="2.70883">
        <ele>67</ele>
        <time>2020-10-12T10:50:08.000Z</time>
      </trkpt>
      <trkpt lat="43.32798" lon="2.7088">
        <ele>67</ele>
        <time>2020-10-12T10:50:14.000Z</time>
      </trkpt>
      <trkpt lat="43.3281" lon="2.70875">
        <ele>67</ele>
        <time>2020-10-12T10:50:20.000Z</time>
      </trkpt>
      <trkpt lat="43.32817" lon="2.7087">
        <ele>67</ele>
        <time>2020-10-12T10:50:24.000Z</time>
      </trkpt>
      <trkpt lat="43.32819" lon="2.70866">
        <ele>67</ele>
        <time>2020-10-12T10:50:26.000Z</time>
      </trkpt>
      <trkpt lat="43.32822" lon="2.70861">
        <ele>67</ele>
        <time>2020-10-12T10:50:28.000Z</time>
      </trkpt>
      <trkpt lat="43.32823" lon="2.70851">
        <ele>67</ele>
        <time>2020-10-12T10:50:32.000Z</time>
      </trkpt>
      <trkpt lat="43.32829" lon="2.70827">
        <ele>67</ele>
        <time>2020-10-12T10:50:41.000Z</time>
      </trkpt>
      <trkpt lat="43.32832" lon="2.70819">
        <ele>67</ele>
        <time>2020-10-12T10:50:44.000Z</time>
      </trkpt>
      <trkpt lat="43.32836" lon="2.70813">
        <ele>67</ele>
        <time>2020-10-12T10:50:47.000Z</time>
      </trkpt>
      <trkpt lat="43.32848" lon="2.70796">
        <ele>68</ele>
        <time>2020-10-12T10:50:56.000Z</time>
      </trkpt>
      <trkpt lat="43.32878" lon="2.70758">
        <ele>68</ele>
        <time>2020-10-12T10:51:17.000Z</time>
      </trkpt>
      <trkpt lat="43.32891" lon="2.70746">
        <ele>68</ele>
        <time>2020-10-12T10:51:25.000Z</time>
      </trkpt>
      <trkpt lat="43.32903" lon="2.70741">
        <ele>69</ele>
        <time>2020-10-12T10:51:31.000Z</time>
      </trkpt>
      <trkpt lat="43.32908" lon="2.70732">
        <ele>69</ele>
        <time>2020-10-12T10:51:35.000Z</time>
      </trkpt>
      <trkpt lat="43.32914" lon="2.70721">
        <ele>69</ele>
        <time>2020-10-12T10:51:39.000Z</time>
      </trkpt>
      <trkpt lat="43.32915" lon="2.70715">
        <ele>69</ele>
        <time>2020-10-12T10:51:41.000Z</time>
      </trkpt>
      <trkpt lat="43.32915" lon="2.70706">
        <ele>69</ele>
        <time>2020-10-12T10:51:44.000Z</time>
      </trkpt>
      <trkpt lat="43.32917" lon="2.70697">
        <ele>69</ele>
        <time>2020-10-12T10:51:47.000Z</time>
      </trkpt>
      <trkpt lat="43.32924" lon="2.70682">
        <ele>69</ele>
        <time>2020-10-12T10:51:53.000Z</time>
      </trkpt>
      <trkpt lat="43.32932" lon="2.7067">
        <ele>70</ele>
        <time>2020-10-12T10:51:59.000Z</time>
      </trkpt>
      <trkpt lat="43.32933" lon="2.70664">
        <ele>70</ele>
        <time>2020-10-12T10:52:09.000Z</time>
      </trkpt>
      <trkpt lat="43.32934" lon="2.70654">
        <ele>70</ele>
        <time>2020-10-12T10:52:27.000Z</time>
      </trkpt>
      <trkpt lat="43.32937" lon="2.70651">
        <ele>70</ele>
        <time>2020-10-12T10:52:48.000Z</time>
      </trkpt>
      <trkpt lat="43.32942" lon="2.70648">
        <ele>71</ele>
        <time>2020-10-12T10:52:56.000Z</time>
      </trkpt>
      <trkpt lat="43.32953" lon="2.70663">
        <ele>71</ele>
        <time>2020-10-12T10:53:07.000Z</time>
      </trkpt>
      <trkpt lat="43.32962" lon="2.70673">
        <ele>71</ele>
        <time>2020-10-12T10:53:12.000Z</time>
      </trkpt>
      <trkpt lat="43.32973" lon="2.70684">
        <ele>72</ele>
        <time>2020-10-12T10:53:18.000Z</time>
      </trkpt>
      <trkpt lat="43.32979" lon="2.70689">
        <ele>72</ele>
        <time>2020-10-12T10:53:21.000Z</time>
      </trkpt>
      <trkpt lat="43.32989" lon="2.70697">
        <ele>72</ele>
        <time>2020-10-12T10:53:26.000Z</time>
      </trkpt>
      <trkpt lat="43.32998" lon="2.70711">
        <ele>73</ele>
        <time>2020-10-12T10:53:32.000Z</time>
      </trkpt>
      <trkpt lat="43.33005" lon="2.70719">
        <ele>73</ele>
        <time>2020-10-12T10:53:36.000Z</time>
      </trkpt>
      <trkpt lat="43.33009" lon="2.70722">
        <ele>73</ele>
        <time>2020-10-12T10:53:38.000Z</time>
      </trkpt>
      <trkpt lat="43.3302" lon="2.70726">
        <ele>73</ele>
        <time>2020-10-12T10:53:43.000Z</time>
      </trkpt>
      <trkpt lat="43.33025" lon="2.70732">
        <ele>73</ele>
        <time>2020-10-12T10:53:46.000Z</time>
      </trkpt>
      <trkpt lat="43.33028" lon="2.70737">
        <ele>74</ele>
        <time>2020-10-12T10:53:48.000Z</time>
      </trkpt>
      <trkpt lat="43.33027" lon="2.70746">
        <ele>74</ele>
        <time>2020-10-12T10:53:51.000Z</time>
      </trkpt>
      <trkpt lat="43.33025" lon="2.70752">
        <ele>74</ele>
        <time>2020-10-12T10:53:53.000Z</time>
      </trkpt>
      <trkpt lat="43.33023" lon="2.70758">
        <ele>74</ele>
        <time>2020-10-12T10:53:55.000Z</time>
      </trkpt>
      <trkpt lat="43.33023" lon="2.70761">
        <ele>74</ele>
        <time>2020-10-12T10:53:56.000Z</time>
      </trkpt>
      <trkpt lat="43.33024" lon="2.70763">
        <ele>74</ele>
        <time>2020-10-12T10:53:57.000Z</time>
      </trkpt>
      <trkpt lat="43.33026" lon="2.70763">
        <ele>74</ele>
        <time>2020-10-12T10:53:58.000Z</time>
      </trkpt>
      <trkpt lat="43.33029" lon="2.70762">
        <ele>74</ele>
        <time>2020-10-12T10:54:00.000Z</time>
      </trkpt>
      <trkpt lat="43.33038" lon="2.70756">
        <ele>75</ele>
        <time>2020-10-12T10:54:06.000Z</time>
      </trkpt>
      <trkpt lat="43.33046" lon="2.70751">
        <ele>75</ele>
        <time>2020-10-12T10:54:11.000Z</time>
      </trkpt>
      <trkpt lat="43.33065" lon="2.70739">
        <ele>76</ele>
        <time>2020-10-12T10:54:22.000Z</time>
      </trkpt>
      <trkpt lat="43.33073" lon="2.70732">
        <ele>77</ele>
        <time>2020-10-12T10:54:27.000Z</time>
      </trkpt>
      <trkpt lat="43.33077" lon="2.70729">
        <ele>77</ele>
        <time>2020-10-12T10:54:30.000Z</time>
      </trkpt>
      <trkpt lat="43.3308" lon="2.70728">
        <ele>77</ele>
        <time>2020-10-12T10:54:32.000Z</time>
      </trkpt>
      <trkpt lat="43.33095" lon="2.70714">
        <ele>79</ele>
        <time>2020-10-12T10:54:44.000Z</time>
      </trkpt>
      <trkpt lat="43.33101" lon="2.70703">
        <ele>79</ele>
        <time>2020-10-12T10:54:51.000Z</time>
      </trkpt>
      <trkpt lat="43.33103" lon="2.70701">
        <ele>80</ele>
        <time>2020-10-12T10:54:53.000Z</time>
      </trkpt>
      <trkpt lat="43.3311" lon="2.70686">
        <ele>81</ele>
        <time>2020-10-12T10:55:02.000Z</time>
      </trkpt>
      <trkpt lat="43.33117" lon="2.70677">
        <ele>81</ele>
        <time>2020-10-12T10:55:09.000Z</time>
      </trkpt>
      <trkpt lat="43.33121" lon="2.70669">
        <ele>82</ele>
        <time>2020-10-12T10:55:15.000Z</time>
      </trkpt>
      <trkpt lat="43.33127" lon="2.70663">
        <ele>83</ele>
        <time>2020-10-12T10:55:21.000Z</time>
      </trkpt>
      <trkpt lat="43.33131" lon="2.70658">
        <ele>83</ele>
        <time>2020-10-12T10:55:25.000Z</time>
      </trkpt>
      <trkpt lat="43.33132" lon="2.70653">
        <ele>84</ele>
        <time>2020-10-12T10:55:28.000Z</time>
      </trkpt>
      <trkpt lat="43.33134" lon="2.70652">
        <ele>84</ele>
        <time>2020-10-12T10:55:30.000Z</time>
      </trkpt>
      <trkpt lat="43.33135" lon="2.7065">
        <ele>84</ele>
        <time>2020-10-12T10:55:31.000Z</time>
      </trkpt>
      <trkpt lat="43.33136" lon="2.70647">
        <ele>85</ele>
        <time>2020-10-12T10:55:34.000Z</time>
      </trkpt>
      <trkpt lat="43.33136" lon="2.70646">
        <ele>85</ele>
        <time>2020-10-12T10:55:36.000Z</time>
      </trkpt>
      <trkpt lat="43.33138" lon="2.70643">
        <ele>134</ele>
        <time>2020-10-12T10:55:46.000Z</time>
      </trkpt>
      <trkpt lat="43.3314" lon="2.70623">
        <ele>133.7</ele>
        <time>2020-10-12T10:55:56.000Z</time>
      </trkpt>
      <trkpt lat="43.33144" lon="2.70606">
        <ele>96</ele>
        <time>2020-10-12T10:58:45.000Z</time>
      </trkpt>
      <trkpt lat="43.33147" lon="2.70602">
        <ele>97</ele>
        <time>2020-10-12T10:58:47.000Z</time>
      </trkpt>
      <trkpt lat="43.33151" lon="2.70599">
        <ele>98</ele>
        <time>2020-10-12T10:58:50.000Z</time>
      </trkpt>
      <trkpt lat="43.33152" lon="2.70599">
        <ele>98</ele>
        <time>2020-10-12T10:58:51.000Z</time>
      </trkpt>
      <trkpt lat="43.33157" lon="2.70598">
        <ele>99</ele>
        <time>2020-10-12T10:58:54.000Z</time>
      </trkpt>
      <trkpt lat="43.3316" lon="2.70595">
        <ele>100</ele>
        <time>2020-10-12T10:58:56.000Z</time>
      </trkpt>
      <trkpt lat="43.33161" lon="2.70591">
        <ele>100</ele>
        <time>2020-10-12T10:58:58.000Z</time>
      </trkpt>
      <trkpt lat="43.33163" lon="2.70588">
        <ele>101</ele>
        <time>2020-10-12T10:59:00.000Z</time>
      </trkpt>
      <trkpt lat="43.33164" lon="2.70588">
        <ele>101</ele>
        <time>2020-10-12T10:59:01.000Z</time>
      </trkpt>
      <trkpt lat="43.33171" lon="2.70579">
        <ele>102</ele>
        <time>2020-10-12T10:59:11.000Z</time>
      </trkpt>
      <trkpt lat="43.33179" lon="2.70563">
        <ele>103</ele>
        <time>2020-10-12T10:59:22.000Z</time>
      </trkpt>
      <trkpt lat="43.33187" lon="2.70553">
        <ele>104</ele>
        <time>2020-10-12T10:59:31.000Z</time>
      </trkpt>
      <trkpt lat="43.33192" lon="2.70546">
        <ele>105</ele>
        <time>2020-10-12T10:59:37.000Z</time>
      </trkpt>
      <trkpt lat="43.33193" lon="2.7054">
        <ele>105</ele>
        <time>2020-10-12T10:59:40.000Z</time>
      </trkpt>
      <trkpt lat="43.33191" lon="2.70536">
        <ele>105</ele>
        <time>2020-10-12T10:59:45.000Z</time>
      </trkpt>
      <trkpt lat="43.33188" lon="2.70527">
        <ele>105</ele>
        <time>2020-10-12T10:59:50.000Z</time>
      </trkpt>
      <trkpt lat="43.3319" lon="2.70522">
        <ele>105</ele>
        <time>2020-10-12T10:59:56.000Z</time>
      </trkpt>
      <trkpt lat="43.33195" lon="2.7052">
        <ele>106</ele>
        <time>2020-10-12T11:00:01.000Z</time>
      </trkpt>
      <trkpt lat="43.33196" lon="2.70517">
        <ele>107</ele>
        <time>2020-10-12T11:00:03.000Z</time>
      </trkpt>
      <trkpt lat="43.33202" lon="2.705">
        <ele>108</ele>
        <time>2020-10-12T11:00:15.000Z</time>
      </trkpt>
      <trkpt lat="43.33203" lon="2.70498">
        <ele>109</ele>
        <time>2020-10-12T11:00:17.000Z</time>
      </trkpt>
      <trkpt lat="43.33204" lon="2.70496">
        <ele>110</ele>
        <time>2020-10-12T11:00:19.000Z</time>
      </trkpt>
      <trkpt lat="43.33207" lon="2.70496">
        <ele>110</ele>
        <time>2020-10-12T11:00:22.000Z</time>
      </trkpt>
      <trkpt lat="43.33209" lon="2.70497">
        <ele>111</ele>
        <time>2020-10-12T11:00:26.000Z</time>
      </trkpt>
      <trkpt lat="43.33213" lon="2.70494">
        <ele>111</ele>
        <time>2020-10-12T11:00:33.000Z</time>
      </trkpt>
      <trkpt lat="43.33223" lon="2.70482">
        <ele>113</ele>
        <time>2020-10-12T11:00:45.000Z</time>
      </trkpt>
      <trkpt lat="43.33227" lon="2.70476">
        <ele>113</ele>
        <time>2020-10-12T11:00:50.000Z</time>
      </trkpt>
      <trkpt lat="43.33234" lon="2.70467">
        <ele>113</ele>
        <time>2020-10-12T11:00:58.000Z</time>
      </trkpt>
      <trkpt lat="43.33239" lon="2.7046">
        <ele>113</ele>
        <time>2020-10-12T11:01:03.000Z</time>
      </trkpt>
      <trkpt lat="43.33248" lon="2.70435">
        <ele>116</ele>
        <time>2020-10-12T11:01:20.000Z</time>
      </trkpt>
      <trkpt lat="43.33252" lon="2.70431">
        <ele>117</ele>
        <time>2020-10-12T11:01:24.000Z</time>
      </trkpt>
      <trkpt lat="43.33254" lon="2.70425">
        <ele>117</ele>
        <time>2020-10-12T11:01:28.000Z</time>
      </trkpt>
      <trkpt lat="43.3326" lon="2.70418">
        <ele>118</ele>
        <time>2020-10-12T11:01:35.000Z</time>
      </trkpt>
      <trkpt lat="43.33265" lon="2.70417">
        <ele>119</ele>
        <time>2020-10-12T11:01:40.000Z</time>
      </trkpt>
      <trkpt lat="43.33267" lon="2.70417">
        <ele>119</ele>
        <time>2020-10-12T11:01:42.000Z</time>
      </trkpt>
      <trkpt lat="43.33269" lon="2.70418">
        <ele>119</ele>
        <time>2020-10-12T11:01:44.000Z</time>
      </trkpt>
      <trkpt lat="43.33271" lon="2.70421">
        <ele>119</ele>
        <time>2020-10-12T11:01:46.000Z</time>
      </trkpt>
      <trkpt lat="43.33272" lon="2.70426">
        <ele>120</ele>
        <time>2020-10-12T11:01:53.000Z</time>
      </trkpt>
      <trkpt lat="43.33273" lon="2.70434">
        <ele>119</ele>
        <time>2020-10-12T11:01:59.000Z</time>
      </trkpt>
      <trkpt lat="43.33276" lon="2.70438">
        <ele>120</ele>
        <time>2020-10-12T11:02:02.000Z</time>
      </trkpt>
      <trkpt lat="43.33279" lon="2.70438">
        <ele>120</ele>
        <time>2020-10-12T11:02:04.000Z</time>
      </trkpt>
      <trkpt lat="43.33292" lon="2.70429">
        <ele>121</ele>
        <time>2020-10-12T11:02:11.000Z</time>
      </trkpt>
      <trkpt lat="43.33311" lon="2.70425">
        <ele>121</ele>
        <time>2020-10-12T11:02:19.000Z</time>
      </trkpt>
      <trkpt lat="43.3332" lon="2.70426">
        <ele>121</ele>
        <time>2020-10-12T11:02:23.000Z</time>
      </trkpt>
      <trkpt lat="43.33332" lon="2.7043">
        <ele>122</ele>
        <time>2020-10-12T11:02:29.000Z</time>
      </trkpt>
      <trkpt lat="43.33338" lon="2.70433">
        <ele>122</ele>
        <time>2020-10-12T11:02:32.000Z</time>
      </trkpt>
      <trkpt lat="43.33349" lon="2.70441">
        <ele>123</ele>
        <time>2020-10-12T11:02:38.000Z</time>
      </trkpt>
      <trkpt lat="43.33354" lon="2.70445">
        <ele>124</ele>
        <time>2020-10-12T11:02:41.000Z</time>
      </trkpt>
      <trkpt lat="43.33361" lon="2.70456">
        <ele>125</ele>
        <time>2020-10-12T11:02:47.000Z</time>
      </trkpt>
      <trkpt lat="43.33368" lon="2.70462">
        <ele>126</ele>
        <time>2020-10-12T11:02:51.000Z</time>
      </trkpt>
      <trkpt lat="43.33372" lon="2.70464">
        <ele>126</ele>
        <time>2020-10-12T11:02:53.000Z</time>
      </trkpt>
      <trkpt lat="43.33378" lon="2.70465">
        <ele>126</ele>
        <time>2020-10-12T11:02:56.000Z</time>
      </trkpt>
      <trkpt lat="43.33389" lon="2.70464">
        <ele>126</ele>
        <time>2020-10-12T11:03:01.000Z</time>
      </trkpt>
      <trkpt lat="43.33406" lon="2.7046">
        <ele>126</ele>
        <time>2020-10-12T11:03:08.000Z</time>
      </trkpt>
      <trkpt lat="43.33427" lon="2.70454">
        <ele>128</ele>
        <time>2020-10-12T11:03:18.000Z</time>
      </trkpt>
      <trkpt lat="43.33439" lon="2.70449">
        <ele>129</ele>
        <time>2020-10-12T11:03:24.000Z</time>
      </trkpt>
      <trkpt lat="43.33458" lon="2.70444">
        <ele>130</ele>
        <time>2020-10-12T11:03:33.000Z</time>
      </trkpt>
      <trkpt lat="43.33473" lon="2.7044">
        <ele>130</ele>
        <time>2020-10-12T11:03:40.000Z</time>
      </trkpt>
      <trkpt lat="43.33495" lon="2.70428">
        <ele>131</ele>
        <time>2020-10-12T11:03:52.000Z</time>
      </trkpt>
      <trkpt lat="43.335" lon="2.70424">
        <ele>132</ele>
        <time>2020-10-12T11:03:55.000Z</time>
      </trkpt>
      <trkpt lat="43.33518" lon="2.70399">
        <ele>135</ele>
        <time>2020-10-12T11:04:10.000Z</time>
      </trkpt>
      <trkpt lat="43.33534" lon="2.70374">
        <ele>138</ele>
        <time>2020-10-12T11:04:26.000Z</time>
      </trkpt>
      <trkpt lat="43.33544" lon="2.70365">
        <ele>139</ele>
        <time>2020-10-12T11:04:33.000Z</time>
      </trkpt>
      <trkpt lat="43.33553" lon="2.70359">
        <ele>139</ele>
        <time>2020-10-12T11:04:38.000Z</time>
      </trkpt>
      <trkpt lat="43.33562" lon="2.70358">
        <ele>139</ele>
        <time>2020-10-12T11:04:43.000Z</time>
      </trkpt>
      <trkpt lat="43.33567" lon="2.70355">
        <ele>139</ele>
        <time>2020-10-12T11:04:46.000Z</time>
      </trkpt>
      <trkpt lat="43.33576" lon="2.70351">
        <ele>139</ele>
        <time>2020-10-12T11:04:51.000Z</time>
      </trkpt>
      <trkpt lat="43.33582" lon="2.70347">
        <ele>141</ele>
        <time>2020-10-12T11:04:56.000Z</time>
      </trkpt>
      <trkpt lat="43.33587" lon="2.70342">
        <ele>141</ele>
        <time>2020-10-12T11:05:10.000Z</time>
      </trkpt>
      <trkpt lat="43.33593" lon="2.70337">
        <ele>142</ele>
        <time>2020-10-12T11:05:18.000Z</time>
      </trkpt>
      <trkpt lat="43.33598" lon="2.70334">
        <ele>143</ele>
        <time>2020-10-12T11:05:24.000Z</time>
      </trkpt>
      <trkpt lat="43.33605" lon="2.70331">
        <ele>145</ele>
        <time>2020-10-12T11:05:32.000Z</time>
      </trkpt>
      <trkpt lat="43.3361" lon="2.70331">
        <ele>146</ele>
        <time>2020-10-12T11:05:40.000Z</time>
      </trkpt>
      <trkpt lat="43.33633" lon="2.70339">
        <ele>147</ele>
        <time>2020-10-12T11:06:01.000Z</time>
      </trkpt>
      <trkpt lat="43.33644" lon="2.70339">
        <ele>148</ele>
        <time>2020-10-12T11:06:09.000Z</time>
      </trkpt>
      <trkpt lat="43.33653" lon="2.70337">
        <ele>149</ele>
        <time>2020-10-12T11:06:16.000Z</time>
      </trkpt>
      <trkpt lat="43.33659" lon="2.70331">
        <ele>149</ele>
        <time>2020-10-12T11:06:21.000Z</time>
      </trkpt>
      <trkpt lat="43.33665" lon="2.70322">
        <ele>150</ele>
        <time>2020-10-12T11:06:28.000Z</time>
      </trkpt>
      <trkpt lat="43.33672" lon="2.70314">
        <ele>150</ele>
        <time>2020-10-12T11:06:36.000Z</time>
      </trkpt>
      <trkpt lat="43.33677" lon="2.70311">
        <ele>151</ele>
        <time>2020-10-12T11:06:41.000Z</time>
      </trkpt>
      <trkpt lat="43.33681" lon="2.7031">
        <ele>151</ele>
        <time>2020-10-12T11:06:44.000Z</time>
      </trkpt>
      <trkpt lat="43.33686" lon="2.70311">
        <ele>151</ele>
        <time>2020-10-12T11:06:47.000Z</time>
      </trkpt>
      <trkpt lat="43.33692" lon="2.70309">
        <ele>152</ele>
        <time>2020-10-12T11:06:52.000Z</time>
      </trkpt>
      <trkpt lat="43.33696" lon="2.70307">
        <ele>152</ele>
        <time>2020-10-12T11:06:55.000Z</time>
      </trkpt>
      <trkpt lat="43.33712" lon="2.70292">
        <ele>151</ele>
        <time>2020-10-12T11:07:10.000Z</time>
      </trkpt>
      <trkpt lat="43.33718" lon="2.70285">
        <ele>153</ele>
        <time>2020-10-12T11:07:16.000Z</time>
      </trkpt>
      <trkpt lat="43.33719" lon="2.70282">
        <ele>154</ele>
        <time>2020-10-12T11:07:18.000Z</time>
      </trkpt>
      <trkpt lat="43.33723" lon="2.7027">
        <ele>154</ele>
        <time>2020-10-12T11:07:27.000Z</time>
      </trkpt>
      <trkpt lat="43.33729" lon="2.7026">
        <ele>156</ele>
        <time>2020-10-12T11:07:35.000Z</time>
      </trkpt>
      <trkpt lat="43.33739" lon="2.70242">
        <ele>157</ele>
        <time>2020-10-12T11:07:48.000Z</time>
      </trkpt>
      <trkpt lat="43.33741" lon="2.70239">
        <ele>158</ele>
        <time>2020-10-12T11:07:51.000Z</time>
      </trkpt>
      <trkpt lat="43.33743" lon="2.70237">
        <ele>158</ele>
        <time>2020-10-12T11:07:53.000Z</time>
      </trkpt>
      <trkpt lat="43.33745" lon="2.70235">
        <ele>158</ele>
        <time>2020-10-12T11:07:55.000Z</time>
      </trkpt>
      <trkpt lat="43.33752" lon="2.70229">
        <ele>158</ele>
        <time>2020-10-12T11:08:01.000Z</time>
      </trkpt>
      <trkpt lat="43.33756" lon="2.70229">
        <ele>159</ele>
        <time>2020-10-12T11:08:04.000Z</time>
      </trkpt>
      <trkpt lat="43.33761" lon="2.70233">
        <ele>160</ele>
        <time>2020-10-12T11:08:08.000Z</time>
      </trkpt>
      <trkpt lat="43.33768" lon="2.70242">
        <ele>161</ele>
        <time>2020-10-12T11:08:16.000Z</time>
      </trkpt>
      <trkpt lat="43.33782" lon="2.70258">
        <ele>162</ele>
        <time>2020-10-12T11:08:30.000Z</time>
      </trkpt>
      <trkpt lat="43.33787" lon="2.70261">
        <ele>164</ele>
        <time>2020-10-12T11:08:34.000Z</time>
      </trkpt>
      <trkpt lat="43.33793" lon="2.70263">
        <ele>164</ele>
        <time>2020-10-12T11:08:39.000Z</time>
      </trkpt>
      <trkpt lat="43.33806" lon="2.70274">
        <ele>166</ele>
        <time>2020-10-12T11:08:52.000Z</time>
      </trkpt>
      <trkpt lat="43.33812" lon="2.70277">
        <ele>166</ele>
        <time>2020-10-12T11:08:57.000Z</time>
      </trkpt>
      <trkpt lat="43.33823" lon="2.70276">
        <ele>166</ele>
        <time>2020-10-12T11:09:05.000Z</time>
      </trkpt>
      <trkpt lat="43.3383" lon="2.70278">
        <ele>167</ele>
        <time>2020-10-12T11:09:11.000Z</time>
      </trkpt>
      <trkpt lat="43.33833" lon="2.7028">
        <ele>167</ele>
        <time>2020-10-12T11:09:14.000Z</time>
      </trkpt>
      <trkpt lat="43.33837" lon="2.70297">
        <ele>168</ele>
        <time>2020-10-12T11:09:24.000Z</time>
      </trkpt>
      <trkpt lat="43.33842" lon="2.70324">
        <ele>170</ele>
        <time>2020-10-12T11:09:38.000Z</time>
      </trkpt>
      <trkpt lat="43.33845" lon="2.7033">
        <ele>170</ele>
        <time>2020-10-12T11:09:42.000Z</time>
      </trkpt>
      <trkpt lat="43.33846" lon="2.70333">
        <ele>171</ele>
        <time>2020-10-12T11:09:44.000Z</time>
      </trkpt>
      <trkpt lat="43.33848" lon="2.70334">
        <ele>171</ele>
        <time>2020-10-12T11:09:46.000Z</time>
      </trkpt>
      <trkpt lat="43.3386" lon="2.70334">
        <ele>173</ele>
        <time>2020-10-12T11:09:58.000Z</time>
      </trkpt>
      <trkpt lat="43.33866" lon="2.70335">
        <ele>174</ele>
        <time>2020-10-12T11:10:04.000Z</time>
      </trkpt>
      <trkpt lat="43.33874" lon="2.70336">
        <ele>176</ele>
        <time>2020-10-12T11:10:12.000Z</time>
      </trkpt>
      <trkpt lat="43.33879" lon="2.70339">
        <ele>177</ele>
        <time>2020-10-12T11:10:18.000Z</time>
      </trkpt>
      <trkpt lat="43.33884" lon="2.7034">
        <ele>178</ele>
        <time>2020-10-12T11:10:23.000Z</time>
      </trkpt>
      <trkpt lat="43.33889" lon="2.70344">
        <ele>179</ele>
        <time>2020-10-12T11:10:30.000Z</time>
      </trkpt>
      <trkpt lat="43.33897" lon="2.70346">
        <ele>182</ele>
        <time>2020-10-12T11:10:38.000Z</time>
      </trkpt>
      <trkpt lat="43.33901" lon="2.70351">
        <ele>183</ele>
        <time>2020-10-12T11:10:43.000Z</time>
      </trkpt>
      <trkpt lat="43.33908" lon="2.70357">
        <ele>183</ele>
        <time>2020-10-12T11:10:51.000Z</time>
      </trkpt>
      <trkpt lat="43.33925" lon="2.70359">
        <ele>186</ele>
        <time>2020-10-12T11:11:09.000Z</time>
      </trkpt>
      <trkpt lat="43.33933" lon="2.70361">
        <ele>188</ele>
        <time>2020-10-12T11:11:19.000Z</time>
      </trkpt>
      <trkpt lat="43.33941" lon="2.7036">
        <ele>189</ele>
        <time>2020-10-12T11:11:27.000Z</time>
      </trkpt>
      <trkpt lat="43.33944" lon="2.70355">
        <ele>189</ele>
        <time>2020-10-12T11:11:31.000Z</time>
      </trkpt>
      <trkpt lat="43.3395" lon="2.70349">
        <ele>191</ele>
        <time>2020-10-12T11:11:38.000Z</time>
      </trkpt>
      <trkpt lat="43.33954" lon="2.70346">
        <ele>192</ele>
        <time>2020-10-12T11:11:42.000Z</time>
      </trkpt>
      <trkpt lat="43.33962" lon="2.70337">
        <ele>194</ele>
        <time>2020-10-12T11:11:53.000Z</time>
      </trkpt>
      <trkpt lat="43.3398" lon="2.70328">
        <ele>197</ele>
        <time>2020-10-12T11:12:12.000Z</time>
      </trkpt>
      <trkpt lat="43.33995" lon="2.7031">
        <ele>200</ele>
        <time>2020-10-12T11:12:31.000Z</time>
      </trkpt>
      <trkpt lat="43.34002" lon="2.70301">
        <ele>200</ele>
        <time>2020-10-12T11:12:40.000Z</time>
      </trkpt>
      <trkpt lat="43.34005" lon="2.703">
        <ele>201</ele>
        <time>2020-10-12T11:12:43.000Z</time>
      </trkpt>
      <trkpt lat="43.34011" lon="2.70293">
        <ele>203</ele>
        <time>2020-10-12T11:12:50.000Z</time>
      </trkpt>
      <trkpt lat="43.34017" lon="2.70287">
        <ele>203</ele>
        <time>2020-10-12T11:12:55.000Z</time>
      </trkpt>
      <trkpt lat="43.34021" lon="2.70281">
        <ele>204</ele>
        <time>2020-10-12T11:13:00.000Z</time>
      </trkpt>
      <trkpt lat="43.34026" lon="2.70273">
        <ele>205</ele>
        <time>2020-10-12T11:13:07.000Z</time>
      </trkpt>
      <trkpt lat="43.34025" lon="2.70273">
        <ele>205</ele>
        <time>2020-10-12T11:13:08.000Z</time>
      </trkpt>
      <trkpt lat="43.34027" lon="2.7027">
        <ele>206</ele>
        <time>2020-10-12T11:13:11.000Z</time>
      </trkpt>
      <trkpt lat="43.3403" lon="2.70268">
        <ele>206</ele>
        <time>2020-10-12T11:13:14.000Z</time>
      </trkpt>
      <trkpt lat="43.34033" lon="2.70267">
        <ele>207</ele>
        <time>2020-10-12T11:13:16.000Z</time>
      </trkpt>
      <trkpt lat="43.34039" lon="2.70267">
        <ele>208</ele>
        <time>2020-10-12T11:13:22.000Z</time>
      </trkpt>
      <trkpt lat="43.34049" lon="2.70272">
        <ele>210</ele>
        <time>2020-10-12T11:13:31.000Z</time>
      </trkpt>
      <trkpt lat="43.34051" lon="2.70272">
        <ele>210</ele>
        <time>2020-10-12T11:13:33.000Z</time>
      </trkpt>
      <trkpt lat="43.34053" lon="2.70271">
        <ele>210</ele>
        <time>2020-10-12T11:13:35.000Z</time>
      </trkpt>
      <trkpt lat="43.34056" lon="2.70267">
        <ele>210</ele>
        <time>2020-10-12T11:13:38.000Z</time>
      </trkpt>
      <trkpt lat="43.34056" lon="2.70263">
        <ele>211</ele>
        <time>2020-10-12T11:13:41.000Z</time>
      </trkpt>
      <trkpt lat="43.34057" lon="2.70262">
        <ele>211</ele>
        <time>2020-10-12T11:13:44.000Z</time>
      </trkpt>
      <trkpt lat="43.34058" lon="2.70259">
        <ele>211</ele>
        <time>2020-10-12T11:13:50.000Z</time>
      </trkpt>
      <trkpt lat="43.34057" lon="2.70253">
        <ele>211</ele>
        <time>2020-10-12T11:13:53.000Z</time>
      </trkpt>
      <trkpt lat="43.34056" lon="2.70242">
        <ele>211</ele>
        <time>2020-10-12T11:13:57.000Z</time>
      </trkpt>
      <trkpt lat="43.34053" lon="2.70228">
        <ele>212</ele>
        <time>2020-10-12T11:14:02.000Z</time>
      </trkpt>
      <trkpt lat="43.34051" lon="2.70226">
        <ele>212</ele>
        <time>2020-10-12T11:14:03.000Z</time>
      </trkpt>
      <trkpt lat="43.34038" lon="2.70217">
        <ele>213</ele>
        <time>2020-10-12T11:14:09.000Z</time>
      </trkpt>
      <trkpt lat="43.34029" lon="2.70212">
        <ele>213</ele>
        <time>2020-10-12T11:14:13.000Z</time>
      </trkpt>
      <trkpt lat="43.34005" lon="2.70203">
        <ele>213</ele>
        <time>2020-10-12T11:14:23.000Z</time>
      </trkpt>
      <trkpt lat="43.33995" lon="2.70197">
        <ele>214</ele>
        <time>2020-10-12T11:14:28.000Z</time>
      </trkpt>
      <trkpt lat="43.33989" lon="2.70193">
        <ele>215</ele>
        <time>2020-10-12T11:14:31.000Z</time>
      </trkpt>
      <trkpt lat="43.33984" lon="2.70184">
        <ele>215</ele>
        <time>2020-10-12T11:14:34.000Z</time>
      </trkpt>
      <trkpt lat="43.33982" lon="2.70178">
        <ele>216</ele>
        <time>2020-10-12T11:14:36.000Z</time>
      </trkpt>
      <trkpt lat="43.33982" lon="2.70171">
        <ele>216</ele>
        <time>2020-10-12T11:14:38.000Z</time>
      </trkpt>
      <trkpt lat="43.33983" lon="2.70168">
        <ele>216</ele>
        <time>2020-10-12T11:14:39.000Z</time>
      </trkpt>
      <trkpt lat="43.33985" lon="2.70162">
        <ele>216</ele>
        <time>2020-10-12T11:14:40.000Z</time>
      </trkpt>
      <trkpt lat="43.33988" lon="2.70157">
        <ele>216</ele>
        <time>2020-10-12T11:14:43.000Z</time>
      </trkpt>
      <trkpt lat="43.33992" lon="2.70149">
        <ele>216</ele>
        <time>2020-10-12T11:14:46.000Z</time>
      </trkpt>
      <trkpt lat="43.33998" lon="2.70142">
        <ele>217</ele>
        <time>2020-10-12T11:14:50.000Z</time>
      </trkpt>
      <trkpt lat="43.34002" lon="2.70136">
        <ele>218</ele>
        <time>2020-10-12T11:14:53.000Z</time>
      </trkpt>
      <trkpt lat="43.34007" lon="2.70131">
        <ele>219</ele>
        <time>2020-10-12T11:14:56.000Z</time>
      </trkpt>
      <trkpt lat="43.34011" lon="2.70124">
        <ele>220</ele>
        <time>2020-10-12T11:15:00.000Z</time>
      </trkpt>
      <trkpt lat="43.34017" lon="2.70117">
        <ele>221</ele>
        <time>2020-10-12T11:15:05.000Z</time>
      </trkpt>
      <trkpt lat="43.34021" lon="2.70112">
        <ele>221</ele>
        <time>2020-10-12T11:15:08.000Z</time>
      </trkpt>
      <trkpt lat="43.34031" lon="2.70102">
        <ele>222</ele>
        <time>2020-10-12T11:15:16.000Z</time>
      </trkpt>
      <trkpt lat="43.34036" lon="2.70098">
        <ele>224</ele>
        <time>2020-10-12T11:15:20.000Z</time>
      </trkpt>
      <trkpt lat="43.34044" lon="2.70095">
        <ele>225</ele>
        <time>2020-10-12T11:15:26.000Z</time>
      </trkpt>
      <trkpt lat="43.34052" lon="2.70094">
        <ele>226</ele>
        <time>2020-10-12T11:15:31.000Z</time>
      </trkpt>
      <trkpt lat="43.34068" lon="2.70096">
        <ele>227</ele>
        <time>2020-10-12T11:15:43.000Z</time>
      </trkpt>
      <trkpt lat="43.34084" lon="2.70095">
        <ele>228</ele>
        <time>2020-10-12T11:15:54.000Z</time>
      </trkpt>
      <trkpt lat="43.34089" lon="2.70093">
        <ele>228</ele>
        <time>2020-10-12T11:15:58.000Z</time>
      </trkpt>
      <trkpt lat="43.34116" lon="2.70084">
        <ele>230</ele>
        <time>2020-10-12T11:16:12.000Z</time>
      </trkpt>
      <trkpt lat="43.34122" lon="2.70078">
        <ele>231</ele>
        <time>2020-10-12T11:16:17.000Z</time>
      </trkpt>
      <trkpt lat="43.34128" lon="2.70075">
        <ele>232</ele>
        <time>2020-10-12T11:16:22.000Z</time>
      </trkpt>
      <trkpt lat="43.34136" lon="2.70072">
        <ele>232</ele>
        <time>2020-10-12T11:16:27.000Z</time>
      </trkpt>
      <trkpt lat="43.34149" lon="2.70072">
        <ele>234</ele>
        <time>2020-10-12T11:16:35.000Z</time>
      </trkpt>
      <trkpt lat="43.34152" lon="2.70069">
        <ele>234</ele>
        <time>2020-10-12T11:16:37.000Z</time>
      </trkpt>
      <trkpt lat="43.34155" lon="2.70062">
        <ele>234</ele>
        <time>2020-10-12T11:16:41.000Z</time>
      </trkpt>
      <trkpt lat="43.34158" lon="2.70049">
        <ele>235</ele>
        <time>2020-10-12T11:16:49.000Z</time>
      </trkpt>
      <trkpt lat="43.3416" lon="2.70045">
        <ele>236</ele>
        <time>2020-10-12T11:16:52.000Z</time>
      </trkpt>
      <trkpt lat="43.34162" lon="2.70042">
        <ele>237</ele>
        <time>2020-10-12T11:16:54.000Z</time>
      </trkpt>
      <trkpt lat="43.34165" lon="2.70039">
        <ele>238</ele>
        <time>2020-10-12T11:16:57.000Z</time>
      </trkpt>
      <trkpt lat="43.3417" lon="2.70037">
        <ele>239</ele>
        <time>2020-10-12T11:17:01.000Z</time>
      </trkpt>
      <trkpt lat="43.34182" lon="2.70033">
        <ele>241</ele>
        <time>2020-10-12T11:17:10.000Z</time>
      </trkpt>
      <trkpt lat="43.34189" lon="2.70029">
        <ele>241</ele>
        <time>2020-10-12T11:17:15.000Z</time>
      </trkpt>
      <trkpt lat="43.3419" lon="2.70028">
        <ele>242</ele>
        <time>2020-10-12T11:17:18.000Z</time>
      </trkpt>
      <trkpt lat="43.34189" lon="2.70028">
        <ele>241</ele>
        <time>2020-10-12T11:17:32.000Z</time>
      </trkpt>
      <trkpt lat="43.34219" lon="2.70018">
        <ele>244</ele>
        <time>2020-10-12T11:17:49.000Z</time>
      </trkpt>
      <trkpt lat="43.34246" lon="2.70008">
        <ele>244</ele>
        <time>2020-10-12T11:18:01.000Z</time>
      </trkpt>
      <trkpt lat="43.3425" lon="2.70006">
        <ele>244</ele>
        <time>2020-10-12T11:18:03.000Z</time>
      </trkpt>
      <trkpt lat="43.34258" lon="2.69998">
        <ele>246</ele>
        <time>2020-10-12T11:18:08.000Z</time>
      </trkpt>
      <trkpt lat="43.34275" lon="2.69971">
        <ele>248</ele>
        <time>2020-10-12T11:18:22.000Z</time>
      </trkpt>
      <trkpt lat="43.34281" lon="2.6996">
        <ele>249</ele>
        <time>2020-10-12T11:18:27.000Z</time>
      </trkpt>
      <trkpt lat="43.34282" lon="2.69956">
        <ele>249</ele>
        <time>2020-10-12T11:18:29.000Z</time>
      </trkpt>
      <trkpt lat="43.34283" lon="2.69942">
        <ele>249</ele>
        <time>2020-10-12T11:18:34.000Z</time>
      </trkpt>
      <trkpt lat="43.34284" lon="2.69933">
        <ele>250</ele>
        <time>2020-10-12T11:18:37.000Z</time>
      </trkpt>
      <trkpt lat="43.3429" lon="2.69908">
        <ele>251</ele>
        <time>2020-10-12T11:18:48.000Z</time>
      </trkpt>
      <trkpt lat="43.34295" lon="2.69899">
        <ele>251</ele>
        <time>2020-10-12T11:18:53.000Z</time>
      </trkpt>
      <trkpt lat="43.343" lon="2.6989">
        <ele>252</ele>
        <time>2020-10-12T11:18:58.000Z</time>
      </trkpt>
      <trkpt lat="43.34306" lon="2.69884">
        <ele>253</ele>
        <time>2020-10-12T11:19:02.000Z</time>
      </trkpt>
      <trkpt lat="43.34314" lon="2.69878">
        <ele>253</ele>
        <time>2020-10-12T11:19:07.000Z</time>
      </trkpt>
      <trkpt lat="43.34321" lon="2.69871">
        <ele>254</ele>
        <time>2020-10-12T11:19:11.000Z</time>
      </trkpt>
      <trkpt lat="43.34328" lon="2.69861">
        <ele>252</ele>
        <time>2020-10-12T11:19:14.000Z</time>
      </trkpt>
      <trkpt lat="43.34336" lon="2.69847">
        <ele>250</ele>
        <time>2020-10-12T11:19:17.000Z</time>
      </trkpt>
      <trkpt lat="43.34348" lon="2.6982">
        <ele>250</ele>
        <time>2020-10-12T11:19:24.000Z</time>
      </trkpt>
      <trkpt lat="43.34359" lon="2.698">
        <ele>250</ele>
        <time>2020-10-12T11:19:30.000Z</time>
      </trkpt>
      <trkpt lat="43.34363" lon="2.69788">
        <ele>250</ele>
        <time>2020-10-12T11:19:33.000Z</time>
      </trkpt>
      <trkpt lat="43.34371" lon="2.6976">
        <ele>252</ele>
        <time>2020-10-12T11:19:42.000Z</time>
      </trkpt>
      <trkpt lat="43.34372" lon="2.69749">
        <ele>253</ele>
        <time>2020-10-12T11:19:47.000Z</time>
      </trkpt>
      <trkpt lat="43.3438" lon="2.69726">
        <ele>256</ele>
        <time>2020-10-12T11:19:59.000Z</time>
      </trkpt>
      <trkpt lat="43.34381" lon="2.69715">
        <ele>260</ele>
        <time>2020-10-12T11:20:05.000Z</time>
      </trkpt>
      <trkpt lat="43.34381" lon="2.69706">
        <ele>261</ele>
        <time>2020-10-12T11:20:10.000Z</time>
      </trkpt>
      <trkpt lat="43.3438" lon="2.69696">
        <ele>261</ele>
        <time>2020-10-12T11:20:15.000Z</time>
      </trkpt>
      <trkpt lat="43.34382" lon="2.69686">
        <ele>261</ele>
        <time>2020-10-12T11:20:20.000Z</time>
      </trkpt>
      <trkpt lat="43.34383" lon="2.69678">
        <ele>261</ele>
        <time>2020-10-12T11:20:23.000Z</time>
      </trkpt>
      <trkpt lat="43.34385" lon="2.69671">
        <ele>261</ele>
        <time>2020-10-12T11:20:26.000Z</time>
      </trkpt>
      <trkpt lat="43.34402" lon="2.69639">
        <ele>262</ele>
        <time>2020-10-12T11:20:43.000Z</time>
      </trkpt>
      <trkpt lat="43.34414" lon="2.69614">
        <ele>265</ele>
        <time>2020-10-12T11:20:58.000Z</time>
      </trkpt>
      <trkpt lat="43.34414" lon="2.69604">
        <ele>266</ele>
        <time>2020-10-12T11:21:03.000Z</time>
      </trkpt>
      <trkpt lat="43.34412" lon="2.69599">
        <ele>266</ele>
        <time>2020-10-12T11:21:06.000Z</time>
      </trkpt>
      <trkpt lat="43.3441" lon="2.69596">
        <ele>266</ele>
        <time>2020-10-12T11:21:08.000Z</time>
      </trkpt>
      <trkpt lat="43.34405" lon="2.69586">
        <ele>266</ele>
        <time>2020-10-12T11:21:13.000Z</time>
      </trkpt>
      <trkpt lat="43.34405" lon="2.69578">
        <ele>266</ele>
        <time>2020-10-12T11:21:17.000Z</time>
      </trkpt>
      <trkpt lat="43.34406" lon="2.69574">
        <ele>266</ele>
        <time>2020-10-12T11:21:19.000Z</time>
      </trkpt>
      <trkpt lat="43.34409" lon="2.69571">
        <ele>267</ele>
        <time>2020-10-12T11:21:22.000Z</time>
      </trkpt>
      <trkpt lat="43.34413" lon="2.69568">
        <ele>269</ele>
        <time>2020-10-12T11:21:25.000Z</time>
      </trkpt>
      <trkpt lat="43.3447" lon="2.69542">
        <ele>271</ele>
        <time>2020-10-12T11:21:56.000Z</time>
      </trkpt>
      <trkpt lat="43.34473" lon="2.6954">
        <ele>271</ele>
        <time>2020-10-12T11:21:58.000Z</time>
      </trkpt>
      <trkpt lat="43.34476" lon="2.69536">
        <ele>271</ele>
        <time>2020-10-12T11:22:00.000Z</time>
      </trkpt>
      <trkpt lat="43.34477" lon="2.69533">
        <ele>271</ele>
        <time>2020-10-12T11:22:01.000Z</time>
      </trkpt>
      <trkpt lat="43.34475" lon="2.69527">
        <ele>271</ele>
        <time>2020-10-12T11:22:04.000Z</time>
      </trkpt>
      <trkpt lat="43.34474" lon="2.69522">
        <ele>271</ele>
        <time>2020-10-12T11:22:06.000Z</time>
      </trkpt>
      <trkpt lat="43.34463" lon="2.69498">
        <ele>274</ele>
        <time>2020-10-12T11:22:17.000Z</time>
      </trkpt>
      <trkpt lat="43.34455" lon="2.69476">
        <ele>277</ele>
        <time>2020-10-12T11:22:29.000Z</time>
      </trkpt>
      <trkpt lat="43.34445" lon="2.69454">
        <ele>280</ele>
        <time>2020-10-12T11:22:42.000Z</time>
      </trkpt>
      <trkpt lat="43.34438" lon="2.69441">
        <ele>281</ele>
        <time>2020-10-12T11:22:50.000Z</time>
      </trkpt>
      <trkpt lat="43.34429" lon="2.69402">
        <ele>285</ele>
        <time>2020-10-12T11:23:10.000Z</time>
      </trkpt>
      <trkpt lat="43.34427" lon="2.69399">
        <ele>286</ele>
        <time>2020-10-12T11:23:12.000Z</time>
      </trkpt>
      <trkpt lat="43.34425" lon="2.6939">
        <ele>287</ele>
        <time>2020-10-12T11:23:16.000Z</time>
      </trkpt>
      <trkpt lat="43.34426" lon="2.69372">
        <ele>286</ele>
        <time>2020-10-12T11:23:23.000Z</time>
      </trkpt>
      <trkpt lat="43.34427" lon="2.69364">
        <ele>285</ele>
        <time>2020-10-12T11:23:26.000Z</time>
      </trkpt>
      <trkpt lat="43.34428" lon="2.69353">
        <ele>286</ele>
        <time>2020-10-12T11:23:30.000Z</time>
      </trkpt>
      <trkpt lat="43.34428" lon="2.6935">
        <ele>286</ele>
        <time>2020-10-12T11:23:31.000Z</time>
      </trkpt>
      <trkpt lat="43.34437" lon="2.69327">
        <ele>287</ele>
        <time>2020-10-12T11:23:38.000Z</time>
      </trkpt>
      <trkpt lat="43.34452" lon="2.69273">
        <ele>288</ele>
        <time>2020-10-12T11:23:55.000Z</time>
      </trkpt>
      <trkpt lat="43.34456" lon="2.69256">
        <ele>289</ele>
        <time>2020-10-12T11:24:00.000Z</time>
      </trkpt>
      <trkpt lat="43.34456" lon="2.69244">
        <ele>289</ele>
        <time>2020-10-12T11:24:03.000Z</time>
      </trkpt>
      <trkpt lat="43.34457" lon="2.69235">
        <ele>289</ele>
        <time>2020-10-12T11:24:06.000Z</time>
      </trkpt>
      <trkpt lat="43.34464" lon="2.69205">
        <ele>290</ele>
        <time>2020-10-12T11:24:15.000Z</time>
      </trkpt>
      <trkpt lat="43.34465" lon="2.69196">
        <ele>291</ele>
        <time>2020-10-12T11:24:17.000Z</time>
      </trkpt>
      <trkpt lat="43.34465" lon="2.69173">
        <ele>290</ele>
        <time>2020-10-12T11:24:23.000Z</time>
      </trkpt>
      <trkpt lat="43.34466" lon="2.69165">
        <ele>290</ele>
        <time>2020-10-12T11:24:25.000Z</time>
      </trkpt>
      <trkpt lat="43.34468" lon="2.69155">
        <ele>290</ele>
        <time>2020-10-12T11:24:28.000Z</time>
      </trkpt>
      <trkpt lat="43.34474" lon="2.69125">
        <ele>289</ele>
        <time>2020-10-12T11:24:35.000Z</time>
      </trkpt>
      <trkpt lat="43.34476" lon="2.69121">
        <ele>289</ele>
        <time>2020-10-12T11:24:36.000Z</time>
      </trkpt>
      <trkpt lat="43.34482" lon="2.69112">
        <ele>289</ele>
        <time>2020-10-12T11:24:39.000Z</time>
      </trkpt>
      <trkpt lat="43.34495" lon="2.691">
        <ele>289</ele>
        <time>2020-10-12T11:24:44.000Z</time>
      </trkpt>
      <trkpt lat="43.34502" lon="2.69084">
        <ele>289</ele>
        <time>2020-10-12T11:24:48.000Z</time>
      </trkpt>
      <trkpt lat="43.34505" lon="2.6907">
        <ele>289</ele>
        <time>2020-10-12T11:24:51.000Z</time>
      </trkpt>
      <trkpt lat="43.34506" lon="2.6905">
        <ele>289</ele>
        <time>2020-10-12T11:24:55.000Z</time>
      </trkpt>
      <trkpt lat="43.34498" lon="2.69009">
        <ele>290</ele>
        <time>2020-10-12T11:25:05.000Z</time>
      </trkpt>
      <trkpt lat="43.34494" lon="2.68977">
        <ele>291</ele>
        <time>2020-10-12T11:25:13.000Z</time>
      </trkpt>
      <trkpt lat="43.34487" lon="2.68943">
        <ele>291</ele>
        <time>2020-10-12T11:25:21.000Z</time>
      </trkpt>
      <trkpt lat="43.34484" lon="2.68925">
        <ele>292</ele>
        <time>2020-10-12T11:25:25.000Z</time>
      </trkpt>
      <trkpt lat="43.34483" lon="2.68905">
        <ele>291</ele>
        <time>2020-10-12T11:25:29.000Z</time>
      </trkpt>
      <trkpt lat="43.34482" lon="2.68891">
        <ele>291</ele>
        <time>2020-10-12T11:25:32.000Z</time>
      </trkpt>
      <trkpt lat="43.3448" lon="2.68875">
        <ele>290</ele>
        <time>2020-10-12T11:25:35.000Z</time>
      </trkpt>
      <trkpt lat="43.3448" lon="2.68865">
        <ele>290</ele>
        <time>2020-10-12T11:25:37.000Z</time>
      </trkpt>
      <trkpt lat="43.34482" lon="2.68854">
        <ele>289</ele>
        <time>2020-10-12T11:25:39.000Z</time>
      </trkpt>
      <trkpt lat="43.34488" lon="2.68846">
        <ele>289</ele>
        <time>2020-10-12T11:25:41.000Z</time>
      </trkpt>
      <trkpt lat="43.3451" lon="2.68822">
        <ele>285</ele>
        <time>2020-10-12T11:25:47.000Z</time>
      </trkpt>
      <trkpt lat="43.34522" lon="2.68806">
        <ele>284</ele>
        <time>2020-10-12T11:25:50.000Z</time>
      </trkpt>
      <trkpt lat="43.34529" lon="2.6878">
        <ele>282</ele>
        <time>2020-10-12T11:25:54.000Z</time>
      </trkpt>
      <trkpt lat="43.34537" lon="2.68762">
        <ele>282</ele>
        <time>2020-10-12T11:25:58.000Z</time>
      </trkpt>
      <trkpt lat="43.34538" lon="2.68756">
        <ele>282</ele>
        <time>2020-10-12T11:25:59.000Z</time>
      </trkpt>
      <trkpt lat="43.34537" lon="2.68751">
        <ele>282</ele>
        <time>2020-10-12T11:26:00.000Z</time>
      </trkpt>
      <trkpt lat="43.34535" lon="2.68744">
        <ele>282</ele>
        <time>2020-10-12T11:26:02.000Z</time>
      </trkpt>
      <trkpt lat="43.34524" lon="2.68724">
        <ele>284</ele>
        <time>2020-10-12T11:26:08.000Z</time>
      </trkpt>
      <trkpt lat="43.34518" lon="2.68719">
        <ele>285</ele>
        <time>2020-10-12T11:26:11.000Z</time>
      </trkpt>
      <trkpt lat="43.3451" lon="2.68717">
        <ele>286</ele>
        <time>2020-10-12T11:26:14.000Z</time>
      </trkpt>
      <trkpt lat="43.3449" lon="2.68714">
        <ele>289</ele>
        <time>2020-10-12T11:26:23.000Z</time>
      </trkpt>
      <trkpt lat="43.3448" lon="2.68711">
        <ele>290</ele>
        <time>2020-10-12T11:26:27.000Z</time>
      </trkpt>
      <trkpt lat="43.34469" lon="2.68705">
        <ele>290</ele>
        <time>2020-10-12T11:26:32.000Z</time>
      </trkpt>
      <trkpt lat="43.34467" lon="2.68702">
        <ele>290</ele>
        <time>2020-10-12T11:26:33.000Z</time>
      </trkpt>
      <trkpt lat="43.34466" lon="2.687">
        <ele>291</ele>
        <time>2020-10-12T11:26:34.000Z</time>
      </trkpt>
      <trkpt lat="43.34466" lon="2.68696">
        <ele>291</ele>
        <time>2020-10-12T11:26:36.000Z</time>
      </trkpt>
      <trkpt lat="43.34467" lon="2.68695">
        <ele>291</ele>
        <time>2020-10-12T11:26:37.000Z</time>
      </trkpt>
      <trkpt lat="43.34482" lon="2.68699">
        <ele>293</ele>
        <time>2020-10-12T11:26:45.000Z</time>
      </trkpt>
      <trkpt lat="43.34492" lon="2.68698">
        <ele>294</ele>
        <time>2020-10-12T11:26:50.000Z</time>
      </trkpt>
      <trkpt lat="43.34497" lon="2.68695">
        <ele>294</ele>
        <time>2020-10-12T11:26:53.000Z</time>
      </trkpt>
      <trkpt lat="43.34502" lon="2.68691">
        <ele>295</ele>
        <time>2020-10-12T11:26:56.000Z</time>
      </trkpt>
      <trkpt lat="43.34508" lon="2.68682">
        <ele>296</ele>
        <time>2020-10-12T11:27:01.000Z</time>
      </trkpt>
      <trkpt lat="43.34512" lon="2.68674">
        <ele>297</ele>
        <time>2020-10-12T11:27:05.000Z</time>
      </trkpt>
      <trkpt lat="43.34514" lon="2.68664">
        <ele>298</ele>
        <time>2020-10-12T11:27:10.000Z</time>
      </trkpt>
      <trkpt lat="43.34512" lon="2.68644">
        <ele>298</ele>
        <time>2020-10-12T11:27:19.000Z</time>
      </trkpt>
      <trkpt lat="43.34508" lon="2.68626">
        <ele>298</ele>
        <time>2020-10-12T11:27:26.000Z</time>
      </trkpt>
      <trkpt lat="43.34508" lon="2.68608">
        <ele>299</ele>
        <time>2020-10-12T11:27:33.000Z</time>
      </trkpt>
      <trkpt lat="43.34509" lon="2.68601">
        <ele>299</ele>
        <time>2020-10-12T11:27:36.000Z</time>
      </trkpt>
      <trkpt lat="43.34514" lon="2.68593">
        <ele>300</ele>
        <time>2020-10-12T11:27:41.000Z</time>
      </trkpt>
      <trkpt lat="43.3452" lon="2.68586">
        <ele>302</ele>
        <time>2020-10-12T11:27:46.000Z</time>
      </trkpt>
      <trkpt lat="43.34533" lon="2.68564">
        <ele>304</ele>
        <time>2020-10-12T11:27:59.000Z</time>
      </trkpt>
      <trkpt lat="43.34538" lon="2.68555">
        <ele>305</ele>
        <time>2020-10-12T11:28:04.000Z</time>
      </trkpt>
      <trkpt lat="43.34547" lon="2.68538">
        <ele>305</ele>
        <time>2020-10-12T11:28:14.000Z</time>
      </trkpt>
      <trkpt lat="43.34551" lon="2.68531">
        <ele>305</ele>
        <time>2020-10-12T11:28:18.000Z</time>
      </trkpt>
      <trkpt lat="43.34558" lon="2.68517">
        <ele>306</ele>
        <time>2020-10-12T11:28:25.000Z</time>
      </trkpt>
      <trkpt lat="43.34562" lon="2.68509">
        <ele>307</ele>
        <time>2020-10-12T11:28:30.000Z</time>
      </trkpt>
      <trkpt lat="43.34573" lon="2.68477">
        <ele>309</ele>
        <time>2020-10-12T11:28:44.000Z</time>
      </trkpt>
      <trkpt lat="43.34578" lon="2.68464">
        <ele>310</ele>
        <time>2020-10-12T11:28:50.000Z</time>
      </trkpt>
      <trkpt lat="43.34587" lon="2.68442">
        <ele>311</ele>
        <time>2020-10-12T11:29:01.000Z</time>
      </trkpt>
      <trkpt lat="43.34594" lon="2.68429">
        <ele>311</ele>
        <time>2020-10-12T11:29:07.000Z</time>
      </trkpt>
      <trkpt lat="43.34609" lon="2.684">
        <ele>312</ele>
        <time>2020-10-12T11:29:20.000Z</time>
      </trkpt>
      <trkpt lat="43.34618" lon="2.68386">
        <ele>313</ele>
        <time>2020-10-12T11:29:28.000Z</time>
      </trkpt>
      <trkpt lat="43.34635" lon="2.68354">
        <ele>316</ele>
        <time>2020-10-12T11:29:44.000Z</time>
      </trkpt>
      <trkpt lat="43.34637" lon="2.68351">
        <ele>316</ele>
        <time>2020-10-12T11:29:46.000Z</time>
      </trkpt>
      <trkpt lat="43.34656" lon="2.6833">
        <ele>319</ele>
        <time>2020-10-12T11:30:00.000Z</time>
      </trkpt>
      <trkpt lat="43.34659" lon="2.68326">
        <ele>319</ele>
        <time>2020-10-12T11:30:03.000Z</time>
      </trkpt>
      <trkpt lat="43.34666" lon="2.68311">
        <ele>319</ele>
        <time>2020-10-12T11:30:09.000Z</time>
      </trkpt>
      <trkpt lat="43.34672" lon="2.68302">
        <ele>319</ele>
        <time>2020-10-12T11:30:14.000Z</time>
      </trkpt>
      <trkpt lat="43.34681" lon="2.68293">
        <ele>320</ele>
        <time>2020-10-12T11:30:20.000Z</time>
      </trkpt>
      <trkpt lat="43.34697" lon="2.68275">
        <ele>322</ele>
        <time>2020-10-12T11:30:31.000Z</time>
      </trkpt>
      <trkpt lat="43.34708" lon="2.68266">
        <ele>324</ele>
        <time>2020-10-12T11:30:39.000Z</time>
      </trkpt>
      <trkpt lat="43.34729" lon="2.68236">
        <ele>326</ele>
        <time>2020-10-12T11:30:56.000Z</time>
      </trkpt>
      <trkpt lat="43.34747" lon="2.68205">
        <ele>326</ele>
        <time>2020-10-12T11:31:12.000Z</time>
      </trkpt>
      <trkpt lat="43.34758" lon="2.68183">
        <ele>327</ele>
        <time>2020-10-12T11:31:22.000Z</time>
      </trkpt>
      <trkpt lat="43.34766" lon="2.68168">
        <ele>327</ele>
        <time>2020-10-12T11:31:29.000Z</time>
      </trkpt>
      <trkpt lat="43.34772" lon="2.68158">
        <ele>327</ele>
        <time>2020-10-12T11:31:34.000Z</time>
      </trkpt>
      <trkpt lat="43.34777" lon="2.68147">
        <ele>327</ele>
        <time>2020-10-12T11:31:38.000Z</time>
      </trkpt>
      <trkpt lat="43.34791" lon="2.68119">
        <ele>327</ele>
        <time>2020-10-12T11:31:52.000Z</time>
      </trkpt>
      <trkpt lat="43.34796" lon="2.68108">
        <ele>327</ele>
        <time>2020-10-12T11:31:57.000Z</time>
      </trkpt>
      <trkpt lat="43.348" lon="2.68098">
        <ele>328</ele>
        <time>2020-10-12T11:32:01.000Z</time>
      </trkpt>
      <trkpt lat="43.34802" lon="2.68093">
        <ele>328</ele>
        <time>2020-10-12T11:32:04.000Z</time>
      </trkpt>
      <trkpt lat="43.34805" lon="2.68088">
        <ele>328</ele>
        <time>2020-10-12T11:32:07.000Z</time>
      </trkpt>
      <trkpt lat="43.34811" lon="2.68071">
        <ele>328</ele>
        <time>2020-10-12T11:32:15.000Z</time>
      </trkpt>
      <trkpt lat="43.34814" lon="2.68058">
        <ele>328</ele>
        <time>2020-10-12T11:32:20.000Z</time>
      </trkpt>
      <trkpt lat="43.34817" lon="2.6805">
        <ele>328</ele>
        <time>2020-10-12T11:32:23.000Z</time>
      </trkpt>
      <trkpt lat="43.34818" lon="2.68038">
        <ele>328</ele>
        <time>2020-10-12T11:32:27.000Z</time>
      </trkpt>
      <trkpt lat="43.34822" lon="2.68021">
        <ele>328</ele>
        <time>2020-10-12T11:32:33.000Z</time>
      </trkpt>
      <trkpt lat="43.34823" lon="2.68002">
        <ele>327</ele>
        <time>2020-10-12T11:32:39.000Z</time>
      </trkpt>
      <trkpt lat="43.34825" lon="2.67984">
        <ele>327</ele>
        <time>2020-10-12T11:32:44.000Z</time>
      </trkpt>
      <trkpt lat="43.3483" lon="2.67962">
        <ele>327</ele>
        <time>2020-10-12T11:32:50.000Z</time>
      </trkpt>
      <trkpt lat="43.34838" lon="2.67931">
        <ele>328</ele>
        <time>2020-10-12T11:32:59.000Z</time>
      </trkpt>
      <trkpt lat="43.3485" lon="2.67906">
        <ele>327</ele>
        <time>2020-10-12T11:33:06.000Z</time>
      </trkpt>
      <trkpt lat="43.34881" lon="2.67857">
        <ele>325</ele>
        <time>2020-10-12T11:33:20.000Z</time>
      </trkpt>
      <trkpt lat="43.3489" lon="2.67846">
        <ele>323</ele>
        <time>2020-10-12T11:33:23.000Z</time>
      </trkpt>
      <trkpt lat="43.34896" lon="2.6784">
        <ele>321</ele>
        <time>2020-10-12T11:33:25.000Z</time>
      </trkpt>
      <trkpt lat="43.349" lon="2.67837">
        <ele>321</ele>
        <time>2020-10-12T11:33:26.000Z</time>
      </trkpt>
      <trkpt lat="43.34915" lon="2.67829">
        <ele>320</ele>
        <time>2020-10-12T11:33:31.000Z</time>
      </trkpt>
      <trkpt lat="43.34924" lon="2.67822">
        <ele>319</ele>
        <time>2020-10-12T11:33:34.000Z</time>
      </trkpt>
      <trkpt lat="43.34946" lon="2.67801">
        <ele>316</ele>
        <time>2020-10-12T11:33:39.000Z</time>
      </trkpt>
      <trkpt lat="43.34955" lon="2.67796">
        <ele>316</ele>
        <time>2020-10-12T11:33:41.000Z</time>
      </trkpt>
      <trkpt lat="43.34961" lon="2.67795">
        <ele>316</ele>
        <time>2020-10-12T11:33:43.000Z</time>
      </trkpt>
      <trkpt lat="43.3498" lon="2.67799">
        <ele>315</ele>
        <time>2020-10-12T11:33:51.000Z</time>
      </trkpt>
      <trkpt lat="43.34997" lon="2.678">
        <ele>318</ele>
        <time>2020-10-12T11:34:00.000Z</time>
      </trkpt>
      <trkpt lat="43.35007" lon="2.67799">
        <ele>319</ele>
        <time>2020-10-12T11:34:06.000Z</time>
      </trkpt>
      <trkpt lat="43.35014" lon="2.67798">
        <ele>321</ele>
        <time>2020-10-12T11:34:13.000Z</time>
      </trkpt>
      <trkpt lat="43.35017" lon="2.67796">
        <ele>322</ele>
        <time>2020-10-12T11:34:17.000Z</time>
      </trkpt>
      <trkpt lat="43.3502" lon="2.67796">
        <ele>321</ele>
        <time>2020-10-12T11:34:22.000Z</time>
      </trkpt>
      <trkpt lat="43.35031" lon="2.67791">
        <ele>322</ele>
        <time>2020-10-12T11:34:29.000Z</time>
      </trkpt>
      <trkpt lat="43.35059" lon="2.67784">
        <ele>326</ele>
        <time>2020-10-12T11:34:47.000Z</time>
      </trkpt>
      <trkpt lat="43.35068" lon="2.67782">
        <ele>326</ele>
        <time>2020-10-12T11:34:54.000Z</time>
      </trkpt>
      <trkpt lat="43.35075" lon="2.67772">
        <ele>326</ele>
        <time>2020-10-12T11:35:00.000Z</time>
      </trkpt>
      <trkpt lat="43.35085" lon="2.67749">
        <ele>327</ele>
        <time>2020-10-12T11:35:09.000Z</time>
      </trkpt>
      <trkpt lat="43.35108" lon="2.67686">
        <ele>325</ele>
        <time>2020-10-12T11:35:24.000Z</time>
      </trkpt>
      <trkpt lat="43.35131" lon="2.67628">
        <ele>327</ele>
        <time>2020-10-12T11:35:40.000Z</time>
      </trkpt>
      <trkpt lat="43.35141" lon="2.676">
        <ele>325</ele>
        <time>2020-10-12T11:35:46.000Z</time>
      </trkpt>
      <trkpt lat="43.35142" lon="2.67592">
        <ele>324</ele>
        <time>2020-10-12T11:35:48.000Z</time>
      </trkpt>
      <trkpt lat="43.35142" lon="2.67585">
        <ele>324</ele>
        <time>2020-10-12T11:35:50.000Z</time>
      </trkpt>
      <trkpt lat="43.35139" lon="2.67568">
        <ele>323</ele>
        <time>2020-10-12T11:35:54.000Z</time>
      </trkpt>
      <trkpt lat="43.35138" lon="2.67527">
        <ele>324</ele>
        <time>2020-10-12T11:36:02.000Z</time>
      </trkpt>
      <trkpt lat="43.35138" lon="2.67519">
        <ele>323</ele>
        <time>2020-10-12T11:36:04.000Z</time>
      </trkpt>
      <trkpt lat="43.35138" lon="2.67511">
        <ele>322</ele>
        <time>2020-10-12T11:36:06.000Z</time>
      </trkpt>
      <trkpt lat="43.35135" lon="2.67503">
        <ele>323</ele>
        <time>2020-10-12T11:36:08.000Z</time>
      </trkpt>
      <trkpt lat="43.35129" lon="2.67497">
        <ele>323</ele>
        <time>2020-10-12T11:36:09.000Z</time>
      </trkpt>
      <trkpt lat="43.35122" lon="2.67493">
        <ele>360</ele>
        <time>2020-10-12T11:36:19.000Z</time>
      </trkpt>
      <trkpt lat="43.35116" lon="2.67488">
        <ele>359.2</ele>
        <time>2020-10-12T11:36:29.000Z</time>
      </trkpt>
      <trkpt lat="43.35108" lon="2.67481">
        <ele>320</ele>
        <time>2020-10-12T11:42:31.000Z</time>
      </trkpt>
      <trkpt lat="43.35098" lon="2.67482">
        <ele>320</ele>
        <time>2020-10-12T11:42:35.000Z</time>
      </trkpt>
      <trkpt lat="43.35056" lon="2.6749">
        <ele>319</ele>
        <time>2020-10-12T11:42:47.000Z</time>
      </trkpt>
      <trkpt lat="43.35049" lon="2.67493">
        <ele>319</ele>
        <time>2020-10-12T11:42:49.000Z</time>
      </trkpt>
      <trkpt lat="43.35046" lon="2.67497">
        <ele>319</ele>
        <time>2020-10-12T11:42:50.000Z</time>
      </trkpt>
      <trkpt lat="43.35044" lon="2.67504">
        <ele>319</ele>
        <time>2020-10-12T11:42:52.000Z</time>
      </trkpt>
      <trkpt lat="43.35044" lon="2.67529">
        <ele>318</ele>
        <time>2020-10-12T11:42:59.000Z</time>
      </trkpt>
      <trkpt lat="43.35041" lon="2.67556">
        <ele>318</ele>
        <time>2020-10-12T11:43:05.000Z</time>
      </trkpt>
      <trkpt lat="43.35043" lon="2.67582">
        <ele>318</ele>
        <time>2020-10-12T11:43:11.000Z</time>
      </trkpt>
      <trkpt lat="43.35043" lon="2.6759">
        <ele>318</ele>
        <time>2020-10-12T11:43:13.000Z</time>
      </trkpt>
      <trkpt lat="43.35042" lon="2.67595">
        <ele>317</ele>
        <time>2020-10-12T11:43:14.000Z</time>
      </trkpt>
      <trkpt lat="43.3504" lon="2.67599">
        <ele>317</ele>
        <time>2020-10-12T11:43:15.000Z</time>
      </trkpt>
      <trkpt lat="43.35035" lon="2.67609">
        <ele>317</ele>
        <time>2020-10-12T11:43:18.000Z</time>
      </trkpt>
      <trkpt lat="43.35027" lon="2.67619">
        <ele>317</ele>
        <time>2020-10-12T11:43:21.000Z</time>
      </trkpt>
      <trkpt lat="43.3502" lon="2.67625">
        <ele>317</ele>
        <time>2020-10-12T11:43:23.000Z</time>
      </trkpt>
      <trkpt lat="43.35016" lon="2.67628">
        <ele>317</ele>
        <time>2020-10-12T11:43:24.000Z</time>
      </trkpt>
      <trkpt lat="43.35009" lon="2.6763">
        <ele>317</ele>
        <time>2020-10-12T11:43:26.000Z</time>
      </trkpt>
      <trkpt lat="43.34993" lon="2.67632">
        <ele>316</ele>
        <time>2020-10-12T11:43:30.000Z</time>
      </trkpt>
      <trkpt lat="43.34973" lon="2.67633">
        <ele>316</ele>
        <time>2020-10-12T11:43:36.000Z</time>
      </trkpt>
      <trkpt lat="43.34971" lon="2.67632">
        <ele>315</ele>
        <time>2020-10-12T11:43:38.000Z</time>
      </trkpt>
      <trkpt lat="43.34969" lon="2.67631">
        <ele>315</ele>
        <time>2020-10-12T11:43:39.000Z</time>
      </trkpt>
      <trkpt lat="43.34957" lon="2.67618">
        <ele>315</ele>
        <time>2020-10-12T11:43:44.000Z</time>
      </trkpt>
      <trkpt lat="43.34937" lon="2.67601">
        <ele>313</ele>
        <time>2020-10-12T11:43:51.000Z</time>
      </trkpt>
      <trkpt lat="43.34934" lon="2.67594">
        <ele>313</ele>
        <time>2020-10-12T11:43:53.000Z</time>
      </trkpt>
      <trkpt lat="43.34923" lon="2.67572">
        <ele>312</ele>
        <time>2020-10-12T11:43:59.000Z</time>
      </trkpt>
      <trkpt lat="43.34916" lon="2.67559">
        <ele>311</ele>
        <time>2020-10-12T11:44:03.000Z</time>
      </trkpt>
      <trkpt lat="43.34915" lon="2.67555">
        <ele>311</ele>
        <time>2020-10-12T11:44:04.000Z</time>
      </trkpt>
      <trkpt lat="43.34914" lon="2.67548">
        <ele>311</ele>
        <time>2020-10-12T11:44:06.000Z</time>
      </trkpt>
      <trkpt lat="43.34912" lon="2.67519">
        <ele>310</ele>
        <time>2020-10-12T11:44:13.000Z</time>
      </trkpt>
      <trkpt lat="43.34906" lon="2.67509">
        <ele>309</ele>
        <time>2020-10-12T11:44:16.000Z</time>
      </trkpt>
      <trkpt lat="43.349" lon="2.67502">
        <ele>309</ele>
        <time>2020-10-12T11:44:18.000Z</time>
      </trkpt>
      <trkpt lat="43.34883" lon="2.67489">
        <ele>308</ele>
        <time>2020-10-12T11:44:23.000Z</time>
      </trkpt>
      <trkpt lat="43.3487" lon="2.67484">
        <ele>307</ele>
        <time>2020-10-12T11:44:27.000Z</time>
      </trkpt>
      <trkpt lat="43.34862" lon="2.67488">
        <ele>307</ele>
        <time>2020-10-12T11:44:29.000Z</time>
      </trkpt>
      <trkpt lat="43.34855" lon="2.67494">
        <ele>307</ele>
        <time>2020-10-12T11:44:31.000Z</time>
      </trkpt>
      <trkpt lat="43.34841" lon="2.67506">
        <ele>306</ele>
        <time>2020-10-12T11:44:35.000Z</time>
      </trkpt>
      <trkpt lat="43.34834" lon="2.67513">
        <ele>306</ele>
        <time>2020-10-12T11:44:37.000Z</time>
      </trkpt>
      <trkpt lat="43.34824" lon="2.67522">
        <ele>305</ele>
        <time>2020-10-12T11:44:40.000Z</time>
      </trkpt>
      <trkpt lat="43.34805" lon="2.67534">
        <ele>304</ele>
        <time>2020-10-12T11:44:45.000Z</time>
      </trkpt>
      <trkpt lat="43.34797" lon="2.67537">
        <ele>303</ele>
        <time>2020-10-12T11:44:47.000Z</time>
      </trkpt>
      <trkpt lat="43.34787" lon="2.67536">
        <ele>303</ele>
        <time>2020-10-12T11:44:50.000Z</time>
      </trkpt>
      <trkpt lat="43.34772" lon="2.67527">
        <ele>301</ele>
        <time>2020-10-12T11:44:55.000Z</time>
      </trkpt>
      <trkpt lat="43.34764" lon="2.67527">
        <ele>301</ele>
        <time>2020-10-12T11:44:57.000Z</time>
      </trkpt>
      <trkpt lat="43.3476" lon="2.67528">
        <ele>301</ele>
        <time>2020-10-12T11:44:58.000Z</time>
      </trkpt>
      <trkpt lat="43.34753" lon="2.67534">
        <ele>300</ele>
        <time>2020-10-12T11:44:59.000Z</time>
      </trkpt>
      <trkpt lat="43.34739" lon="2.67551">
        <ele>299</ele>
        <time>2020-10-12T11:45:04.000Z</time>
      </trkpt>
      <trkpt lat="43.34721" lon="2.67571">
        <ele>297</ele>
        <time>2020-10-12T11:45:09.000Z</time>
      </trkpt>
      <trkpt lat="43.34709" lon="2.67579">
        <ele>297</ele>
        <time>2020-10-12T11:45:12.000Z</time>
      </trkpt>
      <trkpt lat="43.347" lon="2.67583">
        <ele>296</ele>
        <time>2020-10-12T11:45:14.000Z</time>
      </trkpt>
      <trkpt lat="43.34681" lon="2.67589">
        <ele>295</ele>
        <time>2020-10-12T11:45:18.000Z</time>
      </trkpt>
      <trkpt lat="43.34646" lon="2.67602">
        <ele>293</ele>
        <time>2020-10-12T11:45:25.000Z</time>
      </trkpt>
      <trkpt lat="43.34637" lon="2.67605">
        <ele>292</ele>
        <time>2020-10-12T11:45:27.000Z</time>
      </trkpt>
      <trkpt lat="43.34613" lon="2.67607">
        <ele>290</ele>
        <time>2020-10-12T11:45:32.000Z</time>
      </trkpt>
      <trkpt lat="43.34608" lon="2.67609">
        <ele>290</ele>
        <time>2020-10-12T11:45:33.000Z</time>
      </trkpt>
      <trkpt lat="43.34585" lon="2.6762">
        <ele>288</ele>
        <time>2020-10-12T11:45:38.000Z</time>
      </trkpt>
      <trkpt lat="43.34565" lon="2.67624">
        <ele>286</ele>
        <time>2020-10-12T11:45:42.000Z</time>
      </trkpt>
      <trkpt lat="43.3456" lon="2.67624">
        <ele>286</ele>
        <time>2020-10-12T11:45:43.000Z</time>
      </trkpt>
      <trkpt lat="43.3455" lon="2.67622">
        <ele>285</ele>
        <time>2020-10-12T11:45:45.000Z</time>
      </trkpt>
      <trkpt lat="43.34545" lon="2.6762">
        <ele>285</ele>
        <time>2020-10-12T11:45:46.000Z</time>
      </trkpt>
      <trkpt lat="43.34527" lon="2.67611">
        <ele>283</ele>
        <time>2020-10-12T11:45:49.000Z</time>
      </trkpt>
      <trkpt lat="43.34514" lon="2.6761">
        <ele>282</ele>
        <time>2020-10-12T11:45:51.000Z</time>
      </trkpt>
      <trkpt lat="43.34508" lon="2.67611">
        <ele>282</ele>
        <time>2020-10-12T11:45:52.000Z</time>
      </trkpt>
      <trkpt lat="43.34492" lon="2.67617">
        <ele>281</ele>
        <time>2020-10-12T11:45:55.000Z</time>
      </trkpt>
      <trkpt lat="43.34482" lon="2.6762">
        <ele>280</ele>
        <time>2020-10-12T11:45:57.000Z</time>
      </trkpt>
      <trkpt lat="43.34477" lon="2.6762">
        <ele>280</ele>
        <time>2020-10-12T11:45:58.000Z</time>
      </trkpt>
      <trkpt lat="43.34467" lon="2.67617">
        <ele>279</ele>
        <time>2020-10-12T11:46:00.000Z</time>
      </trkpt>
      <trkpt lat="43.34443" lon="2.67604">
        <ele>277</ele>
        <time>2020-10-12T11:46:05.000Z</time>
      </trkpt>
      <trkpt lat="43.34431" lon="2.67599">
        <ele>275</ele>
        <time>2020-10-12T11:46:09.000Z</time>
      </trkpt>
      <trkpt lat="43.34421" lon="2.67599">
        <ele>274</ele>
        <time>2020-10-12T11:46:12.000Z</time>
      </trkpt>
      <trkpt lat="43.34408" lon="2.67601">
        <ele>273</ele>
        <time>2020-10-12T11:46:15.000Z</time>
      </trkpt>
      <trkpt lat="43.34404" lon="2.67601">
        <ele>273</ele>
        <time>2020-10-12T11:46:16.000Z</time>
      </trkpt>
      <trkpt lat="43.34378" lon="2.67596">
        <ele>270</ele>
        <time>2020-10-12T11:46:22.000Z</time>
      </trkpt>
      <trkpt lat="43.34355" lon="2.67593">
        <ele>269</ele>
        <time>2020-10-12T11:46:27.000Z</time>
      </trkpt>
      <trkpt lat="43.34347" lon="2.67589">
        <ele>268</ele>
        <time>2020-10-12T11:46:29.000Z</time>
      </trkpt>
      <trkpt lat="43.34333" lon="2.67581">
        <ele>266</ele>
        <time>2020-10-12T11:46:33.000Z</time>
      </trkpt>
      <trkpt lat="43.34321" lon="2.67575">
        <ele>265</ele>
        <time>2020-10-12T11:46:36.000Z</time>
      </trkpt>
      <trkpt lat="43.34306" lon="2.67567">
        <ele>264</ele>
        <time>2020-10-12T11:46:40.000Z</time>
      </trkpt>
      <trkpt lat="43.34282" lon="2.67555">
        <ele>262</ele>
        <time>2020-10-12T11:46:47.000Z</time>
      </trkpt>
      <trkpt lat="43.34275" lon="2.6755">
        <ele>260</ele>
        <time>2020-10-12T11:46:51.000Z</time>
      </trkpt>
      <trkpt lat="43.34273" lon="2.67546">
        <ele>260</ele>
        <time>2020-10-12T11:46:53.000Z</time>
      </trkpt>
      <trkpt lat="43.34272" lon="2.67542">
        <ele>259</ele>
        <time>2020-10-12T11:46:55.000Z</time>
      </trkpt>
      <trkpt lat="43.34271" lon="2.67536">
        <ele>258</ele>
        <time>2020-10-12T11:46:58.000Z</time>
      </trkpt>
      <trkpt lat="43.34269" lon="2.6753">
        <ele>257</ele>
        <time>2020-10-12T11:47:01.000Z</time>
      </trkpt>
      <trkpt lat="43.34267" lon="2.67522">
        <ele>256</ele>
        <time>2020-10-12T11:47:04.000Z</time>
      </trkpt>
      <trkpt lat="43.34262" lon="2.67507">
        <ele>255</ele>
        <time>2020-10-12T11:47:10.000Z</time>
      </trkpt>
      <trkpt lat="43.34259" lon="2.67485">
        <ele>253</ele>
        <time>2020-10-12T11:47:18.000Z</time>
      </trkpt>
      <trkpt lat="43.34258" lon="2.67477">
        <ele>252</ele>
        <time>2020-10-12T11:47:21.000Z</time>
      </trkpt>
      <trkpt lat="43.34256" lon="2.67473">
        <ele>252</ele>
        <time>2020-10-12T11:47:23.000Z</time>
      </trkpt>
      <trkpt lat="43.34249" lon="2.67466">
        <ele>251</ele>
        <time>2020-10-12T11:47:27.000Z</time>
      </trkpt>
      <trkpt lat="43.34245" lon="2.67465">
        <ele>251</ele>
        <time>2020-10-12T11:47:29.000Z</time>
      </trkpt>
      <trkpt lat="43.34225" lon="2.67466">
        <ele>250</ele>
        <time>2020-10-12T11:47:40.000Z</time>
      </trkpt>
      <trkpt lat="43.34213" lon="2.67466">
        <ele>249</ele>
        <time>2020-10-12T11:47:47.000Z</time>
      </trkpt>
      <trkpt lat="43.34206" lon="2.67467">
        <ele>248</ele>
        <time>2020-10-12T11:47:51.000Z</time>
      </trkpt>
      <trkpt lat="43.34169" lon="2.6747">
        <ele>247</ele>
        <time>2020-10-12T11:48:09.000Z</time>
      </trkpt>
      <trkpt lat="43.34152" lon="2.67473">
        <ele>247</ele>
        <time>2020-10-12T11:48:16.000Z</time>
      </trkpt>
      <trkpt lat="43.34131" lon="2.67473">
        <ele>247</ele>
        <time>2020-10-12T11:48:25.000Z</time>
      </trkpt>
      <trkpt lat="43.341" lon="2.67476">
        <ele>247</ele>
        <time>2020-10-12T11:48:39.000Z</time>
      </trkpt>
      <trkpt lat="43.34084" lon="2.67474">
        <ele>247</ele>
        <time>2020-10-12T11:48:45.000Z</time>
      </trkpt>
      <trkpt lat="43.34065" lon="2.67466">
        <ele>247</ele>
        <time>2020-10-12T11:48:54.000Z</time>
      </trkpt>
      <trkpt lat="43.3405" lon="2.67462">
        <ele>247</ele>
        <time>2020-10-12T11:49:00.000Z</time>
      </trkpt>
      <trkpt lat="43.34038" lon="2.67455">
        <ele>247</ele>
        <time>2020-10-12T11:49:06.000Z</time>
      </trkpt>
      <trkpt lat="43.34023" lon="2.67446">
        <ele>247</ele>
        <time>2020-10-12T11:49:13.000Z</time>
      </trkpt>
      <trkpt lat="43.34014" lon="2.67437">
        <ele>247</ele>
        <time>2020-10-12T11:49:17.000Z</time>
      </trkpt>
      <trkpt lat="43.34007" lon="2.67426">
        <ele>248</ele>
        <time>2020-10-12T11:49:20.000Z</time>
      </trkpt>
      <trkpt lat="43.33998" lon="2.67405">
        <ele>248</ele>
        <time>2020-10-12T11:49:26.000Z</time>
      </trkpt>
      <trkpt lat="43.33996" lon="2.67402">
        <ele>248</ele>
        <time>2020-10-12T11:49:27.000Z</time>
      </trkpt>
      <trkpt lat="43.33992" lon="2.67397">
        <ele>248</ele>
        <time>2020-10-12T11:49:29.000Z</time>
      </trkpt>
      <trkpt lat="43.33984" lon="2.67392">
        <ele>248</ele>
        <time>2020-10-12T11:49:32.000Z</time>
      </trkpt>
      <trkpt lat="43.33962" lon="2.67382">
        <ele>248</ele>
        <time>2020-10-12T11:49:40.000Z</time>
      </trkpt>
      <trkpt lat="43.3396" lon="2.6738">
        <ele>248</ele>
        <time>2020-10-12T11:49:41.000Z</time>
      </trkpt>
      <trkpt lat="43.33959" lon="2.67377">
        <ele>248</ele>
        <time>2020-10-12T11:49:42.000Z</time>
      </trkpt>
      <trkpt lat="43.33958" lon="2.67373">
        <ele>248</ele>
        <time>2020-10-12T11:49:43.000Z</time>
      </trkpt>
      <trkpt lat="43.33958" lon="2.67365">
        <ele>248</ele>
        <time>2020-10-12T11:49:46.000Z</time>
      </trkpt>
      <trkpt lat="43.33962" lon="2.67353">
        <ele>249</ele>
        <time>2020-10-12T11:49:50.000Z</time>
      </trkpt>
      <trkpt lat="43.33965" lon="2.67342">
        <ele>249</ele>
        <time>2020-10-12T11:49:54.000Z</time>
      </trkpt>
      <trkpt lat="43.33964" lon="2.6733">
        <ele>249</ele>
        <time>2020-10-12T11:49:58.000Z</time>
      </trkpt>
      <trkpt lat="43.33962" lon="2.67327">
        <ele>249</ele>
        <time>2020-10-12T11:49:59.000Z</time>
      </trkpt>
      <trkpt lat="43.33953" lon="2.67326">
        <ele>249</ele>
        <time>2020-10-12T11:50:02.000Z</time>
      </trkpt>
      <trkpt lat="43.3395" lon="2.67328">
        <ele>249</ele>
        <time>2020-10-12T11:50:03.000Z</time>
      </trkpt>
      <trkpt lat="43.33943" lon="2.67338">
        <ele>249</ele>
        <time>2020-10-12T11:50:06.000Z</time>
      </trkpt>
      <trkpt lat="43.33928" lon="2.67352">
        <ele>250</ele>
        <time>2020-10-12T11:50:11.000Z</time>
      </trkpt>
      <trkpt lat="43.33914" lon="2.6736">
        <ele>250</ele>
        <time>2020-10-12T11:50:15.000Z</time>
      </trkpt>
      <trkpt lat="43.33904" lon="2.67363">
        <ele>250</ele>
        <time>2020-10-12T11:50:18.000Z</time>
      </trkpt>
      <trkpt lat="43.33883" lon="2.67365">
        <ele>250</ele>
        <time>2020-10-12T11:50:24.000Z</time>
      </trkpt>
      <trkpt lat="43.33869" lon="2.6737">
        <ele>250</ele>
        <time>2020-10-12T11:50:28.000Z</time>
      </trkpt>
      <trkpt lat="43.33866" lon="2.67372">
        <ele>250</ele>
        <time>2020-10-12T11:50:29.000Z</time>
      </trkpt>
      <trkpt lat="43.33857" lon="2.67381">
        <ele>250</ele>
        <time>2020-10-12T11:50:32.000Z</time>
      </trkpt>
      <trkpt lat="43.33847" lon="2.67394">
        <ele>250</ele>
        <time>2020-10-12T11:50:36.000Z</time>
      </trkpt>
      <trkpt lat="43.33785" lon="2.67472">
        <ele>249</ele>
        <time>2020-10-12T11:50:56.000Z</time>
      </trkpt>
      <trkpt lat="43.33768" lon="2.6749">
        <ele>249</ele>
        <time>2020-10-12T11:51:01.000Z</time>
      </trkpt>
      <trkpt lat="43.33762" lon="2.67496">
        <ele>249</ele>
        <time>2020-10-12T11:51:03.000Z</time>
      </trkpt>
      <trkpt lat="43.33753" lon="2.67502">
        <ele>249</ele>
        <time>2020-10-12T11:51:06.000Z</time>
      </trkpt>
      <trkpt lat="43.3375" lon="2.67504">
        <ele>249</ele>
        <time>2020-10-12T11:51:07.000Z</time>
      </trkpt>
      <trkpt lat="43.33729" lon="2.67507">
        <ele>248</ele>
        <time>2020-10-12T11:51:13.000Z</time>
      </trkpt>
      <trkpt lat="43.3372" lon="2.67503">
        <ele>248</ele>
        <time>2020-10-12T11:51:16.000Z</time>
      </trkpt>
      <trkpt lat="43.33716" lon="2.67499">
        <ele>248</ele>
        <time>2020-10-12T11:51:18.000Z</time>
      </trkpt>
      <trkpt lat="43.33713" lon="2.67495">
        <ele>248</ele>
        <time>2020-10-12T11:51:20.000Z</time>
      </trkpt>
      <trkpt lat="43.33713" lon="2.67491">
        <ele>248</ele>
        <time>2020-10-12T11:51:21.000Z</time>
      </trkpt>
      <trkpt lat="43.33713" lon="2.67486">
        <ele>248</ele>
        <time>2020-10-12T11:51:23.000Z</time>
      </trkpt>
      <trkpt lat="43.33717" lon="2.67461">
        <ele>248</ele>
        <time>2020-10-12T11:51:31.000Z</time>
      </trkpt>
      <trkpt lat="43.3372" lon="2.67452">
        <ele>248</ele>
        <time>2020-10-12T11:51:34.000Z</time>
      </trkpt>
      <trkpt lat="43.33731" lon="2.67413">
        <ele>248</ele>
        <time>2020-10-12T11:51:48.000Z</time>
      </trkpt>
      <trkpt lat="43.33734" lon="2.67396">
        <ele>248</ele>
        <time>2020-10-12T11:51:55.000Z</time>
      </trkpt>
      <trkpt lat="43.33741" lon="2.67374">
        <ele>248</ele>
        <time>2020-10-12T11:52:05.000Z</time>
      </trkpt>
      <trkpt lat="43.33744" lon="2.67359">
        <ele>248</ele>
        <time>2020-10-12T11:52:13.000Z</time>
      </trkpt>
      <trkpt lat="43.33747" lon="2.67352">
        <ele>248</ele>
        <time>2020-10-12T11:52:17.000Z</time>
      </trkpt>
      <trkpt lat="43.33749" lon="2.67344">
        <ele>249</ele>
        <time>2020-10-12T11:52:21.000Z</time>
      </trkpt>
      <trkpt lat="43.33759" lon="2.67296">
        <ele>250</ele>
        <time>2020-10-12T11:52:46.000Z</time>
      </trkpt>
      <trkpt lat="43.33766" lon="2.67251">
        <ele>252</ele>
        <time>2020-10-12T11:53:09.000Z</time>
      </trkpt>
      <trkpt lat="43.33767" lon="2.67236">
        <ele>253</ele>
        <time>2020-10-12T11:53:16.000Z</time>
      </trkpt>
      <trkpt lat="43.3377" lon="2.67221">
        <ele>253</ele>
        <time>2020-10-12T11:53:23.000Z</time>
      </trkpt>
      <trkpt lat="43.33773" lon="2.67212">
        <ele>254</ele>
        <time>2020-10-12T11:53:27.000Z</time>
      </trkpt>
      <trkpt lat="43.33777" lon="2.67204">
        <ele>254</ele>
        <time>2020-10-12T11:53:31.000Z</time>
      </trkpt>
      <trkpt lat="43.33781" lon="2.67198">
        <ele>254</ele>
        <time>2020-10-12T11:53:34.000Z</time>
      </trkpt>
      <trkpt lat="43.33787" lon="2.67194">
        <ele>255</ele>
        <time>2020-10-12T11:53:38.000Z</time>
      </trkpt>
      <trkpt lat="43.33799" lon="2.6719">
        <ele>255</ele>
        <time>2020-10-12T11:53:45.000Z</time>
      </trkpt>
      <trkpt lat="43.33803" lon="2.67188">
        <ele>256</ele>
        <time>2020-10-12T11:53:47.000Z</time>
      </trkpt>
      <trkpt lat="43.33815" lon="2.67177">
        <ele>256</ele>
        <time>2020-10-12T11:53:54.000Z</time>
      </trkpt>
      <trkpt lat="43.33817" lon="2.67173">
        <ele>257</ele>
        <time>2020-10-12T11:53:56.000Z</time>
      </trkpt>
      <trkpt lat="43.33818" lon="2.67168">
        <ele>257</ele>
        <time>2020-10-12T11:53:58.000Z</time>
      </trkpt>
      <trkpt lat="43.3382" lon="2.67159">
        <ele>257</ele>
        <time>2020-10-12T11:54:02.000Z</time>
      </trkpt>
      <trkpt lat="43.33821" lon="2.67152">
        <ele>258</ele>
        <time>2020-10-12T11:54:05.000Z</time>
      </trkpt>
      <trkpt lat="43.33822" lon="2.67142">
        <ele>258</ele>
        <time>2020-10-12T11:54:09.000Z</time>
      </trkpt>
      <trkpt lat="43.33826" lon="2.67136">
        <ele>258</ele>
        <time>2020-10-12T11:54:12.000Z</time>
      </trkpt>
      <trkpt lat="43.33826" lon="2.6713">
        <ele>259</ele>
        <time>2020-10-12T11:54:15.000Z</time>
      </trkpt>
      <trkpt lat="43.33825" lon="2.67126">
        <ele>259</ele>
        <time>2020-10-12T11:54:17.000Z</time>
      </trkpt>
      <trkpt lat="43.33826" lon="2.6712">
        <ele>259</ele>
        <time>2020-10-12T11:54:20.000Z</time>
      </trkpt>
      <trkpt lat="43.33826" lon="2.67115">
        <ele>260</ele>
        <time>2020-10-12T11:54:22.000Z</time>
      </trkpt>
      <trkpt lat="43.3383" lon="2.67099">
        <ele>260</ele>
        <time>2020-10-12T11:54:29.000Z</time>
      </trkpt>
      <trkpt lat="43.33833" lon="2.67091">
        <ele>261</ele>
        <time>2020-10-12T11:54:33.000Z</time>
      </trkpt>
      <trkpt lat="43.33837" lon="2.67084">
        <ele>261</ele>
        <time>2020-10-12T11:54:36.000Z</time>
      </trkpt>
      <trkpt lat="43.33841" lon="2.67078">
        <ele>262</ele>
        <time>2020-10-12T11:54:39.000Z</time>
      </trkpt>
      <trkpt lat="43.33846" lon="2.67074">
        <ele>262</ele>
        <time>2020-10-12T11:54:42.000Z</time>
      </trkpt>
      <trkpt lat="43.33853" lon="2.67072">
        <ele>262</ele>
        <time>2020-10-12T11:54:46.000Z</time>
      </trkpt>
      <trkpt lat="43.33857" lon="2.67072">
        <ele>263</ele>
        <time>2020-10-12T11:54:48.000Z</time>
      </trkpt>
      <trkpt lat="43.33866" lon="2.67076">
        <ele>263</ele>
        <time>2020-10-12T11:54:53.000Z</time>
      </trkpt>
      <trkpt lat="43.33872" lon="2.67079">
        <ele>264</ele>
        <time>2020-10-12T11:54:56.000Z</time>
      </trkpt>
      <trkpt lat="43.33898" lon="2.67098">
        <ele>265</ele>
        <time>2020-10-12T11:55:09.000Z</time>
      </trkpt>
      <trkpt lat="43.33908" lon="2.67103">
        <ele>266</ele>
        <time>2020-10-12T11:55:13.000Z</time>
      </trkpt>
      <trkpt lat="43.33931" lon="2.67113">
        <ele>267</ele>
        <time>2020-10-12T11:55:22.000Z</time>
      </trkpt>
      <trkpt lat="43.33962" lon="2.67131">
        <ele>268</ele>
        <time>2020-10-12T11:55:33.000Z</time>
      </trkpt>
      <trkpt lat="43.33969" lon="2.67131">
        <ele>268</ele>
        <time>2020-10-12T11:55:35.000Z</time>
      </trkpt>
      <trkpt lat="43.33973" lon="2.6713">
        <ele>268</ele>
        <time>2020-10-12T11:55:36.000Z</time>
      </trkpt>
      <trkpt lat="43.33978" lon="2.67127">
        <ele>268</ele>
        <time>2020-10-12T11:55:38.000Z</time>
      </trkpt>
      <trkpt lat="43.33983" lon="2.67121">
        <ele>268</ele>
        <time>2020-10-12T11:55:40.000Z</time>
      </trkpt>
      <trkpt lat="43.33988" lon="2.67112">
        <ele>268</ele>
        <time>2020-10-12T11:55:43.000Z</time>
      </trkpt>
      <trkpt lat="43.34002" lon="2.67094">
        <ele>269</ele>
        <time>2020-10-12T11:55:50.000Z</time>
      </trkpt>
      <trkpt lat="43.34026" lon="2.67055">
        <ele>270</ele>
        <time>2020-10-12T11:56:04.000Z</time>
      </trkpt>
      <trkpt lat="43.34056" lon="2.67016">
        <ele>271</ele>
        <time>2020-10-12T11:56:19.000Z</time>
      </trkpt>
      <trkpt lat="43.34064" lon="2.67006">
        <ele>272</ele>
        <time>2020-10-12T11:56:23.000Z</time>
      </trkpt>
      <trkpt lat="43.34077" lon="2.66988">
        <ele>273</ele>
        <time>2020-10-12T11:56:31.000Z</time>
      </trkpt>
      <trkpt lat="43.34085" lon="2.6698">
        <ele>273</ele>
        <time>2020-10-12T11:56:36.000Z</time>
      </trkpt>
      <trkpt lat="43.341" lon="2.66972">
        <ele>274</ele>
        <time>2020-10-12T11:56:44.000Z</time>
      </trkpt>
      <trkpt lat="43.34111" lon="2.66973">
        <ele>275</ele>
        <time>2020-10-12T11:56:49.000Z</time>
      </trkpt>
      <trkpt lat="43.34121" lon="2.66975">
        <ele>275</ele>
        <time>2020-10-12T11:56:53.000Z</time>
      </trkpt>
      <trkpt lat="43.34142" lon="2.66987">
        <ele>276</ele>
        <time>2020-10-12T11:57:01.000Z</time>
      </trkpt>
      <trkpt lat="43.34164" lon="2.66998">
        <ele>277</ele>
        <time>2020-10-12T11:57:08.000Z</time>
      </trkpt>
      <trkpt lat="43.34186" lon="2.67006">
        <ele>277</ele>
        <time>2020-10-12T11:57:15.000Z</time>
      </trkpt>
      <trkpt lat="43.34231" lon="2.67017">
        <ele>278</ele>
        <time>2020-10-12T11:57:28.000Z</time>
      </trkpt>
      <trkpt lat="43.34261" lon="2.6703">
        <ele>278</ele>
        <time>2020-10-12T11:57:36.000Z</time>
      </trkpt>
      <trkpt lat="43.34272" lon="2.67036">
        <ele>278</ele>
        <time>2020-10-12T11:57:39.000Z</time>
      </trkpt>
      <trkpt lat="43.34292" lon="2.67052">
        <ele>277</ele>
        <time>2020-10-12T11:57:44.000Z</time>
      </trkpt>
      <trkpt lat="43.34304" lon="2.67063">
        <ele>277</ele>
        <time>2020-10-12T11:57:47.000Z</time>
      </trkpt>
      <trkpt lat="43.34316" lon="2.67072">
        <ele>277</ele>
        <time>2020-10-12T11:57:50.000Z</time>
      </trkpt>
      <trkpt lat="43.34322" lon="2.67072">
        <ele>277</ele>
        <time>2020-10-12T11:57:52.000Z</time>
      </trkpt>
      <trkpt lat="43.34326" lon="2.67066">
        <ele>277</ele>
        <time>2020-10-12T11:57:54.000Z</time>
      </trkpt>
      <trkpt lat="43.34332" lon="2.67042">
        <ele>277</ele>
        <time>2020-10-12T11:58:00.000Z</time>
      </trkpt>
      <trkpt lat="43.34339" lon="2.67026">
        <ele>276</ele>
        <time>2020-10-12T11:58:03.000Z</time>
      </trkpt>
      <trkpt lat="43.34346" lon="2.67016">
        <ele>276</ele>
        <time>2020-10-12T11:58:05.000Z</time>
      </trkpt>
      <trkpt lat="43.34351" lon="2.67011">
        <ele>276</ele>
        <time>2020-10-12T11:58:06.000Z</time>
      </trkpt>
      <trkpt lat="43.34372" lon="2.66992">
        <ele>275</ele>
        <time>2020-10-12T11:58:11.000Z</time>
      </trkpt>
      <trkpt lat="43.34384" lon="2.66984">
        <ele>275</ele>
        <time>2020-10-12T11:58:15.000Z</time>
      </trkpt>
      <trkpt lat="43.34406" lon="2.66979">
        <ele>274</ele>
        <time>2020-10-12T11:58:22.000Z</time>
      </trkpt>
      <trkpt lat="43.34431" lon="2.66971">
        <ele>273</ele>
        <time>2020-10-12T11:58:31.000Z</time>
      </trkpt>
      <trkpt lat="43.34437" lon="2.66969">
        <ele>273</ele>
        <time>2020-10-12T11:58:33.000Z</time>
      </trkpt>
      <trkpt lat="43.34449" lon="2.66962">
        <ele>272</ele>
        <time>2020-10-12T11:58:37.000Z</time>
      </trkpt>
      <trkpt lat="43.34457" lon="2.66958">
        <ele>272</ele>
        <time>2020-10-12T11:58:40.000Z</time>
      </trkpt>
      <trkpt lat="43.34464" lon="2.66949">
        <ele>271</ele>
        <time>2020-10-12T11:58:43.000Z</time>
      </trkpt>
      <trkpt lat="43.34465" lon="2.66944">
        <ele>271</ele>
        <time>2020-10-12T11:58:44.000Z</time>
      </trkpt>
      <trkpt lat="43.34468" lon="2.66921">
        <ele>271</ele>
        <time>2020-10-12T11:58:52.000Z</time>
      </trkpt>
      <trkpt lat="43.34469" lon="2.66916">
        <ele>270</ele>
        <time>2020-10-12T11:58:54.000Z</time>
      </trkpt>
      <trkpt lat="43.34468" lon="2.66912">
        <ele>270</ele>
        <time>2020-10-12T11:58:56.000Z</time>
      </trkpt>
      <trkpt lat="43.34469" lon="2.66902">
        <ele>270</ele>
        <time>2020-10-12T11:59:00.000Z</time>
      </trkpt>
      <trkpt lat="43.3447" lon="2.66891">
        <ele>270</ele>
        <time>2020-10-12T11:59:05.000Z</time>
      </trkpt>
      <trkpt lat="43.34472" lon="2.66878">
        <ele>270</ele>
        <time>2020-10-12T11:59:11.000Z</time>
      </trkpt>
      <trkpt lat="43.34479" lon="2.66859">
        <ele>270</ele>
        <time>2020-10-12T11:59:20.000Z</time>
      </trkpt>
      <trkpt lat="43.34488" lon="2.66839">
        <ele>270</ele>
        <time>2020-10-12T11:59:31.000Z</time>
      </trkpt>
      <trkpt lat="43.34494" lon="2.66824">
        <ele>270</ele>
        <time>2020-10-12T11:59:43.000Z</time>
      </trkpt>
      <trkpt lat="43.345" lon="2.66817">
        <ele>271</ele>
        <time>2020-10-12T11:59:54.000Z</time>
      </trkpt>
      <trkpt lat="43.34505" lon="2.66814">
        <ele>271</ele>
        <time>2020-10-12T12:00:01.000Z</time>
      </trkpt>
      <trkpt lat="43.3451" lon="2.66813">
        <ele>272</ele>
        <time>2020-10-12T12:00:07.000Z</time>
      </trkpt>
      <trkpt lat="43.34532" lon="2.66813">
        <ele>273</ele>
        <time>2020-10-12T12:00:28.000Z</time>
      </trkpt>
      <trkpt lat="43.34546" lon="2.6681">
        <ele>274</ele>
        <time>2020-10-12T12:00:42.000Z</time>
      </trkpt>
      <trkpt lat="43.34553" lon="2.66809">
        <ele>275</ele>
        <time>2020-10-12T12:00:49.000Z</time>
      </trkpt>
      <trkpt lat="43.34557" lon="2.66808">
        <ele>275</ele>
        <time>2020-10-12T12:00:53.000Z</time>
      </trkpt>
      <trkpt lat="43.34566" lon="2.66801">
        <ele>276</ele>
        <time>2020-10-12T12:01:00.000Z</time>
      </trkpt>
      <trkpt lat="43.34569" lon="2.66794">
        <ele>277</ele>
        <time>2020-10-12T12:01:08.000Z</time>
      </trkpt>
      <trkpt lat="43.3457" lon="2.66789">
        <ele>277</ele>
        <time>2020-10-12T12:01:10.000Z</time>
      </trkpt>
      <trkpt lat="43.34571" lon="2.66775">
        <ele>277</ele>
        <time>2020-10-12T12:01:15.000Z</time>
      </trkpt>
      <trkpt lat="43.34572" lon="2.66761">
        <ele>278</ele>
        <time>2020-10-12T12:01:20.000Z</time>
      </trkpt>
      <trkpt lat="43.34575" lon="2.66751">
        <ele>278</ele>
        <time>2020-10-12T12:01:24.000Z</time>
      </trkpt>
      <trkpt lat="43.34579" lon="2.66743">
        <ele>278</ele>
        <time>2020-10-12T12:01:27.000Z</time>
      </trkpt>
      <trkpt lat="43.34592" lon="2.66725">
        <ele>279</ele>
        <time>2020-10-12T12:01:36.000Z</time>
      </trkpt>
      <trkpt lat="43.34597" lon="2.66721">
        <ele>280</ele>
        <time>2020-10-12T12:01:40.000Z</time>
      </trkpt>
      <trkpt lat="43.34602" lon="2.6672">
        <ele>280</ele>
        <time>2020-10-12T12:01:43.000Z</time>
      </trkpt>
      <trkpt lat="43.34608" lon="2.66721">
        <ele>280</ele>
        <time>2020-10-12T12:01:47.000Z</time>
      </trkpt>
      <trkpt lat="43.34623" lon="2.6672">
        <ele>281</ele>
        <time>2020-10-12T12:01:57.000Z</time>
      </trkpt>
      <trkpt lat="43.34637" lon="2.66716">
        <ele>282</ele>
        <time>2020-10-12T12:02:06.000Z</time>
      </trkpt>
      <trkpt lat="43.34653" lon="2.6671">
        <ele>284</ele>
        <time>2020-10-12T12:02:16.000Z</time>
      </trkpt>
      <trkpt lat="43.34665" lon="2.66709">
        <ele>285</ele>
        <time>2020-10-12T12:02:23.000Z</time>
      </trkpt>
      <trkpt lat="43.34677" lon="2.6671">
        <ele>285</ele>
        <time>2020-10-12T12:02:30.000Z</time>
      </trkpt>
      <trkpt lat="43.34698" lon="2.66713">
        <ele>287</ele>
        <time>2020-10-12T12:02:43.000Z</time>
      </trkpt>
      <trkpt lat="43.34708" lon="2.66717">
        <ele>288</ele>
        <time>2020-10-12T12:02:49.000Z</time>
      </trkpt>
      <trkpt lat="43.34739" lon="2.66725">
        <ele>291</ele>
        <time>2020-10-12T12:03:10.000Z</time>
      </trkpt>
      <trkpt lat="43.34766" lon="2.66728">
        <ele>294</ele>
        <time>2020-10-12T12:03:28.000Z</time>
      </trkpt>
      <trkpt lat="43.3477" lon="2.6673">
        <ele>294</ele>
        <time>2020-10-12T12:03:31.000Z</time>
      </trkpt>
      <trkpt lat="43.34781" lon="2.6673">
        <ele>295</ele>
        <time>2020-10-12T12:03:38.000Z</time>
      </trkpt>
      <trkpt lat="43.34805" lon="2.66728">
        <ele>298</ele>
        <time>2020-10-12T12:03:54.000Z</time>
      </trkpt>
      <trkpt lat="43.34832" lon="2.6673">
        <ele>300</ele>
        <time>2020-10-12T12:04:12.000Z</time>
      </trkpt>
      <trkpt lat="43.34842" lon="2.66733">
        <ele>301</ele>
        <time>2020-10-12T12:04:20.000Z</time>
      </trkpt>
      <trkpt lat="43.34868" lon="2.66738">
        <ele>304</ele>
        <time>2020-10-12T12:04:36.000Z</time>
      </trkpt>
      <trkpt lat="43.34889" lon="2.6674">
        <ele>306</ele>
        <time>2020-10-12T12:04:48.000Z</time>
      </trkpt>
      <trkpt lat="43.34902" lon="2.6674">
        <ele>307</ele>
        <time>2020-10-12T12:04:55.000Z</time>
      </trkpt>
      <trkpt lat="43.3492" lon="2.66743">
        <ele>308</ele>
        <time>2020-10-12T12:05:05.000Z</time>
      </trkpt>
      <trkpt lat="43.34924" lon="2.66743">
        <ele>309</ele>
        <time>2020-10-12T12:05:07.000Z</time>
      </trkpt>
      <trkpt lat="43.34936" lon="2.66744">
        <ele>309</ele>
        <time>2020-10-12T12:05:13.000Z</time>
      </trkpt>
      <trkpt lat="43.34959" lon="2.66741">
        <ele>311</ele>
        <time>2020-10-12T12:05:26.000Z</time>
      </trkpt>
      <trkpt lat="43.34965" lon="2.66742">
        <ele>312</ele>
        <time>2020-10-12T12:05:29.000Z</time>
      </trkpt>
      <trkpt lat="43.34974" lon="2.66749">
        <ele>312</ele>
        <time>2020-10-12T12:05:34.000Z</time>
      </trkpt>
      <trkpt lat="43.34977" lon="2.6675">
        <ele>313</ele>
        <time>2020-10-12T12:05:36.000Z</time>
      </trkpt>
      <trkpt lat="43.3498" lon="2.66748">
        <ele>314</ele>
        <time>2020-10-12T12:05:48.000Z</time>
      </trkpt>
      <trkpt lat="43.3497" lon="2.6672">
        <ele>315</ele>
        <time>2020-10-12T12:06:02.000Z</time>
      </trkpt>
      <trkpt lat="43.34963" lon="2.66708">
        <ele>315</ele>
        <time>2020-10-12T12:06:05.000Z</time>
      </trkpt>
      <trkpt lat="43.34959" lon="2.66696">
        <ele>315</ele>
        <time>2020-10-12T12:06:07.000Z</time>
      </trkpt>
      <trkpt lat="43.34957" lon="2.66681">
        <ele>316</ele>
        <time>2020-10-12T12:06:09.000Z</time>
      </trkpt>
      <trkpt lat="43.34957" lon="2.66663">
        <ele>316</ele>
        <time>2020-10-12T12:06:11.000Z</time>
      </trkpt>
      <trkpt lat="43.34962" lon="2.66622">
        <ele>316</ele>
        <time>2020-10-12T12:06:16.000Z</time>
      </trkpt>
      <trkpt lat="43.3497" lon="2.66592">
        <ele>316</ele>
        <time>2020-10-12T12:06:23.000Z</time>
      </trkpt>
      <trkpt lat="43.34971" lon="2.66585">
        <ele>316</ele>
        <time>2020-10-12T12:06:25.000Z</time>
      </trkpt>
      <trkpt lat="43.34969" lon="2.66564">
        <ele>316</ele>
        <time>2020-10-12T12:06:29.000Z</time>
      </trkpt>
      <trkpt lat="43.34969" lon="2.6652">
        <ele>316</ele>
        <time>2020-10-12T12:06:38.000Z</time>
      </trkpt>
      <trkpt lat="43.34973" lon="2.66483">
        <ele>316</ele>
        <time>2020-10-12T12:06:47.000Z</time>
      </trkpt>
      <trkpt lat="43.34973" lon="2.66479">
        <ele>316</ele>
        <time>2020-10-12T12:06:49.000Z</time>
      </trkpt>
      <trkpt lat="43.34967" lon="2.66466">
        <ele>316</ele>
        <time>2020-10-12T12:06:54.000Z</time>
      </trkpt>
      <trkpt lat="43.34964" lon="2.66457">
        <ele>316</ele>
        <time>2020-10-12T12:06:56.000Z</time>
      </trkpt>
      <trkpt lat="43.34961" lon="2.66439">
        <ele>316</ele>
        <time>2020-10-12T12:06:59.000Z</time>
      </trkpt>
      <trkpt lat="43.34963" lon="2.66416">
        <ele>316</ele>
        <time>2020-10-12T12:07:03.000Z</time>
      </trkpt>
      <trkpt lat="43.34964" lon="2.66411">
        <ele>316</ele>
        <time>2020-10-12T12:07:04.000Z</time>
      </trkpt>
      <trkpt lat="43.34972" lon="2.6639">
        <ele>316</ele>
        <time>2020-10-12T12:07:08.000Z</time>
      </trkpt>
      <trkpt lat="43.34975" lon="2.66378">
        <ele>316</ele>
        <time>2020-10-12T12:07:10.000Z</time>
      </trkpt>
      <trkpt lat="43.34975" lon="2.66366">
        <ele>316</ele>
        <time>2020-10-12T12:07:12.000Z</time>
      </trkpt>
      <trkpt lat="43.34974" lon="2.66348">
        <ele>315</ele>
        <time>2020-10-12T12:07:15.000Z</time>
      </trkpt>
      <trkpt lat="43.34974" lon="2.66336">
        <ele>315</ele>
        <time>2020-10-12T12:07:17.000Z</time>
      </trkpt>
      <trkpt lat="43.34974" lon="2.66324">
        <ele>315</ele>
        <time>2020-10-12T12:07:19.000Z</time>
      </trkpt>
      <trkpt lat="43.34979" lon="2.66291">
        <ele>315</ele>
        <time>2020-10-12T12:07:25.000Z</time>
      </trkpt>
      <trkpt lat="43.3498" lon="2.66274">
        <ele>315</ele>
        <time>2020-10-12T12:07:28.000Z</time>
      </trkpt>
      <trkpt lat="43.34979" lon="2.66263">
        <ele>315</ele>
        <time>2020-10-12T12:07:30.000Z</time>
      </trkpt>
      <trkpt lat="43.34975" lon="2.66237">
        <ele>315</ele>
        <time>2020-10-12T12:07:34.000Z</time>
      </trkpt>
      <trkpt lat="43.34972" lon="2.66216">
        <ele>315</ele>
        <time>2020-10-12T12:07:37.000Z</time>
      </trkpt>
      <trkpt lat="43.34972" lon="2.66201">
        <ele>315</ele>
        <time>2020-10-12T12:07:39.000Z</time>
      </trkpt>
      <trkpt lat="43.34973" lon="2.66187">
        <ele>315</ele>
        <time>2020-10-12T12:07:41.000Z</time>
      </trkpt>
      <trkpt lat="43.34976" lon="2.66174">
        <ele>315</ele>
        <time>2020-10-12T12:07:43.000Z</time>
      </trkpt>
      <trkpt lat="43.3498" lon="2.66165">
        <ele>314</ele>
        <time>2020-10-12T12:07:45.000Z</time>
      </trkpt>
      <trkpt lat="43.34988" lon="2.66155">
        <ele>314</ele>
        <time>2020-10-12T12:07:48.000Z</time>
      </trkpt>
      <trkpt lat="43.34991" lon="2.66153">
        <ele>314</ele>
        <time>2020-10-12T12:07:49.000Z</time>
      </trkpt>
      <trkpt lat="43.34994" lon="2.66152">
        <ele>314</ele>
        <time>2020-10-12T12:07:50.000Z</time>
      </trkpt>
      <trkpt lat="43.35013" lon="2.66149">
        <ele>314</ele>
        <time>2020-10-12T12:07:55.000Z</time>
      </trkpt>
      <trkpt lat="43.35018" lon="2.66148">
        <ele>314</ele>
        <time>2020-10-12T12:07:56.000Z</time>
      </trkpt>
      <trkpt lat="43.35021" lon="2.66145">
        <ele>314</ele>
        <time>2020-10-12T12:07:57.000Z</time>
      </trkpt>
      <trkpt lat="43.35023" lon="2.66137">
        <ele>314</ele>
        <time>2020-10-12T12:07:59.000Z</time>
      </trkpt>
      <trkpt lat="43.35019" lon="2.6613">
        <ele>314</ele>
        <time>2020-10-12T12:08:01.000Z</time>
      </trkpt>
      <trkpt lat="43.35016" lon="2.66126">
        <ele>314</ele>
        <time>2020-10-12T12:08:02.000Z</time>
      </trkpt>
      <trkpt lat="43.35002" lon="2.661">
        <ele>314</ele>
        <time>2020-10-12T12:08:07.000Z</time>
      </trkpt>
      <trkpt lat="43.34998" lon="2.66097">
        <ele>314</ele>
        <time>2020-10-12T12:08:08.000Z</time>
      </trkpt>
      <trkpt lat="43.34983" lon="2.66088">
        <ele>314</ele>
        <time>2020-10-12T12:08:11.000Z</time>
      </trkpt>
      <trkpt lat="43.34974" lon="2.66081">
        <ele>314</ele>
        <time>2020-10-12T12:08:13.000Z</time>
      </trkpt>
      <trkpt lat="43.34965" lon="2.66071">
        <ele>314</ele>
        <time>2020-10-12T12:08:15.000Z</time>
      </trkpt>
      <trkpt lat="43.34944" lon="2.66043">
        <ele>313</ele>
        <time>2020-10-12T12:08:20.000Z</time>
      </trkpt>
      <trkpt lat="43.34925" lon="2.66018">
        <ele>313</ele>
        <time>2020-10-12T12:08:24.000Z</time>
      </trkpt>
      <trkpt lat="43.34912" lon="2.66">
        <ele>313</ele>
        <time>2020-10-12T12:08:27.000Z</time>
      </trkpt>
      <trkpt lat="43.3489" lon="2.65967">
        <ele>313</ele>
        <time>2020-10-12T12:08:33.000Z</time>
      </trkpt>
      <trkpt lat="43.3488" lon="2.65949">
        <ele>312</ele>
        <time>2020-10-12T12:08:36.000Z</time>
      </trkpt>
      <trkpt lat="43.34872" lon="2.65932">
        <ele>312</ele>
        <time>2020-10-12T12:08:39.000Z</time>
      </trkpt>
      <trkpt lat="43.34866" lon="2.65917">
        <ele>312</ele>
        <time>2020-10-12T12:08:41.000Z</time>
      </trkpt>
      <trkpt lat="43.34864" lon="2.65904">
        <ele>312</ele>
        <time>2020-10-12T12:08:43.000Z</time>
      </trkpt>
      <trkpt lat="43.34866" lon="2.65895">
        <ele>311</ele>
        <time>2020-10-12T12:08:45.000Z</time>
      </trkpt>
      <trkpt lat="43.34873" lon="2.65877">
        <ele>311</ele>
        <time>2020-10-12T12:08:49.000Z</time>
      </trkpt>
      <trkpt lat="43.34874" lon="2.65873">
        <ele>311</ele>
        <time>2020-10-12T12:08:50.000Z</time>
      </trkpt>
      <trkpt lat="43.34866" lon="2.6586">
        <ele>310</ele>
        <time>2020-10-12T12:08:53.000Z</time>
      </trkpt>
      <trkpt lat="43.34857" lon="2.65853">
        <ele>310</ele>
        <time>2020-10-12T12:08:55.000Z</time>
      </trkpt>
      <trkpt lat="43.34835" lon="2.65841">
        <ele>310</ele>
        <time>2020-10-12T12:08:59.000Z</time>
      </trkpt>
      <trkpt lat="43.34818" lon="2.65823">
        <ele>309</ele>
        <time>2020-10-12T12:09:03.000Z</time>
      </trkpt>
      <trkpt lat="43.34813" lon="2.65814">
        <ele>309</ele>
        <time>2020-10-12T12:09:05.000Z</time>
      </trkpt>
      <trkpt lat="43.34806" lon="2.65796">
        <ele>308</ele>
        <time>2020-10-12T12:09:08.000Z</time>
      </trkpt>
      <trkpt lat="43.34802" lon="2.65761">
        <ele>307</ele>
        <time>2020-10-12T12:09:13.000Z</time>
      </trkpt>
      <trkpt lat="43.34799" lon="2.65755">
        <ele>307</ele>
        <time>2020-10-12T12:09:14.000Z</time>
      </trkpt>
      <trkpt lat="43.3478" lon="2.65721">
        <ele>306</ele>
        <time>2020-10-12T12:09:20.000Z</time>
      </trkpt>
      <trkpt lat="43.34774" lon="2.65709">
        <ele>306</ele>
        <time>2020-10-12T12:09:22.000Z</time>
      </trkpt>
      <trkpt lat="43.34768" lon="2.6569">
        <ele>305</ele>
        <time>2020-10-12T12:09:25.000Z</time>
      </trkpt>
      <trkpt lat="43.34765" lon="2.65678">
        <ele>305</ele>
        <time>2020-10-12T12:09:27.000Z</time>
      </trkpt>
      <trkpt lat="43.34765" lon="2.65666">
        <ele>304</ele>
        <time>2020-10-12T12:09:29.000Z</time>
      </trkpt>
      <trkpt lat="43.34771" lon="2.65652">
        <ele>304</ele>
        <time>2020-10-12T12:09:32.000Z</time>
      </trkpt>
      <trkpt lat="43.34778" lon="2.65644">
        <ele>303</ele>
        <time>2020-10-12T12:09:34.000Z</time>
      </trkpt>
      <trkpt lat="43.34792" lon="2.65625">
        <ele>302</ele>
        <time>2020-10-12T12:09:38.000Z</time>
      </trkpt>
      <trkpt lat="43.34798" lon="2.65608">
        <ele>302</ele>
        <time>2020-10-12T12:09:41.000Z</time>
      </trkpt>
      <trkpt lat="43.34797" lon="2.65603">
        <ele>301</ele>
        <time>2020-10-12T12:09:42.000Z</time>
      </trkpt>
      <trkpt lat="43.34791" lon="2.65599">
        <ele>301</ele>
        <time>2020-10-12T12:09:44.000Z</time>
      </trkpt>
      <trkpt lat="43.34787" lon="2.65601">
        <ele>301</ele>
        <time>2020-10-12T12:09:45.000Z</time>
      </trkpt>
      <trkpt lat="43.34781" lon="2.65607">
        <ele>300</ele>
        <time>2020-10-12T12:09:47.000Z</time>
      </trkpt>
      <trkpt lat="43.34768" lon="2.65613">
        <ele>300</ele>
        <time>2020-10-12T12:09:50.000Z</time>
      </trkpt>
      <trkpt lat="43.34733" lon="2.65617">
        <ele>298</ele>
        <time>2020-10-12T12:09:58.000Z</time>
      </trkpt>
      <trkpt lat="43.3472" lon="2.65615">
        <ele>298</ele>
        <time>2020-10-12T12:10:01.000Z</time>
      </trkpt>
      <trkpt lat="43.34712" lon="2.65612">
        <ele>297</ele>
        <time>2020-10-12T12:10:03.000Z</time>
      </trkpt>
      <trkpt lat="43.34703" lon="2.65609">
        <ele>297</ele>
        <time>2020-10-12T12:10:05.000Z</time>
      </trkpt>
      <trkpt lat="43.34682" lon="2.65595">
        <ele>296</ele>
        <time>2020-10-12T12:10:09.000Z</time>
      </trkpt>
      <trkpt lat="43.34671" lon="2.65589">
        <ele>296</ele>
        <time>2020-10-12T12:10:11.000Z</time>
      </trkpt>
      <trkpt lat="43.34647" lon="2.65578">
        <ele>295</ele>
        <time>2020-10-12T12:10:16.000Z</time>
      </trkpt>
      <trkpt lat="43.34622" lon="2.65568">
        <ele>294</ele>
        <time>2020-10-12T12:10:21.000Z</time>
      </trkpt>
      <trkpt lat="43.34612" lon="2.65564">
        <ele>294</ele>
        <time>2020-10-12T12:10:23.000Z</time>
      </trkpt>
      <trkpt lat="43.34604" lon="2.65557">
        <ele>293</ele>
        <time>2020-10-12T12:10:25.000Z</time>
      </trkpt>
      <trkpt lat="43.34596" lon="2.65549">
        <ele>293</ele>
        <time>2020-10-12T12:10:27.000Z</time>
      </trkpt>
      <trkpt lat="43.34593" lon="2.65544">
        <ele>293</ele>
        <time>2020-10-12T12:10:28.000Z</time>
      </trkpt>
      <trkpt lat="43.34591" lon="2.65539">
        <ele>293</ele>
        <time>2020-10-12T12:10:29.000Z</time>
      </trkpt>
      <trkpt lat="43.34587" lon="2.65527">
        <ele>292</ele>
        <time>2020-10-12T12:10:31.000Z</time>
      </trkpt>
      <trkpt lat="43.34581" lon="2.65503">
        <ele>291</ele>
        <time>2020-10-12T12:10:35.000Z</time>
      </trkpt>
      <trkpt lat="43.34572" lon="2.65482">
        <ele>290</ele>
        <time>2020-10-12T12:10:39.000Z</time>
      </trkpt>
      <trkpt lat="43.34546" lon="2.65423">
        <ele>288</ele>
        <time>2020-10-12T12:10:50.000Z</time>
      </trkpt>
      <trkpt lat="43.34535" lon="2.65397">
        <ele>287</ele>
        <time>2020-10-12T12:10:54.000Z</time>
      </trkpt>
      <trkpt lat="43.34532" lon="2.6539">
        <ele>287</ele>
        <time>2020-10-12T12:10:55.000Z</time>
      </trkpt>
      <trkpt lat="43.34527" lon="2.65383">
        <ele>287</ele>
        <time>2020-10-12T12:10:56.000Z</time>
      </trkpt>
      <trkpt lat="43.34514" lon="2.65365">
        <ele>286</ele>
        <time>2020-10-12T12:10:59.000Z</time>
      </trkpt>
      <trkpt lat="43.34505" lon="2.65353">
        <ele>286</ele>
        <time>2020-10-12T12:11:01.000Z</time>
      </trkpt>
      <trkpt lat="43.34494" lon="2.65332">
        <ele>285</ele>
        <time>2020-10-12T12:11:04.000Z</time>
      </trkpt>
      <trkpt lat="43.34489" lon="2.65327">
        <ele>285</ele>
        <time>2020-10-12T12:11:05.000Z</time>
      </trkpt>
      <trkpt lat="43.3447" lon="2.65321">
        <ele>284</ele>
        <time>2020-10-12T12:11:08.000Z</time>
      </trkpt>
      <trkpt lat="43.34459" lon="2.65319">
        <ele>284</ele>
        <time>2020-10-12T12:11:10.000Z</time>
      </trkpt>
      <trkpt lat="43.34454" lon="2.65317">
        <ele>284</ele>
        <time>2020-10-12T12:11:11.000Z</time>
      </trkpt>
      <trkpt lat="43.34444" lon="2.65309">
        <ele>283</ele>
        <time>2020-10-12T12:11:13.000Z</time>
      </trkpt>
      <trkpt lat="43.3444" lon="2.65303">
        <ele>283</ele>
        <time>2020-10-12T12:11:14.000Z</time>
      </trkpt>
      <trkpt lat="43.34437" lon="2.65297">
        <ele>283</ele>
        <time>2020-10-12T12:11:15.000Z</time>
      </trkpt>
      <trkpt lat="43.34428" lon="2.65276">
        <ele>282</ele>
        <time>2020-10-12T12:11:18.000Z</time>
      </trkpt>
      <trkpt lat="43.34406" lon="2.65235">
        <ele>280</ele>
        <time>2020-10-12T12:11:24.000Z</time>
      </trkpt>
      <trkpt lat="43.344" lon="2.65221">
        <ele>280</ele>
        <time>2020-10-12T12:11:26.000Z</time>
      </trkpt>
      <trkpt lat="43.34383" lon="2.65192">
        <ele>279</ele>
        <time>2020-10-12T12:11:30.000Z</time>
      </trkpt>
      <trkpt lat="43.34374" lon="2.65177">
        <ele>278</ele>
        <time>2020-10-12T12:11:32.000Z</time>
      </trkpt>
      <trkpt lat="43.34364" lon="2.65164">
        <ele>277</ele>
        <time>2020-10-12T12:11:34.000Z</time>
      </trkpt>
      <trkpt lat="43.34348" lon="2.65148">
        <ele>277</ele>
        <time>2020-10-12T12:11:37.000Z</time>
      </trkpt>
      <trkpt lat="43.34323" lon="2.65124">
        <ele>275</ele>
        <time>2020-10-12T12:11:42.000Z</time>
      </trkpt>
      <trkpt lat="43.34314" lon="2.65114">
        <ele>275</ele>
        <time>2020-10-12T12:11:44.000Z</time>
      </trkpt>
      <trkpt lat="43.34306" lon="2.65102">
        <ele>274</ele>
        <time>2020-10-12T12:11:46.000Z</time>
      </trkpt>
      <trkpt lat="43.34296" lon="2.65083">
        <ele>273</ele>
        <time>2020-10-12T12:11:49.000Z</time>
      </trkpt>
      <trkpt lat="43.34292" lon="2.6507">
        <ele>272</ele>
        <time>2020-10-12T12:11:51.000Z</time>
      </trkpt>
      <trkpt lat="43.34288" lon="2.65058">
        <ele>272</ele>
        <time>2020-10-12T12:11:53.000Z</time>
      </trkpt>
      <trkpt lat="43.34285" lon="2.65053">
        <ele>272</ele>
        <time>2020-10-12T12:11:54.000Z</time>
      </trkpt>
      <trkpt lat="43.34282" lon="2.65049">
        <ele>271</ele>
        <time>2020-10-12T12:11:55.000Z</time>
      </trkpt>
      <trkpt lat="43.34269" lon="2.65043">
        <ele>270</ele>
        <time>2020-10-12T12:11:58.000Z</time>
      </trkpt>
      <trkpt lat="43.34264" lon="2.65043">
        <ele>270</ele>
        <time>2020-10-12T12:11:59.000Z</time>
      </trkpt>
      <trkpt lat="43.34249" lon="2.65049">
        <ele>269</ele>
        <time>2020-10-12T12:12:02.000Z</time>
      </trkpt>
      <trkpt lat="43.3423" lon="2.65064">
        <ele>268</ele>
        <time>2020-10-12T12:12:06.000Z</time>
      </trkpt>
      <trkpt lat="43.34213" lon="2.65081">
        <ele>267</ele>
        <time>2020-10-12T12:12:10.000Z</time>
      </trkpt>
      <trkpt lat="43.34195" lon="2.65097">
        <ele>266</ele>
        <time>2020-10-12T12:12:14.000Z</time>
      </trkpt>
      <trkpt lat="43.34188" lon="2.65107">
        <ele>265</ele>
        <time>2020-10-12T12:12:16.000Z</time>
      </trkpt>
      <trkpt lat="43.34171" lon="2.65138">
        <ele>263</ele>
        <time>2020-10-12T12:12:21.000Z</time>
      </trkpt>
      <trkpt lat="43.34155" lon="2.65156">
        <ele>262</ele>
        <time>2020-10-12T12:12:25.000Z</time>
      </trkpt>
      <trkpt lat="43.34135" lon="2.65182">
        <ele>260</ele>
        <time>2020-10-12T12:12:31.000Z</time>
      </trkpt>
      <trkpt lat="43.34131" lon="2.65185">
        <ele>259</ele>
        <time>2020-10-12T12:12:32.000Z</time>
      </trkpt>
      <trkpt lat="43.34127" lon="2.65188">
        <ele>259</ele>
        <time>2020-10-12T12:12:33.000Z</time>
      </trkpt>
      <trkpt lat="43.34123" lon="2.6519">
        <ele>259</ele>
        <time>2020-10-12T12:12:34.000Z</time>
      </trkpt>
      <trkpt lat="43.34107" lon="2.65191">
        <ele>258</ele>
        <time>2020-10-12T12:12:37.000Z</time>
      </trkpt>
      <trkpt lat="43.34092" lon="2.65194">
        <ele>257</ele>
        <time>2020-10-12T12:12:40.000Z</time>
      </trkpt>
      <trkpt lat="43.3408" lon="2.65199">
        <ele>256</ele>
        <time>2020-10-12T12:12:43.000Z</time>
      </trkpt>
      <trkpt lat="43.34067" lon="2.65208">
        <ele>255</ele>
        <time>2020-10-12T12:12:46.000Z</time>
      </trkpt>
      <trkpt lat="43.34045" lon="2.65232">
        <ele>253</ele>
        <time>2020-10-12T12:12:52.000Z</time>
      </trkpt>
      <trkpt lat="43.34042" lon="2.65234">
        <ele>252</ele>
        <time>2020-10-12T12:12:53.000Z</time>
      </trkpt>
      <trkpt lat="43.34037" lon="2.65234">
        <ele>251</ele>
        <time>2020-10-12T12:12:55.000Z</time>
      </trkpt>
      <trkpt lat="43.34033" lon="2.6523">
        <ele>251</ele>
        <time>2020-10-12T12:12:57.000Z</time>
      </trkpt>
      <trkpt lat="43.34031" lon="2.65223">
        <ele>250</ele>
        <time>2020-10-12T12:12:59.000Z</time>
      </trkpt>
      <trkpt lat="43.34032" lon="2.65217">
        <ele>249</ele>
        <time>2020-10-12T12:13:01.000Z</time>
      </trkpt>
      <trkpt lat="43.34039" lon="2.65203">
        <ele>248</ele>
        <time>2020-10-12T12:13:05.000Z</time>
      </trkpt>
      <trkpt lat="43.34049" lon="2.65179">
        <ele>246</ele>
        <time>2020-10-12T12:13:11.000Z</time>
      </trkpt>
      <trkpt lat="43.34053" lon="2.65172">
        <ele>246</ele>
        <time>2020-10-12T12:13:13.000Z</time>
      </trkpt>
      <trkpt lat="43.34063" lon="2.6516">
        <ele>245</ele>
        <time>2020-10-12T12:13:17.000Z</time>
      </trkpt>
      <trkpt lat="43.34065" lon="2.65156">
        <ele>244</ele>
        <time>2020-10-12T12:13:18.000Z</time>
      </trkpt>
      <trkpt lat="43.34068" lon="2.65142">
        <ele>243</ele>
        <time>2020-10-12T12:13:21.000Z</time>
      </trkpt>
      <trkpt lat="43.34068" lon="2.65106">
        <ele>242</ele>
        <time>2020-10-12T12:13:28.000Z</time>
      </trkpt>
      <trkpt lat="43.34066" lon="2.65093">
        <ele>241</ele>
        <time>2020-10-12T12:13:31.000Z</time>
      </trkpt>
      <trkpt lat="43.34064" lon="2.65084">
        <ele>240</ele>
        <time>2020-10-12T12:13:33.000Z</time>
      </trkpt>
      <trkpt lat="43.34062" lon="2.6508">
        <ele>240</ele>
        <time>2020-10-12T12:13:34.000Z</time>
      </trkpt>
      <trkpt lat="43.34059" lon="2.65076">
        <ele>240</ele>
        <time>2020-10-12T12:13:35.000Z</time>
      </trkpt>
      <trkpt lat="43.34052" lon="2.65069">
        <ele>239</ele>
        <time>2020-10-12T12:13:38.000Z</time>
      </trkpt>
      <trkpt lat="43.3405" lon="2.65064">
        <ele>239</ele>
        <time>2020-10-12T12:13:40.000Z</time>
      </trkpt>
      <trkpt lat="43.3405" lon="2.6506">
        <ele>238</ele>
        <time>2020-10-12T12:13:42.000Z</time>
      </trkpt>
      <trkpt lat="43.34056" lon="2.65049">
        <ele>237</ele>
        <time>2020-10-12T12:13:47.000Z</time>
      </trkpt>
      <trkpt lat="43.34061" lon="2.65028">
        <ele>236</ele>
        <time>2020-10-12T12:13:54.000Z</time>
      </trkpt>
      <trkpt lat="43.34065" lon="2.65002">
        <ele>235</ele>
        <time>2020-10-12T12:14:02.000Z</time>
      </trkpt>
      <trkpt lat="43.34066" lon="2.64996">
        <ele>235</ele>
        <time>2020-10-12T12:14:04.000Z</time>
      </trkpt>
      <trkpt lat="43.34065" lon="2.64994">
        <ele>234</ele>
        <time>2020-10-12T12:14:05.000Z</time>
      </trkpt>
      <trkpt lat="43.34059" lon="2.6499">
        <ele>234</ele>
        <time>2020-10-12T12:14:08.000Z</time>
      </trkpt>
      <trkpt lat="43.34043" lon="2.64986">
        <ele>233</ele>
        <time>2020-10-12T12:14:15.000Z</time>
      </trkpt>
      <trkpt lat="43.34036" lon="2.64982">
        <ele>233</ele>
        <time>2020-10-12T12:14:18.000Z</time>
      </trkpt>
      <trkpt lat="43.34032" lon="2.64979">
        <ele>233</ele>
        <time>2020-10-12T12:14:20.000Z</time>
      </trkpt>
      <trkpt lat="43.33999" lon="2.64933">
        <ele>231</ele>
        <time>2020-10-12T12:14:45.000Z</time>
      </trkpt>
      <trkpt lat="43.33995" lon="2.64927">
        <ele>231</ele>
        <time>2020-10-12T12:14:50.000Z</time>
      </trkpt>
      <trkpt lat="43.33995" lon="2.64927">
        <ele>231</ele>
        <time>2020-10-12T12:14:51.000Z</time>
      </trkpt>
      <trkpt lat="43.33995" lon="2.64927">
        <ele>231</ele>
        <time>2020-10-12T12:14:52.000Z</time>
      </trkpt>
      <trkpt lat="43.33979" lon="2.64914">
        <ele>230</ele>
        <time>2020-10-12T12:15:10.000Z</time>
      </trkpt>
      <trkpt lat="43.33972" lon="2.64904">
        <ele>230</ele>
        <time>2020-10-12T12:15:20.000Z</time>
      </trkpt>
      <trkpt lat="43.33968" lon="2.64891">
        <ele>230</ele>
        <time>2020-10-12T12:15:30.000Z</time>
      </trkpt>
      <trkpt lat="43.3397" lon="2.64876">
        <ele>231</ele>
        <time>2020-10-12T12:15:43.000Z</time>
      </trkpt>
      <trkpt lat="43.33976" lon="2.64861">
        <ele>232</ele>
        <time>2020-10-12T12:15:55.000Z</time>
      </trkpt>
      <trkpt lat="43.33977" lon="2.64857">
        <ele>232</ele>
        <time>2020-10-12T12:15:57.000Z</time>
      </trkpt>
      <trkpt lat="43.33976" lon="2.64853">
        <ele>232</ele>
        <time>2020-10-12T12:16:00.000Z</time>
      </trkpt>
      <trkpt lat="43.33969" lon="2.64849">
        <ele>232</ele>
        <time>2020-10-12T12:16:08.000Z</time>
      </trkpt>
      <trkpt lat="43.33966" lon="2.64851">
        <ele>233</ele>
        <time>2020-10-12T12:16:13.000Z</time>
      </trkpt>
      <trkpt lat="43.33957" lon="2.6487">
        <ele>233</ele>
        <time>2020-10-12T12:16:19.000Z</time>
      </trkpt>
      <trkpt lat="43.33946" lon="2.64885">
        <ele>233</ele>
        <time>2020-10-12T12:16:22.000Z</time>
      </trkpt>
      <trkpt lat="43.33933" lon="2.64908">
        <ele>233</ele>
        <time>2020-10-12T12:16:26.000Z</time>
      </trkpt>
      <trkpt lat="43.33931" lon="2.64913">
        <ele>233</ele>
        <time>2020-10-12T12:16:27.000Z</time>
      </trkpt>
      <trkpt lat="43.33926" lon="2.64933">
        <ele>233</ele>
        <time>2020-10-12T12:16:30.000Z</time>
      </trkpt>
      <trkpt lat="43.33925" lon="2.64939">
        <ele>233</ele>
        <time>2020-10-12T12:16:31.000Z</time>
      </trkpt>
      <trkpt lat="43.33919" lon="2.64949">
        <ele>233</ele>
        <time>2020-10-12T12:16:33.000Z</time>
      </trkpt>
      <trkpt lat="43.33909" lon="2.64957">
        <ele>233</ele>
        <time>2020-10-12T12:16:35.000Z</time>
      </trkpt>
      <trkpt lat="43.33893" lon="2.64968">
        <ele>233</ele>
        <time>2020-10-12T12:16:41.000Z</time>
      </trkpt>
      <trkpt lat="43.33868" lon="2.64984">
        <ele>233</ele>
        <time>2020-10-12T12:16:52.000Z</time>
      </trkpt>
      <trkpt lat="43.33862" lon="2.64987">
        <ele>233</ele>
        <time>2020-10-12T12:16:54.000Z</time>
      </trkpt>
      <trkpt lat="43.33854" lon="2.64992">
        <ele>233</ele>
        <time>2020-10-12T12:16:58.000Z</time>
      </trkpt>
      <trkpt lat="43.33848" lon="2.64997">
        <ele>233</ele>
        <time>2020-10-12T12:17:01.000Z</time>
      </trkpt>
      <trkpt lat="43.33836" lon="2.65004">
        <ele>233</ele>
        <time>2020-10-12T12:17:07.000Z</time>
      </trkpt>
      <trkpt lat="43.33828" lon="2.65006">
        <ele>233</ele>
        <time>2020-10-12T12:17:10.000Z</time>
      </trkpt>
      <trkpt lat="43.33815" lon="2.65012">
        <ele>234</ele>
        <time>2020-10-12T12:17:16.000Z</time>
      </trkpt>
      <trkpt lat="43.33785" lon="2.65039">
        <ele>235</ele>
        <time>2020-10-12T12:17:34.000Z</time>
      </trkpt>
      <trkpt lat="43.33762" lon="2.65067">
        <ele>236</ele>
        <time>2020-10-12T12:17:50.000Z</time>
      </trkpt>
      <trkpt lat="43.33752" lon="2.65076">
        <ele>236</ele>
        <time>2020-10-12T12:17:56.000Z</time>
      </trkpt>
      <trkpt lat="43.33741" lon="2.65083">
        <ele>237</ele>
        <time>2020-10-12T12:18:02.000Z</time>
      </trkpt>
      <trkpt lat="43.33734" lon="2.65089">
        <ele>237</ele>
        <time>2020-10-12T12:18:06.000Z</time>
      </trkpt>
      <trkpt lat="43.33718" lon="2.65103">
        <ele>238</ele>
        <time>2020-10-12T12:18:16.000Z</time>
      </trkpt>
      <trkpt lat="43.33691" lon="2.65136">
        <ele>240</ele>
        <time>2020-10-12T12:18:34.000Z</time>
      </trkpt>
      <trkpt lat="43.33683" lon="2.65144">
        <ele>240</ele>
        <time>2020-10-12T12:18:40.000Z</time>
      </trkpt>
      <trkpt lat="43.33677" lon="2.65149">
        <ele>241</ele>
        <time>2020-10-12T12:18:44.000Z</time>
      </trkpt>
      <trkpt lat="43.33674" lon="2.65151">
        <ele>241</ele>
        <time>2020-10-12T12:18:46.000Z</time>
      </trkpt>
      <trkpt lat="43.33662" lon="2.65152">
        <ele>242</ele>
        <time>2020-10-12T12:18:52.000Z</time>
      </trkpt>
      <trkpt lat="43.33651" lon="2.65152">
        <ele>242</ele>
        <time>2020-10-12T12:18:56.000Z</time>
      </trkpt>
      <trkpt lat="43.33632" lon="2.65149">
        <ele>243</ele>
        <time>2020-10-12T12:19:03.000Z</time>
      </trkpt>
      <trkpt lat="43.3363" lon="2.65148">
        <ele>243</ele>
        <time>2020-10-12T12:19:04.000Z</time>
      </trkpt>
      <trkpt lat="43.33629" lon="2.65146">
        <ele>243</ele>
        <time>2020-10-12T12:19:05.000Z</time>
      </trkpt>
      <trkpt lat="43.33627" lon="2.65138">
        <ele>243</ele>
        <time>2020-10-12T12:19:08.000Z</time>
      </trkpt>
      <trkpt lat="43.33626" lon="2.65118">
        <ele>243</ele>
        <time>2020-10-12T12:19:12.000Z</time>
      </trkpt>
      <trkpt lat="43.33622" lon="2.65079">
        <ele>243</ele>
        <time>2020-10-12T12:19:20.000Z</time>
      </trkpt>
      <trkpt lat="43.3362" lon="2.65048">
        <ele>243</ele>
        <time>2020-10-12T12:19:25.000Z</time>
      </trkpt>
      <trkpt lat="43.3362" lon="2.65023">
        <ele>243</ele>
        <time>2020-10-12T12:19:31.000Z</time>
      </trkpt>
      <trkpt lat="43.33621" lon="2.64997">
        <ele>243</ele>
        <time>2020-10-12T12:19:37.000Z</time>
      </trkpt>
      <trkpt lat="43.33623" lon="2.64962">
        <ele>243</ele>
        <time>2020-10-12T12:19:44.000Z</time>
      </trkpt>
      <trkpt lat="43.33624" lon="2.6494">
        <ele>243</ele>
        <time>2020-10-12T12:19:49.000Z</time>
      </trkpt>
      <trkpt lat="43.33623" lon="2.64905">
        <ele>243</ele>
        <time>2020-10-12T12:19:58.000Z</time>
      </trkpt>
      <trkpt lat="43.33622" lon="2.64904">
        <ele>243</ele>
        <time>2020-10-12T12:19:59.000Z</time>
      </trkpt>
      <trkpt lat="43.3362" lon="2.64908">
        <ele>243</ele>
        <time>2020-10-12T12:20:02.000Z</time>
      </trkpt>
      <trkpt lat="43.33619" lon="2.64911">
        <ele>243</ele>
        <time>2020-10-12T12:20:03.000Z</time>
      </trkpt>
      <trkpt lat="43.33617" lon="2.64937">
        <ele>243</ele>
        <time>2020-10-12T12:20:10.000Z</time>
      </trkpt>
      <trkpt lat="43.33616" lon="2.64968">
        <ele>243</ele>
        <time>2020-10-12T12:20:19.000Z</time>
      </trkpt>
      <trkpt lat="43.33612" lon="2.64986">
        <ele>243</ele>
        <time>2020-10-12T12:20:24.000Z</time>
      </trkpt>
      <trkpt lat="43.33611" lon="2.65001">
        <ele>243</ele>
        <time>2020-10-12T12:20:28.000Z</time>
      </trkpt>
      <trkpt lat="43.336" lon="2.65077">
        <ele>242</ele>
        <time>2020-10-12T12:20:49.000Z</time>
      </trkpt>
      <trkpt lat="43.33594" lon="2.65106">
        <ele>241</ele>
        <time>2020-10-12T12:20:57.000Z</time>
      </trkpt>
      <trkpt lat="43.33592" lon="2.65125">
        <ele>241</ele>
        <time>2020-10-12T12:21:02.000Z</time>
      </trkpt>
      <trkpt lat="43.3359" lon="2.65135">
        <ele>240</ele>
        <time>2020-10-12T12:21:05.000Z</time>
      </trkpt>
      <trkpt lat="43.33586" lon="2.65149">
        <ele>240</ele>
        <time>2020-10-12T12:21:09.000Z</time>
      </trkpt>
      <trkpt lat="43.33583" lon="2.65165">
        <ele>239</ele>
        <time>2020-10-12T12:21:14.000Z</time>
      </trkpt>
      <trkpt lat="43.3358" lon="2.65176">
        <ele>239</ele>
        <time>2020-10-12T12:21:18.000Z</time>
      </trkpt>
      <trkpt lat="43.33576" lon="2.65197">
        <ele>238</ele>
        <time>2020-10-12T12:21:25.000Z</time>
      </trkpt>
      <trkpt lat="43.33574" lon="2.65206">
        <ele>238</ele>
        <time>2020-10-12T12:21:28.000Z</time>
      </trkpt>
      <trkpt lat="43.33573" lon="2.6522">
        <ele>237</ele>
        <time>2020-10-12T12:21:33.000Z</time>
      </trkpt>
      <trkpt lat="43.33566" lon="2.65244">
        <ele>236</ele>
        <time>2020-10-12T12:21:41.000Z</time>
      </trkpt>
      <trkpt lat="43.33563" lon="2.65262">
        <ele>234</ele>
        <time>2020-10-12T12:21:49.000Z</time>
      </trkpt>
      <trkpt lat="43.33558" lon="2.65271">
        <ele>234</ele>
        <time>2020-10-12T12:21:53.000Z</time>
      </trkpt>
      <trkpt lat="43.33547" lon="2.65283">
        <ele>233</ele>
        <time>2020-10-12T12:22:00.000Z</time>
      </trkpt>
      <trkpt lat="43.3351" lon="2.65305">
        <ele>230</ele>
        <time>2020-10-12T12:22:17.000Z</time>
      </trkpt>
      <trkpt lat="43.33502" lon="2.65312">
        <ele>229</ele>
        <time>2020-10-12T12:22:20.000Z</time>
      </trkpt>
      <trkpt lat="43.33493" lon="2.65321">
        <ele>228</ele>
        <time>2020-10-12T12:22:24.000Z</time>
      </trkpt>
      <trkpt lat="43.33492" lon="2.65327">
        <ele>228</ele>
        <time>2020-10-12T12:22:26.000Z</time>
      </trkpt>
      <trkpt lat="43.33495" lon="2.65378">
        <ele>226</ele>
        <time>2020-10-12T12:22:40.000Z</time>
      </trkpt>
      <trkpt lat="43.33492" lon="2.65395">
        <ele>225</ele>
        <time>2020-10-12T12:22:44.000Z</time>
      </trkpt>
      <trkpt lat="43.3348" lon="2.65424">
        <ele>224</ele>
        <time>2020-10-12T12:22:52.000Z</time>
      </trkpt>
      <trkpt lat="43.33473" lon="2.65446">
        <ele>222</ele>
        <time>2020-10-12T12:23:00.000Z</time>
      </trkpt>
      <trkpt lat="43.33468" lon="2.65457">
        <ele>222</ele>
        <time>2020-10-12T12:23:04.000Z</time>
      </trkpt>
      <trkpt lat="43.33452" lon="2.6549">
        <ele>220</ele>
        <time>2020-10-12T12:23:15.000Z</time>
      </trkpt>
      <trkpt lat="43.33447" lon="2.65503">
        <ele>219</ele>
        <time>2020-10-12T12:23:19.000Z</time>
      </trkpt>
      <trkpt lat="43.33443" lon="2.6551">
        <ele>219</ele>
        <time>2020-10-12T12:23:21.000Z</time>
      </trkpt>
      <trkpt lat="43.33441" lon="2.65512">
        <ele>219</ele>
        <time>2020-10-12T12:23:22.000Z</time>
      </trkpt>
      <trkpt lat="43.33438" lon="2.65514">
        <ele>219</ele>
        <time>2020-10-12T12:23:23.000Z</time>
      </trkpt>
      <trkpt lat="43.33433" lon="2.65513">
        <ele>218</ele>
        <time>2020-10-12T12:23:26.000Z</time>
      </trkpt>
      <trkpt lat="43.33426" lon="2.65507">
        <ele>217</ele>
        <time>2020-10-12T12:23:29.000Z</time>
      </trkpt>
      <trkpt lat="43.33413" lon="2.655">
        <ele>216</ele>
        <time>2020-10-12T12:23:34.000Z</time>
      </trkpt>
      <trkpt lat="43.33411" lon="2.655">
        <ele>216</ele>
        <time>2020-10-12T12:23:35.000Z</time>
      </trkpt>
      <trkpt lat="43.33403" lon="2.65499">
        <ele>216</ele>
        <time>2020-10-12T12:23:38.000Z</time>
      </trkpt>
      <trkpt lat="43.33394" lon="2.655">
        <ele>215</ele>
        <time>2020-10-12T12:23:42.000Z</time>
      </trkpt>
      <trkpt lat="43.33379" lon="2.655">
        <ele>214</ele>
        <time>2020-10-12T12:23:48.000Z</time>
      </trkpt>
      <trkpt lat="43.33375" lon="2.65501">
        <ele>213</ele>
        <time>2020-10-12T12:23:50.000Z</time>
      </trkpt>
      <trkpt lat="43.33364" lon="2.65505">
        <ele>212</ele>
        <time>2020-10-12T12:23:55.000Z</time>
      </trkpt>
      <trkpt lat="43.33352" lon="2.65508">
        <ele>211</ele>
        <time>2020-10-12T12:24:00.000Z</time>
      </trkpt>
      <trkpt lat="43.33341" lon="2.65512">
        <ele>210</ele>
        <time>2020-10-12T12:24:05.000Z</time>
      </trkpt>
      <trkpt lat="43.33319" lon="2.65519">
        <ele>208</ele>
        <time>2020-10-12T12:24:15.000Z</time>
      </trkpt>
      <trkpt lat="43.33312" lon="2.6552">
        <ele>207</ele>
        <time>2020-10-12T12:24:18.000Z</time>
      </trkpt>
      <trkpt lat="43.33302" lon="2.65523">
        <ele>206</ele>
        <time>2020-10-12T12:24:22.000Z</time>
      </trkpt>
      <trkpt lat="43.33296" lon="2.65523">
        <ele>205</ele>
        <time>2020-10-12T12:24:24.000Z</time>
      </trkpt>
      <trkpt lat="43.3329" lon="2.65521">
        <ele>205</ele>
        <time>2020-10-12T12:24:26.000Z</time>
      </trkpt>
      <trkpt lat="43.33267" lon="2.65518">
        <ele>203</ele>
        <time>2020-10-12T12:24:34.000Z</time>
      </trkpt>
      <trkpt lat="43.33231" lon="2.65509">
        <ele>199</ele>
        <time>2020-10-12T12:24:48.000Z</time>
      </trkpt>
      <trkpt lat="43.33226" lon="2.65507">
        <ele>198</ele>
        <time>2020-10-12T12:24:50.000Z</time>
      </trkpt>
      <trkpt lat="43.33224" lon="2.65504">
        <ele>198</ele>
        <time>2020-10-12T12:24:51.000Z</time>
      </trkpt>
      <trkpt lat="43.3322" lon="2.655">
        <ele>198</ele>
        <time>2020-10-12T12:24:53.000Z</time>
      </trkpt>
      <trkpt lat="43.33213" lon="2.65492">
        <ele>197</ele>
        <time>2020-10-12T12:24:56.000Z</time>
      </trkpt>
      <trkpt lat="43.33204" lon="2.65484">
        <ele>196</ele>
        <time>2020-10-12T12:25:00.000Z</time>
      </trkpt>
      <trkpt lat="43.33195" lon="2.65475">
        <ele>194</ele>
        <time>2020-10-12T12:25:04.000Z</time>
      </trkpt>
      <trkpt lat="43.33186" lon="2.65469">
        <ele>193</ele>
        <time>2020-10-12T12:25:08.000Z</time>
      </trkpt>
      <trkpt lat="43.33184" lon="2.65467">
        <ele>193</ele>
        <time>2020-10-12T12:25:09.000Z</time>
      </trkpt>
      <trkpt lat="43.33155" lon="2.65459">
        <ele>189</ele>
        <time>2020-10-12T12:25:24.000Z</time>
      </trkpt>
      <trkpt lat="43.33148" lon="2.65455">
        <ele>188</ele>
        <time>2020-10-12T12:25:28.000Z</time>
      </trkpt>
      <trkpt lat="43.33134" lon="2.65456">
        <ele>187</ele>
        <time>2020-10-12T12:25:35.000Z</time>
      </trkpt>
      <trkpt lat="43.33123" lon="2.65457">
        <ele>186</ele>
        <time>2020-10-12T12:25:40.000Z</time>
      </trkpt>
      <trkpt lat="43.33119" lon="2.65457">
        <ele>185</ele>
        <time>2020-10-12T12:25:42.000Z</time>
      </trkpt>
      <trkpt lat="43.3311" lon="2.65454">
        <ele>184</ele>
        <time>2020-10-12T12:25:46.000Z</time>
      </trkpt>
      <trkpt lat="43.33107" lon="2.65454">
        <ele>184</ele>
        <time>2020-10-12T12:25:47.000Z</time>
      </trkpt>
      <trkpt lat="43.331" lon="2.65459">
        <ele>184</ele>
        <time>2020-10-12T12:25:50.000Z</time>
      </trkpt>
      <trkpt lat="43.33047" lon="2.65467">
        <ele>181</ele>
        <time>2020-10-12T12:26:00.000Z</time>
      </trkpt>
      <trkpt lat="43.33023" lon="2.65469">
        <ele>180</ele>
        <time>2020-10-12T12:26:04.000Z</time>
      </trkpt>
      <trkpt lat="43.33008" lon="2.65468">
        <ele>180</ele>
        <time>2020-10-12T12:26:07.000Z</time>
      </trkpt>
      <trkpt lat="43.32997" lon="2.65466">
        <ele>179</ele>
        <time>2020-10-12T12:26:09.000Z</time>
      </trkpt>
      <trkpt lat="43.32974" lon="2.65461">
        <ele>178</ele>
        <time>2020-10-12T12:26:13.000Z</time>
      </trkpt>
      <trkpt lat="43.32967" lon="2.65459">
        <ele>178</ele>
        <time>2020-10-12T12:26:15.000Z</time>
      </trkpt>
      <trkpt lat="43.32966" lon="2.65459">
        <ele>178</ele>
        <time>2020-10-12T12:26:16.000Z</time>
      </trkpt>
      <trkpt lat="43.32966" lon="2.65462">
        <ele>177</ele>
        <time>2020-10-12T12:26:18.000Z</time>
      </trkpt>
      <trkpt lat="43.32968" lon="2.65467">
        <ele>177</ele>
        <time>2020-10-12T12:26:20.000Z</time>
      </trkpt>
      <trkpt lat="43.3297" lon="2.65469">
        <ele>176</ele>
        <time>2020-10-12T12:26:21.000Z</time>
      </trkpt>
      <trkpt lat="43.32979" lon="2.65483">
        <ele>175</ele>
        <time>2020-10-12T12:26:26.000Z</time>
      </trkpt>
      <trkpt lat="43.32993" lon="2.65498">
        <ele>174</ele>
        <time>2020-10-12T12:26:32.000Z</time>
      </trkpt>
      <trkpt lat="43.33033" lon="2.65561">
        <ele>170</ele>
        <time>2020-10-12T12:26:51.000Z</time>
      </trkpt>
      <trkpt lat="43.33042" lon="2.65572">
        <ele>170</ele>
        <time>2020-10-12T12:26:55.000Z</time>
      </trkpt>
      <trkpt lat="43.33058" lon="2.65595">
        <ele>168</ele>
        <time>2020-10-12T12:27:04.000Z</time>
      </trkpt>
      <trkpt lat="43.33068" lon="2.65606">
        <ele>168</ele>
        <time>2020-10-12T12:27:09.000Z</time>
      </trkpt>
      <trkpt lat="43.33089" lon="2.65632">
        <ele>166</ele>
        <time>2020-10-12T12:27:20.000Z</time>
      </trkpt>
      <trkpt lat="43.33101" lon="2.65645">
        <ele>166</ele>
        <time>2020-10-12T12:27:26.000Z</time>
      </trkpt>
      <trkpt lat="43.33107" lon="2.65652">
        <ele>166</ele>
        <time>2020-10-12T12:27:29.000Z</time>
      </trkpt>
      <trkpt lat="43.33118" lon="2.65667">
        <ele>165</ele>
        <time>2020-10-12T12:27:36.000Z</time>
      </trkpt>
      <trkpt lat="43.33126" lon="2.65677">
        <ele>165</ele>
        <time>2020-10-12T12:27:41.000Z</time>
      </trkpt>
      <trkpt lat="43.33132" lon="2.6568">
        <ele>165</ele>
        <time>2020-10-12T12:27:44.000Z</time>
      </trkpt>
      <trkpt lat="43.3314" lon="2.65688">
        <ele>164</ele>
        <time>2020-10-12T12:27:48.000Z</time>
      </trkpt>
      <trkpt lat="43.33158" lon="2.65712">
        <ele>164</ele>
        <time>2020-10-12T12:27:59.000Z</time>
      </trkpt>
      <trkpt lat="43.33159" lon="2.65715">
        <ele>164</ele>
        <time>2020-10-12T12:28:00.000Z</time>
      </trkpt>
      <trkpt lat="43.3317" lon="2.65729">
        <ele>164</ele>
        <time>2020-10-12T12:28:07.000Z</time>
      </trkpt>
      <trkpt lat="43.33177" lon="2.6574">
        <ele>163</ele>
        <time>2020-10-12T12:28:11.000Z</time>
      </trkpt>
      <trkpt lat="43.33191" lon="2.65753">
        <ele>163</ele>
        <time>2020-10-12T12:28:18.000Z</time>
      </trkpt>
      <trkpt lat="43.33197" lon="2.65756">
        <ele>163</ele>
        <time>2020-10-12T12:28:21.000Z</time>
      </trkpt>
      <trkpt lat="43.33228" lon="2.65767">
        <ele>163</ele>
        <time>2020-10-12T12:28:35.000Z</time>
      </trkpt>
      <trkpt lat="43.33243" lon="2.65779">
        <ele>163</ele>
        <time>2020-10-12T12:28:43.000Z</time>
      </trkpt>
      <trkpt lat="43.33257" lon="2.65786">
        <ele>163</ele>
        <time>2020-10-12T12:28:51.000Z</time>
      </trkpt>
      <trkpt lat="43.33273" lon="2.65792">
        <ele>163</ele>
        <time>2020-10-12T12:29:00.000Z</time>
      </trkpt>
      <trkpt lat="43.33277" lon="2.65798">
        <ele>163</ele>
        <time>2020-10-12T12:29:04.000Z</time>
      </trkpt>
      <trkpt lat="43.33283" lon="2.6582">
        <ele>163</ele>
        <time>2020-10-12T12:29:13.000Z</time>
      </trkpt>
      <trkpt lat="43.33285" lon="2.65838">
        <ele>163</ele>
        <time>2020-10-12T12:29:18.000Z</time>
      </trkpt>
      <trkpt lat="43.33278" lon="2.65876">
        <ele>163</ele>
        <time>2020-10-12T12:29:28.000Z</time>
      </trkpt>
      <trkpt lat="43.3328" lon="2.65891">
        <ele>163</ele>
        <time>2020-10-12T12:29:32.000Z</time>
      </trkpt>
      <trkpt lat="43.33283" lon="2.65899">
        <ele>163</ele>
        <time>2020-10-12T12:29:35.000Z</time>
      </trkpt>
      <trkpt lat="43.33282" lon="2.65905">
        <ele>163</ele>
        <time>2020-10-12T12:29:38.000Z</time>
      </trkpt>
      <trkpt lat="43.33281" lon="2.65913">
        <ele>163</ele>
        <time>2020-10-12T12:29:42.000Z</time>
      </trkpt>
      <trkpt lat="43.33278" lon="2.65938">
        <ele>163</ele>
        <time>2020-10-12T12:29:51.000Z</time>
      </trkpt>
      <trkpt lat="43.33267" lon="2.65966">
        <ele>163</ele>
        <time>2020-10-12T12:30:02.000Z</time>
      </trkpt>
      <trkpt lat="43.33262" lon="2.65987">
        <ele>163</ele>
        <time>2020-10-12T12:30:10.000Z</time>
      </trkpt>
      <trkpt lat="43.33261" lon="2.65989">
        <ele>163</ele>
        <time>2020-10-12T12:30:12.000Z</time>
      </trkpt>
      <trkpt lat="43.3326" lon="2.65988">
        <ele>162</ele>
        <time>2020-10-12T12:30:20.000Z</time>
      </trkpt>
      <trkpt lat="43.33258" lon="2.65988">
        <ele>162</ele>
        <time>2020-10-12T12:30:25.000Z</time>
      </trkpt>
      <trkpt lat="43.33258" lon="2.65994">
        <ele>162</ele>
        <time>2020-10-12T12:30:40.000Z</time>
      </trkpt>
      <trkpt lat="43.33257" lon="2.66003">
        <ele>161</ele>
        <time>2020-10-12T12:30:47.000Z</time>
      </trkpt>
      <trkpt lat="43.33256" lon="2.66018">
        <ele>161</ele>
        <time>2020-10-12T12:30:52.000Z</time>
      </trkpt>
      <trkpt lat="43.3326" lon="2.66038">
        <ele>161</ele>
        <time>2020-10-12T12:30:58.000Z</time>
      </trkpt>
      <trkpt lat="43.33261" lon="2.6605">
        <ele>161</ele>
        <time>2020-10-12T12:31:02.000Z</time>
      </trkpt>
      <trkpt lat="43.33253" lon="2.66092">
        <ele>160</ele>
        <time>2020-10-12T12:31:12.000Z</time>
      </trkpt>
      <trkpt lat="43.33254" lon="2.66113">
        <ele>160</ele>
        <time>2020-10-12T12:31:16.000Z</time>
      </trkpt>
      <trkpt lat="43.33254" lon="2.66122">
        <ele>160</ele>
        <time>2020-10-12T12:31:18.000Z</time>
      </trkpt>
      <trkpt lat="43.33252" lon="2.66134">
        <ele>160</ele>
        <time>2020-10-12T12:31:20.000Z</time>
      </trkpt>
      <trkpt lat="43.33251" lon="2.66156">
        <ele>160</ele>
        <time>2020-10-12T12:31:24.000Z</time>
      </trkpt>
      <trkpt lat="43.33254" lon="2.66202">
        <ele>159</ele>
        <time>2020-10-12T12:31:34.000Z</time>
      </trkpt>
      <trkpt lat="43.33253" lon="2.66205">
        <ele>159</ele>
        <time>2020-10-12T12:31:36.000Z</time>
      </trkpt>
      <trkpt lat="43.33247" lon="2.66203">
        <ele>158</ele>
        <time>2020-10-12T12:31:40.000Z</time>
      </trkpt>
      <trkpt lat="43.33236" lon="2.66192">
        <ele>158</ele>
        <time>2020-10-12T12:31:45.000Z</time>
      </trkpt>
      <trkpt lat="43.33231" lon="2.6619">
        <ele>158</ele>
        <time>2020-10-12T12:31:47.000Z</time>
      </trkpt>
      <trkpt lat="43.33219" lon="2.66215">
        <ele>157</ele>
        <time>2020-10-12T12:31:53.000Z</time>
      </trkpt>
      <trkpt lat="43.33201" lon="2.6623">
        <ele>157</ele>
        <time>2020-10-12T12:31:59.000Z</time>
      </trkpt>
      <trkpt lat="43.33175" lon="2.66246">
        <ele>156</ele>
        <time>2020-10-12T12:32:08.000Z</time>
      </trkpt>
      <trkpt lat="43.33168" lon="2.66251">
        <ele>156</ele>
        <time>2020-10-12T12:32:11.000Z</time>
      </trkpt>
      <trkpt lat="43.33157" lon="2.66261">
        <ele>155</ele>
        <time>2020-10-12T12:32:16.000Z</time>
      </trkpt>
      <trkpt lat="43.33151" lon="2.66269">
        <ele>155</ele>
        <time>2020-10-12T12:32:20.000Z</time>
      </trkpt>
      <trkpt lat="43.33148" lon="2.66275">
        <ele>155</ele>
        <time>2020-10-12T12:32:23.000Z</time>
      </trkpt>
      <trkpt lat="43.33144" lon="2.66281">
        <ele>155</ele>
        <time>2020-10-12T12:32:27.000Z</time>
      </trkpt>
      <trkpt lat="43.33142" lon="2.66283">
        <ele>155</ele>
        <time>2020-10-12T12:32:29.000Z</time>
      </trkpt>
      <trkpt lat="43.33136" lon="2.66286">
        <ele>154</ele>
        <time>2020-10-12T12:32:33.000Z</time>
      </trkpt>
      <trkpt lat="43.33126" lon="2.66289">
        <ele>154</ele>
        <time>2020-10-12T12:32:41.000Z</time>
      </trkpt>
      <trkpt lat="43.33121" lon="2.66293">
        <ele>154</ele>
        <time>2020-10-12T12:32:44.000Z</time>
      </trkpt>
      <trkpt lat="43.3312" lon="2.66296">
        <ele>154</ele>
        <time>2020-10-12T12:32:45.000Z</time>
      </trkpt>
      <trkpt lat="43.3312" lon="2.66306">
        <ele>154</ele>
        <time>2020-10-12T12:32:49.000Z</time>
      </trkpt>
      <trkpt lat="43.33122" lon="2.66317">
        <ele>154</ele>
        <time>2020-10-12T12:32:53.000Z</time>
      </trkpt>
      <trkpt lat="43.33122" lon="2.6633">
        <ele>154</ele>
        <time>2020-10-12T12:32:57.000Z</time>
      </trkpt>
      <trkpt lat="43.33122" lon="2.66333">
        <ele>154</ele>
        <time>2020-10-12T12:32:58.000Z</time>
      </trkpt>
      <trkpt lat="43.33117" lon="2.66347">
        <ele>154</ele>
        <time>2020-10-12T12:33:02.000Z</time>
      </trkpt>
      <trkpt lat="43.3311" lon="2.66363">
        <ele>154</ele>
        <time>2020-10-12T12:33:07.000Z</time>
      </trkpt>
      <trkpt lat="43.33104" lon="2.6637">
        <ele>154</ele>
        <time>2020-10-12T12:33:10.000Z</time>
      </trkpt>
      <trkpt lat="43.331" lon="2.66372">
        <ele>154</ele>
        <time>2020-10-12T12:33:12.000Z</time>
      </trkpt>
      <trkpt lat="43.33081" lon="2.66371">
        <ele>154</ele>
        <time>2020-10-12T12:33:19.000Z</time>
      </trkpt>
      <trkpt lat="43.33049" lon="2.66366">
        <ele>154</ele>
        <time>2020-10-12T12:33:28.000Z</time>
      </trkpt>
      <trkpt lat="43.33042" lon="2.66362">
        <ele>154</ele>
        <time>2020-10-12T12:33:30.000Z</time>
      </trkpt>
      <trkpt lat="43.33025" lon="2.66362">
        <ele>154</ele>
        <time>2020-10-12T12:33:33.000Z</time>
      </trkpt>
      <trkpt lat="43.33017" lon="2.66366">
        <ele>154</ele>
        <time>2020-10-12T12:33:36.000Z</time>
      </trkpt>
      <trkpt lat="43.33013" lon="2.66375">
        <ele>154</ele>
        <time>2020-10-12T12:33:38.000Z</time>
      </trkpt>
      <trkpt lat="43.33007" lon="2.66389">
        <ele>154</ele>
        <time>2020-10-12T12:33:42.000Z</time>
      </trkpt>
      <trkpt lat="43.33005" lon="2.66392">
        <ele>154</ele>
        <time>2020-10-12T12:33:43.000Z</time>
      </trkpt>
      <trkpt lat="43.33" lon="2.66397">
        <ele>154</ele>
        <time>2020-10-12T12:33:45.000Z</time>
      </trkpt>
      <trkpt lat="43.32994" lon="2.66403">
        <ele>154</ele>
        <time>2020-10-12T12:33:47.000Z</time>
      </trkpt>
      <trkpt lat="43.32985" lon="2.66418">
        <ele>153</ele>
        <time>2020-10-12T12:33:51.000Z</time>
      </trkpt>
      <trkpt lat="43.32983" lon="2.66426">
        <ele>153</ele>
        <time>2020-10-12T12:33:53.000Z</time>
      </trkpt>
      <trkpt lat="43.32985" lon="2.66435">
        <ele>153</ele>
        <time>2020-10-12T12:33:55.000Z</time>
      </trkpt>
      <trkpt lat="43.32989" lon="2.66442">
        <ele>153</ele>
        <time>2020-10-12T12:33:57.000Z</time>
      </trkpt>
      <trkpt lat="43.32996" lon="2.66449">
        <ele>153</ele>
        <time>2020-10-12T12:33:59.000Z</time>
      </trkpt>
      <trkpt lat="43.32999" lon="2.66456">
        <ele>153</ele>
        <time>2020-10-12T12:34:01.000Z</time>
      </trkpt>
      <trkpt lat="43.32999" lon="2.66459">
        <ele>153</ele>
        <time>2020-10-12T12:34:02.000Z</time>
      </trkpt>
      <trkpt lat="43.32994" lon="2.66473">
        <ele>153</ele>
        <time>2020-10-12T12:34:05.000Z</time>
      </trkpt>
      <trkpt lat="43.32994" lon="2.66477">
        <ele>153</ele>
        <time>2020-10-12T12:34:06.000Z</time>
      </trkpt>
      <trkpt lat="43.32992" lon="2.6649">
        <ele>153</ele>
        <time>2020-10-12T12:34:09.000Z</time>
      </trkpt>
      <trkpt lat="43.32986" lon="2.66505">
        <ele>153</ele>
        <time>2020-10-12T12:34:12.000Z</time>
      </trkpt>
      <trkpt lat="43.32981" lon="2.6652">
        <ele>153</ele>
        <time>2020-10-12T12:34:15.000Z</time>
      </trkpt>
      <trkpt lat="43.32979" lon="2.66534">
        <ele>153</ele>
        <time>2020-10-12T12:34:18.000Z</time>
      </trkpt>
      <trkpt lat="43.32981" lon="2.66543">
        <ele>153</ele>
        <time>2020-10-12T12:34:20.000Z</time>
      </trkpt>
      <trkpt lat="43.32981" lon="2.66553">
        <ele>153</ele>
        <time>2020-10-12T12:34:22.000Z</time>
      </trkpt>
      <trkpt lat="43.32978" lon="2.66573">
        <ele>153</ele>
        <time>2020-10-12T12:34:27.000Z</time>
      </trkpt>
      <trkpt lat="43.32975" lon="2.66589">
        <ele>152</ele>
        <time>2020-10-12T12:34:31.000Z</time>
      </trkpt>
      <trkpt lat="43.32975" lon="2.66593">
        <ele>152</ele>
        <time>2020-10-12T12:34:32.000Z</time>
      </trkpt>
      <trkpt lat="43.32977" lon="2.66602">
        <ele>152</ele>
        <time>2020-10-12T12:34:34.000Z</time>
      </trkpt>
      <trkpt lat="43.32986" lon="2.6662">
        <ele>152</ele>
        <time>2020-10-12T12:34:38.000Z</time>
      </trkpt>
      <trkpt lat="43.32988" lon="2.66624">
        <ele>152</ele>
        <time>2020-10-12T12:34:39.000Z</time>
      </trkpt>
      <trkpt lat="43.32995" lon="2.66629">
        <ele>152</ele>
        <time>2020-10-12T12:34:42.000Z</time>
      </trkpt>
      <trkpt lat="43.32999" lon="2.66631">
        <ele>152</ele>
        <time>2020-10-12T12:34:45.000Z</time>
      </trkpt>
      <trkpt lat="43.33" lon="2.66631">
        <ele>152</ele>
        <time>2020-10-12T12:34:47.000Z</time>
      </trkpt>
      <trkpt lat="43.32997" lon="2.66636">
        <ele>146</ele>
        <time>2020-10-12T12:35:06.000Z</time>
      </trkpt>
      <trkpt lat="43.32995" lon="2.66644">
        <ele>145</ele>
        <time>2020-10-12T12:36:32.000Z</time>
      </trkpt>
      <trkpt lat="43.32992" lon="2.66648">
        <ele>144</ele>
        <time>2020-10-12T12:36:34.000Z</time>
      </trkpt>
      <trkpt lat="43.32987" lon="2.66651">
        <ele>143</ele>
        <time>2020-10-12T12:36:36.000Z</time>
      </trkpt>
      <trkpt lat="43.32977" lon="2.66652">
        <ele>142</ele>
        <time>2020-10-12T12:36:39.000Z</time>
      </trkpt>
      <trkpt lat="43.32974" lon="2.66652">
        <ele>141</ele>
        <time>2020-10-12T12:36:40.000Z</time>
      </trkpt>
      <trkpt lat="43.32969" lon="2.66658">
        <ele>141</ele>
        <time>2020-10-12T12:36:42.000Z</time>
      </trkpt>
      <trkpt lat="43.32966" lon="2.66665">
        <ele>141</ele>
        <time>2020-10-12T12:36:44.000Z</time>
      </trkpt>
      <trkpt lat="43.32951" lon="2.66675">
        <ele>138</ele>
        <time>2020-10-12T12:36:49.000Z</time>
      </trkpt>
      <trkpt lat="43.32948" lon="2.66679">
        <ele>137</ele>
        <time>2020-10-12T12:36:50.000Z</time>
      </trkpt>
      <trkpt lat="43.32947" lon="2.66683">
        <ele>137</ele>
        <time>2020-10-12T12:36:51.000Z</time>
      </trkpt>
      <trkpt lat="43.32945" lon="2.66703">
        <ele>136</ele>
        <time>2020-10-12T12:36:54.000Z</time>
      </trkpt>
      <trkpt lat="43.32943" lon="2.6671">
        <ele>136</ele>
        <time>2020-10-12T12:36:55.000Z</time>
      </trkpt>
      <trkpt lat="43.32938" lon="2.66728">
        <ele>134</ele>
        <time>2020-10-12T12:36:58.000Z</time>
      </trkpt>
      <trkpt lat="43.32937" lon="2.66733">
        <ele>134</ele>
        <time>2020-10-12T12:36:59.000Z</time>
      </trkpt>
      <trkpt lat="43.32935" lon="2.66746">
        <ele>133</ele>
        <time>2020-10-12T12:37:02.000Z</time>
      </trkpt>
      <trkpt lat="43.32933" lon="2.66756">
        <ele>132</ele>
        <time>2020-10-12T12:37:04.000Z</time>
      </trkpt>
      <trkpt lat="43.32932" lon="2.66764">
        <ele>132</ele>
        <time>2020-10-12T12:37:05.000Z</time>
      </trkpt>
      <trkpt lat="43.32932" lon="2.66774">
        <ele>131</ele>
        <time>2020-10-12T12:37:07.000Z</time>
      </trkpt>
      <trkpt lat="43.32931" lon="2.66779">
        <ele>130</ele>
        <time>2020-10-12T12:37:08.000Z</time>
      </trkpt>
      <trkpt lat="43.32928" lon="2.66787">
        <ele>130</ele>
        <time>2020-10-12T12:37:10.000Z</time>
      </trkpt>
      <trkpt lat="43.32924" lon="2.66791">
        <ele>129</ele>
        <time>2020-10-12T12:37:11.000Z</time>
      </trkpt>
      <trkpt lat="43.3292" lon="2.66794">
        <ele>129</ele>
        <time>2020-10-12T12:37:12.000Z</time>
      </trkpt>
      <trkpt lat="43.32912" lon="2.66797">
        <ele>127</ele>
        <time>2020-10-12T12:37:14.000Z</time>
      </trkpt>
      <trkpt lat="43.32908" lon="2.66797">
        <ele>127</ele>
        <time>2020-10-12T12:37:15.000Z</time>
      </trkpt>
      <trkpt lat="43.32904" lon="2.66796">
        <ele>126</ele>
        <time>2020-10-12T12:37:16.000Z</time>
      </trkpt>
      <trkpt lat="43.32897" lon="2.6679">
        <ele>126</ele>
        <time>2020-10-12T12:37:18.000Z</time>
      </trkpt>
      <trkpt lat="43.32889" lon="2.66781">
        <ele>125</ele>
        <time>2020-10-12T12:37:21.000Z</time>
      </trkpt>
      <trkpt lat="43.32885" lon="2.6678">
        <ele>125</ele>
        <time>2020-10-12T12:37:22.000Z</time>
      </trkpt>
      <trkpt lat="43.32881" lon="2.6678">
        <ele>125</ele>
        <time>2020-10-12T12:37:23.000Z</time>
      </trkpt>
      <trkpt lat="43.32863" lon="2.66786">
        <ele>123</ele>
        <time>2020-10-12T12:37:27.000Z</time>
      </trkpt>
      <trkpt lat="43.32858" lon="2.66786">
        <ele>123</ele>
        <time>2020-10-12T12:37:28.000Z</time>
      </trkpt>
      <trkpt lat="43.32851" lon="2.66785">
        <ele>123</ele>
        <time>2020-10-12T12:37:29.000Z</time>
      </trkpt>
      <trkpt lat="43.3283" lon="2.66776">
        <ele>122</ele>
        <time>2020-10-12T12:37:33.000Z</time>
      </trkpt>
      <trkpt lat="43.32823" lon="2.66771">
        <ele>121</ele>
        <time>2020-10-12T12:37:36.000Z</time>
      </trkpt>
      <trkpt lat="43.32808" lon="2.66769">
        <ele>120</ele>
        <time>2020-10-12T12:37:40.000Z</time>
      </trkpt>
      <trkpt lat="43.32804" lon="2.66769">
        <ele>120</ele>
        <time>2020-10-12T12:37:41.000Z</time>
      </trkpt>
      <trkpt lat="43.32791" lon="2.66771">
        <ele>119</ele>
        <time>2020-10-12T12:37:44.000Z</time>
      </trkpt>
      <trkpt lat="43.32782" lon="2.6677">
        <ele>118</ele>
        <time>2020-10-12T12:37:46.000Z</time>
      </trkpt>
      <trkpt lat="43.32767" lon="2.66762">
        <ele>118</ele>
        <time>2020-10-12T12:37:51.000Z</time>
      </trkpt>
      <trkpt lat="43.32759" lon="2.66763">
        <ele>119</ele>
        <time>2020-10-12T12:37:54.000Z</time>
      </trkpt>
      <trkpt lat="43.32739" lon="2.6678">
        <ele>118</ele>
        <time>2020-10-12T12:38:00.000Z</time>
      </trkpt>
      <trkpt lat="43.32737" lon="2.66786">
        <ele>118</ele>
        <time>2020-10-12T12:38:01.000Z</time>
      </trkpt>
      <trkpt lat="43.32737" lon="2.66796">
        <ele>117</ele>
        <time>2020-10-12T12:38:03.000Z</time>
      </trkpt>
      <trkpt lat="43.32739" lon="2.6681">
        <ele>117</ele>
        <time>2020-10-12T12:38:04.000Z</time>
      </trkpt>
      <trkpt lat="43.32736" lon="2.66832">
        <ele>117</ele>
        <time>2020-10-12T12:38:08.000Z</time>
      </trkpt>
      <trkpt lat="43.32735" lon="2.66838">
        <ele>117</ele>
        <time>2020-10-12T12:38:09.000Z</time>
      </trkpt>
      <trkpt lat="43.32733" lon="2.66843">
        <ele>117</ele>
        <time>2020-10-12T12:38:10.000Z</time>
      </trkpt>
      <trkpt lat="43.3273" lon="2.66847">
        <ele>117</ele>
        <time>2020-10-12T12:38:11.000Z</time>
      </trkpt>
      <trkpt lat="43.32724" lon="2.66852">
        <ele>116</ele>
        <time>2020-10-12T12:38:14.000Z</time>
      </trkpt>
      <trkpt lat="43.32718" lon="2.66852">
        <ele>116</ele>
        <time>2020-10-12T12:38:17.000Z</time>
      </trkpt>
      <trkpt lat="43.32708" lon="2.66848">
        <ele>116</ele>
        <time>2020-10-12T12:38:21.000Z</time>
      </trkpt>
      <trkpt lat="43.32686" lon="2.66832">
        <ele>113</ele>
        <time>2020-10-12T12:38:30.000Z</time>
      </trkpt>
      <trkpt lat="43.3268" lon="2.66829">
        <ele>111</ele>
        <time>2020-10-12T12:38:33.000Z</time>
      </trkpt>
      <trkpt lat="43.32669" lon="2.6683">
        <ele>110</ele>
        <time>2020-10-12T12:38:37.000Z</time>
      </trkpt>
      <trkpt lat="43.32655" lon="2.66834">
        <ele>108</ele>
        <time>2020-10-12T12:38:43.000Z</time>
      </trkpt>
      <trkpt lat="43.32646" lon="2.66836">
        <ele>106</ele>
        <time>2020-10-12T12:38:46.000Z</time>
      </trkpt>
      <trkpt lat="43.32636" lon="2.66833">
        <ele>104</ele>
        <time>2020-10-12T12:38:50.000Z</time>
      </trkpt>
      <trkpt lat="43.32628" lon="2.66828">
        <ele>103</ele>
        <time>2020-10-12T12:38:53.000Z</time>
      </trkpt>
      <trkpt lat="43.32624" lon="2.66828">
        <ele>102</ele>
        <time>2020-10-12T12:38:55.000Z</time>
      </trkpt>
      <trkpt lat="43.32613" lon="2.66822">
        <ele>100</ele>
        <time>2020-10-12T12:39:00.000Z</time>
      </trkpt>
      <trkpt lat="43.32602" lon="2.66816">
        <ele>99</ele>
        <time>2020-10-12T12:39:04.000Z</time>
      </trkpt>
      <trkpt lat="43.32587" lon="2.66805">
        <ele>98</ele>
        <time>2020-10-12T12:39:10.000Z</time>
      </trkpt>
      <trkpt lat="43.32583" lon="2.66804">
        <ele>97</ele>
        <time>2020-10-12T12:39:12.000Z</time>
      </trkpt>
      <trkpt lat="43.32558" lon="2.66781">
        <ele>96</ele>
        <time>2020-10-12T12:39:22.000Z</time>
      </trkpt>
      <trkpt lat="43.3255" lon="2.66776">
        <ele>94</ele>
        <time>2020-10-12T12:39:25.000Z</time>
      </trkpt>
      <trkpt lat="43.32536" lon="2.66767">
        <ele>93</ele>
        <time>2020-10-12T12:39:30.000Z</time>
      </trkpt>
      <trkpt lat="43.32529" lon="2.66764">
        <ele>93</ele>
        <time>2020-10-12T12:39:33.000Z</time>
      </trkpt>
      <trkpt lat="43.32495" lon="2.66745">
        <ele>90</ele>
        <time>2020-10-12T12:39:46.000Z</time>
      </trkpt>
      <trkpt lat="43.32453" lon="2.66716">
        <ele>87</ele>
        <time>2020-10-12T12:40:03.000Z</time>
      </trkpt>
      <trkpt lat="43.32441" lon="2.6671">
        <ele>86</ele>
        <time>2020-10-12T12:40:07.000Z</time>
      </trkpt>
      <trkpt lat="43.32429" lon="2.66702">
        <ele>86</ele>
        <time>2020-10-12T12:40:11.000Z</time>
      </trkpt>
      <trkpt lat="43.32403" lon="2.66687">
        <ele>86</ele>
        <time>2020-10-12T12:40:20.000Z</time>
      </trkpt>
      <trkpt lat="43.3239" lon="2.66678">
        <ele>85</ele>
        <time>2020-10-12T12:40:25.000Z</time>
      </trkpt>
      <trkpt lat="43.32384" lon="2.66674">
        <ele>84</ele>
        <time>2020-10-12T12:40:27.000Z</time>
      </trkpt>
      <trkpt lat="43.32378" lon="2.66673">
        <ele>84</ele>
        <time>2020-10-12T12:40:29.000Z</time>
      </trkpt>
      <trkpt lat="43.32375" lon="2.66673">
        <ele>84</ele>
        <time>2020-10-12T12:40:30.000Z</time>
      </trkpt>
      <trkpt lat="43.32366" lon="2.6668">
        <ele>84</ele>
        <time>2020-10-12T12:40:33.000Z</time>
      </trkpt>
      <trkpt lat="43.32359" lon="2.6669">
        <ele>83</ele>
        <time>2020-10-12T12:40:35.000Z</time>
      </trkpt>
      <trkpt lat="43.32355" lon="2.66697">
        <ele>83</ele>
        <time>2020-10-12T12:40:36.000Z</time>
      </trkpt>
      <trkpt lat="43.32349" lon="2.66712">
        <ele>82</ele>
        <time>2020-10-12T12:40:38.000Z</time>
      </trkpt>
      <trkpt lat="43.32345" lon="2.66729">
        <ele>82</ele>
        <time>2020-10-12T12:40:40.000Z</time>
      </trkpt>
      <trkpt lat="43.32345" lon="2.66738">
        <ele>81</ele>
        <time>2020-10-12T12:40:41.000Z</time>
      </trkpt>
      <trkpt lat="43.32346" lon="2.66746">
        <ele>81</ele>
        <time>2020-10-12T12:40:42.000Z</time>
      </trkpt>
      <trkpt lat="43.32351" lon="2.66775">
        <ele>80</ele>
        <time>2020-10-12T12:40:46.000Z</time>
      </trkpt>
      <trkpt lat="43.32355" lon="2.6679">
        <ele>80</ele>
        <time>2020-10-12T12:40:49.000Z</time>
      </trkpt>
      <trkpt lat="43.32362" lon="2.6681">
        <ele>81</ele>
        <time>2020-10-12T12:40:53.000Z</time>
      </trkpt>
      <trkpt lat="43.32369" lon="2.66827">
        <ele>82</ele>
        <time>2020-10-12T12:40:56.000Z</time>
      </trkpt>
      <trkpt lat="43.32381" lon="2.6685">
        <ele>81</ele>
        <time>2020-10-12T12:41:00.000Z</time>
      </trkpt>
      <trkpt lat="43.32383" lon="2.66856">
        <ele>81</ele>
        <time>2020-10-12T12:41:01.000Z</time>
      </trkpt>
      <trkpt lat="43.32387" lon="2.66875">
        <ele>80</ele>
        <time>2020-10-12T12:41:04.000Z</time>
      </trkpt>
      <trkpt lat="43.32393" lon="2.66922">
        <ele>80</ele>
        <time>2020-10-12T12:41:11.000Z</time>
      </trkpt>
      <trkpt lat="43.32397" lon="2.66934">
        <ele>81</ele>
        <time>2020-10-12T12:41:13.000Z</time>
      </trkpt>
      <trkpt lat="43.32402" lon="2.66947">
        <ele>81</ele>
        <time>2020-10-12T12:41:15.000Z</time>
      </trkpt>
      <trkpt lat="43.32408" lon="2.6696">
        <ele>81</ele>
        <time>2020-10-12T12:41:19.000Z</time>
      </trkpt>
      <trkpt lat="43.32408" lon="2.66958">
        <ele>81</ele>
        <time>2020-10-12T12:41:24.000Z</time>
      </trkpt>
      <trkpt lat="43.32406" lon="2.66961">
        <ele>81</ele>
        <time>2020-10-12T12:41:29.000Z</time>
      </trkpt>
      <trkpt lat="43.32407" lon="2.66974">
        <ele>80</ele>
        <time>2020-10-12T12:41:34.000Z</time>
      </trkpt>
      <trkpt lat="43.32408" lon="2.67002">
        <ele>79</ele>
        <time>2020-10-12T12:41:39.000Z</time>
      </trkpt>
      <trkpt lat="43.32408" lon="2.67015">
        <ele>79</ele>
        <time>2020-10-12T12:41:41.000Z</time>
      </trkpt>
      <trkpt lat="43.32403" lon="2.67087">
        <ele>79</ele>
        <time>2020-10-12T12:41:51.000Z</time>
      </trkpt>
      <trkpt lat="43.32401" lon="2.67114">
        <ele>78</ele>
        <time>2020-10-12T12:41:55.000Z</time>
      </trkpt>
      <trkpt lat="43.324" lon="2.67148">
        <ele>78</ele>
        <time>2020-10-12T12:42:00.000Z</time>
      </trkpt>
      <trkpt lat="43.32399" lon="2.6716">
        <ele>78</ele>
        <time>2020-10-12T12:42:02.000Z</time>
      </trkpt>
      <trkpt lat="43.32398" lon="2.67172">
        <ele>78</ele>
        <time>2020-10-12T12:42:04.000Z</time>
      </trkpt>
      <trkpt lat="43.32396" lon="2.6719">
        <ele>78</ele>
        <time>2020-10-12T12:42:07.000Z</time>
      </trkpt>
      <trkpt lat="43.32394" lon="2.67215">
        <ele>78</ele>
        <time>2020-10-12T12:42:11.000Z</time>
      </trkpt>
      <trkpt lat="43.32394" lon="2.67224">
        <ele>78</ele>
        <time>2020-10-12T12:42:13.000Z</time>
      </trkpt>
      <trkpt lat="43.3239" lon="2.67263">
        <ele>79</ele>
        <time>2020-10-12T12:42:21.000Z</time>
      </trkpt>
      <trkpt lat="43.32387" lon="2.67276">
        <ele>80</ele>
        <time>2020-10-12T12:42:24.000Z</time>
      </trkpt>
      <trkpt lat="43.32378" lon="2.67291">
        <ele>80</ele>
        <time>2020-10-12T12:42:28.000Z</time>
      </trkpt>
      <trkpt lat="43.32366" lon="2.67307">
        <ele>81</ele>
        <time>2020-10-12T12:42:32.000Z</time>
      </trkpt>
      <trkpt lat="43.32357" lon="2.67316">
        <ele>81</ele>
        <time>2020-10-12T12:42:35.000Z</time>
      </trkpt>
      <trkpt lat="43.32351" lon="2.6732">
        <ele>81</ele>
        <time>2020-10-12T12:42:37.000Z</time>
      </trkpt>
      <trkpt lat="43.32327" lon="2.6733">
        <ele>80</ele>
        <time>2020-10-12T12:42:44.000Z</time>
      </trkpt>
      <trkpt lat="43.32298" lon="2.67344">
        <ele>80</ele>
        <time>2020-10-12T12:42:51.000Z</time>
      </trkpt>
      <trkpt lat="43.32276" lon="2.6736">
        <ele>80</ele>
        <time>2020-10-12T12:42:58.000Z</time>
      </trkpt>
      <trkpt lat="43.32274" lon="2.67362">
        <ele>80</ele>
        <time>2020-10-12T12:42:59.000Z</time>
      </trkpt>
      <trkpt lat="43.32273" lon="2.67364">
        <ele>80</ele>
        <time>2020-10-12T12:43:00.000Z</time>
      </trkpt>
      <trkpt lat="43.32273" lon="2.67367">
        <ele>81</ele>
        <time>2020-10-12T12:43:01.000Z</time>
      </trkpt>
      <trkpt lat="43.32274" lon="2.67369">
        <ele>81</ele>
        <time>2020-10-12T12:43:02.000Z</time>
      </trkpt>
      <trkpt lat="43.32293" lon="2.6738">
        <ele>82</ele>
        <time>2020-10-12T12:43:09.000Z</time>
      </trkpt>
      <trkpt lat="43.32325" lon="2.67397">
        <ele>80</ele>
        <time>2020-10-12T12:43:20.000Z</time>
      </trkpt>
      <trkpt lat="43.32329" lon="2.67399">
        <ele>79</ele>
        <time>2020-10-12T12:43:21.000Z</time>
      </trkpt>
      <trkpt lat="43.3235" lon="2.67417">
        <ele>78</ele>
        <time>2020-10-12T12:43:28.000Z</time>
      </trkpt>
      <trkpt lat="43.32364" lon="2.67427">
        <ele>75</ele>
        <time>2020-10-12T12:43:33.000Z</time>
      </trkpt>
      <trkpt lat="43.32366" lon="2.67429">
        <ele>75</ele>
        <time>2020-10-12T12:43:34.000Z</time>
      </trkpt>
      <trkpt lat="43.32367" lon="2.67432">
        <ele>74</ele>
        <time>2020-10-12T12:43:35.000Z</time>
      </trkpt>
      <trkpt lat="43.32368" lon="2.67434">
        <ele>74</ele>
        <time>2020-10-12T12:43:36.000Z</time>
      </trkpt>
      <trkpt lat="43.32366" lon="2.6744">
        <ele>73</ele>
        <time>2020-10-12T12:43:38.000Z</time>
      </trkpt>
      <trkpt lat="43.3236" lon="2.67444">
        <ele>72</ele>
        <time>2020-10-12T12:43:40.000Z</time>
      </trkpt>
      <trkpt lat="43.32342" lon="2.67451">
        <ele>71</ele>
        <time>2020-10-12T12:43:44.000Z</time>
      </trkpt>
      <trkpt lat="43.32321" lon="2.67462">
        <ele>69</ele>
        <time>2020-10-12T12:43:48.000Z</time>
      </trkpt>
      <trkpt lat="43.3225" lon="2.67496">
        <ele>67</ele>
        <time>2020-10-12T12:44:01.000Z</time>
      </trkpt>
      <trkpt lat="43.32211" lon="2.67514">
        <ele>66</ele>
        <time>2020-10-12T12:44:09.000Z</time>
      </trkpt>
      <trkpt lat="43.32127" lon="2.67552">
        <ele>66</ele>
        <time>2020-10-12T12:44:29.000Z</time>
      </trkpt>
      <trkpt lat="43.32107" lon="2.67562">
        <ele>66</ele>
        <time>2020-10-12T12:44:34.000Z</time>
      </trkpt>
      <trkpt lat="43.32052" lon="2.67588">
        <ele>64</ele>
        <time>2020-10-12T12:44:48.000Z</time>
      </trkpt>
      <trkpt lat="43.3202" lon="2.67604">
        <ele>63</ele>
        <time>2020-10-12T12:44:55.000Z</time>
      </trkpt>
      <trkpt lat="43.31995" lon="2.67618">
        <ele>62</ele>
        <time>2020-10-12T12:45:01.000Z</time>
      </trkpt>
      <trkpt lat="43.31974" lon="2.67633">
        <ele>62</ele>
        <time>2020-10-12T12:45:06.000Z</time>
      </trkpt>
      <trkpt lat="43.31945" lon="2.67656">
        <ele>62</ele>
        <time>2020-10-12T12:45:12.000Z</time>
      </trkpt>
      <trkpt lat="43.31882" lon="2.67709">
        <ele>60</ele>
        <time>2020-10-12T12:45:26.000Z</time>
      </trkpt>
      <trkpt lat="43.31878" lon="2.67714">
        <ele>60</ele>
        <time>2020-10-12T12:45:27.000Z</time>
      </trkpt>
      <trkpt lat="43.31875" lon="2.67719">
        <ele>60</ele>
        <time>2020-10-12T12:45:28.000Z</time>
      </trkpt>
      <trkpt lat="43.31873" lon="2.6773">
        <ele>60</ele>
        <time>2020-10-12T12:45:30.000Z</time>
      </trkpt>
      <trkpt lat="43.3187" lon="2.67739">
        <ele>59</ele>
        <time>2020-10-12T12:45:32.000Z</time>
      </trkpt>
      <trkpt lat="43.31863" lon="2.67745">
        <ele>59</ele>
        <time>2020-10-12T12:45:34.000Z</time>
      </trkpt>
      <trkpt lat="43.31844" lon="2.6776">
        <ele>58</ele>
        <time>2020-10-12T12:45:39.000Z</time>
      </trkpt>
      <trkpt lat="43.31793" lon="2.67793">
        <ele>56</ele>
        <time>2020-10-12T12:45:50.000Z</time>
      </trkpt>
      <trkpt lat="43.31756" lon="2.67819">
        <ele>58</ele>
        <time>2020-10-12T12:46:00.000Z</time>
      </trkpt>
      <trkpt lat="43.31747" lon="2.67824">
        <ele>58</ele>
        <time>2020-10-12T12:46:03.000Z</time>
      </trkpt>
      <trkpt lat="43.31743" lon="2.67824">
        <ele>58</ele>
        <time>2020-10-12T12:46:07.000Z</time>
      </trkpt>
      <trkpt lat="43.31736" lon="2.67819">
        <ele>59</ele>
        <time>2020-10-12T12:46:16.000Z</time>
      </trkpt>
      <trkpt lat="43.31735" lon="2.67816">
        <ele>59</ele>
        <time>2020-10-12T12:46:19.000Z</time>
      </trkpt>
      <trkpt lat="43.31736" lon="2.67813">
        <ele>60</ele>
        <time>2020-10-12T12:46:22.000Z</time>
      </trkpt>
      <trkpt lat="43.31733" lon="2.67812">
        <ele>62</ele>
        <time>2020-10-12T12:46:29.000Z</time>
      </trkpt>
      <trkpt lat="43.31729" lon="2.67807">
        <ele>66</ele>
        <time>2020-10-12T12:46:42.000Z</time>
      </trkpt>
      <trkpt lat="43.31725" lon="2.67805">
        <ele>67</ele>
        <time>2020-10-12T12:46:49.000Z</time>
      </trkpt>
      <trkpt lat="43.31725" lon="2.67803">
        <ele>68</ele>
        <time>2020-10-12T12:46:55.000Z</time>
      </trkpt>
      <trkpt lat="43.31723" lon="2.67801">
        <ele>69</ele>
        <time>2020-10-12T12:46:59.000Z</time>
      </trkpt>
      <trkpt lat="43.31722" lon="2.67798">
        <ele>70</ele>
        <time>2020-10-12T12:47:04.000Z</time>
      </trkpt>
      <trkpt lat="43.31719" lon="2.67797">
        <ele>71</ele>
        <time>2020-10-12T12:47:09.000Z</time>
      </trkpt>
      <trkpt lat="43.31715" lon="2.67791">
        <ele>71</ele>
        <time>2020-10-12T12:47:17.000Z</time>
      </trkpt>
      <trkpt lat="43.3171" lon="2.6779">
        <ele>70</ele>
        <time>2020-10-12T12:47:22.000Z</time>
      </trkpt>
      <trkpt lat="43.31699" lon="2.67795">
        <ele>71</ele>
        <time>2020-10-12T12:47:28.000Z</time>
      </trkpt>
      <trkpt lat="43.31693" lon="2.67799">
        <ele>70</ele>
        <time>2020-10-12T12:47:31.000Z</time>
      </trkpt>
      <trkpt lat="43.31689" lon="2.67803">
        <ele>70</ele>
        <time>2020-10-12T12:47:33.000Z</time>
      </trkpt>
      <trkpt lat="43.31677" lon="2.6781">
        <ele>69</ele>
        <time>2020-10-12T12:47:37.000Z</time>
      </trkpt>
      <trkpt lat="43.31664" lon="2.67814">
        <ele>69</ele>
        <time>2020-10-12T12:47:41.000Z</time>
      </trkpt>
      <trkpt lat="43.31647" lon="2.67824">
        <ele>68</ele>
        <time>2020-10-12T12:47:46.000Z</time>
      </trkpt>
      <trkpt lat="43.31633" lon="2.6783">
        <ele>67</ele>
        <time>2020-10-12T12:47:50.000Z</time>
      </trkpt>
      <trkpt lat="43.31629" lon="2.67833">
        <ele>67</ele>
        <time>2020-10-12T12:47:52.000Z</time>
      </trkpt>
      <trkpt lat="43.31622" lon="2.67834">
        <ele>65</ele>
        <time>2020-10-12T12:47:55.000Z</time>
      </trkpt>
      <trkpt lat="43.3162" lon="2.67833">
        <ele>63</ele>
        <time>2020-10-12T12:47:56.000Z</time>
      </trkpt>
      <trkpt lat="43.31618" lon="2.67832">
        <ele>62</ele>
        <time>2020-10-12T12:47:57.000Z</time>
      </trkpt>
      <trkpt lat="43.31617" lon="2.6783">
        <ele>61</ele>
        <time>2020-10-12T12:47:58.000Z</time>
      </trkpt>
      <trkpt lat="43.31608" lon="2.67796">
        <ele>58</ele>
        <time>2020-10-12T12:48:03.000Z</time>
      </trkpt>
      <trkpt lat="43.31605" lon="2.67788">
        <ele>56</ele>
        <time>2020-10-12T12:48:04.000Z</time>
      </trkpt>
      <trkpt lat="43.31566" lon="2.67679">
        <ele>52</ele>
        <time>2020-10-12T12:48:20.000Z</time>
      </trkpt>
      <trkpt lat="43.31543" lon="2.6761">
        <ele>56</ele>
        <time>2020-10-12T12:48:40.000Z</time>
      </trkpt>
      <trkpt lat="43.31541" lon="2.67604">
        <ele>56</ele>
        <time>2020-10-12T12:48:42.000Z</time>
      </trkpt>
      <trkpt lat="43.31538" lon="2.676">
        <ele>57</ele>
        <time>2020-10-12T12:48:44.000Z</time>
      </trkpt>
      <trkpt lat="43.31536" lon="2.67598">
        <ele>57</ele>
        <time>2020-10-12T12:48:45.000Z</time>
      </trkpt>
      <trkpt lat="43.31532" lon="2.67594">
        <ele>57</ele>
        <time>2020-10-12T12:48:47.000Z</time>
      </trkpt>
      <trkpt lat="43.31525" lon="2.67592">
        <ele>58</ele>
        <time>2020-10-12T12:48:50.000Z</time>
      </trkpt>
      <trkpt lat="43.31518" lon="2.67592">
        <ele>58</ele>
        <time>2020-10-12T12:48:53.000Z</time>
      </trkpt>
      <trkpt lat="43.31502" lon="2.6759">
        <ele>60</ele>
        <time>2020-10-12T12:49:00.000Z</time>
      </trkpt>
      <trkpt lat="43.31488" lon="2.67594">
        <ele>60</ele>
        <time>2020-10-12T12:49:05.000Z</time>
      </trkpt>
      <trkpt lat="43.31456" lon="2.67598">
        <ele>60</ele>
        <time>2020-10-12T12:49:14.000Z</time>
      </trkpt>
      <trkpt lat="43.31442" lon="2.67598">
        <ele>59</ele>
        <time>2020-10-12T12:49:18.000Z</time>
      </trkpt>
      <trkpt lat="43.31438" lon="2.67597">
        <ele>59</ele>
        <time>2020-10-12T12:49:19.000Z</time>
      </trkpt>
      <trkpt lat="43.31434" lon="2.67595">
        <ele>59</ele>
        <time>2020-10-12T12:49:20.000Z</time>
      </trkpt>
      <trkpt lat="43.31428" lon="2.67591">
        <ele>59</ele>
        <time>2020-10-12T12:49:22.000Z</time>
      </trkpt>
      <trkpt lat="43.31419" lon="2.67577">
        <ele>58</ele>
        <time>2020-10-12T12:49:25.000Z</time>
      </trkpt>
      <trkpt lat="43.31417" lon="2.67575">
        <ele>58</ele>
        <time>2020-10-12T12:49:26.000Z</time>
      </trkpt>
      <trkpt lat="43.31407" lon="2.67572">
        <ele>58</ele>
        <time>2020-10-12T12:49:29.000Z</time>
      </trkpt>
      <trkpt lat="43.31395" lon="2.67573">
        <ele>59</ele>
        <time>2020-10-12T12:49:33.000Z</time>
      </trkpt>
      <trkpt lat="43.31388" lon="2.67571">
        <ele>59</ele>
        <time>2020-10-12T12:49:35.000Z</time>
      </trkpt>
      <trkpt lat="43.31383" lon="2.67568">
        <ele>59</ele>
        <time>2020-10-12T12:49:37.000Z</time>
      </trkpt>
      <trkpt lat="43.31357" lon="2.67553">
        <ele>59</ele>
        <time>2020-10-12T12:49:45.000Z</time>
      </trkpt>
      <trkpt lat="43.31341" lon="2.67543">
        <ele>59</ele>
        <time>2020-10-12T12:49:50.000Z</time>
      </trkpt>
      <trkpt lat="43.3132" lon="2.67535">
        <ele>59</ele>
        <time>2020-10-12T12:49:56.000Z</time>
      </trkpt>
      <trkpt lat="43.31296" lon="2.67528">
        <ele>60</ele>
        <time>2020-10-12T12:50:03.000Z</time>
      </trkpt>
      <trkpt lat="43.31278" lon="2.67525">
        <ele>60</ele>
        <time>2020-10-12T12:50:08.000Z</time>
      </trkpt>
      <trkpt lat="43.31271" lon="2.67525">
        <ele>60</ele>
        <time>2020-10-12T12:50:10.000Z</time>
      </trkpt>
      <trkpt lat="43.31265" lon="2.67526">
        <ele>61</ele>
        <time>2020-10-12T12:50:12.000Z</time>
      </trkpt>
      <trkpt lat="43.31258" lon="2.67528">
        <ele>61</ele>
        <time>2020-10-12T12:50:15.000Z</time>
      </trkpt>
      <trkpt lat="43.31238" lon="2.67537">
        <ele>62</ele>
        <time>2020-10-12T12:50:21.000Z</time>
      </trkpt>
      <trkpt lat="43.31215" lon="2.67552">
        <ele>62</ele>
        <time>2020-10-12T12:50:28.000Z</time>
      </trkpt>
      <trkpt lat="43.31212" lon="2.67551">
        <ele>61</ele>
        <time>2020-10-12T12:50:29.000Z</time>
      </trkpt>
      <trkpt lat="43.31208" lon="2.67544">
        <ele>61</ele>
        <time>2020-10-12T12:50:32.000Z</time>
      </trkpt>
      <trkpt lat="43.31212" lon="2.67525">
        <ele>61</ele>
        <time>2020-10-12T12:50:37.000Z</time>
      </trkpt>
      <trkpt lat="43.31218" lon="2.67502">
        <ele>61</ele>
        <time>2020-10-12T12:50:42.000Z</time>
      </trkpt>
      <trkpt lat="43.31222" lon="2.67486">
        <ele>60</ele>
        <time>2020-10-12T12:50:45.000Z</time>
      </trkpt>
      <trkpt lat="43.31229" lon="2.67459">
        <ele>59</ele>
        <time>2020-10-12T12:50:50.000Z</time>
      </trkpt>
      <trkpt lat="43.3123" lon="2.67449">
        <ele>59</ele>
        <time>2020-10-12T12:50:52.000Z</time>
      </trkpt>
      <trkpt lat="43.31229" lon="2.67445">
        <ele>59</ele>
        <time>2020-10-12T12:50:53.000Z</time>
      </trkpt>
      <trkpt lat="43.31224" lon="2.67439">
        <ele>59</ele>
        <time>2020-10-12T12:50:55.000Z</time>
      </trkpt>
      <trkpt lat="43.31221" lon="2.67428">
        <ele>59</ele>
        <time>2020-10-12T12:50:58.000Z</time>
      </trkpt>
      <trkpt lat="43.31232" lon="2.67367">
        <ele>60</ele>
        <time>2020-10-12T12:51:12.000Z</time>
      </trkpt>
      <trkpt lat="43.31234" lon="2.67352">
        <ele>60</ele>
        <time>2020-10-12T12:51:15.000Z</time>
      </trkpt>
      <trkpt lat="43.31237" lon="2.67312">
        <ele>60</ele>
        <time>2020-10-12T12:51:27.000Z</time>
      </trkpt>
      <trkpt lat="43.31239" lon="2.673">
        <ele>60</ele>
        <time>2020-10-12T12:51:31.000Z</time>
      </trkpt>
      <trkpt lat="43.3124" lon="2.67296">
        <ele>60</ele>
        <time>2020-10-12T12:51:34.000Z</time>
      </trkpt>
      <trkpt lat="43.3124" lon="2.67291">
        <ele>61</ele>
        <time>2020-10-12T12:51:42.000Z</time>
      </trkpt>
      <trkpt lat="43.31239" lon="2.67289">
        <ele>59</ele>
        <time>2020-10-12T12:51:46.000Z</time>
      </trkpt>
      <trkpt lat="43.31236" lon="2.67288">
        <ele>58</ele>
        <time>2020-10-12T12:51:51.000Z</time>
      </trkpt>
      <trkpt lat="43.31232" lon="2.67284">
        <ele>56</ele>
        <time>2020-10-12T12:52:00.000Z</time>
      </trkpt>
      <trkpt lat="43.3123" lon="2.67277">
        <ele>56</ele>
        <time>2020-10-12T12:52:09.000Z</time>
      </trkpt>
      <trkpt lat="43.31232" lon="2.67269">
        <ele>57</ele>
        <time>2020-10-12T12:52:17.000Z</time>
      </trkpt>
      <trkpt lat="43.31233" lon="2.67268">
        <ele>57</ele>
        <time>2020-10-12T12:52:18.000Z</time>
      </trkpt>
      <trkpt lat="43.31236" lon="2.67257">
        <ele>57</ele>
        <time>2020-10-12T12:52:26.000Z</time>
      </trkpt>
      <trkpt lat="43.31235" lon="2.67252">
        <ele>57</ele>
        <time>2020-10-12T12:52:31.000Z</time>
      </trkpt>
      <trkpt lat="43.31237" lon="2.67246">
        <ele>56</ele>
        <time>2020-10-12T12:52:37.000Z</time>
      </trkpt>
      <trkpt lat="43.3124" lon="2.67229">
        <ele>57</ele>
        <time>2020-10-12T12:52:42.000Z</time>
      </trkpt>
      <trkpt lat="43.31243" lon="2.67205">
        <ele>57</ele>
        <time>2020-10-12T12:52:49.000Z</time>
      </trkpt>
      <trkpt lat="43.31248" lon="2.67173">
        <ele>58</ele>
        <time>2020-10-12T12:52:58.000Z</time>
      </trkpt>
      <trkpt lat="43.31254" lon="2.67142">
        <ele>58</ele>
        <time>2020-10-12T12:53:07.000Z</time>
      </trkpt>
      <trkpt lat="43.3126" lon="2.67107">
        <ele>59</ele>
        <time>2020-10-12T12:53:17.000Z</time>
      </trkpt>
      <trkpt lat="43.31261" lon="2.67097">
        <ele>59</ele>
        <time>2020-10-12T12:53:20.000Z</time>
      </trkpt>
      <trkpt lat="43.31267" lon="2.67061">
        <ele>59</ele>
        <time>2020-10-12T12:53:30.000Z</time>
      </trkpt>
      <trkpt lat="43.31271" lon="2.67036">
        <ele>59</ele>
        <time>2020-10-12T12:53:37.000Z</time>
      </trkpt>
      <trkpt lat="43.31279" lon="2.66997">
        <ele>60</ele>
        <time>2020-10-12T12:53:49.000Z</time>
      </trkpt>
      <trkpt lat="43.31281" lon="2.66979">
        <ele>60</ele>
        <time>2020-10-12T12:53:54.000Z</time>
      </trkpt>
      <trkpt lat="43.31281" lon="2.66975">
        <ele>61</ele>
        <time>2020-10-12T12:53:55.000Z</time>
      </trkpt>
      <trkpt lat="43.31277" lon="2.6697">
        <ele>60</ele>
        <time>2020-10-12T12:53:58.000Z</time>
      </trkpt>
      <trkpt lat="43.31268" lon="2.66972">
        <ele>60</ele>
        <time>2020-10-12T12:54:01.000Z</time>
      </trkpt>
      <trkpt lat="43.31249" lon="2.66985">
        <ele>60</ele>
        <time>2020-10-12T12:54:09.000Z</time>
      </trkpt>
      <trkpt lat="43.31244" lon="2.66987">
        <ele>60</ele>
        <time>2020-10-12T12:54:12.000Z</time>
      </trkpt>
      <trkpt lat="43.31243" lon="2.66986">
        <ele>60</ele>
        <time>2020-10-12T12:54:13.000Z</time>
      </trkpt>
      <trkpt lat="43.31243" lon="2.66984">
        <ele>59</ele>
        <time>2020-10-12T12:54:14.000Z</time>
      </trkpt>
      <trkpt lat="43.31249" lon="2.66976">
        <ele>59</ele>
        <time>2020-10-12T12:54:17.000Z</time>
      </trkpt>
      <trkpt lat="43.31251" lon="2.66971">
        <ele>59</ele>
        <time>2020-10-12T12:54:18.000Z</time>
      </trkpt>
      <trkpt lat="43.31253" lon="2.66961">
        <ele>59</ele>
        <time>2020-10-12T12:54:20.000Z</time>
      </trkpt>
      <trkpt lat="43.31249" lon="2.66898">
        <ele>59</ele>
        <time>2020-10-12T12:54:35.000Z</time>
      </trkpt>
      <trkpt lat="43.31239" lon="2.6682">
        <ele>60</ele>
        <time>2020-10-12T12:54:54.000Z</time>
      </trkpt>
      <trkpt lat="43.31228" lon="2.66722">
        <ele>61</ele>
        <time>2020-10-12T12:55:17.000Z</time>
      </trkpt>
      <trkpt lat="43.31227" lon="2.66712">
        <ele>61</ele>
        <time>2020-10-12T12:55:19.000Z</time>
      </trkpt>
      <trkpt lat="43.31228" lon="2.66687">
        <ele>61</ele>
        <time>2020-10-12T12:55:24.000Z</time>
      </trkpt>
      <trkpt lat="43.31229" lon="2.66682">
        <ele>61</ele>
        <time>2020-10-12T12:55:25.000Z</time>
      </trkpt>
      <trkpt lat="43.31231" lon="2.66672">
        <ele>61</ele>
        <time>2020-10-12T12:55:27.000Z</time>
      </trkpt>
      <trkpt lat="43.31234" lon="2.66659">
        <ele>61</ele>
        <time>2020-10-12T12:55:30.000Z</time>
      </trkpt>
      <trkpt lat="43.31253" lon="2.66601">
        <ele>62</ele>
        <time>2020-10-12T12:55:44.000Z</time>
      </trkpt>
      <trkpt lat="43.31265" lon="2.6657">
        <ele>63</ele>
        <time>2020-10-12T12:55:52.000Z</time>
      </trkpt>
      <trkpt lat="43.31278" lon="2.66545">
        <ele>64</ele>
        <time>2020-10-12T12:55:59.000Z</time>
      </trkpt>
      <trkpt lat="43.31287" lon="2.66532">
        <ele>64</ele>
        <time>2020-10-12T12:56:03.000Z</time>
      </trkpt>
      <trkpt lat="43.31302" lon="2.66517">
        <ele>64</ele>
        <time>2020-10-12T12:56:09.000Z</time>
      </trkpt>
      <trkpt lat="43.3132" lon="2.665">
        <ele>64</ele>
        <time>2020-10-12T12:56:16.000Z</time>
      </trkpt>
      <trkpt lat="43.31343" lon="2.6648">
        <ele>64</ele>
        <time>2020-10-12T12:56:25.000Z</time>
      </trkpt>
      <trkpt lat="43.31349" lon="2.66471">
        <ele>64</ele>
        <time>2020-10-12T12:56:28.000Z</time>
      </trkpt>
      <trkpt lat="43.31351" lon="2.66463">
        <ele>64</ele>
        <time>2020-10-12T12:56:30.000Z</time>
      </trkpt>
      <trkpt lat="43.31354" lon="2.6643">
        <ele>64</ele>
        <time>2020-10-12T12:56:38.000Z</time>
      </trkpt>
      <trkpt lat="43.31359" lon="2.66381">
        <ele>65</ele>
        <time>2020-10-12T12:56:49.000Z</time>
      </trkpt>
      <trkpt lat="43.3136" lon="2.66355">
        <ele>65</ele>
        <time>2020-10-12T12:56:55.000Z</time>
      </trkpt>
      <trkpt lat="43.3136" lon="2.66333">
        <ele>66</ele>
        <time>2020-10-12T12:57:00.000Z</time>
      </trkpt>
      <trkpt lat="43.31361" lon="2.66321">
        <ele>66</ele>
        <time>2020-10-12T12:57:03.000Z</time>
      </trkpt>
      <trkpt lat="43.31366" lon="2.66288">
        <ele>66</ele>
        <time>2020-10-12T12:57:11.000Z</time>
      </trkpt>
      <trkpt lat="43.31369" lon="2.66276">
        <ele>66</ele>
        <time>2020-10-12T12:57:14.000Z</time>
      </trkpt>
      <trkpt lat="43.31372" lon="2.66266">
        <ele>67</ele>
        <time>2020-10-12T12:57:17.000Z</time>
      </trkpt>
      <trkpt lat="43.31374" lon="2.66258">
        <ele>67</ele>
        <time>2020-10-12T12:57:19.000Z</time>
      </trkpt>
      <trkpt lat="43.31373" lon="2.66249">
        <ele>67</ele>
        <time>2020-10-12T12:57:21.000Z</time>
      </trkpt>
      <trkpt lat="43.31373" lon="2.66245">
        <ele>67</ele>
        <time>2020-10-12T12:57:22.000Z</time>
      </trkpt>
      <trkpt lat="43.31366" lon="2.66232">
        <ele>67</ele>
        <time>2020-10-12T12:57:26.000Z</time>
      </trkpt>
      <trkpt lat="43.31362" lon="2.66219">
        <ele>67</ele>
        <time>2020-10-12T12:57:30.000Z</time>
      </trkpt>
      <trkpt lat="43.31364" lon="2.66213">
        <ele>67</ele>
        <time>2020-10-12T12:57:32.000Z</time>
      </trkpt>
      <trkpt lat="43.31368" lon="2.66207">
        <ele>67</ele>
        <time>2020-10-12T12:57:34.000Z</time>
      </trkpt>
      <trkpt lat="43.31373" lon="2.66193">
        <ele>69</ele>
        <time>2020-10-12T12:57:40.000Z</time>
      </trkpt>
      <trkpt lat="43.31367" lon="2.66191">
        <ele>69</ele>
        <time>2020-10-12T12:57:46.000Z</time>
      </trkpt>
      <trkpt lat="43.31359" lon="2.66192">
        <ele>69</ele>
        <time>2020-10-12T12:57:49.000Z</time>
      </trkpt>
      <trkpt lat="43.31352" lon="2.66188">
        <ele>70</ele>
        <time>2020-10-12T12:57:52.000Z</time>
      </trkpt>
      <trkpt lat="43.3135" lon="2.66185">
        <ele>70</ele>
        <time>2020-10-12T12:57:54.000Z</time>
      </trkpt>
      <trkpt lat="43.3135" lon="2.66181">
        <ele>71</ele>
        <time>2020-10-12T12:57:56.000Z</time>
      </trkpt>
      <trkpt lat="43.3135" lon="2.6618">
        <ele>71</ele>
        <time>2020-10-12T12:57:57.000Z</time>
      </trkpt>
      <trkpt lat="43.31355" lon="2.66171">
        <ele>73</ele>
        <time>2020-10-12T12:58:01.000Z</time>
      </trkpt>
      <trkpt lat="43.31355" lon="2.66162">
        <ele>74</ele>
        <time>2020-10-12T12:58:04.000Z</time>
      </trkpt>
      <trkpt lat="43.31362" lon="2.66145">
        <ele>76</ele>
        <time>2020-10-12T12:58:12.000Z</time>
      </trkpt>
      <trkpt lat="43.31359" lon="2.66141">
        <ele>77</ele>
        <time>2020-10-12T12:58:14.000Z</time>
      </trkpt>
      <trkpt lat="43.31355" lon="2.66138">
        <ele>77</ele>
        <time>2020-10-12T12:58:17.000Z</time>
      </trkpt>
      <trkpt lat="43.3135" lon="2.66131">
        <ele>77</ele>
        <time>2020-10-12T12:58:22.000Z</time>
      </trkpt>
      <trkpt lat="43.31343" lon="2.66127">
        <ele>76</ele>
        <time>2020-10-12T12:58:32.000Z</time>
      </trkpt>
      <trkpt lat="43.3134" lon="2.66124">
        <ele>106</ele>
        <time>2020-10-12T12:58:42.000Z</time>
      </trkpt>
      <trkpt lat="43.31338" lon="2.66122">
        <ele>105.6</ele>
        <time>2020-10-12T12:58:52.000Z</time>
      </trkpt>
      <trkpt lat="43.31335" lon="2.66121">
        <ele>105</ele>
        <time>2020-10-12T12:59:02.000Z</time>
      </trkpt>
      <trkpt lat="43.31333" lon="2.66119">
        <ele>104.5</ele>
        <time>2020-10-12T12:59:12.000Z</time>
      </trkpt>
      <trkpt lat="43.31331" lon="2.66116">
        <ele>70</ele>
        <time>2020-10-12T12:58:52.000Z</time>
      </trkpt>
      <trkpt lat="43.31354" lon="2.66098">
        <ele>70</ele>
        <time>2020-10-12T12:59:01.000Z</time>
      </trkpt>
      <trkpt lat="43.31365" lon="2.66097">
        <ele>71</ele>
        <time>2020-10-12T12:59:05.000Z</time>
      </trkpt>
      <trkpt lat="43.31372" lon="2.66104">
        <ele>71</ele>
        <time>2020-10-12T12:59:08.000Z</time>
      </trkpt>
      <trkpt lat="43.31375" lon="2.66106">
        <ele>71</ele>
        <time>2020-10-12T12:59:10.000Z</time>
      </trkpt>
      <trkpt lat="43.31381" lon="2.66113">
        <ele>71</ele>
        <time>2020-10-12T12:59:13.000Z</time>
      </trkpt>
      <trkpt lat="43.31383" lon="2.66115">
        <ele>71</ele>
        <time>2020-10-12T12:59:14.000Z</time>
      </trkpt>
      <trkpt lat="43.31391" lon="2.66126">
        <ele>72</ele>
        <time>2020-10-12T12:59:18.000Z</time>
      </trkpt>
      <trkpt lat="43.31408" lon="2.66124">
        <ele>70</ele>
        <time>2020-10-12T12:59:24.000Z</time>
      </trkpt>
      <trkpt lat="43.31428" lon="2.6613">
        <ele>69</ele>
        <time>2020-10-12T12:59:30.000Z</time>
      </trkpt>
      <trkpt lat="43.31434" lon="2.66128">
        <ele>69</ele>
        <time>2020-10-12T12:59:32.000Z</time>
      </trkpt>
      <trkpt lat="43.31435" lon="2.66125">
        <ele>69</ele>
        <time>2020-10-12T12:59:33.000Z</time>
      </trkpt>
      <trkpt lat="43.31453" lon="2.66075">
        <ele>69</ele>
        <time>2020-10-12T12:59:44.000Z</time>
      </trkpt>
      <trkpt lat="43.31455" lon="2.66072">
        <ele>69</ele>
        <time>2020-10-12T12:59:45.000Z</time>
      </trkpt>
      <trkpt lat="43.31466" lon="2.66071">
        <ele>69</ele>
        <time>2020-10-12T12:59:48.000Z</time>
      </trkpt>
      <trkpt lat="43.3147" lon="2.66075">
        <ele>69</ele>
        <time>2020-10-12T12:59:50.000Z</time>
      </trkpt>
      <trkpt lat="43.31484" lon="2.66095">
        <ele>69</ele>
        <time>2020-10-12T12:59:55.000Z</time>
      </trkpt>
      <trkpt lat="43.31493" lon="2.66101">
        <ele>68</ele>
        <time>2020-10-12T12:59:57.000Z</time>
      </trkpt>
      <trkpt lat="43.31503" lon="2.66105">
        <ele>68</ele>
        <time>2020-10-12T12:59:59.000Z</time>
      </trkpt>
      <trkpt lat="43.31511" lon="2.6611">
        <ele>68</ele>
        <time>2020-10-12T13:00:01.000Z</time>
      </trkpt>
      <trkpt lat="43.31514" lon="2.66113">
        <ele>68</ele>
        <time>2020-10-12T13:00:02.000Z</time>
      </trkpt>
      <trkpt lat="43.3152" lon="2.66119">
        <ele>68</ele>
        <time>2020-10-12T13:00:04.000Z</time>
      </trkpt>
      <trkpt lat="43.31525" lon="2.66122">
        <ele>68</ele>
        <time>2020-10-12T13:00:06.000Z</time>
      </trkpt>
      <trkpt lat="43.31527" lon="2.66121">
        <ele>69</ele>
        <time>2020-10-12T13:00:07.000Z</time>
      </trkpt>
      <trkpt lat="43.31533" lon="2.66112">
        <ele>69</ele>
        <time>2020-10-12T13:00:10.000Z</time>
      </trkpt>
      <trkpt lat="43.3155" lon="2.66105">
        <ele>69</ele>
        <time>2020-10-12T13:00:15.000Z</time>
      </trkpt>
      <trkpt lat="43.31602" lon="2.66093">
        <ele>71</ele>
        <time>2020-10-12T13:00:29.000Z</time>
      </trkpt>
      <trkpt lat="43.31608" lon="2.66096">
        <ele>71</ele>
        <time>2020-10-12T13:00:32.000Z</time>
      </trkpt>
      <trkpt lat="43.3161" lon="2.66099">
        <ele>71</ele>
        <time>2020-10-12T13:00:33.000Z</time>
      </trkpt>
      <trkpt lat="43.31618" lon="2.66116">
        <ele>71</ele>
        <time>2020-10-12T13:00:37.000Z</time>
      </trkpt>
      <trkpt lat="43.31623" lon="2.66123">
        <ele>71</ele>
        <time>2020-10-12T13:00:39.000Z</time>
      </trkpt>
      <trkpt lat="43.31629" lon="2.66126">
        <ele>71</ele>
        <time>2020-10-12T13:00:41.000Z</time>
      </trkpt>
      <trkpt lat="43.31633" lon="2.66126">
        <ele>71</ele>
        <time>2020-10-12T13:00:42.000Z</time>
      </trkpt>
      <trkpt lat="43.31639" lon="2.66123">
        <ele>72</ele>
        <time>2020-10-12T13:00:44.000Z</time>
      </trkpt>
      <trkpt lat="43.31642" lon="2.66121">
        <ele>72</ele>
        <time>2020-10-12T13:00:45.000Z</time>
      </trkpt>
      <trkpt lat="43.31643" lon="2.66107">
        <ele>72</ele>
        <time>2020-10-12T13:00:48.000Z</time>
      </trkpt>
      <trkpt lat="43.31631" lon="2.66065">
        <ele>72</ele>
        <time>2020-10-12T13:00:56.000Z</time>
      </trkpt>
      <trkpt lat="43.31626" lon="2.66048">
        <ele>71</ele>
        <time>2020-10-12T13:00:59.000Z</time>
      </trkpt>
      <trkpt lat="43.31623" lon="2.6602">
        <ele>71</ele>
        <time>2020-10-12T13:01:04.000Z</time>
      </trkpt>
      <trkpt lat="43.31631" lon="2.65993">
        <ele>72</ele>
        <time>2020-10-12T13:01:09.000Z</time>
      </trkpt>
      <trkpt lat="43.31634" lon="2.65983">
        <ele>72</ele>
        <time>2020-10-12T13:01:11.000Z</time>
      </trkpt>
      <trkpt lat="43.31638" lon="2.65974">
        <ele>72</ele>
        <time>2020-10-12T13:01:13.000Z</time>
      </trkpt>
      <trkpt lat="43.31645" lon="2.65965">
        <ele>72</ele>
        <time>2020-10-12T13:01:16.000Z</time>
      </trkpt>
      <trkpt lat="43.31653" lon="2.65956">
        <ele>72</ele>
        <time>2020-10-12T13:01:19.000Z</time>
      </trkpt>
      <trkpt lat="43.31666" lon="2.65946">
        <ele>73</ele>
        <time>2020-10-12T13:01:23.000Z</time>
      </trkpt>
      <trkpt lat="43.31694" lon="2.65921">
        <ele>74</ele>
        <time>2020-10-12T13:01:32.000Z</time>
      </trkpt>
      <trkpt lat="43.31699" lon="2.6591">
        <ele>73</ele>
        <time>2020-10-12T13:01:36.000Z</time>
      </trkpt>
      <trkpt lat="43.317" lon="2.65902">
        <ele>73</ele>
        <time>2020-10-12T13:01:39.000Z</time>
      </trkpt>
      <trkpt lat="43.31703" lon="2.659">
        <ele>73</ele>
        <time>2020-10-12T13:01:41.000Z</time>
      </trkpt>
      <trkpt lat="43.31717" lon="2.65903">
        <ele>74</ele>
        <time>2020-10-12T13:01:48.000Z</time>
      </trkpt>
      <trkpt lat="43.31733" lon="2.65902">
        <ele>75</ele>
        <time>2020-10-12T13:01:55.000Z</time>
      </trkpt>
      <trkpt lat="43.31757" lon="2.65904">
        <ele>76</ele>
        <time>2020-10-12T13:02:03.000Z</time>
      </trkpt>
      <trkpt lat="43.31767" lon="2.65905">
        <ele>76</ele>
        <time>2020-10-12T13:02:06.000Z</time>
      </trkpt>
      <trkpt lat="43.31775" lon="2.65905">
        <ele>76</ele>
        <time>2020-10-12T13:02:09.000Z</time>
      </trkpt>
      <trkpt lat="43.31779" lon="2.65902">
        <ele>77</ele>
        <time>2020-10-12T13:02:11.000Z</time>
      </trkpt>
      <trkpt lat="43.31793" lon="2.65885">
        <ele>77</ele>
        <time>2020-10-12T13:02:18.000Z</time>
      </trkpt>
      <trkpt lat="43.3181" lon="2.65867">
        <ele>76</ele>
        <time>2020-10-12T13:02:25.000Z</time>
      </trkpt>
      <trkpt lat="43.31816" lon="2.65862">
        <ele>77</ele>
        <time>2020-10-12T13:02:28.000Z</time>
      </trkpt>
      <trkpt lat="43.31822" lon="2.65858">
        <ele>79</ele>
        <time>2020-10-12T13:02:31.000Z</time>
      </trkpt>
      <trkpt lat="43.31833" lon="2.65851">
        <ele>81</ele>
        <time>2020-10-12T13:02:37.000Z</time>
      </trkpt>
      <trkpt lat="43.31844" lon="2.65841">
        <ele>82</ele>
        <time>2020-10-12T13:02:43.000Z</time>
      </trkpt>
      <trkpt lat="43.31857" lon="2.65834">
        <ele>83</ele>
        <time>2020-10-12T13:02:53.000Z</time>
      </trkpt>
      <trkpt lat="43.31862" lon="2.65834">
        <ele>84</ele>
        <time>2020-10-12T13:03:08.000Z</time>
      </trkpt>
      <trkpt lat="43.31876" lon="2.65785">
        <ele>83</ele>
        <time>2020-10-12T13:03:24.000Z</time>
      </trkpt>
      <trkpt lat="43.31883" lon="2.65763">
        <ele>83</ele>
        <time>2020-10-12T13:03:30.000Z</time>
      </trkpt>
      <trkpt lat="43.31886" lon="2.65756">
        <ele>84</ele>
        <time>2020-10-12T13:03:32.000Z</time>
      </trkpt>
      <trkpt lat="43.319" lon="2.65734">
        <ele>87</ele>
        <time>2020-10-12T13:03:41.000Z</time>
      </trkpt>
      <trkpt lat="43.31906" lon="2.65722">
        <ele>88</ele>
        <time>2020-10-12T13:03:46.000Z</time>
      </trkpt>
      <trkpt lat="43.31912" lon="2.65715">
        <ele>89</ele>
        <time>2020-10-12T13:03:49.000Z</time>
      </trkpt>
      <trkpt lat="43.31914" lon="2.65709">
        <ele>89</ele>
        <time>2020-10-12T13:03:51.000Z</time>
      </trkpt>
      <trkpt lat="43.31916" lon="2.65702">
        <ele>89</ele>
        <time>2020-10-12T13:03:53.000Z</time>
      </trkpt>
      <trkpt lat="43.3192" lon="2.65691">
        <ele>89</ele>
        <time>2020-10-12T13:03:56.000Z</time>
      </trkpt>
      <trkpt lat="43.31946" lon="2.65646">
        <ele>85</ele>
        <time>2020-10-12T13:04:06.000Z</time>
      </trkpt>
      <trkpt lat="43.31952" lon="2.65636">
        <ele>84</ele>
        <time>2020-10-12T13:04:08.000Z</time>
      </trkpt>
      <trkpt lat="43.31959" lon="2.65631">
        <ele>85</ele>
        <time>2020-10-12T13:04:10.000Z</time>
      </trkpt>
      <trkpt lat="43.3197" lon="2.65628">
        <ele>85</ele>
        <time>2020-10-12T13:04:14.000Z</time>
      </trkpt>
      <trkpt lat="43.31974" lon="2.65621">
        <ele>86</ele>
        <time>2020-10-12T13:04:17.000Z</time>
      </trkpt>
      <trkpt lat="43.31977" lon="2.65614">
        <ele>86</ele>
        <time>2020-10-12T13:04:19.000Z</time>
      </trkpt>
      <trkpt lat="43.31982" lon="2.65592">
        <ele>87</ele>
        <time>2020-10-12T13:04:25.000Z</time>
      </trkpt>
      <trkpt lat="43.31993" lon="2.65568">
        <ele>87</ele>
        <time>2020-10-12T13:04:31.000Z</time>
      </trkpt>
      <trkpt lat="43.31997" lon="2.6556">
        <ele>87</ele>
        <time>2020-10-12T13:04:33.000Z</time>
      </trkpt>
      <trkpt lat="43.32" lon="2.65552">
        <ele>86</ele>
        <time>2020-10-12T13:04:35.000Z</time>
      </trkpt>
      <trkpt lat="43.32001" lon="2.65534">
        <ele>85</ele>
        <time>2020-10-12T13:04:39.000Z</time>
      </trkpt>
      <trkpt lat="43.32001" lon="2.65529">
        <ele>85</ele>
        <time>2020-10-12T13:04:40.000Z</time>
      </trkpt>
      <trkpt lat="43.32007" lon="2.65512">
        <ele>85</ele>
        <time>2020-10-12T13:04:44.000Z</time>
      </trkpt>
      <trkpt lat="43.32008" lon="2.65505">
        <ele>85</ele>
        <time>2020-10-12T13:04:46.000Z</time>
      </trkpt>
      <trkpt lat="43.32009" lon="2.65486">
        <ele>86</ele>
        <time>2020-10-12T13:04:52.000Z</time>
      </trkpt>
      <trkpt lat="43.32009" lon="2.65476">
        <ele>86</ele>
        <time>2020-10-12T13:04:55.000Z</time>
      </trkpt>
      <trkpt lat="43.32004" lon="2.65455">
        <ele>87</ele>
        <time>2020-10-12T13:05:00.000Z</time>
      </trkpt>
      <trkpt lat="43.32002" lon="2.65445">
        <ele>87</ele>
        <time>2020-10-12T13:05:02.000Z</time>
      </trkpt>
      <trkpt lat="43.3199" lon="2.65426">
        <ele>86</ele>
        <time>2020-10-12T13:05:06.000Z</time>
      </trkpt>
      <trkpt lat="43.31982" lon="2.65409">
        <ele>85</ele>
        <time>2020-10-12T13:05:10.000Z</time>
      </trkpt>
      <trkpt lat="43.31981" lon="2.65406">
        <ele>85</ele>
        <time>2020-10-12T13:05:11.000Z</time>
      </trkpt>
      <trkpt lat="43.3198" lon="2.65392">
        <ele>86</ele>
        <time>2020-10-12T13:05:15.000Z</time>
      </trkpt>
      <trkpt lat="43.31982" lon="2.65377">
        <ele>87</ele>
        <time>2020-10-12T13:05:20.000Z</time>
      </trkpt>
      <trkpt lat="43.31983" lon="2.6537">
        <ele>87</ele>
        <time>2020-10-12T13:05:22.000Z</time>
      </trkpt>
      <trkpt lat="43.31988" lon="2.65356">
        <ele>88</ele>
        <time>2020-10-12T13:05:27.000Z</time>
      </trkpt>
      <trkpt lat="43.3199" lon="2.65345">
        <ele>89</ele>
        <time>2020-10-12T13:05:31.000Z</time>
      </trkpt>
      <trkpt lat="43.31995" lon="2.65325">
        <ele>90</ele>
        <time>2020-10-12T13:05:38.000Z</time>
      </trkpt>
      <trkpt lat="43.31996" lon="2.65319">
        <ele>90</ele>
        <time>2020-10-12T13:05:40.000Z</time>
      </trkpt>
      <trkpt lat="43.31996" lon="2.65294">
        <ele>91</ele>
        <time>2020-10-12T13:05:49.000Z</time>
      </trkpt>
      <trkpt lat="43.31995" lon="2.65275">
        <ele>91</ele>
        <time>2020-10-12T13:05:55.000Z</time>
      </trkpt>
      <trkpt lat="43.31991" lon="2.65249">
        <ele>93</ele>
        <time>2020-10-12T13:06:03.000Z</time>
      </trkpt>
      <trkpt lat="43.3199" lon="2.65245">
        <ele>93</ele>
        <time>2020-10-12T13:06:04.000Z</time>
      </trkpt>
      <trkpt lat="43.31978" lon="2.65223">
        <ele>92</ele>
        <time>2020-10-12T13:06:11.000Z</time>
      </trkpt>
      <trkpt lat="43.31975" lon="2.65215">
        <ele>92</ele>
        <time>2020-10-12T13:06:14.000Z</time>
      </trkpt>
      <trkpt lat="43.31975" lon="2.65212">
        <ele>92</ele>
        <time>2020-10-12T13:06:15.000Z</time>
      </trkpt>
      <trkpt lat="43.31979" lon="2.65204">
        <ele>93</ele>
        <time>2020-10-12T13:06:18.000Z</time>
      </trkpt>
      <trkpt lat="43.31993" lon="2.65184">
        <ele>94</ele>
        <time>2020-10-12T13:06:25.000Z</time>
      </trkpt>
      <trkpt lat="43.32003" lon="2.65165">
        <ele>94</ele>
        <time>2020-10-12T13:06:31.000Z</time>
      </trkpt>
      <trkpt lat="43.32013" lon="2.65142">
        <ele>96</ele>
        <time>2020-10-12T13:06:38.000Z</time>
      </trkpt>
      <trkpt lat="43.32018" lon="2.65128">
        <ele>97</ele>
        <time>2020-10-12T13:06:42.000Z</time>
      </trkpt>
      <trkpt lat="43.32029" lon="2.65107">
        <ele>98</ele>
        <time>2020-10-12T13:06:49.000Z</time>
      </trkpt>
      <trkpt lat="43.32038" lon="2.65091">
        <ele>99</ele>
        <time>2020-10-12T13:06:55.000Z</time>
      </trkpt>
      <trkpt lat="43.32038" lon="2.65089">
        <ele>99</ele>
        <time>2020-10-12T13:06:56.000Z</time>
      </trkpt>
      <trkpt lat="43.32038" lon="2.6508">
        <ele>99</ele>
        <time>2020-10-12T13:06:59.000Z</time>
      </trkpt>
      <trkpt lat="43.32037" lon="2.6506">
        <ele>100</ele>
        <time>2020-10-12T13:07:05.000Z</time>
      </trkpt>
      <trkpt lat="43.32039" lon="2.65046">
        <ele>100</ele>
        <time>2020-10-12T13:07:09.000Z</time>
      </trkpt>
      <trkpt lat="43.3204" lon="2.6504">
        <ele>100</ele>
        <time>2020-10-12T13:07:11.000Z</time>
      </trkpt>
      <trkpt lat="43.32043" lon="2.65034">
        <ele>100</ele>
        <time>2020-10-12T13:07:13.000Z</time>
      </trkpt>
      <trkpt lat="43.32049" lon="2.65024">
        <ele>101</ele>
        <time>2020-10-12T13:07:17.000Z</time>
      </trkpt>
      <trkpt lat="43.32059" lon="2.65014">
        <ele>102</ele>
        <time>2020-10-12T13:07:23.000Z</time>
      </trkpt>
      <trkpt lat="43.32068" lon="2.65007">
        <ele>103</ele>
        <time>2020-10-12T13:07:28.000Z</time>
      </trkpt>
      <trkpt lat="43.32071" lon="2.65003">
        <ele>103</ele>
        <time>2020-10-12T13:07:30.000Z</time>
      </trkpt>
      <trkpt lat="43.32078" lon="2.64992">
        <ele>104</ele>
        <time>2020-10-12T13:07:35.000Z</time>
      </trkpt>
      <trkpt lat="43.32081" lon="2.64987">
        <ele>104</ele>
        <time>2020-10-12T13:07:37.000Z</time>
      </trkpt>
      <trkpt lat="43.32086" lon="2.64975">
        <ele>104</ele>
        <time>2020-10-12T13:07:41.000Z</time>
      </trkpt>
      <trkpt lat="43.32089" lon="2.64963">
        <ele>105</ele>
        <time>2020-10-12T13:07:45.000Z</time>
      </trkpt>
      <trkpt lat="43.3209" lon="2.64953">
        <ele>105</ele>
        <time>2020-10-12T13:07:48.000Z</time>
      </trkpt>
      <trkpt lat="43.32091" lon="2.64942">
        <ele>105</ele>
        <time>2020-10-12T13:07:51.000Z</time>
      </trkpt>
      <trkpt lat="43.32096" lon="2.64913">
        <ele>106</ele>
        <time>2020-10-12T13:07:59.000Z</time>
      </trkpt>
      <trkpt lat="43.32096" lon="2.64905">
        <ele>106</ele>
        <time>2020-10-12T13:08:01.000Z</time>
      </trkpt>
      <trkpt lat="43.32093" lon="2.64867">
        <ele>107</ele>
        <time>2020-10-12T13:08:11.000Z</time>
      </trkpt>
      <trkpt lat="43.32093" lon="2.64856">
        <ele>107</ele>
        <time>2020-10-12T13:08:14.000Z</time>
      </trkpt>
      <trkpt lat="43.32092" lon="2.64849">
        <ele>108</ele>
        <time>2020-10-12T13:08:16.000Z</time>
      </trkpt>
      <trkpt lat="43.3209" lon="2.64838">
        <ele>109</ele>
        <time>2020-10-12T13:08:19.000Z</time>
      </trkpt>
      <trkpt lat="43.32087" lon="2.64825">
        <ele>109</ele>
        <time>2020-10-12T13:08:23.000Z</time>
      </trkpt>
      <trkpt lat="43.32086" lon="2.64814">
        <ele>109</ele>
        <time>2020-10-12T13:08:26.000Z</time>
      </trkpt>
      <trkpt lat="43.32089" lon="2.64793">
        <ele>110</ele>
        <time>2020-10-12T13:08:32.000Z</time>
      </trkpt>
      <trkpt lat="43.3209" lon="2.64785">
        <ele>110</ele>
        <time>2020-10-12T13:08:34.000Z</time>
      </trkpt>
      <trkpt lat="43.32087" lon="2.64764">
        <ele>111</ele>
        <time>2020-10-12T13:08:40.000Z</time>
      </trkpt>
      <trkpt lat="43.32086" lon="2.64754">
        <ele>111</ele>
        <time>2020-10-12T13:08:43.000Z</time>
      </trkpt>
      <trkpt lat="43.32087" lon="2.64734">
        <ele>111</ele>
        <time>2020-10-12T13:08:48.000Z</time>
      </trkpt>
      <trkpt lat="43.32081" lon="2.64694">
        <ele>112</ele>
        <time>2020-10-12T13:08:58.000Z</time>
      </trkpt>
      <trkpt lat="43.3208" lon="2.64677">
        <ele>112</ele>
        <time>2020-10-12T13:09:02.000Z</time>
      </trkpt>
      <trkpt lat="43.3208" lon="2.64669">
        <ele>112</ele>
        <time>2020-10-12T13:09:04.000Z</time>
      </trkpt>
      <trkpt lat="43.32082" lon="2.64657">
        <ele>112</ele>
        <time>2020-10-12T13:09:07.000Z</time>
      </trkpt>
      <trkpt lat="43.32086" lon="2.64651">
        <ele>113</ele>
        <time>2020-10-12T13:09:09.000Z</time>
      </trkpt>
      <trkpt lat="43.32088" lon="2.64648">
        <ele>113</ele>
        <time>2020-10-12T13:09:10.000Z</time>
      </trkpt>
      <trkpt lat="43.32097" lon="2.6464">
        <ele>113</ele>
        <time>2020-10-12T13:09:14.000Z</time>
      </trkpt>
      <trkpt lat="43.32099" lon="2.64639">
        <ele>113</ele>
        <time>2020-10-12T13:09:15.000Z</time>
      </trkpt>
      <trkpt lat="43.32105" lon="2.64639">
        <ele>114</ele>
        <time>2020-10-12T13:09:17.000Z</time>
      </trkpt>
      <trkpt lat="43.32111" lon="2.6464">
        <ele>115</ele>
        <time>2020-10-12T13:09:19.000Z</time>
      </trkpt>
      <trkpt lat="43.32117" lon="2.64639">
        <ele>116</ele>
        <time>2020-10-12T13:09:21.000Z</time>
      </trkpt>
      <trkpt lat="43.32122" lon="2.64636">
        <ele>116</ele>
        <time>2020-10-12T13:09:23.000Z</time>
      </trkpt>
      <trkpt lat="43.32128" lon="2.64627">
        <ele>116</ele>
        <time>2020-10-12T13:09:26.000Z</time>
      </trkpt>
      <trkpt lat="43.32129" lon="2.64623">
        <ele>116</ele>
        <time>2020-10-12T13:09:27.000Z</time>
      </trkpt>
      <trkpt lat="43.32137" lon="2.64607">
        <ele>116</ele>
        <time>2020-10-12T13:09:32.000Z</time>
      </trkpt>
      <trkpt lat="43.32143" lon="2.64594">
        <ele>116</ele>
        <time>2020-10-12T13:09:36.000Z</time>
      </trkpt>
      <trkpt lat="43.32152" lon="2.6458">
        <ele>115</ele>
        <time>2020-10-12T13:09:41.000Z</time>
      </trkpt>
      <trkpt lat="43.32158" lon="2.64568">
        <ele>115</ele>
        <time>2020-10-12T13:09:45.000Z</time>
      </trkpt>
      <trkpt lat="43.32165" lon="2.6455">
        <ele>116</ele>
        <time>2020-10-12T13:09:51.000Z</time>
      </trkpt>
      <trkpt lat="43.3217" lon="2.6454">
        <ele>117</ele>
        <time>2020-10-12T13:09:55.000Z</time>
      </trkpt>
      <trkpt lat="43.32171" lon="2.64535">
        <ele>117</ele>
        <time>2020-10-12T13:09:57.000Z</time>
      </trkpt>
      <trkpt lat="43.32178" lon="2.64521">
        <ele>118</ele>
        <time>2020-10-12T13:10:03.000Z</time>
      </trkpt>
      <trkpt lat="43.32186" lon="2.6451">
        <ele>119</ele>
        <time>2020-10-12T13:10:08.000Z</time>
      </trkpt>
      <trkpt lat="43.32189" lon="2.64503">
        <ele>119</ele>
        <time>2020-10-12T13:10:11.000Z</time>
      </trkpt>
      <trkpt lat="43.32198" lon="2.64491">
        <ele>120</ele>
        <time>2020-10-12T13:10:17.000Z</time>
      </trkpt>
      <trkpt lat="43.32209" lon="2.64484">
        <ele>120</ele>
        <time>2020-10-12T13:10:23.000Z</time>
      </trkpt>
      <trkpt lat="43.32219" lon="2.64487">
        <ele>120</ele>
        <time>2020-10-12T13:10:29.000Z</time>
      </trkpt>
      <trkpt lat="43.32231" lon="2.64498">
        <ele>120</ele>
        <time>2020-10-12T13:10:34.000Z</time>
      </trkpt>
      <trkpt lat="43.32235" lon="2.64504">
        <ele>119</ele>
        <time>2020-10-12T13:10:36.000Z</time>
      </trkpt>
      <trkpt lat="43.32237" lon="2.64507">
        <ele>119</ele>
        <time>2020-10-12T13:10:37.000Z</time>
      </trkpt>
      <trkpt lat="43.32238" lon="2.64513">
        <ele>119</ele>
        <time>2020-10-12T13:10:43.000Z</time>
      </trkpt>
      <trkpt lat="43.32239" lon="2.6451">
        <ele>119</ele>
        <time>2020-10-12T13:10:48.000Z</time>
      </trkpt>
      <trkpt lat="43.3224" lon="2.64509">
        <ele>120</ele>
        <time>2020-10-12T13:10:52.000Z</time>
      </trkpt>
      <trkpt lat="43.32241" lon="2.64509">
        <ele>120</ele>
        <time>2020-10-12T13:10:55.000Z</time>
      </trkpt>
      <trkpt lat="43.32244" lon="2.64508">
        <ele>119</ele>
        <time>2020-10-12T13:11:04.000Z</time>
      </trkpt>
      <trkpt lat="43.32246" lon="2.64509">
        <ele>119</ele>
        <time>2020-10-12T13:11:07.000Z</time>
      </trkpt>
      <trkpt lat="43.32248" lon="2.64509">
        <ele>118</ele>
        <time>2020-10-12T13:11:13.000Z</time>
      </trkpt>
      <trkpt lat="43.32251" lon="2.64505">
        <ele>118</ele>
        <time>2020-10-12T13:11:20.000Z</time>
      </trkpt>
      <trkpt lat="43.32253" lon="2.64505">
        <ele>119</ele>
        <time>2020-10-12T13:11:24.000Z</time>
      </trkpt>
      <trkpt lat="43.32254" lon="2.64506">
        <ele>118</ele>
        <time>2020-10-12T13:11:28.000Z</time>
      </trkpt>
      <trkpt lat="43.32255" lon="2.64506">
        <ele>118</ele>
        <time>2020-10-12T13:11:30.000Z</time>
      </trkpt>
      <trkpt lat="43.32255" lon="2.64506">
        <ele>117</ele>
        <time>2020-10-12T13:11:38.000Z</time>
      </trkpt>
      <trkpt lat="43.32256" lon="2.64507">
        <ele>116</ele>
        <time>2020-10-12T13:12:08.000Z</time>
      </trkpt>
      <trkpt lat="43.32263" lon="2.64506">
        <ele>116</ele>
        <time>2020-10-12T13:12:13.000Z</time>
      </trkpt>
      <trkpt lat="43.32269" lon="2.64504">
        <ele>116</ele>
        <time>2020-10-12T13:12:17.000Z</time>
      </trkpt>
      <trkpt lat="43.32271" lon="2.64502">
        <ele>116</ele>
        <time>2020-10-12T13:12:19.000Z</time>
      </trkpt>
      <trkpt lat="43.32276" lon="2.64479">
        <ele>116</ele>
        <time>2020-10-12T13:12:32.000Z</time>
      </trkpt>
      <trkpt lat="43.32282" lon="2.64454">
        <ele>117</ele>
        <time>2020-10-12T13:12:41.000Z</time>
      </trkpt>
      <trkpt lat="43.32292" lon="2.64432">
        <ele>117</ele>
        <time>2020-10-12T13:12:50.000Z</time>
      </trkpt>
      <trkpt lat="43.32297" lon="2.64424">
        <ele>117</ele>
        <time>2020-10-12T13:12:54.000Z</time>
      </trkpt>
      <trkpt lat="43.32298" lon="2.64422">
        <ele>117</ele>
        <time>2020-10-12T13:12:55.000Z</time>
      </trkpt>
      <trkpt lat="43.32305" lon="2.64416">
        <ele>117</ele>
        <time>2020-10-12T13:12:59.000Z</time>
      </trkpt>
      <trkpt lat="43.32315" lon="2.64416">
        <ele>117</ele>
        <time>2020-10-12T13:13:04.000Z</time>
      </trkpt>
      <trkpt lat="43.32319" lon="2.64418">
        <ele>117</ele>
        <time>2020-10-12T13:13:07.000Z</time>
      </trkpt>
      <trkpt lat="43.3233" lon="2.64427">
        <ele>118</ele>
        <time>2020-10-12T13:13:12.000Z</time>
      </trkpt>
      <trkpt lat="43.32352" lon="2.64449">
        <ele>118</ele>
        <time>2020-10-12T13:13:20.000Z</time>
      </trkpt>
      <trkpt lat="43.32356" lon="2.64457">
        <ele>118</ele>
        <time>2020-10-12T13:13:22.000Z</time>
      </trkpt>
      <trkpt lat="43.32356" lon="2.64466">
        <ele>118</ele>
        <time>2020-10-12T13:13:24.000Z</time>
      </trkpt>
      <trkpt lat="43.32353" lon="2.64483">
        <ele>118</ele>
        <time>2020-10-12T13:13:28.000Z</time>
      </trkpt>
      <trkpt lat="43.32355" lon="2.64488">
        <ele>117</ele>
        <time>2020-10-12T13:13:30.000Z</time>
      </trkpt>
      <trkpt lat="43.32357" lon="2.64488">
        <ele>117</ele>
        <time>2020-10-12T13:13:32.000Z</time>
      </trkpt>
      <trkpt lat="43.32357" lon="2.64487">
        <ele>117</ele>
        <time>2020-10-12T13:13:35.000Z</time>
      </trkpt>
      <trkpt lat="43.32361" lon="2.64482">
        <ele>117</ele>
        <time>2020-10-12T13:13:43.000Z</time>
      </trkpt>
      <trkpt lat="43.32361" lon="2.64475">
        <ele>117</ele>
        <time>2020-10-12T13:13:48.000Z</time>
      </trkpt>
      <trkpt lat="43.32365" lon="2.64465">
        <ele>117</ele>
        <time>2020-10-12T13:13:52.000Z</time>
      </trkpt>
      <trkpt lat="43.32368" lon="2.6445">
        <ele>117</ele>
        <time>2020-10-12T13:13:58.000Z</time>
      </trkpt>
      <trkpt lat="43.32378" lon="2.64418">
        <ele>117</ele>
        <time>2020-10-12T13:14:12.000Z</time>
      </trkpt>
      <trkpt lat="43.32383" lon="2.64405">
        <ele>117</ele>
        <time>2020-10-12T13:14:18.000Z</time>
      </trkpt>
      <trkpt lat="43.32395" lon="2.64379">
        <ele>117</ele>
        <time>2020-10-12T13:14:28.000Z</time>
      </trkpt>
      <trkpt lat="43.32404" lon="2.64357">
        <ele>117</ele>
        <time>2020-10-12T13:14:36.000Z</time>
      </trkpt>
      <trkpt lat="43.32407" lon="2.64353">
        <ele>117</ele>
        <time>2020-10-12T13:14:38.000Z</time>
      </trkpt>
      <trkpt lat="43.32414" lon="2.64348">
        <ele>118</ele>
        <time>2020-10-12T13:14:41.000Z</time>
      </trkpt>
      <trkpt lat="43.32442" lon="2.64334">
        <ele>118</ele>
        <time>2020-10-12T13:14:50.000Z</time>
      </trkpt>
      <trkpt lat="43.3246" lon="2.64323">
        <ele>118</ele>
        <time>2020-10-12T13:14:55.000Z</time>
      </trkpt>
      <trkpt lat="43.3247" lon="2.64311">
        <ele>118</ele>
        <time>2020-10-12T13:14:59.000Z</time>
      </trkpt>
      <trkpt lat="43.32479" lon="2.64299">
        <ele>118</ele>
        <time>2020-10-12T13:15:03.000Z</time>
      </trkpt>
      <trkpt lat="43.32485" lon="2.64287">
        <ele>118</ele>
        <time>2020-10-12T13:15:06.000Z</time>
      </trkpt>
      <trkpt lat="43.32486" lon="2.64283">
        <ele>118</ele>
        <time>2020-10-12T13:15:07.000Z</time>
      </trkpt>
      <trkpt lat="43.32488" lon="2.64274">
        <ele>118</ele>
        <time>2020-10-12T13:15:09.000Z</time>
      </trkpt>
      <trkpt lat="43.32488" lon="2.64259">
        <ele>118</ele>
        <time>2020-10-12T13:15:12.000Z</time>
      </trkpt>
      <trkpt lat="43.32488" lon="2.6425">
        <ele>118</ele>
        <time>2020-10-12T13:15:14.000Z</time>
      </trkpt>
      <trkpt lat="43.32485" lon="2.64227">
        <ele>118</ele>
        <time>2020-10-12T13:15:19.000Z</time>
      </trkpt>
      <trkpt lat="43.32482" lon="2.64213">
        <ele>118</ele>
        <time>2020-10-12T13:15:22.000Z</time>
      </trkpt>
      <trkpt lat="43.3247" lon="2.64184">
        <ele>118</ele>
        <time>2020-10-12T13:15:30.000Z</time>
      </trkpt>
      <trkpt lat="43.32462" lon="2.6417">
        <ele>118</ele>
        <time>2020-10-12T13:15:34.000Z</time>
      </trkpt>
      <trkpt lat="43.32457" lon="2.64164">
        <ele>118</ele>
        <time>2020-10-12T13:15:36.000Z</time>
      </trkpt>
      <trkpt lat="43.3245" lon="2.64153">
        <ele>118</ele>
        <time>2020-10-12T13:15:39.000Z</time>
      </trkpt>
      <trkpt lat="43.32437" lon="2.64135">
        <ele>118</ele>
        <time>2020-10-12T13:15:46.000Z</time>
      </trkpt>
      <trkpt lat="43.32431" lon="2.64125">
        <ele>118</ele>
        <time>2020-10-12T13:15:51.000Z</time>
      </trkpt>
      <trkpt lat="43.32423" lon="2.64109">
        <ele>118</ele>
        <time>2020-10-12T13:16:01.000Z</time>
      </trkpt>
      <trkpt lat="43.32428" lon="2.641">
        <ele>118</ele>
        <time>2020-10-12T13:16:06.000Z</time>
      </trkpt>
      <trkpt lat="43.3243" lon="2.64095">
        <ele>119</ele>
        <time>2020-10-12T13:16:08.000Z</time>
      </trkpt>
      <trkpt lat="43.32431" lon="2.64085">
        <ele>119</ele>
        <time>2020-10-12T13:16:11.000Z</time>
      </trkpt>
      <trkpt lat="43.32431" lon="2.64075">
        <ele>119</ele>
        <time>2020-10-12T13:16:13.000Z</time>
      </trkpt>
      <trkpt lat="43.32434" lon="2.64059">
        <ele>119</ele>
        <time>2020-10-12T13:16:19.000Z</time>
      </trkpt>
      <trkpt lat="43.32443" lon="2.64036">
        <ele>119</ele>
        <time>2020-10-12T13:16:28.000Z</time>
      </trkpt>
      <trkpt lat="43.32448" lon="2.64029">
        <ele>120</ele>
        <time>2020-10-12T13:16:34.000Z</time>
      </trkpt>
      <trkpt lat="43.32451" lon="2.64027">
        <ele>120</ele>
        <time>2020-10-12T13:16:36.000Z</time>
      </trkpt>
      <trkpt lat="43.32455" lon="2.64023">
        <ele>120</ele>
        <time>2020-10-12T13:16:38.000Z</time>
      </trkpt>
      <trkpt lat="43.32459" lon="2.64015">
        <ele>120</ele>
        <time>2020-10-12T13:16:42.000Z</time>
      </trkpt>
      <trkpt lat="43.32462" lon="2.64007">
        <ele>121</ele>
        <time>2020-10-12T13:16:45.000Z</time>
      </trkpt>
      <trkpt lat="43.32465" lon="2.63992">
        <ele>121</ele>
        <time>2020-10-12T13:16:51.000Z</time>
      </trkpt>
      <trkpt lat="43.32472" lon="2.63977">
        <ele>121</ele>
        <time>2020-10-12T13:16:58.000Z</time>
      </trkpt>
      <trkpt lat="43.32479" lon="2.63961">
        <ele>122</ele>
        <time>2020-10-12T13:17:05.000Z</time>
      </trkpt>
      <trkpt lat="43.32485" lon="2.63943">
        <ele>123</ele>
        <time>2020-10-12T13:17:13.000Z</time>
      </trkpt>
      <trkpt lat="43.32488" lon="2.63932">
        <ele>123</ele>
        <time>2020-10-12T13:17:19.000Z</time>
      </trkpt>
      <trkpt lat="43.32488" lon="2.63932">
        <ele>123</ele>
        <time>2020-10-12T13:17:21.000Z</time>
      </trkpt>
      <trkpt lat="43.32485" lon="2.63929">
        <ele>124</ele>
        <time>2020-10-12T13:17:26.000Z</time>
      </trkpt>
      <trkpt lat="43.32481" lon="2.63925">
        <ele>124</ele>
        <time>2020-10-12T13:17:32.000Z</time>
      </trkpt>
      <trkpt lat="43.32465" lon="2.63915">
        <ele>126</ele>
        <time>2020-10-12T13:17:54.000Z</time>
      </trkpt>
      <trkpt lat="43.32461" lon="2.63912">
        <ele>127</ele>
        <time>2020-10-12T13:18:01.000Z</time>
      </trkpt>
      <trkpt lat="43.32452" lon="2.63912">
        <ele>128</ele>
        <time>2020-10-12T13:18:11.000Z</time>
      </trkpt>
      <trkpt lat="43.32451" lon="2.63908">
        <ele>128</ele>
        <time>2020-10-12T13:18:17.000Z</time>
      </trkpt>
      <trkpt lat="43.32454" lon="2.63904">
        <ele>129</ele>
        <time>2020-10-12T13:18:24.000Z</time>
      </trkpt>
      <trkpt lat="43.32464" lon="2.63905">
        <ele>129</ele>
        <time>2020-10-12T13:18:29.000Z</time>
      </trkpt>
      <trkpt lat="43.32475" lon="2.63908">
        <ele>130</ele>
        <time>2020-10-12T13:18:32.000Z</time>
      </trkpt>
      <trkpt lat="43.32479" lon="2.63906">
        <ele>130</ele>
        <time>2020-10-12T13:18:33.000Z</time>
      </trkpt>
      <trkpt lat="43.32485" lon="2.63893">
        <ele>130</ele>
        <time>2020-10-12T13:18:37.000Z</time>
      </trkpt>
      <trkpt lat="43.32494" lon="2.63865">
        <ele>131</ele>
        <time>2020-10-12T13:18:45.000Z</time>
      </trkpt>
      <trkpt lat="43.32498" lon="2.63856">
        <ele>131</ele>
        <time>2020-10-12T13:18:48.000Z</time>
      </trkpt>
      <trkpt lat="43.32503" lon="2.63846">
        <ele>131</ele>
        <time>2020-10-12T13:18:53.000Z</time>
      </trkpt>
      <trkpt lat="43.32519" lon="2.63818">
        <ele>132</ele>
        <time>2020-10-12T13:19:05.000Z</time>
      </trkpt>
      <trkpt lat="43.32526" lon="2.63805">
        <ele>133</ele>
        <time>2020-10-12T13:19:10.000Z</time>
      </trkpt>
      <trkpt lat="43.32527" lon="2.63801">
        <ele>133</ele>
        <time>2020-10-12T13:19:12.000Z</time>
      </trkpt>
      <trkpt lat="43.32526" lon="2.63796">
        <ele>133</ele>
        <time>2020-10-12T13:19:14.000Z</time>
      </trkpt>
      <trkpt lat="43.32522" lon="2.63796">
        <ele>133</ele>
        <time>2020-10-12T13:19:16.000Z</time>
      </trkpt>
      <trkpt lat="43.32508" lon="2.63796">
        <ele>134</ele>
        <time>2020-10-12T13:19:24.000Z</time>
      </trkpt>
      <trkpt lat="43.32491" lon="2.638">
        <ele>135</ele>
        <time>2020-10-12T13:19:35.000Z</time>
      </trkpt>
      <trkpt lat="43.32482" lon="2.638">
        <ele>135</ele>
        <time>2020-10-12T13:19:41.000Z</time>
      </trkpt>
      <trkpt lat="43.32476" lon="2.63803">
        <ele>136</ele>
        <time>2020-10-12T13:19:45.000Z</time>
      </trkpt>
      <trkpt lat="43.32472" lon="2.63808">
        <ele>137</ele>
        <time>2020-10-12T13:19:56.000Z</time>
      </trkpt>
      <trkpt lat="43.3247" lon="2.63808">
        <ele>137</ele>
        <time>2020-10-12T13:19:59.000Z</time>
      </trkpt>
      <trkpt lat="43.32468" lon="2.63803">
        <ele>138</ele>
        <time>2020-10-12T13:20:07.000Z</time>
      </trkpt>
      <trkpt lat="43.32467" lon="2.63802">
        <ele>141</ele>
        <time>2020-10-12T13:20:40.000Z</time>
      </trkpt>
      <trkpt lat="43.32461" lon="2.63805">
        <ele>142</ele>
        <time>2020-10-12T13:20:46.000Z</time>
      </trkpt>
      <trkpt lat="43.32454" lon="2.63807">
        <ele>142</ele>
        <time>2020-10-12T13:20:54.000Z</time>
      </trkpt>
      <trkpt lat="43.32454" lon="2.63807">
        <ele>142</ele>
        <time>2020-10-12T13:20:55.000Z</time>
      </trkpt>
      <trkpt lat="43.32447" lon="2.63808">
        <ele>143</ele>
        <time>2020-10-12T13:21:05.000Z</time>
      </trkpt>
      <trkpt lat="43.32445" lon="2.63809">
        <ele>143</ele>
        <time>2020-10-12T13:21:08.000Z</time>
      </trkpt>
      <trkpt lat="43.32442" lon="2.63813">
        <ele>144</ele>
        <time>2020-10-12T13:21:20.000Z</time>
      </trkpt>
      <trkpt lat="43.32441" lon="2.63816">
        <ele>144</ele>
        <time>2020-10-12T13:21:24.000Z</time>
      </trkpt>
      <trkpt lat="43.32439" lon="2.63817">
        <ele>145</ele>
        <time>2020-10-12T13:21:30.000Z</time>
      </trkpt>
      <trkpt lat="43.32436" lon="2.63817">
        <ele>145</ele>
        <time>2020-10-12T13:21:44.000Z</time>
      </trkpt>
      <trkpt lat="43.32435" lon="2.63814">
        <ele>148</ele>
        <time>2020-10-12T13:22:26.000Z</time>
      </trkpt>
      <trkpt lat="43.32432" lon="2.63815">
        <ele>148</ele>
        <time>2020-10-12T13:22:35.000Z</time>
      </trkpt>
      <trkpt lat="43.3243" lon="2.63816">
        <ele>149</ele>
        <time>2020-10-12T13:22:43.000Z</time>
      </trkpt>
      <trkpt lat="43.32426" lon="2.63818">
        <ele>149</ele>
        <time>2020-10-12T13:22:53.000Z</time>
      </trkpt>
      <trkpt lat="43.32421" lon="2.63817">
        <ele>150</ele>
        <time>2020-10-12T13:22:57.000Z</time>
      </trkpt>
      <trkpt lat="43.32416" lon="2.63819">
        <ele>150</ele>
        <time>2020-10-12T13:23:04.000Z</time>
      </trkpt>
      <trkpt lat="43.32414" lon="2.63815">
        <ele>153</ele>
        <time>2020-10-12T13:23:53.000Z</time>
      </trkpt>
      <trkpt lat="43.32401" lon="2.63807">
        <ele>154</ele>
        <time>2020-10-12T13:24:34.000Z</time>
      </trkpt>
      <trkpt lat="43.32391" lon="2.638">
        <ele>155</ele>
        <time>2020-10-12T13:24:38.000Z</time>
      </trkpt>
      <trkpt lat="43.32386" lon="2.63797">
        <ele>155</ele>
        <time>2020-10-12T13:24:40.000Z</time>
      </trkpt>
      <trkpt lat="43.32342" lon="2.63796">
        <ele>155</ele>
        <time>2020-10-12T13:24:54.000Z</time>
      </trkpt>
      <trkpt lat="43.32332" lon="2.63793">
        <ele>155</ele>
        <time>2020-10-12T13:24:57.000Z</time>
      </trkpt>
      <trkpt lat="43.32315" lon="2.63782">
        <ele>156</ele>
        <time>2020-10-12T13:25:02.000Z</time>
      </trkpt>
      <trkpt lat="43.32295" lon="2.63769">
        <ele>156</ele>
        <time>2020-10-12T13:25:08.000Z</time>
      </trkpt>
      <trkpt lat="43.32285" lon="2.6376">
        <ele>156</ele>
        <time>2020-10-12T13:25:11.000Z</time>
      </trkpt>
      <trkpt lat="43.32275" lon="2.6375">
        <ele>156</ele>
        <time>2020-10-12T13:25:14.000Z</time>
      </trkpt>
      <trkpt lat="43.32247" lon="2.63733">
        <ele>156</ele>
        <time>2020-10-12T13:25:21.000Z</time>
      </trkpt>
      <trkpt lat="43.32228" lon="2.63725">
        <ele>155</ele>
        <time>2020-10-12T13:25:25.000Z</time>
      </trkpt>
      <trkpt lat="43.32213" lon="2.63724">
        <ele>155</ele>
        <time>2020-10-12T13:25:28.000Z</time>
      </trkpt>
      <trkpt lat="43.32206" lon="2.63725">
        <ele>155</ele>
        <time>2020-10-12T13:25:30.000Z</time>
      </trkpt>
      <trkpt lat="43.32194" lon="2.6372">
        <ele>155</ele>
        <time>2020-10-12T13:25:33.000Z</time>
      </trkpt>
      <trkpt lat="43.32183" lon="2.63714">
        <ele>155</ele>
        <time>2020-10-12T13:25:35.000Z</time>
      </trkpt>
      <trkpt lat="43.32169" lon="2.63703">
        <ele>155</ele>
        <time>2020-10-12T13:25:38.000Z</time>
      </trkpt>
      <trkpt lat="43.3216" lon="2.63694">
        <ele>155</ele>
        <time>2020-10-12T13:25:40.000Z</time>
      </trkpt>
      <trkpt lat="43.32151" lon="2.63687">
        <ele>155</ele>
        <time>2020-10-12T13:25:42.000Z</time>
      </trkpt>
      <trkpt lat="43.32146" lon="2.63685">
        <ele>155</ele>
        <time>2020-10-12T13:25:43.000Z</time>
      </trkpt>
      <trkpt lat="43.3212" lon="2.63682">
        <ele>154</ele>
        <time>2020-10-12T13:25:48.000Z</time>
      </trkpt>
      <trkpt lat="43.32101" lon="2.63683">
        <ele>154</ele>
        <time>2020-10-12T13:25:52.000Z</time>
      </trkpt>
      <trkpt lat="43.32083" lon="2.63679">
        <ele>154</ele>
        <time>2020-10-12T13:25:56.000Z</time>
      </trkpt>
      <trkpt lat="43.32068" lon="2.63674">
        <ele>154</ele>
        <time>2020-10-12T13:25:59.000Z</time>
      </trkpt>
      <trkpt lat="43.32058" lon="2.63673">
        <ele>153</ele>
        <time>2020-10-12T13:26:01.000Z</time>
      </trkpt>
      <trkpt lat="43.32049" lon="2.63675">
        <ele>153</ele>
        <time>2020-10-12T13:26:03.000Z</time>
      </trkpt>
      <trkpt lat="43.32037" lon="2.6368">
        <ele>153</ele>
        <time>2020-10-12T13:26:06.000Z</time>
      </trkpt>
      <trkpt lat="43.32023" lon="2.63677">
        <ele>153</ele>
        <time>2020-10-12T13:26:09.000Z</time>
      </trkpt>
      <trkpt lat="43.32009" lon="2.63667">
        <ele>152</ele>
        <time>2020-10-12T13:26:12.000Z</time>
      </trkpt>
      <trkpt lat="43.32" lon="2.63663">
        <ele>152</ele>
        <time>2020-10-12T13:26:14.000Z</time>
      </trkpt>
      <trkpt lat="43.31995" lon="2.63663">
        <ele>152</ele>
        <time>2020-10-12T13:26:15.000Z</time>
      </trkpt>
      <trkpt lat="43.31985" lon="2.6367">
        <ele>152</ele>
        <time>2020-10-12T13:26:17.000Z</time>
      </trkpt>
      <trkpt lat="43.3196" lon="2.63684">
        <ele>151</ele>
        <time>2020-10-12T13:26:21.000Z</time>
      </trkpt>
      <trkpt lat="43.31942" lon="2.637">
        <ele>151</ele>
        <time>2020-10-12T13:26:24.000Z</time>
      </trkpt>
      <trkpt lat="43.31933" lon="2.63712">
        <ele>151</ele>
        <time>2020-10-12T13:26:26.000Z</time>
      </trkpt>
      <trkpt lat="43.31925" lon="2.63724">
        <ele>150</ele>
        <time>2020-10-12T13:26:28.000Z</time>
      </trkpt>
      <trkpt lat="43.31921" lon="2.63732">
        <ele>150</ele>
        <time>2020-10-12T13:26:29.000Z</time>
      </trkpt>
      <trkpt lat="43.31914" lon="2.63746">
        <ele>150</ele>
        <time>2020-10-12T13:26:31.000Z</time>
      </trkpt>
      <trkpt lat="43.31905" lon="2.63769">
        <ele>149</ele>
        <time>2020-10-12T13:26:34.000Z</time>
      </trkpt>
      <trkpt lat="43.31902" lon="2.63777">
        <ele>149</ele>
        <time>2020-10-12T13:26:35.000Z</time>
      </trkpt>
      <trkpt lat="43.31894" lon="2.6379">
        <ele>149</ele>
        <time>2020-10-12T13:26:37.000Z</time>
      </trkpt>
      <trkpt lat="43.31889" lon="2.63796">
        <ele>148</ele>
        <time>2020-10-12T13:26:38.000Z</time>
      </trkpt>
      <trkpt lat="43.31878" lon="2.63806">
        <ele>148</ele>
        <time>2020-10-12T13:26:40.000Z</time>
      </trkpt>
      <trkpt lat="43.31872" lon="2.6381">
        <ele>148</ele>
        <time>2020-10-12T13:26:41.000Z</time>
      </trkpt>
      <trkpt lat="43.31852" lon="2.63822">
        <ele>147</ele>
        <time>2020-10-12T13:26:44.000Z</time>
      </trkpt>
      <trkpt lat="43.31845" lon="2.63825">
        <ele>147</ele>
        <time>2020-10-12T13:26:45.000Z</time>
      </trkpt>
      <trkpt lat="43.31839" lon="2.63827">
        <ele>147</ele>
        <time>2020-10-12T13:26:46.000Z</time>
      </trkpt>
      <trkpt lat="43.31832" lon="2.63828">
        <ele>147</ele>
        <time>2020-10-12T13:26:47.000Z</time>
      </trkpt>
      <trkpt lat="43.31827" lon="2.63826">
        <ele>147</ele>
        <time>2020-10-12T13:26:48.000Z</time>
      </trkpt>
      <trkpt lat="43.31819" lon="2.63817">
        <ele>146</ele>
        <time>2020-10-12T13:26:50.000Z</time>
      </trkpt>
      <trkpt lat="43.31817" lon="2.63806">
        <ele>146</ele>
        <time>2020-10-12T13:26:52.000Z</time>
      </trkpt>
      <trkpt lat="43.31816" lon="2.63764">
        <ele>145</ele>
        <time>2020-10-12T13:26:59.000Z</time>
      </trkpt>
      <trkpt lat="43.31815" lon="2.63742">
        <ele>144</ele>
        <time>2020-10-12T13:27:03.000Z</time>
      </trkpt>
      <trkpt lat="43.31813" lon="2.63726">
        <ele>144</ele>
        <time>2020-10-12T13:27:06.000Z</time>
      </trkpt>
      <trkpt lat="43.31808" lon="2.63718">
        <ele>144</ele>
        <time>2020-10-12T13:27:08.000Z</time>
      </trkpt>
      <trkpt lat="43.31793" lon="2.63715">
        <ele>143</ele>
        <time>2020-10-12T13:27:11.000Z</time>
      </trkpt>
      <trkpt lat="43.31757" lon="2.6372">
        <ele>142</ele>
        <time>2020-10-12T13:27:17.000Z</time>
      </trkpt>
      <trkpt lat="43.31742" lon="2.63723">
        <ele>142</ele>
        <time>2020-10-12T13:27:20.000Z</time>
      </trkpt>
      <trkpt lat="43.31728" lon="2.6373">
        <ele>141</ele>
        <time>2020-10-12T13:27:23.000Z</time>
      </trkpt>
      <trkpt lat="43.31715" lon="2.63742">
        <ele>141</ele>
        <time>2020-10-12T13:27:26.000Z</time>
      </trkpt>
      <trkpt lat="43.3171" lon="2.63745">
        <ele>140</ele>
        <time>2020-10-12T13:27:27.000Z</time>
      </trkpt>
      <trkpt lat="43.31699" lon="2.63749">
        <ele>140</ele>
        <time>2020-10-12T13:27:29.000Z</time>
      </trkpt>
      <trkpt lat="43.31682" lon="2.63749">
        <ele>140</ele>
        <time>2020-10-12T13:27:32.000Z</time>
      </trkpt>
      <trkpt lat="43.31662" lon="2.63744">
        <ele>139</ele>
        <time>2020-10-12T13:27:36.000Z</time>
      </trkpt>
      <trkpt lat="43.31653" lon="2.6374">
        <ele>138</ele>
        <time>2020-10-12T13:27:38.000Z</time>
      </trkpt>
      <trkpt lat="43.31632" lon="2.63735">
        <ele>138</ele>
        <time>2020-10-12T13:27:43.000Z</time>
      </trkpt>
      <trkpt lat="43.31629" lon="2.63737">
        <ele>137</ele>
        <time>2020-10-12T13:27:44.000Z</time>
      </trkpt>
      <trkpt lat="43.31625" lon="2.63743">
        <ele>137</ele>
        <time>2020-10-12T13:27:46.000Z</time>
      </trkpt>
      <trkpt lat="43.31617" lon="2.63752">
        <ele>136</ele>
        <time>2020-10-12T13:27:49.000Z</time>
      </trkpt>
      <trkpt lat="43.31613" lon="2.63754">
        <ele>136</ele>
        <time>2020-10-12T13:27:50.000Z</time>
      </trkpt>
      <trkpt lat="43.31608" lon="2.63752">
        <ele>136</ele>
        <time>2020-10-12T13:27:51.000Z</time>
      </trkpt>
      <trkpt lat="43.31582" lon="2.63755">
        <ele>135</ele>
        <time>2020-10-12T13:27:57.000Z</time>
      </trkpt>
      <trkpt lat="43.31573" lon="2.63753">
        <ele>134</ele>
        <time>2020-10-12T13:28:00.000Z</time>
      </trkpt>
      <trkpt lat="43.31567" lon="2.63749">
        <ele>134</ele>
        <time>2020-10-12T13:28:02.000Z</time>
      </trkpt>
      <trkpt lat="43.31563" lon="2.63748">
        <ele>134</ele>
        <time>2020-10-12T13:28:03.000Z</time>
      </trkpt>
      <trkpt lat="43.31558" lon="2.63747">
        <ele>133</ele>
        <time>2020-10-12T13:28:05.000Z</time>
      </trkpt>
      <trkpt lat="43.31555" lon="2.63743">
        <ele>133</ele>
        <time>2020-10-12T13:28:07.000Z</time>
      </trkpt>
      <trkpt lat="43.31554" lon="2.63741">
        <ele>133</ele>
        <time>2020-10-12T13:28:08.000Z</time>
      </trkpt>
      <trkpt lat="43.31554" lon="2.63738">
        <ele>133</ele>
        <time>2020-10-12T13:28:09.000Z</time>
      </trkpt>
      <trkpt lat="43.31554" lon="2.63721">
        <ele>132</ele>
        <time>2020-10-12T13:28:14.000Z</time>
      </trkpt>
      <trkpt lat="43.31548" lon="2.63705">
        <ele>131</ele>
        <time>2020-10-12T13:28:18.000Z</time>
      </trkpt>
      <trkpt lat="43.31538" lon="2.63696">
        <ele>131</ele>
        <time>2020-10-12T13:28:21.000Z</time>
      </trkpt>
      <trkpt lat="43.31538" lon="2.63693">
        <ele>130</ele>
        <time>2020-10-12T13:28:22.000Z</time>
      </trkpt>
      <trkpt lat="43.31536" lon="2.63683">
        <ele>130</ele>
        <time>2020-10-12T13:28:25.000Z</time>
      </trkpt>
      <trkpt lat="43.31537" lon="2.63669">
        <ele>130</ele>
        <time>2020-10-12T13:28:28.000Z</time>
      </trkpt>
      <trkpt lat="43.31538" lon="2.6366">
        <ele>129</ele>
        <time>2020-10-12T13:28:30.000Z</time>
      </trkpt>
      <trkpt lat="43.31538" lon="2.63647">
        <ele>129</ele>
        <time>2020-10-12T13:28:35.000Z</time>
      </trkpt>
      <trkpt lat="43.3154" lon="2.63644">
        <ele>128</ele>
        <time>2020-10-12T13:28:41.000Z</time>
      </trkpt>
      <trkpt lat="43.31534" lon="2.63628">
        <ele>127</ele>
        <time>2020-10-12T13:28:47.000Z</time>
      </trkpt>
      <trkpt lat="43.31534" lon="2.63619">
        <ele>127</ele>
        <time>2020-10-12T13:28:49.000Z</time>
      </trkpt>
      <trkpt lat="43.31534" lon="2.63615">
        <ele>127</ele>
        <time>2020-10-12T13:28:50.000Z</time>
      </trkpt>
      <trkpt lat="43.31536" lon="2.63611">
        <ele>126</ele>
        <time>2020-10-12T13:28:51.000Z</time>
      </trkpt>
      <trkpt lat="43.31544" lon="2.63598">
        <ele>126</ele>
        <time>2020-10-12T13:28:54.000Z</time>
      </trkpt>
      <trkpt lat="43.31545" lon="2.63587">
        <ele>125</ele>
        <time>2020-10-12T13:28:58.000Z</time>
      </trkpt>
      <trkpt lat="43.3154" lon="2.63581">
        <ele>125</ele>
        <time>2020-10-12T13:29:00.000Z</time>
      </trkpt>
      <trkpt lat="43.31537" lon="2.6358">
        <ele>125</ele>
        <time>2020-10-12T13:29:01.000Z</time>
      </trkpt>
      <trkpt lat="43.31535" lon="2.63576">
        <ele>125</ele>
        <time>2020-10-12T13:29:02.000Z</time>
      </trkpt>
      <trkpt lat="43.31527" lon="2.63566">
        <ele>124</ele>
        <time>2020-10-12T13:29:05.000Z</time>
      </trkpt>
      <trkpt lat="43.31526" lon="2.63564">
        <ele>124</ele>
        <time>2020-10-12T13:29:06.000Z</time>
      </trkpt>
      <trkpt lat="43.31524" lon="2.63557">
        <ele>124</ele>
        <time>2020-10-12T13:29:08.000Z</time>
      </trkpt>
      <trkpt lat="43.31517" lon="2.63539">
        <ele>123</ele>
        <time>2020-10-12T13:29:12.000Z</time>
      </trkpt>
      <trkpt lat="43.31514" lon="2.63531">
        <ele>123</ele>
        <time>2020-10-12T13:29:13.000Z</time>
      </trkpt>
      <trkpt lat="43.31499" lon="2.63506">
        <ele>122</ele>
        <time>2020-10-12T13:29:17.000Z</time>
      </trkpt>
      <trkpt lat="43.31493" lon="2.63499">
        <ele>122</ele>
        <time>2020-10-12T13:29:18.000Z</time>
      </trkpt>
      <trkpt lat="43.3147" lon="2.63479">
        <ele>121</ele>
        <time>2020-10-12T13:29:21.000Z</time>
      </trkpt>
      <trkpt lat="43.31466" lon="2.63473">
        <ele>121</ele>
        <time>2020-10-12T13:29:23.000Z</time>
      </trkpt>
      <trkpt lat="43.31459" lon="2.63464">
        <ele>120</ele>
        <time>2020-10-12T13:29:25.000Z</time>
      </trkpt>
      <trkpt lat="43.31452" lon="2.63465">
        <ele>120</ele>
        <time>2020-10-12T13:29:27.000Z</time>
      </trkpt>
      <trkpt lat="43.31448" lon="2.63466">
        <ele>120</ele>
        <time>2020-10-12T13:29:28.000Z</time>
      </trkpt>
      <trkpt lat="43.31438" lon="2.63491">
        <ele>119</ele>
        <time>2020-10-12T13:29:32.000Z</time>
      </trkpt>
      <trkpt lat="43.31428" lon="2.63501">
        <ele>118</ele>
        <time>2020-10-12T13:29:34.000Z</time>
      </trkpt>
      <trkpt lat="43.31422" lon="2.63503">
        <ele>118</ele>
        <time>2020-10-12T13:29:35.000Z</time>
      </trkpt>
      <trkpt lat="43.31405" lon="2.63505">
        <ele>117</ele>
        <time>2020-10-12T13:29:38.000Z</time>
      </trkpt>
      <trkpt lat="43.31392" lon="2.63509">
        <ele>117</ele>
        <time>2020-10-12T13:29:40.000Z</time>
      </trkpt>
      <trkpt lat="43.31376" lon="2.63519">
        <ele>116</ele>
        <time>2020-10-12T13:29:43.000Z</time>
      </trkpt>
      <trkpt lat="43.313" lon="2.63586">
        <ele>113</ele>
        <time>2020-10-12T13:29:57.000Z</time>
      </trkpt>
      <trkpt lat="43.31289" lon="2.63596">
        <ele>113</ele>
        <time>2020-10-12T13:29:59.000Z</time>
      </trkpt>
      <trkpt lat="43.31273" lon="2.63611">
        <ele>112</ele>
        <time>2020-10-12T13:30:02.000Z</time>
      </trkpt>
      <trkpt lat="43.31268" lon="2.63617">
        <ele>112</ele>
        <time>2020-10-12T13:30:03.000Z</time>
      </trkpt>
      <trkpt lat="43.31256" lon="2.63637">
        <ele>111</ele>
        <time>2020-10-12T13:30:06.000Z</time>
      </trkpt>
      <trkpt lat="43.31242" lon="2.63657">
        <ele>111</ele>
        <time>2020-10-12T13:30:09.000Z</time>
      </trkpt>
      <trkpt lat="43.31227" lon="2.63674">
        <ele>110</ele>
        <time>2020-10-12T13:30:12.000Z</time>
      </trkpt>
      <trkpt lat="43.31222" lon="2.63678">
        <ele>110</ele>
        <time>2020-10-12T13:30:13.000Z</time>
      </trkpt>
      <trkpt lat="43.31197" lon="2.63681">
        <ele>109</ele>
        <time>2020-10-12T13:30:17.000Z</time>
      </trkpt>
      <trkpt lat="43.31151" lon="2.63692">
        <ele>107</ele>
        <time>2020-10-12T13:30:25.000Z</time>
      </trkpt>
      <trkpt lat="43.31141" lon="2.63697">
        <ele>107</ele>
        <time>2020-10-12T13:30:27.000Z</time>
      </trkpt>
      <trkpt lat="43.31131" lon="2.63699">
        <ele>106</ele>
        <time>2020-10-12T13:30:29.000Z</time>
      </trkpt>
      <trkpt lat="43.31126" lon="2.637">
        <ele>106</ele>
        <time>2020-10-12T13:30:30.000Z</time>
      </trkpt>
      <trkpt lat="43.31109" lon="2.63702">
        <ele>106</ele>
        <time>2020-10-12T13:30:33.000Z</time>
      </trkpt>
      <trkpt lat="43.31016" lon="2.63701">
        <ele>102</ele>
        <time>2020-10-12T13:30:51.000Z</time>
      </trkpt>
      <trkpt lat="43.31002" lon="2.63699">
        <ele>102</ele>
        <time>2020-10-12T13:30:53.000Z</time>
      </trkpt>
      <trkpt lat="43.30975" lon="2.6369">
        <ele>101</ele>
        <time>2020-10-12T13:30:57.000Z</time>
      </trkpt>
      <trkpt lat="43.3097" lon="2.6369">
        <ele>101</ele>
        <time>2020-10-12T13:30:58.000Z</time>
      </trkpt>
      <trkpt lat="43.30927" lon="2.63687">
        <ele>100</ele>
        <time>2020-10-12T13:31:05.000Z</time>
      </trkpt>
      <trkpt lat="43.30913" lon="2.63685">
        <ele>99</ele>
        <time>2020-10-12T13:31:07.000Z</time>
      </trkpt>
      <trkpt lat="43.30899" lon="2.63684">
        <ele>99</ele>
        <time>2020-10-12T13:31:09.000Z</time>
      </trkpt>
      <trkpt lat="43.30871" lon="2.63683">
        <ele>98</ele>
        <time>2020-10-12T13:31:13.000Z</time>
      </trkpt>
      <trkpt lat="43.3084" lon="2.63685">
        <ele>97</ele>
        <time>2020-10-12T13:31:18.000Z</time>
      </trkpt>
      <trkpt lat="43.30821" lon="2.63682">
        <ele>97</ele>
        <time>2020-10-12T13:31:21.000Z</time>
      </trkpt>
      <trkpt lat="43.3081" lon="2.63679">
        <ele>97</ele>
        <time>2020-10-12T13:31:23.000Z</time>
      </trkpt>
      <trkpt lat="43.30786" lon="2.63671">
        <ele>96</ele>
        <time>2020-10-12T13:31:27.000Z</time>
      </trkpt>
      <trkpt lat="43.30774" lon="2.63667">
        <ele>96</ele>
        <time>2020-10-12T13:31:29.000Z</time>
      </trkpt>
      <trkpt lat="43.30761" lon="2.63664">
        <ele>95</ele>
        <time>2020-10-12T13:31:31.000Z</time>
      </trkpt>
      <trkpt lat="43.30749" lon="2.63659">
        <ele>95</ele>
        <time>2020-10-12T13:31:34.000Z</time>
      </trkpt>
      <trkpt lat="43.30726" lon="2.63646">
        <ele>94</ele>
        <time>2020-10-12T13:31:37.000Z</time>
      </trkpt>
      <trkpt lat="43.30703" lon="2.63636">
        <ele>94</ele>
        <time>2020-10-12T13:31:41.000Z</time>
      </trkpt>
      <trkpt lat="43.30692" lon="2.63634">
        <ele>93</ele>
        <time>2020-10-12T13:31:43.000Z</time>
      </trkpt>
      <trkpt lat="43.30686" lon="2.63635">
        <ele>93</ele>
        <time>2020-10-12T13:31:44.000Z</time>
      </trkpt>
      <trkpt lat="43.30674" lon="2.63637">
        <ele>93</ele>
        <time>2020-10-12T13:31:46.000Z</time>
      </trkpt>
      <trkpt lat="43.30657" lon="2.63648">
        <ele>93</ele>
        <time>2020-10-12T13:31:49.000Z</time>
      </trkpt>
      <trkpt lat="43.30643" lon="2.63663">
        <ele>92</ele>
        <time>2020-10-12T13:31:52.000Z</time>
      </trkpt>
      <trkpt lat="43.30638" lon="2.63669">
        <ele>92</ele>
        <time>2020-10-12T13:31:53.000Z</time>
      </trkpt>
      <trkpt lat="43.30621" lon="2.63684">
        <ele>91</ele>
        <time>2020-10-12T13:31:57.000Z</time>
      </trkpt>
      <trkpt lat="43.3061" lon="2.63691">
        <ele>91</ele>
        <time>2020-10-12T13:32:00.000Z</time>
      </trkpt>
      <trkpt lat="43.30593" lon="2.63697">
        <ele>90</ele>
        <time>2020-10-12T13:32:04.000Z</time>
      </trkpt>
      <trkpt lat="43.30563" lon="2.63701">
        <ele>89</ele>
        <time>2020-10-12T13:32:11.000Z</time>
      </trkpt>
      <trkpt lat="43.30546" lon="2.63703">
        <ele>89</ele>
        <time>2020-10-12T13:32:15.000Z</time>
      </trkpt>
      <trkpt lat="43.30541" lon="2.63703">
        <ele>89</ele>
        <time>2020-10-12T13:32:16.000Z</time>
      </trkpt>
      <trkpt lat="43.30525" lon="2.63701">
        <ele>88</ele>
        <time>2020-10-12T13:32:19.000Z</time>
      </trkpt>
      <trkpt lat="43.3052" lon="2.637">
        <ele>88</ele>
        <time>2020-10-12T13:32:21.000Z</time>
      </trkpt>
      <trkpt lat="43.30502" lon="2.63689">
        <ele>88</ele>
        <time>2020-10-12T13:32:27.000Z</time>
      </trkpt>
      <trkpt lat="43.30496" lon="2.63686">
        <ele>88</ele>
        <time>2020-10-12T13:32:29.000Z</time>
      </trkpt>
      <trkpt lat="43.30483" lon="2.6368">
        <ele>87</ele>
        <time>2020-10-12T13:32:34.000Z</time>
      </trkpt>
      <trkpt lat="43.30448" lon="2.63667">
        <ele>86</ele>
        <time>2020-10-12T13:32:43.000Z</time>
      </trkpt>
      <trkpt lat="43.30408" lon="2.63653">
        <ele>86</ele>
        <time>2020-10-12T13:32:54.000Z</time>
      </trkpt>
      <trkpt lat="43.30399" lon="2.6365">
        <ele>86</ele>
        <time>2020-10-12T13:32:57.000Z</time>
      </trkpt>
      <trkpt lat="43.30383" lon="2.63647">
        <ele>85</ele>
        <time>2020-10-12T13:33:02.000Z</time>
      </trkpt>
      <trkpt lat="43.30372" lon="2.63643">
        <ele>85</ele>
        <time>2020-10-12T13:33:05.000Z</time>
      </trkpt>
      <trkpt lat="43.30351" lon="2.63635">
        <ele>85</ele>
        <time>2020-10-12T13:33:11.000Z</time>
      </trkpt>
      <trkpt lat="43.30334" lon="2.63631">
        <ele>85</ele>
        <time>2020-10-12T13:33:16.000Z</time>
      </trkpt>
      <trkpt lat="43.30317" lon="2.6363">
        <ele>84</ele>
        <time>2020-10-12T13:33:21.000Z</time>
      </trkpt>
      <trkpt lat="43.30278" lon="2.63626">
        <ele>84</ele>
        <time>2020-10-12T13:33:32.000Z</time>
      </trkpt>
      <trkpt lat="43.30232" lon="2.63619">
        <ele>84</ele>
        <time>2020-10-12T13:33:44.000Z</time>
      </trkpt>
      <trkpt lat="43.3022" lon="2.63618">
        <ele>84</ele>
        <time>2020-10-12T13:33:47.000Z</time>
      </trkpt>
      <trkpt lat="43.30212" lon="2.63619">
        <ele>84</ele>
        <time>2020-10-12T13:33:49.000Z</time>
      </trkpt>
      <trkpt lat="43.30208" lon="2.63619">
        <ele>84</ele>
        <time>2020-10-12T13:33:50.000Z</time>
      </trkpt>
      <trkpt lat="43.30197" lon="2.63625">
        <ele>84</ele>
        <time>2020-10-12T13:33:53.000Z</time>
      </trkpt>
      <trkpt lat="43.3019" lon="2.6363">
        <ele>84</ele>
        <time>2020-10-12T13:33:55.000Z</time>
      </trkpt>
      <trkpt lat="43.30187" lon="2.63633">
        <ele>84</ele>
        <time>2020-10-12T13:33:56.000Z</time>
      </trkpt>
      <trkpt lat="43.30167" lon="2.63641">
        <ele>84</ele>
        <time>2020-10-12T13:34:01.000Z</time>
      </trkpt>
      <trkpt lat="43.3015" lon="2.6364">
        <ele>84</ele>
        <time>2020-10-12T13:34:05.000Z</time>
      </trkpt>
      <trkpt lat="43.30135" lon="2.63637">
        <ele>84</ele>
        <time>2020-10-12T13:34:09.000Z</time>
      </trkpt>
      <trkpt lat="43.30101" lon="2.63634">
        <ele>83</ele>
        <time>2020-10-12T13:34:18.000Z</time>
      </trkpt>
      <trkpt lat="43.30098" lon="2.63632">
        <ele>83</ele>
        <time>2020-10-12T13:34:19.000Z</time>
      </trkpt>
      <trkpt lat="43.30094" lon="2.63631">
        <ele>83</ele>
        <time>2020-10-12T13:34:20.000Z</time>
      </trkpt>
      <trkpt lat="43.30077" lon="2.63619">
        <ele>83</ele>
        <time>2020-10-12T13:34:25.000Z</time>
      </trkpt>
      <trkpt lat="43.30068" lon="2.63611">
        <ele>83</ele>
        <time>2020-10-12T13:34:28.000Z</time>
      </trkpt>
      <trkpt lat="43.30057" lon="2.63603">
        <ele>83</ele>
        <time>2020-10-12T13:34:31.000Z</time>
      </trkpt>
      <trkpt lat="43.30047" lon="2.63598">
        <ele>83</ele>
        <time>2020-10-12T13:34:34.000Z</time>
      </trkpt>
      <trkpt lat="43.30026" lon="2.63594">
        <ele>83</ele>
        <time>2020-10-12T13:34:39.000Z</time>
      </trkpt>
      <trkpt lat="43.30014" lon="2.63591">
        <ele>83</ele>
        <time>2020-10-12T13:34:42.000Z</time>
      </trkpt>
      <trkpt lat="43.30002" lon="2.63586">
        <ele>83</ele>
        <time>2020-10-12T13:34:45.000Z</time>
      </trkpt>
      <trkpt lat="43.29994" lon="2.63581">
        <ele>83</ele>
        <time>2020-10-12T13:34:47.000Z</time>
      </trkpt>
      <trkpt lat="43.29976" lon="2.63564">
        <ele>83</ele>
        <time>2020-10-12T13:34:52.000Z</time>
      </trkpt>
      <trkpt lat="43.29956" lon="2.63546">
        <ele>83</ele>
        <time>2020-10-12T13:34:58.000Z</time>
      </trkpt>
      <trkpt lat="43.29918" lon="2.63505">
        <ele>83</ele>
        <time>2020-10-12T13:35:09.000Z</time>
      </trkpt>
      <trkpt lat="43.29906" lon="2.63497">
        <ele>83</ele>
        <time>2020-10-12T13:35:12.000Z</time>
      </trkpt>
      <trkpt lat="43.29892" lon="2.63491">
        <ele>83</ele>
        <time>2020-10-12T13:35:15.000Z</time>
      </trkpt>
      <trkpt lat="43.29883" lon="2.63488">
        <ele>83</ele>
        <time>2020-10-12T13:35:17.000Z</time>
      </trkpt>
      <trkpt lat="43.29869" lon="2.63481">
        <ele>83</ele>
        <time>2020-10-12T13:35:20.000Z</time>
      </trkpt>
      <trkpt lat="43.2985" lon="2.63468">
        <ele>83</ele>
        <time>2020-10-12T13:35:25.000Z</time>
      </trkpt>
      <trkpt lat="43.29827" lon="2.6345">
        <ele>83</ele>
        <time>2020-10-12T13:35:31.000Z</time>
      </trkpt>
      <trkpt lat="43.29777" lon="2.63409">
        <ele>83</ele>
        <time>2020-10-12T13:35:44.000Z</time>
      </trkpt>
      <trkpt lat="43.29744" lon="2.63384">
        <ele>83</ele>
        <time>2020-10-12T13:35:52.000Z</time>
      </trkpt>
      <trkpt lat="43.29737" lon="2.63377">
        <ele>83</ele>
        <time>2020-10-12T13:35:54.000Z</time>
      </trkpt>
      <trkpt lat="43.29727" lon="2.63375">
        <ele>83</ele>
        <time>2020-10-12T13:35:57.000Z</time>
      </trkpt>
      <trkpt lat="43.29724" lon="2.63377">
        <ele>83</ele>
        <time>2020-10-12T13:35:58.000Z</time>
      </trkpt>
      <trkpt lat="43.29715" lon="2.63388">
        <ele>83</ele>
        <time>2020-10-12T13:36:01.000Z</time>
      </trkpt>
      <trkpt lat="43.29705" lon="2.63402">
        <ele>83</ele>
        <time>2020-10-12T13:36:04.000Z</time>
      </trkpt>
      <trkpt lat="43.29681" lon="2.63433">
        <ele>83</ele>
        <time>2020-10-12T13:36:10.000Z</time>
      </trkpt>
      <trkpt lat="43.29646" lon="2.63484">
        <ele>83</ele>
        <time>2020-10-12T13:36:19.000Z</time>
      </trkpt>
      <trkpt lat="43.29631" lon="2.63505">
        <ele>83</ele>
        <time>2020-10-12T13:36:23.000Z</time>
      </trkpt>
      <trkpt lat="43.29615" lon="2.63525">
        <ele>83</ele>
        <time>2020-10-12T13:36:27.000Z</time>
      </trkpt>
      <trkpt lat="43.29606" lon="2.63538">
        <ele>83</ele>
        <time>2020-10-12T13:36:29.000Z</time>
      </trkpt>
      <trkpt lat="43.29598" lon="2.63552">
        <ele>83</ele>
        <time>2020-10-12T13:36:31.000Z</time>
      </trkpt>
      <trkpt lat="43.29592" lon="2.63568">
        <ele>83</ele>
        <time>2020-10-12T13:36:33.000Z</time>
      </trkpt>
      <trkpt lat="43.29582" lon="2.63599">
        <ele>83</ele>
        <time>2020-10-12T13:36:37.000Z</time>
      </trkpt>
      <trkpt lat="43.29572" lon="2.63628">
        <ele>83</ele>
        <time>2020-10-12T13:36:41.000Z</time>
      </trkpt>
      <trkpt lat="43.29568" lon="2.63642">
        <ele>83</ele>
        <time>2020-10-12T13:36:43.000Z</time>
      </trkpt>
      <trkpt lat="43.29566" lon="2.6365">
        <ele>83</ele>
        <time>2020-10-12T13:36:44.000Z</time>
      </trkpt>
      <trkpt lat="43.29561" lon="2.63685">
        <ele>83</ele>
        <time>2020-10-12T13:36:49.000Z</time>
      </trkpt>
      <trkpt lat="43.29557" lon="2.63698">
        <ele>83</ele>
        <time>2020-10-12T13:36:51.000Z</time>
      </trkpt>
      <trkpt lat="43.2955" lon="2.63716">
        <ele>82</ele>
        <time>2020-10-12T13:36:54.000Z</time>
      </trkpt>
      <trkpt lat="43.29539" lon="2.63754">
        <ele>82</ele>
        <time>2020-10-12T13:37:00.000Z</time>
      </trkpt>
      <trkpt lat="43.29531" lon="2.63773">
        <ele>82</ele>
        <time>2020-10-12T13:37:03.000Z</time>
      </trkpt>
      <trkpt lat="43.29525" lon="2.63786">
        <ele>82</ele>
        <time>2020-10-12T13:37:05.000Z</time>
      </trkpt>
      <trkpt lat="43.29484" lon="2.63874">
        <ele>81</ele>
        <time>2020-10-12T13:37:20.000Z</time>
      </trkpt>
      <trkpt lat="43.29474" lon="2.63899">
        <ele>81</ele>
        <time>2020-10-12T13:37:25.000Z</time>
      </trkpt>
      <trkpt lat="43.29472" lon="2.639">
        <ele>81</ele>
        <time>2020-10-12T13:37:26.000Z</time>
      </trkpt>
      <trkpt lat="43.29469" lon="2.63899">
        <ele>81</ele>
        <time>2020-10-12T13:37:27.000Z</time>
      </trkpt>
      <trkpt lat="43.29464" lon="2.63893">
        <ele>81</ele>
        <time>2020-10-12T13:37:29.000Z</time>
      </trkpt>
      <trkpt lat="43.29441" lon="2.63847">
        <ele>81</ele>
        <time>2020-10-12T13:37:38.000Z</time>
      </trkpt>
      <trkpt lat="43.29431" lon="2.63825">
        <ele>81</ele>
        <time>2020-10-12T13:37:42.000Z</time>
      </trkpt>
      <trkpt lat="43.29426" lon="2.63813">
        <ele>80</ele>
        <time>2020-10-12T13:37:44.000Z</time>
      </trkpt>
      <trkpt lat="43.29419" lon="2.63785">
        <ele>80</ele>
        <time>2020-10-12T13:37:49.000Z</time>
      </trkpt>
      <trkpt lat="43.29413" lon="2.63744">
        <ele>80</ele>
        <time>2020-10-12T13:37:55.000Z</time>
      </trkpt>
      <trkpt lat="43.29407" lon="2.63716">
        <ele>80</ele>
        <time>2020-10-12T13:38:01.000Z</time>
      </trkpt>
      <trkpt lat="43.29404" lon="2.63706">
        <ele>80</ele>
        <time>2020-10-12T13:38:03.000Z</time>
      </trkpt>
      <trkpt lat="43.29398" lon="2.63692">
        <ele>80</ele>
        <time>2020-10-12T13:38:06.000Z</time>
      </trkpt>
      <trkpt lat="43.29394" lon="2.63678">
        <ele>80</ele>
        <time>2020-10-12T13:38:09.000Z</time>
      </trkpt>
      <trkpt lat="43.29387" lon="2.63616">
        <ele>80</ele>
        <time>2020-10-12T13:38:21.000Z</time>
      </trkpt>
      <trkpt lat="43.29364" lon="2.63525">
        <ele>79</ele>
        <time>2020-10-12T13:38:40.000Z</time>
      </trkpt>
      <trkpt lat="43.29353" lon="2.63491">
        <ele>79</ele>
        <time>2020-10-12T13:38:48.000Z</time>
      </trkpt>
      <trkpt lat="43.29348" lon="2.6347">
        <ele>79</ele>
        <time>2020-10-12T13:38:53.000Z</time>
      </trkpt>
      <trkpt lat="43.29338" lon="2.6344">
        <ele>79</ele>
        <time>2020-10-12T13:39:00.000Z</time>
      </trkpt>
      <trkpt lat="43.29332" lon="2.63429">
        <ele>79</ele>
        <time>2020-10-12T13:39:03.000Z</time>
      </trkpt>
      <trkpt lat="43.29323" lon="2.63421">
        <ele>79</ele>
        <time>2020-10-12T13:39:06.000Z</time>
      </trkpt>
      <trkpt lat="43.29297" lon="2.63404">
        <ele>79</ele>
        <time>2020-10-12T13:39:14.000Z</time>
      </trkpt>
      <trkpt lat="43.29287" lon="2.63401">
        <ele>79</ele>
        <time>2020-10-12T13:39:17.000Z</time>
      </trkpt>
      <trkpt lat="43.29266" lon="2.63404">
        <ele>79</ele>
        <time>2020-10-12T13:39:24.000Z</time>
      </trkpt>
      <trkpt lat="43.29263" lon="2.63406">
        <ele>79</ele>
        <time>2020-10-12T13:39:25.000Z</time>
      </trkpt>
      <trkpt lat="43.29245" lon="2.63415">
        <ele>79</ele>
        <time>2020-10-12T13:39:30.000Z</time>
      </trkpt>
      <trkpt lat="43.29228" lon="2.63425">
        <ele>79</ele>
        <time>2020-10-12T13:39:35.000Z</time>
      </trkpt>
      <trkpt lat="43.29207" lon="2.6344">
        <ele>79</ele>
        <time>2020-10-12T13:39:41.000Z</time>
      </trkpt>
      <trkpt lat="43.29188" lon="2.63461">
        <ele>79</ele>
        <time>2020-10-12T13:39:49.000Z</time>
      </trkpt>
      <trkpt lat="43.29181" lon="2.6347">
        <ele>79</ele>
        <time>2020-10-12T13:39:52.000Z</time>
      </trkpt>
      <trkpt lat="43.29172" lon="2.63478">
        <ele>79</ele>
        <time>2020-10-12T13:39:55.000Z</time>
      </trkpt>
      <trkpt lat="43.29141" lon="2.63501">
        <ele>79</ele>
        <time>2020-10-12T13:40:03.000Z</time>
      </trkpt>
      <trkpt lat="43.29055" lon="2.63575">
        <ele>79</ele>
        <time>2020-10-12T13:40:27.000Z</time>
      </trkpt>
      <trkpt lat="43.29038" lon="2.63592">
        <ele>78</ele>
        <time>2020-10-12T13:40:32.000Z</time>
      </trkpt>
      <trkpt lat="43.29026" lon="2.63608">
        <ele>78</ele>
        <time>2020-10-12T13:40:36.000Z</time>
      </trkpt>
      <trkpt lat="43.29019" lon="2.63618">
        <ele>78</ele>
        <time>2020-10-12T13:40:38.000Z</time>
      </trkpt>
      <trkpt lat="43.29016" lon="2.63623">
        <ele>78</ele>
        <time>2020-10-12T13:40:39.000Z</time>
      </trkpt>
      <trkpt lat="43.29012" lon="2.63644">
        <ele>78</ele>
        <time>2020-10-12T13:40:42.000Z</time>
      </trkpt>
      <trkpt lat="43.2901" lon="2.63673">
        <ele>78</ele>
        <time>2020-10-12T13:40:47.000Z</time>
      </trkpt>
      <trkpt lat="43.29002" lon="2.63687">
        <ele>78</ele>
        <time>2020-10-12T13:40:51.000Z</time>
      </trkpt>
      <trkpt lat="43.2897" lon="2.63728">
        <ele>78</ele>
        <time>2020-10-12T13:41:01.000Z</time>
      </trkpt>
      <trkpt lat="43.28968" lon="2.63732">
        <ele>78</ele>
        <time>2020-10-12T13:41:02.000Z</time>
      </trkpt>
      <trkpt lat="43.28961" lon="2.63747">
        <ele>78</ele>
        <time>2020-10-12T13:41:05.000Z</time>
      </trkpt>
      <trkpt lat="43.28956" lon="2.63765">
        <ele>77</ele>
        <time>2020-10-12T13:41:08.000Z</time>
      </trkpt>
      <trkpt lat="43.28947" lon="2.63788">
        <ele>77</ele>
        <time>2020-10-12T13:41:12.000Z</time>
      </trkpt>
      <trkpt lat="43.28939" lon="2.63807">
        <ele>77</ele>
        <time>2020-10-12T13:41:16.000Z</time>
      </trkpt>
      <trkpt lat="43.28931" lon="2.63823">
        <ele>77</ele>
        <time>2020-10-12T13:41:19.000Z</time>
      </trkpt>
      <trkpt lat="43.28927" lon="2.63835">
        <ele>77</ele>
        <time>2020-10-12T13:41:21.000Z</time>
      </trkpt>
      <trkpt lat="43.28902" lon="2.63907">
        <ele>76</ele>
        <time>2020-10-12T13:41:33.000Z</time>
      </trkpt>
      <trkpt lat="43.28897" lon="2.63924">
        <ele>76</ele>
        <time>2020-10-12T13:41:36.000Z</time>
      </trkpt>
      <trkpt lat="43.28894" lon="2.6394">
        <ele>76</ele>
        <time>2020-10-12T13:41:39.000Z</time>
      </trkpt>
      <trkpt lat="43.2889" lon="2.63966">
        <ele>76</ele>
        <time>2020-10-12T13:41:43.000Z</time>
      </trkpt>
      <trkpt lat="43.28888" lon="2.64042">
        <ele>75</ele>
        <time>2020-10-12T13:41:54.000Z</time>
      </trkpt>
      <trkpt lat="43.28889" lon="2.64057">
        <ele>75</ele>
        <time>2020-10-12T13:41:56.000Z</time>
      </trkpt>
      <trkpt lat="43.2889" lon="2.64087">
        <ele>74</ele>
        <time>2020-10-12T13:42:00.000Z</time>
      </trkpt>
      <trkpt lat="43.28887" lon="2.64149">
        <ele>73</ele>
        <time>2020-10-12T13:42:09.000Z</time>
      </trkpt>
      <trkpt lat="43.28886" lon="2.64154">
        <ele>73</ele>
        <time>2020-10-12T13:42:10.000Z</time>
      </trkpt>
      <trkpt lat="43.28884" lon="2.64157">
        <ele>73</ele>
        <time>2020-10-12T13:42:11.000Z</time>
      </trkpt>
      <trkpt lat="43.28872" lon="2.64162">
        <ele>73</ele>
        <time>2020-10-12T13:42:15.000Z</time>
      </trkpt>
      <trkpt lat="43.28862" lon="2.64171">
        <ele>72</ele>
        <time>2020-10-12T13:42:18.000Z</time>
      </trkpt>
      <trkpt lat="43.28832" lon="2.64186">
        <ele>72</ele>
        <time>2020-10-12T13:42:25.000Z</time>
      </trkpt>
      <trkpt lat="43.28824" lon="2.64192">
        <ele>71</ele>
        <time>2020-10-12T13:42:27.000Z</time>
      </trkpt>
      <trkpt lat="43.28813" lon="2.64205">
        <ele>71</ele>
        <time>2020-10-12T13:42:30.000Z</time>
      </trkpt>
      <trkpt lat="43.28793" lon="2.64225">
        <ele>70</ele>
        <time>2020-10-12T13:42:34.000Z</time>
      </trkpt>
      <trkpt lat="43.28763" lon="2.64259">
        <ele>70</ele>
        <time>2020-10-12T13:42:40.000Z</time>
      </trkpt>
      <trkpt lat="43.28753" lon="2.64268">
        <ele>69</ele>
        <time>2020-10-12T13:42:42.000Z</time>
      </trkpt>
      <trkpt lat="43.28749" lon="2.64272">
        <ele>69</ele>
        <time>2020-10-12T13:42:43.000Z</time>
      </trkpt>
      <trkpt lat="43.28736" lon="2.64279">
        <ele>69</ele>
        <time>2020-10-12T13:42:46.000Z</time>
      </trkpt>
      <trkpt lat="43.28728" lon="2.64279">
        <ele>68</ele>
        <time>2020-10-12T13:42:48.000Z</time>
      </trkpt>
      <trkpt lat="43.28702" lon="2.64275">
        <ele>68</ele>
        <time>2020-10-12T13:42:54.000Z</time>
      </trkpt>
      <trkpt lat="43.28653" lon="2.64264">
        <ele>66</ele>
        <time>2020-10-12T13:43:03.000Z</time>
      </trkpt>
      <trkpt lat="43.28641" lon="2.64263">
        <ele>66</ele>
        <time>2020-10-12T13:43:05.000Z</time>
      </trkpt>
      <trkpt lat="43.28619" lon="2.64257">
        <ele>65</ele>
        <time>2020-10-12T13:43:09.000Z</time>
      </trkpt>
      <trkpt lat="43.28593" lon="2.64249">
        <ele>64</ele>
        <time>2020-10-12T13:43:14.000Z</time>
      </trkpt>
      <trkpt lat="43.28582" lon="2.64248">
        <ele>64</ele>
        <time>2020-10-12T13:43:16.000Z</time>
      </trkpt>
      <trkpt lat="43.28578" lon="2.64251">
        <ele>64</ele>
        <time>2020-10-12T13:43:17.000Z</time>
      </trkpt>
      <trkpt lat="43.28571" lon="2.6426">
        <ele>63</ele>
        <time>2020-10-12T13:43:19.000Z</time>
      </trkpt>
      <trkpt lat="43.28554" lon="2.64275">
        <ele>62</ele>
        <time>2020-10-12T13:43:23.000Z</time>
      </trkpt>
      <trkpt lat="43.28467" lon="2.64344">
        <ele>59</ele>
        <time>2020-10-12T13:43:46.000Z</time>
      </trkpt>
      <trkpt lat="43.2845" lon="2.64355">
        <ele>58</ele>
        <time>2020-10-12T13:43:50.000Z</time>
      </trkpt>
      <trkpt lat="43.28433" lon="2.64362">
        <ele>58</ele>
        <time>2020-10-12T13:43:53.000Z</time>
      </trkpt>
      <trkpt lat="43.28424" lon="2.64365">
        <ele>57</ele>
        <time>2020-10-12T13:43:55.000Z</time>
      </trkpt>
      <trkpt lat="43.28407" lon="2.64373">
        <ele>57</ele>
        <time>2020-10-12T13:43:59.000Z</time>
      </trkpt>
      <trkpt lat="43.2837" lon="2.64401">
        <ele>55</ele>
        <time>2020-10-12T13:44:07.000Z</time>
      </trkpt>
      <trkpt lat="43.28354" lon="2.64414">
        <ele>55</ele>
        <time>2020-10-12T13:44:11.000Z</time>
      </trkpt>
      <trkpt lat="43.28336" lon="2.6443">
        <ele>54</ele>
        <time>2020-10-12T13:44:15.000Z</time>
      </trkpt>
      <trkpt lat="43.28316" lon="2.64448">
        <ele>54</ele>
        <time>2020-10-12T13:44:19.000Z</time>
      </trkpt>
      <trkpt lat="43.28306" lon="2.64459">
        <ele>53</ele>
        <time>2020-10-12T13:44:21.000Z</time>
      </trkpt>
      <trkpt lat="43.28282" lon="2.64486">
        <ele>53</ele>
        <time>2020-10-12T13:44:26.000Z</time>
      </trkpt>
      <trkpt lat="43.28266" lon="2.64507">
        <ele>52</ele>
        <time>2020-10-12T13:44:31.000Z</time>
      </trkpt>
      <trkpt lat="43.28229" lon="2.64558">
        <ele>51</ele>
        <time>2020-10-12T13:44:39.000Z</time>
      </trkpt>
      <trkpt lat="43.28151" lon="2.64674">
        <ele>49</ele>
        <time>2020-10-12T13:44:57.000Z</time>
      </trkpt>
      <trkpt lat="43.28097" lon="2.64751">
        <ele>47</ele>
        <time>2020-10-12T13:45:09.000Z</time>
      </trkpt>
      <trkpt lat="43.28037" lon="2.64839">
        <ele>46</ele>
        <time>2020-10-12T13:45:22.000Z</time>
      </trkpt>
      <trkpt lat="43.27999" lon="2.64895">
        <ele>45</ele>
        <time>2020-10-12T13:45:31.000Z</time>
      </trkpt>
      <trkpt lat="43.27982" lon="2.64918">
        <ele>44</ele>
        <time>2020-10-12T13:45:35.000Z</time>
      </trkpt>
      <trkpt lat="43.27955" lon="2.64957">
        <ele>44</ele>
        <time>2020-10-12T13:45:41.000Z</time>
      </trkpt>
      <trkpt lat="43.27947" lon="2.6497">
        <ele>44</ele>
        <time>2020-10-12T13:45:43.000Z</time>
      </trkpt>
      <trkpt lat="43.27936" lon="2.64989">
        <ele>43</ele>
        <time>2020-10-12T13:45:46.000Z</time>
      </trkpt>
      <trkpt lat="43.27918" lon="2.65024">
        <ele>43</ele>
        <time>2020-10-12T13:45:50.000Z</time>
      </trkpt>
      <trkpt lat="43.27914" lon="2.65033">
        <ele>43</ele>
        <time>2020-10-12T13:45:52.000Z</time>
      </trkpt>
      <trkpt lat="43.27901" lon="2.65065">
        <ele>42</ele>
        <time>2020-10-12T13:45:56.000Z</time>
      </trkpt>
      <trkpt lat="43.27892" lon="2.65089">
        <ele>42</ele>
        <time>2020-10-12T13:45:59.000Z</time>
      </trkpt>
      <trkpt lat="43.27884" lon="2.65112">
        <ele>42</ele>
        <time>2020-10-12T13:46:02.000Z</time>
      </trkpt>
      <trkpt lat="43.27866" lon="2.65165">
        <ele>41</ele>
        <time>2020-10-12T13:46:10.000Z</time>
      </trkpt>
      <trkpt lat="43.27857" lon="2.6519">
        <ele>41</ele>
        <time>2020-10-12T13:46:14.000Z</time>
      </trkpt>
      <trkpt lat="43.27828" lon="2.65276">
        <ele>40</ele>
        <time>2020-10-12T13:46:25.000Z</time>
      </trkpt>
      <trkpt lat="43.27816" lon="2.65307">
        <ele>39</ele>
        <time>2020-10-12T13:46:29.000Z</time>
      </trkpt>
      <trkpt lat="43.27798" lon="2.65346">
        <ele>39</ele>
        <time>2020-10-12T13:46:35.000Z</time>
      </trkpt>
      <trkpt lat="43.27759" lon="2.65424">
        <ele>38</ele>
        <time>2020-10-12T13:46:46.000Z</time>
      </trkpt>
      <trkpt lat="43.27744" lon="2.65456">
        <ele>37</ele>
        <time>2020-10-12T13:46:51.000Z</time>
      </trkpt>
      <trkpt lat="43.2774" lon="2.65461">
        <ele>37</ele>
        <time>2020-10-12T13:46:53.000Z</time>
      </trkpt>
      <trkpt lat="43.27738" lon="2.65463">
        <ele>37</ele>
        <time>2020-10-12T13:46:54.000Z</time>
      </trkpt>
      <trkpt lat="43.27734" lon="2.65467">
        <ele>36</ele>
        <time>2020-10-12T13:46:57.000Z</time>
      </trkpt>
      <trkpt lat="43.27729" lon="2.6547">
        <ele>36</ele>
        <time>2020-10-12T13:47:00.000Z</time>
      </trkpt>
      <trkpt lat="43.27728" lon="2.65472">
        <ele>36</ele>
        <time>2020-10-12T13:47:01.000Z</time>
      </trkpt>
      <trkpt lat="43.27731" lon="2.65476">
        <ele>36</ele>
        <time>2020-10-12T13:47:04.000Z</time>
      </trkpt>
      <trkpt lat="43.27734" lon="2.65481">
        <ele>36</ele>
        <time>2020-10-12T13:47:06.000Z</time>
      </trkpt>
      <trkpt lat="43.27735" lon="2.65491">
        <ele>35</ele>
        <time>2020-10-12T13:47:10.000Z</time>
      </trkpt>
      <trkpt lat="43.27732" lon="2.65502">
        <ele>35</ele>
        <time>2020-10-12T13:47:15.000Z</time>
      </trkpt>
      <trkpt lat="43.27732" lon="2.65505">
        <ele>35</ele>
        <time>2020-10-12T13:47:16.000Z</time>
      </trkpt>
      <trkpt lat="43.27735" lon="2.65533">
        <ele>34</ele>
        <time>2020-10-12T13:47:29.000Z</time>
      </trkpt>
      <trkpt lat="43.27735" lon="2.6555">
        <ele>34</ele>
        <time>2020-10-12T13:47:37.000Z</time>
      </trkpt>
      <trkpt lat="43.27739" lon="2.65576">
        <ele>35</ele>
        <time>2020-10-12T13:47:51.000Z</time>
      </trkpt>
      <trkpt lat="43.27733" lon="2.65599">
        <ele>35</ele>
        <time>2020-10-12T13:48:03.000Z</time>
      </trkpt>
      <trkpt lat="43.27731" lon="2.65614">
        <ele>35</ele>
        <time>2020-10-12T13:48:11.000Z</time>
      </trkpt>
      <trkpt lat="43.27731" lon="2.65627">
        <ele>36</ele>
        <time>2020-10-12T13:48:18.000Z</time>
      </trkpt>
      <trkpt lat="43.27726" lon="2.65647">
        <ele>37</ele>
        <time>2020-10-12T13:48:29.000Z</time>
      </trkpt>
      <trkpt lat="43.27722" lon="2.65656">
        <ele>37</ele>
        <time>2020-10-12T13:48:35.000Z</time>
      </trkpt>
      <trkpt lat="43.27714" lon="2.65682">
        <ele>38</ele>
        <time>2020-10-12T13:48:49.000Z</time>
      </trkpt>
      <trkpt lat="43.27709" lon="2.65695">
        <ele>39</ele>
        <time>2020-10-12T13:48:57.000Z</time>
      </trkpt>
      <trkpt lat="43.27708" lon="2.65698">
        <ele>39</ele>
        <time>2020-10-12T13:48:59.000Z</time>
      </trkpt>
      <trkpt lat="43.27705" lon="2.65706">
        <ele>40</ele>
        <time>2020-10-12T13:49:04.000Z</time>
      </trkpt>
      <trkpt lat="43.27701" lon="2.65714">
        <ele>40</ele>
        <time>2020-10-12T13:49:08.000Z</time>
      </trkpt>
      <trkpt lat="43.27699" lon="2.6573">
        <ele>41</ele>
        <time>2020-10-12T13:49:14.000Z</time>
      </trkpt>
      <trkpt lat="43.277" lon="2.65737">
        <ele>41</ele>
        <time>2020-10-12T13:49:16.000Z</time>
      </trkpt>
      <trkpt lat="43.27696" lon="2.65753">
        <ele>41</ele>
        <time>2020-10-12T13:49:21.000Z</time>
      </trkpt>
      <trkpt lat="43.27694" lon="2.65773">
        <ele>42</ele>
        <time>2020-10-12T13:49:26.000Z</time>
      </trkpt>
      <trkpt lat="43.27696" lon="2.65781">
        <ele>42</ele>
        <time>2020-10-12T13:49:28.000Z</time>
      </trkpt>
      <trkpt lat="43.27699" lon="2.65784">
        <ele>42</ele>
        <time>2020-10-12T13:49:30.000Z</time>
      </trkpt>
      <trkpt lat="43.27716" lon="2.65795">
        <ele>43</ele>
        <time>2020-10-12T13:49:37.000Z</time>
      </trkpt>
      <trkpt lat="43.27725" lon="2.658">
        <ele>43</ele>
        <time>2020-10-12T13:49:41.000Z</time>
      </trkpt>
      <trkpt lat="43.27733" lon="2.65806">
        <ele>44</ele>
        <time>2020-10-12T13:49:44.000Z</time>
      </trkpt>
      <trkpt lat="43.27739" lon="2.65813">
        <ele>44</ele>
        <time>2020-10-12T13:49:47.000Z</time>
      </trkpt>
      <trkpt lat="43.27759" lon="2.6584">
        <ele>45</ele>
        <time>2020-10-12T13:49:55.000Z</time>
      </trkpt>
      <trkpt lat="43.27763" lon="2.65848">
        <ele>45</ele>
        <time>2020-10-12T13:49:57.000Z</time>
      </trkpt>
      <trkpt lat="43.27772" lon="2.65871">
        <ele>45</ele>
        <time>2020-10-12T13:50:03.000Z</time>
      </trkpt>
      <trkpt lat="43.27778" lon="2.65882">
        <ele>45</ele>
        <time>2020-10-12T13:50:06.000Z</time>
      </trkpt>
      <trkpt lat="43.27783" lon="2.659">
        <ele>46</ele>
        <time>2020-10-12T13:50:10.000Z</time>
      </trkpt>
      <trkpt lat="43.27785" lon="2.65909">
        <ele>46</ele>
        <time>2020-10-12T13:50:12.000Z</time>
      </trkpt>
      <trkpt lat="43.27788" lon="2.65941">
        <ele>46</ele>
        <time>2020-10-12T13:50:18.000Z</time>
      </trkpt>
      <trkpt lat="43.27789" lon="2.65981">
        <ele>47</ele>
        <time>2020-10-12T13:50:26.000Z</time>
      </trkpt>
      <trkpt lat="43.27792" lon="2.66003">
        <ele>47</ele>
        <time>2020-10-12T13:50:31.000Z</time>
      </trkpt>
      <trkpt lat="43.27793" lon="2.66008">
        <ele>47</ele>
        <time>2020-10-12T13:50:32.000Z</time>
      </trkpt>
      <trkpt lat="43.27793" lon="2.6602">
        <ele>47</ele>
        <time>2020-10-12T13:50:34.000Z</time>
      </trkpt>
      <trkpt lat="43.27791" lon="2.66045">
        <ele>48</ele>
        <time>2020-10-12T13:50:38.000Z</time>
      </trkpt>
      <trkpt lat="43.27791" lon="2.66057">
        <ele>48</ele>
        <time>2020-10-12T13:50:40.000Z</time>
      </trkpt>
      <trkpt lat="43.27793" lon="2.6607">
        <ele>48</ele>
        <time>2020-10-12T13:50:42.000Z</time>
      </trkpt>
      <trkpt lat="43.27799" lon="2.6608">
        <ele>48</ele>
        <time>2020-10-12T13:50:44.000Z</time>
      </trkpt>
      <trkpt lat="43.27807" lon="2.66085">
        <ele>48</ele>
        <time>2020-10-12T13:50:46.000Z</time>
      </trkpt>
      <trkpt lat="43.27821" lon="2.66086">
        <ele>48</ele>
        <time>2020-10-12T13:50:49.000Z</time>
      </trkpt>
      <trkpt lat="43.27855" lon="2.6608">
        <ele>49</ele>
        <time>2020-10-12T13:50:56.000Z</time>
      </trkpt>
      <trkpt lat="43.27882" lon="2.66077">
        <ele>49</ele>
        <time>2020-10-12T13:51:01.000Z</time>
      </trkpt>
      <trkpt lat="43.27897" lon="2.66078">
        <ele>49</ele>
        <time>2020-10-12T13:51:04.000Z</time>
      </trkpt>
      <trkpt lat="43.27906" lon="2.66079">
        <ele>49</ele>
        <time>2020-10-12T13:51:06.000Z</time>
      </trkpt>
      <trkpt lat="43.27916" lon="2.66081">
        <ele>49</ele>
        <time>2020-10-12T13:51:08.000Z</time>
      </trkpt>
      <trkpt lat="43.27936" lon="2.6609">
        <ele>49</ele>
        <time>2020-10-12T13:51:12.000Z</time>
      </trkpt>
      <trkpt lat="43.27946" lon="2.66091">
        <ele>49</ele>
        <time>2020-10-12T13:51:14.000Z</time>
      </trkpt>
      <trkpt lat="43.27961" lon="2.66091">
        <ele>49</ele>
        <time>2020-10-12T13:51:17.000Z</time>
      </trkpt>
      <trkpt lat="43.27983" lon="2.66092">
        <ele>49</ele>
        <time>2020-10-12T13:51:21.000Z</time>
      </trkpt>
      <trkpt lat="43.28019" lon="2.66091">
        <ele>49</ele>
        <time>2020-10-12T13:51:28.000Z</time>
      </trkpt>
      <trkpt lat="43.28043" lon="2.66084">
        <ele>49</ele>
        <time>2020-10-12T13:51:35.000Z</time>
      </trkpt>
      <trkpt lat="43.28044" lon="2.66083">
        <ele>49</ele>
        <time>2020-10-12T13:51:37.000Z</time>
      </trkpt>
      <trkpt lat="43.28031" lon="2.66082">
        <ele>88</ele>
        <time>2020-10-11T11:14:58.000Z</time>
      </trkpt>
    </trkseg>
  </trk>
</gpx>